<?xml version='1.0' encoding='UTF-8'?><gpx version="1.1" creator="JPX - https://github.com/jenetics/jpx" xmlns="http://www.topografix.com/GPX/1/1"><trk><trkseg><trkpt lat="43.3760283" lon="11.787885"><ele>271.99999999999994</ele><time>2026-05-02T08:27:39.531Z</time></trkpt><trkpt lat="43.3760883" lon="11.787835"><ele>272.0</ele><time>2026-05-02T08:27:47.535Z</time></trkpt><trkpt lat="43.3760167" lon="11.787795"><ele>272.0</ele><time>2026-05-02T08:27:54.533Z</time></trkpt><trkpt lat="43.3759467" lon="11.78776"><ele>272.0</ele><time>2026-05-02T08:27:59.531Z</time></trkpt><trkpt lat="43.3758783" lon="11.7877433"><ele>272.0</ele><time>2026-05-02T08:28:08.532Z</time></trkpt><trkpt lat="43.3758083" lon="11.787755"><ele>271.99999999999994</ele><time>2026-05-02T08:28:15.534Z</time></trkpt><trkpt lat="43.3757433" lon="11.7877333"><ele>272.0</ele><time>2026-05-02T08:28:22.536Z</time></trkpt><trkpt lat="43.3756867" lon="11.7876917"><ele>272.1428571428571</ele><time>2026-05-02T08:28:28.531Z</time></trkpt><trkpt lat="43.375625" lon="11.7876567"><ele>272.2857142857143</ele><time>2026-05-02T08:28:34.531Z</time></trkpt><trkpt lat="43.37557" lon="11.7876017"><ele>272.42857142857144</ele><time>2026-05-02T08:28:40.531Z</time></trkpt><trkpt lat="43.3755" lon="11.7875733"><ele>272.57142857142856</ele><time>2026-05-02T08:28:54.535Z</time></trkpt><trkpt lat="43.3754567" lon="11.7874933"><ele>272.7142857142857</ele><time>2026-05-02T08:29:00.533Z</time></trkpt><trkpt lat="43.3754517" lon="11.7873917"><ele>272.85714285714283</ele><time>2026-05-02T08:29:04.531Z</time></trkpt><trkpt lat="43.375455" lon="11.7872933"><ele>273.0</ele><time>2026-05-02T08:29:07.532Z</time></trkpt><trkpt lat="43.3754467" lon="11.787185"><ele>273.2857142857143</ele><time>2026-05-02T08:29:10.531Z</time></trkpt><trkpt lat="43.3754433" lon="11.78709"><ele>273.57142857142856</ele><time>2026-05-02T08:29:13.531Z</time></trkpt><trkpt lat="43.37544" lon="11.7869983"><ele>273.8571428571429</ele><time>2026-05-02T08:29:16.531Z</time></trkpt><trkpt lat="43.3754267" lon="11.7869067"><ele>274.1428571428571</ele><time>2026-05-02T08:29:20.533Z</time></trkpt><trkpt lat="43.3754217" lon="11.7868067"><ele>274.42857142857144</ele><time>2026-05-02T08:29:25.531Z</time></trkpt><trkpt lat="43.3754133" lon="11.786715"><ele>274.7142857142857</ele><time>2026-05-02T08:29:30.532Z</time></trkpt><trkpt lat="43.37535" lon="11.7866633"><ele>275.0</ele><time>2026-05-02T08:29:36.535Z</time></trkpt><trkpt lat="43.3752767" lon="11.7867083"><ele>275.0</ele><time>2026-05-02T08:29:41.532Z</time></trkpt><trkpt lat="43.3752167" lon="11.78677"><ele>275.0</ele><time>2026-05-02T08:29:45.532Z</time></trkpt><trkpt lat="43.375155" lon="11.78683"><ele>275.0</ele><time>2026-05-02T08:29:48.532Z</time></trkpt><trkpt lat="43.3750917" lon="11.78691"><ele>275.0</ele><time>2026-05-02T08:29:51.535Z</time></trkpt><trkpt lat="43.3750233" lon="11.7869867"><ele>275.0</ele><time>2026-05-02T08:29:54.532Z</time></trkpt><trkpt lat="43.3749533" lon="11.7870567"><ele>275.0</ele><time>2026-05-02T08:29:57.533Z</time></trkpt><trkpt lat="43.3748833" lon="11.7871283"><ele>275.0</ele><time>2026-05-02T08:30:00.532Z</time></trkpt><trkpt lat="43.374805" lon="11.7871817"><ele>275.0</ele><time>2026-05-02T08:30:03.534Z</time></trkpt><trkpt lat="43.374715" lon="11.7872217"><ele>275.0</ele><time>2026-05-02T08:30:06.532Z</time></trkpt><trkpt lat="43.3746417" lon="11.7872433"><ele>275.0</ele><time>2026-05-02T08:30:08.535Z</time></trkpt><trkpt lat="43.3745783" lon="11.7872533"><ele>275.0</ele><time>2026-05-02T08:30:10.533Z</time></trkpt><trkpt lat="43.37451" lon="11.7872533"><ele>275.0</ele><time>2026-05-02T08:30:12.529Z</time></trkpt><trkpt lat="43.3744367" lon="11.7872533"><ele>275.1666666666667</ele><time>2026-05-02T08:30:14.535Z</time></trkpt><trkpt lat="43.3743567" lon="11.7872483"><ele>275.33333333333337</ele><time>2026-05-02T08:30:16.532Z</time></trkpt><trkpt lat="43.3742667" lon="11.7872467"><ele>275.5</ele><time>2026-05-02T08:30:18.533Z</time></trkpt><trkpt lat="43.3741933" lon="11.7872417"><ele>275.6666666666667</ele><time>2026-05-02T08:30:20.532Z</time></trkpt><trkpt lat="43.37408" lon="11.7872433"><ele>275.8333333333333</ele><time>2026-05-02T08:30:23.533Z</time></trkpt><trkpt lat="43.3740083" lon="11.7872333"><ele>276.0</ele><time>2026-05-02T08:30:25.532Z</time></trkpt><trkpt lat="43.37394" lon="11.7872117"><ele>276.0</ele><time>2026-05-02T08:30:27.532Z</time></trkpt><trkpt lat="43.3738683" lon="11.787195"><ele>276.0</ele><time>2026-05-02T08:30:29.531Z</time></trkpt><trkpt lat="43.3737967" lon="11.7871833"><ele>276.0</ele><time>2026-05-02T08:30:31.532Z</time></trkpt><trkpt lat="43.3737283" lon="11.7871717"><ele>276.0</ele><time>2026-05-02T08:30:33.533Z</time></trkpt><trkpt lat="43.3736333" lon="11.787165"><ele>276.0</ele><time>2026-05-02T08:30:35.534Z</time></trkpt><trkpt lat="43.373555" lon="11.787155"><ele>276.0</ele><time>2026-05-02T08:30:37.532Z</time></trkpt><trkpt lat="43.3734683" lon="11.7871467"><ele>276.0</ele><time>2026-05-02T08:30:39.532Z</time></trkpt><trkpt lat="43.3733933" lon="11.7871367"><ele>276.0</ele><time>2026-05-02T08:30:41.531Z</time></trkpt><trkpt lat="43.373315" lon="11.787125"><ele>276.0</ele><time>2026-05-02T08:30:43.533Z</time></trkpt><trkpt lat="43.3732417" lon="11.78711"><ele>276.0</ele><time>2026-05-02T08:30:45.535Z</time></trkpt><trkpt lat="43.3731733" lon="11.787095"><ele>276.0</ele><time>2026-05-02T08:30:47.533Z</time></trkpt><trkpt lat="43.3730817" lon="11.7870967"><ele>276.0</ele><time>2026-05-02T08:30:49.533Z</time></trkpt><trkpt lat="43.3729883" lon="11.7871"><ele>276.0</ele><time>2026-05-02T08:30:51.531Z</time></trkpt><trkpt lat="43.3729233" lon="11.7870783"><ele>276.0</ele><time>2026-05-02T08:30:53.533Z</time></trkpt><trkpt lat="43.372855" lon="11.7870617"><ele>276.0</ele><time>2026-05-02T08:30:55.535Z</time></trkpt><trkpt lat="43.3727883" lon="11.78705"><ele>276.0</ele><time>2026-05-02T08:30:57.533Z</time></trkpt><trkpt lat="43.372715" lon="11.787035"><ele>276.0</ele><time>2026-05-02T08:30:59.531Z</time></trkpt><trkpt lat="43.3726467" lon="11.7870233"><ele>276.0</ele><time>2026-05-02T08:31:01.533Z</time></trkpt><trkpt lat="43.3725767" lon="11.78701"><ele>276.0</ele><time>2026-05-02T08:31:03.533Z</time></trkpt><trkpt lat="43.3724983" lon="11.7870067"><ele>276.0</ele><time>2026-05-02T08:31:05.534Z</time></trkpt><trkpt lat="43.37242" lon="11.7870033"><ele>276.0</ele><time>2026-05-02T08:31:07.534Z</time></trkpt><trkpt lat="43.3723367" lon="11.786995"><ele>276.0</ele><time>2026-05-02T08:31:09.532Z</time></trkpt><trkpt lat="43.3722483" lon="11.7869867"><ele>276.0</ele><time>2026-05-02T08:31:11.532Z</time></trkpt><trkpt lat="43.3721667" lon="11.78697"><ele>276.0</ele><time>2026-05-02T08:31:13.533Z</time></trkpt><trkpt lat="43.37209" lon="11.7869633"><ele>276.0</ele><time>2026-05-02T08:31:15.534Z</time></trkpt><trkpt lat="43.372015" lon="11.7869517"><ele>276.2857142857143</ele><time>2026-05-02T08:31:17.534Z</time></trkpt><trkpt lat="43.3719367" lon="11.7869433"><ele>276.5714285714286</ele><time>2026-05-02T08:31:19.532Z</time></trkpt><trkpt lat="43.3718633" lon="11.78694"><ele>276.8571428571429</ele><time>2026-05-02T08:31:21.531Z</time></trkpt><trkpt lat="43.3717883" lon="11.7869367"><ele>277.14285714285717</ele><time>2026-05-02T08:31:23.533Z</time></trkpt><trkpt lat="43.371715" lon="11.786925"><ele>277.42857142857144</ele><time>2026-05-02T08:31:25.532Z</time></trkpt><trkpt lat="43.3716467" lon="11.786905"><ele>277.7142857142857</ele><time>2026-05-02T08:31:27.532Z</time></trkpt><trkpt lat="43.371575" lon="11.7868917"><ele>278.0</ele><time>2026-05-02T08:31:29.531Z</time></trkpt><trkpt lat="43.3714883" lon="11.7868767"><ele>278.0</ele><time>2026-05-02T08:31:31.533Z</time></trkpt><trkpt lat="43.3714117" lon="11.7868667"><ele>278.0</ele><time>2026-05-02T08:31:33.533Z</time></trkpt><trkpt lat="43.3713333" lon="11.78685"><ele>278.0</ele><time>2026-05-02T08:31:35.535Z</time></trkpt><trkpt lat="43.3712567" lon="11.7868417"><ele>278.0</ele><time>2026-05-02T08:31:37.532Z</time></trkpt><trkpt lat="43.37118" lon="11.7868267"><ele>278.0</ele><time>2026-05-02T08:31:39.532Z</time></trkpt><trkpt lat="43.3711083" lon="11.7868233"><ele>278.0</ele><time>2026-05-02T08:31:41.533Z</time></trkpt><trkpt lat="43.37104" lon="11.7868217"><ele>277.85714285714283</ele><time>2026-05-02T08:31:43.534Z</time></trkpt><trkpt lat="43.3709717" lon="11.78682"><ele>277.7142857142857</ele><time>2026-05-02T08:31:45.535Z</time></trkpt><trkpt lat="43.3709" lon="11.786815"><ele>277.57142857142856</ele><time>2026-05-02T08:31:47.533Z</time></trkpt><trkpt lat="43.3708233" lon="11.7868117"><ele>277.42857142857144</ele><time>2026-05-02T08:31:49.534Z</time></trkpt><trkpt lat="43.3707433" lon="11.7867783"><ele>277.2857142857143</ele><time>2026-05-02T08:31:51.535Z</time></trkpt><trkpt lat="43.3706767" lon="11.78675"><ele>277.1428571428571</ele><time>2026-05-02T08:31:53.532Z</time></trkpt><trkpt lat="43.3706083" lon="11.7867167"><ele>277.0</ele><time>2026-05-02T08:31:55.532Z</time></trkpt><trkpt lat="43.370535" lon="11.7866817"><ele>277.16666666666663</ele><time>2026-05-02T08:31:57.535Z</time></trkpt><trkpt lat="43.370465" lon="11.786645"><ele>277.3333333333333</ele><time>2026-05-02T08:31:59.532Z</time></trkpt><trkpt lat="43.3703933" lon="11.7866067"><ele>277.5</ele><time>2026-05-02T08:32:01.531Z</time></trkpt><trkpt lat="43.3703217" lon="11.78657"><ele>277.6666666666667</ele><time>2026-05-02T08:32:03.532Z</time></trkpt><trkpt lat="43.3702467" lon="11.7865317"><ele>277.83333333333337</ele><time>2026-05-02T08:32:05.532Z</time></trkpt><trkpt lat="43.37017" lon="11.7864933"><ele>278.0</ele><time>2026-05-02T08:32:07.535Z</time></trkpt><trkpt lat="43.37009" lon="11.7864567"><ele>278.0</ele><time>2026-05-02T08:32:09.534Z</time></trkpt><trkpt lat="43.3700083" lon="11.786425"><ele>278.0</ele><time>2026-05-02T08:32:11.535Z</time></trkpt><trkpt lat="43.3699233" lon="11.786395"><ele>278.0</ele><time>2026-05-02T08:32:13.534Z</time></trkpt><trkpt lat="43.36984" lon="11.7863633"><ele>278.0</ele><time>2026-05-02T08:32:15.536Z</time></trkpt><trkpt lat="43.3697567" lon="11.786335"><ele>278.0</ele><time>2026-05-02T08:32:17.532Z</time></trkpt><trkpt lat="43.369665" lon="11.7863183"><ele>278.0</ele><time>2026-05-02T08:32:19.532Z</time></trkpt><trkpt lat="43.3695767" lon="11.7862933"><ele>277.83333333333337</ele><time>2026-05-02T08:32:21.534Z</time></trkpt><trkpt lat="43.36949" lon="11.7862767"><ele>277.6666666666667</ele><time>2026-05-02T08:32:23.533Z</time></trkpt><trkpt lat="43.3694067" lon="11.7862583"><ele>277.5</ele><time>2026-05-02T08:32:25.532Z</time></trkpt><trkpt lat="43.3693217" lon="11.78624"><ele>277.3333333333333</ele><time>2026-05-02T08:32:27.534Z</time></trkpt><trkpt lat="43.3692383" lon="11.78622"><ele>277.16666666666663</ele><time>2026-05-02T08:32:29.532Z</time></trkpt><trkpt lat="43.3691467" lon="11.7861983"><ele>277.0</ele><time>2026-05-02T08:32:31.536Z</time></trkpt><trkpt lat="43.369055" lon="11.7861817"><ele>277.0</ele><time>2026-05-02T08:32:33.535Z</time></trkpt><trkpt lat="43.36895" lon="11.7861633"><ele>277.0</ele><time>2026-05-02T08:32:35.533Z</time></trkpt><trkpt lat="43.3688717" lon="11.7861433"><ele>277.0</ele><time>2026-05-02T08:32:37.532Z</time></trkpt><trkpt lat="43.3687883" lon="11.7861283"><ele>277.0</ele><time>2026-05-02T08:32:39.531Z</time></trkpt><trkpt lat="43.3687033" lon="11.7861183"><ele>277.0</ele><time>2026-05-02T08:32:41.532Z</time></trkpt><trkpt lat="43.368605" lon="11.7861083"><ele>277.0</ele><time>2026-05-02T08:32:43.534Z</time></trkpt><trkpt lat="43.3685133" lon="11.786085"><ele>277.0</ele><time>2026-05-02T08:32:45.53Z</time></trkpt><trkpt lat="43.3684317" lon="11.7860617"><ele>277.0</ele><time>2026-05-02T08:32:47.534Z</time></trkpt><trkpt lat="43.3683417" lon="11.786035"><ele>277.0</ele><time>2026-05-02T08:32:49.533Z</time></trkpt><trkpt lat="43.3682583" lon="11.78601"><ele>277.0</ele><time>2026-05-02T08:32:51.534Z</time></trkpt><trkpt lat="43.36818" lon="11.7859867"><ele>277.0</ele><time>2026-05-02T08:32:53.532Z</time></trkpt><trkpt lat="43.3681067" lon="11.7859783"><ele>277.2</ele><time>2026-05-02T08:32:55.531Z</time></trkpt><trkpt lat="43.3680217" lon="11.7859717"><ele>277.4</ele><time>2026-05-02T08:32:57.534Z</time></trkpt><trkpt lat="43.3679367" lon="11.7859517"><ele>277.6</ele><time>2026-05-02T08:32:59.536Z</time></trkpt><trkpt lat="43.367845" lon="11.7859367"><ele>277.8</ele><time>2026-05-02T08:33:01.533Z</time></trkpt><trkpt lat="43.3677567" lon="11.7859133"><ele>278.0</ele><time>2026-05-02T08:33:03.534Z</time></trkpt><trkpt lat="43.367655" lon="11.785895"><ele>278.0</ele><time>2026-05-02T08:33:05.534Z</time></trkpt><trkpt lat="43.36757" lon="11.78586"><ele>278.0</ele><time>2026-05-02T08:33:07.534Z</time></trkpt><trkpt lat="43.3674867" lon="11.7858233"><ele>278.0</ele><time>2026-05-02T08:33:09.533Z</time></trkpt><trkpt lat="43.3674067" lon="11.7857883"><ele>278.0</ele><time>2026-05-02T08:33:11.534Z</time></trkpt><trkpt lat="43.3673283" lon="11.78575"><ele>278.0</ele><time>2026-05-02T08:33:13.533Z</time></trkpt><trkpt lat="43.3672433" lon="11.785705"><ele>278.0</ele><time>2026-05-02T08:33:15.532Z</time></trkpt><trkpt lat="43.3671517" lon="11.785665"><ele>278.33333333333337</ele><time>2026-05-02T08:33:17.534Z</time></trkpt><trkpt lat="43.3670667" lon="11.7856317"><ele>278.6666666666667</ele><time>2026-05-02T08:33:19.53Z</time></trkpt><trkpt lat="43.3669733" lon="11.7855933"><ele>279.0</ele><time>2026-05-02T08:33:21.533Z</time></trkpt><trkpt lat="43.366895" lon="11.7855583"><ele>279.3333333333333</ele><time>2026-05-02T08:33:23.532Z</time></trkpt><trkpt lat="43.3668033" lon="11.7855183"><ele>279.66666666666663</ele><time>2026-05-02T08:33:25.532Z</time></trkpt><trkpt lat="43.3667283" lon="11.78548"><ele>280.0</ele><time>2026-05-02T08:33:27.533Z</time></trkpt><trkpt lat="43.3666517" lon="11.7854467"><ele>280.0</ele><time>2026-05-02T08:33:29.531Z</time></trkpt><trkpt lat="43.366575" lon="11.7854117"><ele>280.0</ele><time>2026-05-02T08:33:31.533Z</time></trkpt><trkpt lat="43.366495" lon="11.7853867"><ele>280.0</ele><time>2026-05-02T08:33:33.532Z</time></trkpt><trkpt lat="43.3664117" lon="11.7853633"><ele>280.0</ele><time>2026-05-02T08:33:35.534Z</time></trkpt><trkpt lat="43.3663333" lon="11.78534"><ele>280.0</ele><time>2026-05-02T08:33:37.538Z</time></trkpt><trkpt lat="43.3662533" lon="11.78532"><ele>280.0</ele><time>2026-05-02T08:33:39.53Z</time></trkpt><trkpt lat="43.3661733" lon="11.7853067"><ele>279.8333333333333</ele><time>2026-05-02T08:33:41.534Z</time></trkpt><trkpt lat="43.3660867" lon="11.785305"><ele>279.66666666666663</ele><time>2026-05-02T08:33:43.531Z</time></trkpt><trkpt lat="43.36601" lon="11.7853017"><ele>279.5</ele><time>2026-05-02T08:33:45.532Z</time></trkpt><trkpt lat="43.365935" lon="11.7853033"><ele>279.3333333333333</ele><time>2026-05-02T08:33:47.531Z</time></trkpt><trkpt lat="43.3658517" lon="11.78532"><ele>279.1666666666667</ele><time>2026-05-02T08:33:49.535Z</time></trkpt><trkpt lat="43.3657617" lon="11.785315"><ele>279.0</ele><time>2026-05-02T08:33:51.534Z</time></trkpt><trkpt lat="43.3656683" lon="11.7853133"><ele>279.0</ele><time>2026-05-02T08:33:53.532Z</time></trkpt><trkpt lat="43.3655633" lon="11.78531"><ele>279.0</ele><time>2026-05-02T08:33:55.531Z</time></trkpt><trkpt lat="43.3654683" lon="11.7853167"><ele>279.0</ele><time>2026-05-02T08:33:57.533Z</time></trkpt><trkpt lat="43.3653717" lon="11.78533"><ele>279.0</ele><time>2026-05-02T08:33:59.531Z</time></trkpt><trkpt lat="43.3652683" lon="11.78535"><ele>279.0</ele><time>2026-05-02T08:34:01.532Z</time></trkpt><trkpt lat="43.3651583" lon="11.7853683"><ele>278.5</ele><time>2026-05-02T08:34:03.531Z</time></trkpt><trkpt lat="43.3650433" lon="11.7853967"><ele>278.0</ele><time>2026-05-02T08:34:05.534Z</time></trkpt><trkpt lat="43.3649283" lon="11.7854167"><ele>277.5</ele><time>2026-05-02T08:34:07.536Z</time></trkpt><trkpt lat="43.364815" lon="11.7854233"><ele>277.0</ele><time>2026-05-02T08:34:09.535Z</time></trkpt><trkpt lat="43.3647017" lon="11.7854017"><ele>277.4</ele><time>2026-05-02T08:34:11.531Z</time></trkpt><trkpt lat="43.3645933" lon="11.78538"><ele>277.79999999999995</ele><time>2026-05-02T08:34:13.532Z</time></trkpt><trkpt lat="43.3644817" lon="11.7853333"><ele>278.2</ele><time>2026-05-02T08:34:15.531Z</time></trkpt><trkpt lat="43.3644233" lon="11.7852933"><ele>278.59999999999997</ele><time>2026-05-02T08:34:16.533Z</time></trkpt><trkpt lat="43.3643283" lon="11.7852367"><ele>279.0</ele><time>2026-05-02T08:34:18.53Z</time></trkpt><trkpt lat="43.36424" lon="11.785185"><ele>279.1666666666667</ele><time>2026-05-02T08:34:20.533Z</time></trkpt><trkpt lat="43.3641617" lon="11.7851283"><ele>279.3333333333333</ele><time>2026-05-02T08:34:22.546Z</time></trkpt><trkpt lat="43.36409" lon="11.7850783"><ele>279.5</ele><time>2026-05-02T08:34:24.535Z</time></trkpt><trkpt lat="43.364025" lon="11.78503"><ele>279.66666666666663</ele><time>2026-05-02T08:34:26.535Z</time></trkpt><trkpt lat="43.3639583" lon="11.7849883"><ele>279.8333333333333</ele><time>2026-05-02T08:34:28.531Z</time></trkpt><trkpt lat="43.3638967" lon="11.7849483"><ele>280.0</ele><time>2026-05-02T08:34:30.531Z</time></trkpt><trkpt lat="43.3638367" lon="11.784905"><ele>280.14285714285717</ele><time>2026-05-02T08:34:32.536Z</time></trkpt><trkpt lat="43.3637783" lon="11.78487"><ele>280.2857142857143</ele><time>2026-05-02T08:34:34.533Z</time></trkpt><trkpt lat="43.3637117" lon="11.7848383"><ele>280.42857142857144</ele><time>2026-05-02T08:34:36.531Z</time></trkpt><trkpt lat="43.3636467" lon="11.7848083"><ele>280.57142857142856</ele><time>2026-05-02T08:34:38.53Z</time></trkpt><trkpt lat="43.3635833" lon="11.7847783"><ele>280.7142857142857</ele><time>2026-05-02T08:34:40.534Z</time></trkpt><trkpt lat="43.363515" lon="11.7847483"><ele>280.8571428571429</ele><time>2026-05-02T08:34:42.531Z</time></trkpt><trkpt lat="43.3634467" lon="11.784715"><ele>281.0</ele><time>2026-05-02T08:34:44.538Z</time></trkpt><trkpt lat="43.3633733" lon="11.7846833"><ele>281.0</ele><time>2026-05-02T08:34:46.535Z</time></trkpt><trkpt lat="43.3633083" lon="11.7846517"><ele>281.0</ele><time>2026-05-02T08:34:48.537Z</time></trkpt><trkpt lat="43.3632383" lon="11.7846233"><ele>281.0</ele><time>2026-05-02T08:34:50.532Z</time></trkpt><trkpt lat="43.36315" lon="11.7846067"><ele>281.0</ele><time>2026-05-02T08:34:52.531Z</time></trkpt><trkpt lat="43.3630767" lon="11.784575"><ele>281.0</ele><time>2026-05-02T08:34:54.531Z</time></trkpt><trkpt lat="43.3630067" lon="11.784545"><ele>281.0</ele><time>2026-05-02T08:34:56.531Z</time></trkpt><trkpt lat="43.3629367" lon="11.7845167"><ele>281.28571428571433</ele><time>2026-05-02T08:34:58.531Z</time></trkpt><trkpt lat="43.3628667" lon="11.78449"><ele>281.57142857142856</ele><time>2026-05-02T08:35:00.532Z</time></trkpt><trkpt lat="43.3627983" lon="11.78446"><ele>281.8571428571429</ele><time>2026-05-02T08:35:02.536Z</time></trkpt><trkpt lat="43.3627283" lon="11.78443"><ele>282.14285714285717</ele><time>2026-05-02T08:35:04.53Z</time></trkpt><trkpt lat="43.36266" lon="11.7844067"><ele>282.42857142857144</ele><time>2026-05-02T08:35:06.534Z</time></trkpt><trkpt lat="43.36259" lon="11.78438"><ele>282.7142857142857</ele><time>2026-05-02T08:35:08.532Z</time></trkpt><trkpt lat="43.3625117" lon="11.7843617"><ele>283.0</ele><time>2026-05-02T08:35:10.53Z</time></trkpt><trkpt lat="43.3624367" lon="11.784335"><ele>283.0</ele><time>2026-05-02T08:35:12.534Z</time></trkpt><trkpt lat="43.3623433" lon="11.784295"><ele>283.0</ele><time>2026-05-02T08:35:15.53Z</time></trkpt><trkpt lat="43.3622817" lon="11.7842717"><ele>283.0</ele><time>2026-05-02T08:35:17.533Z</time></trkpt><trkpt lat="43.3622083" lon="11.7842433"><ele>283.0</ele><time>2026-05-02T08:35:19.534Z</time></trkpt><trkpt lat="43.362135" lon="11.784215"><ele>283.0</ele><time>2026-05-02T08:35:21.535Z</time></trkpt><trkpt lat="43.3620583" lon="11.78419"><ele>283.0</ele><time>2026-05-02T08:35:23.536Z</time></trkpt><trkpt lat="43.361985" lon="11.7841667"><ele>283.0</ele><time>2026-05-02T08:35:25.533Z</time></trkpt><trkpt lat="43.3619067" lon="11.78415"><ele>283.0</ele><time>2026-05-02T08:35:27.534Z</time></trkpt><trkpt lat="43.3618283" lon="11.7841383"><ele>283.0</ele><time>2026-05-02T08:35:29.535Z</time></trkpt><trkpt lat="43.3617517" lon="11.784135"><ele>283.0</ele><time>2026-05-02T08:35:31.532Z</time></trkpt><trkpt lat="43.3616767" lon="11.7841383"><ele>283.0</ele><time>2026-05-02T08:35:33.532Z</time></trkpt><trkpt lat="43.3616017" lon="11.7841533"><ele>283.0</ele><time>2026-05-02T08:35:35.533Z</time></trkpt><trkpt lat="43.361525" lon="11.7841633"><ele>283.0</ele><time>2026-05-02T08:35:37.535Z</time></trkpt><trkpt lat="43.3614483" lon="11.784175"><ele>283.0</ele><time>2026-05-02T08:35:39.534Z</time></trkpt><trkpt lat="43.361375" lon="11.7841917"><ele>283.0</ele><time>2026-05-02T08:35:41.533Z</time></trkpt><trkpt lat="43.361305" lon="11.7842133"><ele>283.0</ele><time>2026-05-02T08:35:43.534Z</time></trkpt><trkpt lat="43.36123" lon="11.784235"><ele>283.0</ele><time>2026-05-02T08:35:45.533Z</time></trkpt><trkpt lat="43.3611583" lon="11.784245"><ele>283.0</ele><time>2026-05-02T08:35:47.532Z</time></trkpt><trkpt lat="43.3610833" lon="11.7842383"><ele>283.0</ele><time>2026-05-02T08:35:49.534Z</time></trkpt><trkpt lat="43.361005" lon="11.7842017"><ele>283.3333333333333</ele><time>2026-05-02T08:35:51.535Z</time></trkpt><trkpt lat="43.3609367" lon="11.7841267"><ele>283.66666666666663</ele><time>2026-05-02T08:35:53.534Z</time></trkpt><trkpt lat="43.3608817" lon="11.784035"><ele>284.0</ele><time>2026-05-02T08:35:55.535Z</time></trkpt><trkpt lat="43.360825" lon="11.783955"><ele>284.3333333333333</ele><time>2026-05-02T08:35:57.534Z</time></trkpt><trkpt lat="43.3607683" lon="11.78386"><ele>284.6666666666667</ele><time>2026-05-02T08:35:59.533Z</time></trkpt><trkpt lat="43.3607067" lon="11.7837617"><ele>285.0</ele><time>2026-05-02T08:36:01.532Z</time></trkpt><trkpt lat="43.3606533" lon="11.7836817"><ele>285.0</ele><time>2026-05-02T08:36:03.533Z</time></trkpt><trkpt lat="43.3606" lon="11.7835883"><ele>285.0</ele><time>2026-05-02T08:36:05.533Z</time></trkpt><trkpt lat="43.3605467" lon="11.783485"><ele>285.0</ele><time>2026-05-02T08:36:07.534Z</time></trkpt><trkpt lat="43.3604883" lon="11.7833917"><ele>285.0</ele><time>2026-05-02T08:36:09.531Z</time></trkpt><trkpt lat="43.360425" lon="11.783305"><ele>285.0</ele><time>2026-05-02T08:36:11.534Z</time></trkpt><trkpt lat="43.3603667" lon="11.7832167"><ele>285.0</ele><time>2026-05-02T08:36:13.53Z</time></trkpt><trkpt lat="43.3603133" lon="11.7831233"><ele>285.0</ele><time>2026-05-02T08:36:15.533Z</time></trkpt><trkpt lat="43.3602583" lon="11.7830333"><ele>285.0</ele><time>2026-05-02T08:36:17.532Z</time></trkpt><trkpt lat="43.3601933" lon="11.7829533"><ele>285.0</ele><time>2026-05-02T08:36:19.531Z</time></trkpt><trkpt lat="43.3601267" lon="11.7828767"><ele>285.0</ele><time>2026-05-02T08:36:21.53Z</time></trkpt><trkpt lat="43.3600567" lon="11.7828067"><ele>285.0</ele><time>2026-05-02T08:36:23.534Z</time></trkpt><trkpt lat="43.359975" lon="11.7827383"><ele>285.0</ele><time>2026-05-02T08:36:25.532Z</time></trkpt><trkpt lat="43.3598983" lon="11.7826817"><ele>285.0</ele><time>2026-05-02T08:36:27.538Z</time></trkpt><trkpt lat="43.3598167" lon="11.7826283"><ele>285.0</ele><time>2026-05-02T08:36:29.534Z</time></trkpt><trkpt lat="43.359725" lon="11.7825683"><ele>285.0</ele><time>2026-05-02T08:36:31.534Z</time></trkpt><trkpt lat="43.3596383" lon="11.7825217"><ele>285.0</ele><time>2026-05-02T08:36:33.53Z</time></trkpt><trkpt lat="43.3595467" lon="11.7824767"><ele>285.0</ele><time>2026-05-02T08:36:35.534Z</time></trkpt><trkpt lat="43.3594483" lon="11.78243"><ele>285.0</ele><time>2026-05-02T08:36:37.53Z</time></trkpt><trkpt lat="43.3593683" lon="11.7823883"><ele>285.0</ele><time>2026-05-02T08:36:39.533Z</time></trkpt><trkpt lat="43.3592883" lon="11.78235"><ele>285.0</ele><time>2026-05-02T08:36:41.531Z</time></trkpt><trkpt lat="43.3592067" lon="11.7823083"><ele>285.0</ele><time>2026-05-02T08:36:43.534Z</time></trkpt><trkpt lat="43.3591233" lon="11.7822633"><ele>285.0</ele><time>2026-05-02T08:36:45.539Z</time></trkpt><trkpt lat="43.359045" lon="11.7822117"><ele>285.0</ele><time>2026-05-02T08:36:47.533Z</time></trkpt><trkpt lat="43.3589633" lon="11.782165"><ele>285.0</ele><time>2026-05-02T08:36:49.532Z</time></trkpt><trkpt lat="43.3588833" lon="11.78212"><ele>285.0</ele><time>2026-05-02T08:36:51.531Z</time></trkpt><trkpt lat="43.3587983" lon="11.7820733"><ele>285.0</ele><time>2026-05-02T08:36:53.533Z</time></trkpt><trkpt lat="43.35871" lon="11.78202"><ele>285.0</ele><time>2026-05-02T08:36:55.535Z</time></trkpt><trkpt lat="43.35863" lon="11.7819767"><ele>285.0</ele><time>2026-05-02T08:36:57.534Z</time></trkpt><trkpt lat="43.35855" lon="11.7819333"><ele>285.0</ele><time>2026-05-02T08:36:59.532Z</time></trkpt><trkpt lat="43.35846" lon="11.7818867"><ele>285.3333333333333</ele><time>2026-05-02T08:37:01.533Z</time></trkpt><trkpt lat="43.3583817" lon="11.781845"><ele>285.6666666666667</ele><time>2026-05-02T08:37:03.536Z</time></trkpt><trkpt lat="43.3583033" lon="11.7818067"><ele>286.0</ele><time>2026-05-02T08:37:05.532Z</time></trkpt><trkpt lat="43.3582083" lon="11.7817633"><ele>286.33333333333337</ele><time>2026-05-02T08:37:07.533Z</time></trkpt><trkpt lat="43.35813" lon="11.7817233"><ele>286.6666666666667</ele><time>2026-05-02T08:37:09.531Z</time></trkpt><trkpt lat="43.358055" lon="11.781685"><ele>287.0</ele><time>2026-05-02T08:37:11.532Z</time></trkpt><trkpt lat="43.35798" lon="11.781645"><ele>287.1666666666667</ele><time>2026-05-02T08:37:13.53Z</time></trkpt><trkpt lat="43.3579033" lon="11.7816033"><ele>287.33333333333337</ele><time>2026-05-02T08:37:15.532Z</time></trkpt><trkpt lat="43.3578233" lon="11.7815767"><ele>287.5</ele><time>2026-05-02T08:37:17.533Z</time></trkpt><trkpt lat="43.3577417" lon="11.7815417"><ele>287.6666666666667</ele><time>2026-05-02T08:37:19.532Z</time></trkpt><trkpt lat="43.35765" lon="11.7815083"><ele>287.8333333333333</ele><time>2026-05-02T08:37:21.531Z</time></trkpt><trkpt lat="43.35756" lon="11.78148"><ele>288.0</ele><time>2026-05-02T08:37:23.532Z</time></trkpt><trkpt lat="43.3574683" lon="11.78144"><ele>288.0</ele><time>2026-05-02T08:37:25.531Z</time></trkpt><trkpt lat="43.3573783" lon="11.7814083"><ele>288.0</ele><time>2026-05-02T08:37:27.532Z</time></trkpt><trkpt lat="43.3573" lon="11.7813683"><ele>288.0</ele><time>2026-05-02T08:37:29.532Z</time></trkpt><trkpt lat="43.357215" lon="11.781325"><ele>288.0</ele><time>2026-05-02T08:37:31.533Z</time></trkpt><trkpt lat="43.3571283" lon="11.7812917"><ele>288.0</ele><time>2026-05-02T08:37:33.533Z</time></trkpt><trkpt lat="43.3570467" lon="11.7812617"><ele>288.0</ele><time>2026-05-02T08:37:35.531Z</time></trkpt><trkpt lat="43.3569667" lon="11.7812333"><ele>288.0</ele><time>2026-05-02T08:37:37.532Z</time></trkpt><trkpt lat="43.35688" lon="11.7812083"><ele>288.0</ele><time>2026-05-02T08:37:39.536Z</time></trkpt><trkpt lat="43.3567883" lon="11.7811883"><ele>288.0</ele><time>2026-05-02T08:37:41.533Z</time></trkpt><trkpt lat="43.3567" lon="11.7811717"><ele>288.0</ele><time>2026-05-02T08:37:43.532Z</time></trkpt><trkpt lat="43.35661" lon="11.781155"><ele>288.0</ele><time>2026-05-02T08:37:45.531Z</time></trkpt><trkpt lat="43.3565133" lon="11.7811433"><ele>288.0</ele><time>2026-05-02T08:37:47.53Z</time></trkpt><trkpt lat="43.3564133" lon="11.781135"><ele>288.0</ele><time>2026-05-02T08:37:49.533Z</time></trkpt><trkpt lat="43.3563183" lon="11.7811217"><ele>288.0</ele><time>2026-05-02T08:37:51.531Z</time></trkpt><trkpt lat="43.35623" lon="11.7811067"><ele>288.0</ele><time>2026-05-02T08:37:53.532Z</time></trkpt><trkpt lat="43.3561433" lon="11.7810883"><ele>288.0</ele><time>2026-05-02T08:37:55.532Z</time></trkpt><trkpt lat="43.35606" lon="11.7810717"><ele>287.8333333333333</ele><time>2026-05-02T08:37:57.531Z</time></trkpt><trkpt lat="43.3559817" lon="11.7810517"><ele>287.6666666666667</ele><time>2026-05-02T08:37:59.535Z</time></trkpt><trkpt lat="43.3559017" lon="11.7810233"><ele>287.5</ele><time>2026-05-02T08:38:01.535Z</time></trkpt><trkpt lat="43.3558283" lon="11.781005"><ele>287.33333333333337</ele><time>2026-05-02T08:38:03.532Z</time></trkpt><trkpt lat="43.3557467" lon="11.7809667"><ele>287.1666666666667</ele><time>2026-05-02T08:38:05.531Z</time></trkpt><trkpt lat="43.3556617" lon="11.780945"><ele>287.0</ele><time>2026-05-02T08:38:07.531Z</time></trkpt><trkpt lat="43.35558" lon="11.7809867"><ele>287.0</ele><time>2026-05-02T08:38:09.532Z</time></trkpt><trkpt lat="43.3555383" lon="11.7811167"><ele>287.0</ele><time>2026-05-02T08:38:11.533Z</time></trkpt><trkpt lat="43.3555333" lon="11.781275"><ele>287.0</ele><time>2026-05-02T08:38:13.529Z</time></trkpt><trkpt lat="43.3555383" lon="11.7813633"><ele>287.0</ele><time>2026-05-02T08:38:14.532Z</time></trkpt><trkpt lat="43.3555517" lon="11.7814667"><ele>287.0</ele><time>2026-05-02T08:38:15.533Z</time></trkpt><trkpt lat="43.3555683" lon="11.7815567"><ele>287.0</ele><time>2026-05-02T08:38:16.533Z</time></trkpt><trkpt lat="43.3556017" lon="11.7817317"><ele>287.0</ele><time>2026-05-02T08:38:18.536Z</time></trkpt><trkpt lat="43.355615" lon="11.7818233"><ele>287.0</ele><time>2026-05-02T08:38:19.537Z</time></trkpt><trkpt lat="43.3556367" lon="11.7819117"><ele>287.0</ele><time>2026-05-02T08:38:20.532Z</time></trkpt><trkpt lat="43.35565" lon="11.782"><ele>287.0</ele><time>2026-05-02T08:38:21.53Z</time></trkpt><trkpt lat="43.355665" lon="11.78209"><ele>287.0</ele><time>2026-05-02T08:38:22.532Z</time></trkpt><trkpt lat="43.35568" lon="11.78218"><ele>287.0</ele><time>2026-05-02T08:38:23.533Z</time></trkpt><trkpt lat="43.3556917" lon="11.7822767"><ele>287.0</ele><time>2026-05-02T08:38:24.532Z</time></trkpt><trkpt lat="43.3557067" lon="11.7823683"><ele>286.7142857142857</ele><time>2026-05-02T08:38:25.53Z</time></trkpt><trkpt lat="43.35572" lon="11.78246"><ele>286.42857142857144</ele><time>2026-05-02T08:38:26.533Z</time></trkpt><trkpt lat="43.3557333" lon="11.7825467"><ele>286.1428571428571</ele><time>2026-05-02T08:38:27.533Z</time></trkpt><trkpt lat="43.35575" lon="11.7826333"><ele>285.8571428571429</ele><time>2026-05-02T08:38:28.533Z</time></trkpt><trkpt lat="43.3557667" lon="11.7827233"><ele>285.57142857142856</ele><time>2026-05-02T08:38:29.53Z</time></trkpt><trkpt lat="43.3557817" lon="11.7828117"><ele>285.2857142857143</ele><time>2026-05-02T08:38:30.531Z</time></trkpt><trkpt lat="43.3557983" lon="11.7829"><ele>285.0</ele><time>2026-05-02T08:38:31.535Z</time></trkpt><trkpt lat="43.355815" lon="11.7829883"><ele>284.7142857142857</ele><time>2026-05-02T08:38:32.533Z</time></trkpt><trkpt lat="43.3558317" lon="11.7830783"><ele>284.42857142857144</ele><time>2026-05-02T08:38:33.534Z</time></trkpt><trkpt lat="43.3558467" lon="11.7831683"><ele>284.14285714285717</ele><time>2026-05-02T08:38:34.53Z</time></trkpt><trkpt lat="43.3558617" lon="11.7832583"><ele>283.8571428571429</ele><time>2026-05-02T08:38:35.53Z</time></trkpt><trkpt lat="43.3558767" lon="11.7833483"><ele>283.5714285714286</ele><time>2026-05-02T08:38:36.535Z</time></trkpt><trkpt lat="43.3558933" lon="11.783435"><ele>283.2857142857143</ele><time>2026-05-02T08:38:37.531Z</time></trkpt><trkpt lat="43.3559083" lon="11.7835233"><ele>283.0</ele><time>2026-05-02T08:38:38.531Z</time></trkpt><trkpt lat="43.35592" lon="11.78361"><ele>283.0</ele><time>2026-05-02T08:38:39.534Z</time></trkpt><trkpt lat="43.3559317" lon="11.7836967"><ele>283.0</ele><time>2026-05-02T08:38:40.531Z</time></trkpt><trkpt lat="43.3559483" lon="11.7838633"><ele>283.0</ele><time>2026-05-02T08:38:42.538Z</time></trkpt><trkpt lat="43.3559583" lon="11.7840283"><ele>283.0</ele><time>2026-05-02T08:38:44.53Z</time></trkpt><trkpt lat="43.3559583" lon="11.78418"><ele>283.0</ele><time>2026-05-02T08:38:46.534Z</time></trkpt><trkpt lat="43.3559433" lon="11.78433"><ele>283.0</ele><time>2026-05-02T08:38:48.53Z</time></trkpt><trkpt lat="43.3559333" lon="11.7844767"><ele>283.0</ele><time>2026-05-02T08:38:50.531Z</time></trkpt><trkpt lat="43.3559233" lon="11.7846133"><ele>283.0</ele><time>2026-05-02T08:38:52.532Z</time></trkpt><trkpt lat="43.3559117" lon="11.7847467"><ele>283.0</ele><time>2026-05-02T08:38:54.533Z</time></trkpt><trkpt lat="43.355905" lon="11.784885"><ele>283.0</ele><time>2026-05-02T08:38:56.534Z</time></trkpt><trkpt lat="43.3559067" lon="11.7850267"><ele>283.0</ele><time>2026-05-02T08:38:58.53Z</time></trkpt><trkpt lat="43.3559017" lon="11.785165"><ele>283.0</ele><time>2026-05-02T08:39:00.533Z</time></trkpt><trkpt lat="43.355895" lon="11.7852933"><ele>283.0</ele><time>2026-05-02T08:39:02.534Z</time></trkpt><trkpt lat="43.35589" lon="11.78542"><ele>283.0</ele><time>2026-05-02T08:39:04.531Z</time></trkpt><trkpt lat="43.3558867" lon="11.785545"><ele>283.0</ele><time>2026-05-02T08:39:06.532Z</time></trkpt><trkpt lat="43.3558917" lon="11.7856783"><ele>283.2</ele><time>2026-05-02T08:39:08.532Z</time></trkpt><trkpt lat="43.3558867" lon="11.78581"><ele>283.4</ele><time>2026-05-02T08:39:10.53Z</time></trkpt><trkpt lat="43.3558883" lon="11.785945"><ele>283.59999999999997</ele><time>2026-05-02T08:39:12.53Z</time></trkpt><trkpt lat="43.3558933" lon="11.786075"><ele>283.8</ele><time>2026-05-02T08:39:14.531Z</time></trkpt><trkpt lat="43.3559017" lon="11.7862117"><ele>284.0</ele><time>2026-05-02T08:39:16.53Z</time></trkpt><trkpt lat="43.355915" lon="11.7863467"><ele>284.0</ele><time>2026-05-02T08:39:18.53Z</time></trkpt><trkpt lat="43.3559183" lon="11.7864917"><ele>284.0</ele><time>2026-05-02T08:39:20.533Z</time></trkpt><trkpt lat="43.35592" lon="11.7866467"><ele>284.0</ele><time>2026-05-02T08:39:22.534Z</time></trkpt><trkpt lat="43.3559217" lon="11.7868"><ele>284.0</ele><time>2026-05-02T08:39:24.531Z</time></trkpt><trkpt lat="43.355925" lon="11.7869617"><ele>284.0</ele><time>2026-05-02T08:39:26.534Z</time></trkpt><trkpt lat="43.3559283" lon="11.7871233"><ele>284.0</ele><time>2026-05-02T08:39:28.53Z</time></trkpt><trkpt lat="43.3559367" lon="11.787285"><ele>284.0</ele><time>2026-05-02T08:39:30.533Z</time></trkpt><trkpt lat="43.3559467" lon="11.7874433"><ele>284.0</ele><time>2026-05-02T08:39:32.531Z</time></trkpt><trkpt lat="43.3559533" lon="11.7876083"><ele>284.0</ele><time>2026-05-02T08:39:34.529Z</time></trkpt><trkpt lat="43.35596" lon="11.7877783"><ele>284.0</ele><time>2026-05-02T08:39:36.532Z</time></trkpt><trkpt lat="43.3559683" lon="11.7879433"><ele>284.0</ele><time>2026-05-02T08:39:38.533Z</time></trkpt><trkpt lat="43.35598" lon="11.7880983"><ele>284.0</ele><time>2026-05-02T08:39:40.53Z</time></trkpt><trkpt lat="43.3559933" lon="11.7882467"><ele>284.0</ele><time>2026-05-02T08:39:42.529Z</time></trkpt><trkpt lat="43.356" lon="11.7883883"><ele>284.0</ele><time>2026-05-02T08:39:44.531Z</time></trkpt><trkpt lat="43.356015" lon="11.7885267"><ele>284.0</ele><time>2026-05-02T08:39:46.53Z</time></trkpt><trkpt lat="43.3560317" lon="11.7886667"><ele>284.0</ele><time>2026-05-02T08:39:48.534Z</time></trkpt><trkpt lat="43.3560533" lon="11.7888017"><ele>284.0</ele><time>2026-05-02T08:39:50.53Z</time></trkpt><trkpt lat="43.3560733" lon="11.788945"><ele>284.0</ele><time>2026-05-02T08:39:52.534Z</time></trkpt><trkpt lat="43.35609" lon="11.78908"><ele>284.0</ele><time>2026-05-02T08:39:54.531Z</time></trkpt><trkpt lat="43.35611" lon="11.7892133"><ele>284.4</ele><time>2026-05-02T08:39:56.534Z</time></trkpt><trkpt lat="43.3561317" lon="11.7893467"><ele>284.79999999999995</ele><time>2026-05-02T08:39:58.53Z</time></trkpt><trkpt lat="43.35616" lon="11.7894817"><ele>285.20000000000005</ele><time>2026-05-02T08:40:00.532Z</time></trkpt><trkpt lat="43.3561817" lon="11.7896133"><ele>285.6</ele><time>2026-05-02T08:40:02.532Z</time></trkpt><trkpt lat="43.3562017" lon="11.789745"><ele>286.0</ele><time>2026-05-02T08:40:04.529Z</time></trkpt><trkpt lat="43.3562233" lon="11.7898783"><ele>286.0</ele><time>2026-05-02T08:40:06.531Z</time></trkpt><trkpt lat="43.35624" lon="11.7900133"><ele>286.0</ele><time>2026-05-02T08:40:08.536Z</time></trkpt><trkpt lat="43.356265" lon="11.79015"><ele>286.0</ele><time>2026-05-02T08:40:10.534Z</time></trkpt><trkpt lat="43.3562883" lon="11.790285"><ele>286.0</ele><time>2026-05-02T08:40:12.535Z</time></trkpt><trkpt lat="43.35631" lon="11.7904183"><ele>286.0</ele><time>2026-05-02T08:40:14.534Z</time></trkpt><trkpt lat="43.3563333" lon="11.7905517"><ele>286.0</ele><time>2026-05-02T08:40:16.53Z</time></trkpt><trkpt lat="43.356355" lon="11.79068"><ele>286.0</ele><time>2026-05-02T08:40:18.536Z</time></trkpt><trkpt lat="43.3563717" lon="11.7908083"><ele>286.0</ele><time>2026-05-02T08:40:20.532Z</time></trkpt><trkpt lat="43.356395" lon="11.7909417"><ele>286.0</ele><time>2026-05-02T08:40:22.531Z</time></trkpt><trkpt lat="43.3564083" lon="11.7910767"><ele>286.0</ele><time>2026-05-02T08:40:24.532Z</time></trkpt><trkpt lat="43.3563733" lon="11.7911717"><ele>286.0</ele><time>2026-05-02T08:40:26.533Z</time></trkpt><trkpt lat="43.356285" lon="11.7911867"><ele>286.0</ele><time>2026-05-02T08:40:28.532Z</time></trkpt><trkpt lat="43.35619" lon="11.7911683"><ele>286.0</ele><time>2026-05-02T08:40:30.531Z</time></trkpt><trkpt lat="43.3561017" lon="11.7911483"><ele>286.0</ele><time>2026-05-02T08:40:32.533Z</time></trkpt><trkpt lat="43.3560167" lon="11.7911417"><ele>286.0</ele><time>2026-05-02T08:40:34.529Z</time></trkpt><trkpt lat="43.3559333" lon="11.7911267"><ele>286.0</ele><time>2026-05-02T08:40:36.532Z</time></trkpt><trkpt lat="43.3558517" lon="11.7911217"><ele>286.0</ele><time>2026-05-02T08:40:38.532Z</time></trkpt><trkpt lat="43.3557667" lon="11.7911217"><ele>286.0</ele><time>2026-05-02T08:40:40.53Z</time></trkpt><trkpt lat="43.355685" lon="11.7911217"><ele>286.0</ele><time>2026-05-02T08:40:42.533Z</time></trkpt><trkpt lat="43.3556033" lon="11.7911167"><ele>286.0</ele><time>2026-05-02T08:40:44.534Z</time></trkpt><trkpt lat="43.3555217" lon="11.7911183"><ele>286.0</ele><time>2026-05-02T08:40:46.532Z</time></trkpt><trkpt lat="43.3554367" lon="11.7911167"><ele>286.0</ele><time>2026-05-02T08:40:48.534Z</time></trkpt><trkpt lat="43.35535" lon="11.7911167"><ele>285.8333333333333</ele><time>2026-05-02T08:40:50.533Z</time></trkpt><trkpt lat="43.3552617" lon="11.79112"><ele>285.66666666666663</ele><time>2026-05-02T08:40:52.531Z</time></trkpt><trkpt lat="43.3551733" lon="11.7911267"><ele>285.5</ele><time>2026-05-02T08:40:54.535Z</time></trkpt><trkpt lat="43.3550833" lon="11.7911317"><ele>285.3333333333333</ele><time>2026-05-02T08:40:56.532Z</time></trkpt><trkpt lat="43.3549983" lon="11.79113"><ele>285.1666666666667</ele><time>2026-05-02T08:40:58.532Z</time></trkpt><trkpt lat="43.354915" lon="11.791135"><ele>285.0</ele><time>2026-05-02T08:41:00.533Z</time></trkpt><trkpt lat="43.3548333" lon="11.7911367"><ele>285.0</ele><time>2026-05-02T08:41:02.533Z</time></trkpt><trkpt lat="43.3547467" lon="11.79114"><ele>285.0</ele><time>2026-05-02T08:41:04.53Z</time></trkpt><trkpt lat="43.3546617" lon="11.7911367"><ele>285.0</ele><time>2026-05-02T08:41:06.535Z</time></trkpt><trkpt lat="43.3545767" lon="11.7911367"><ele>285.0</ele><time>2026-05-02T08:41:08.536Z</time></trkpt><trkpt lat="43.3544883" lon="11.79114"><ele>285.0</ele><time>2026-05-02T08:41:10.531Z</time></trkpt><trkpt lat="43.354405" lon="11.7911367"><ele>285.0</ele><time>2026-05-02T08:41:12.534Z</time></trkpt><trkpt lat="43.3543267" lon="11.791125"><ele>285.0</ele><time>2026-05-02T08:41:14.531Z</time></trkpt><trkpt lat="43.3542467" lon="11.7911167"><ele>285.0</ele><time>2026-05-02T08:41:16.533Z</time></trkpt><trkpt lat="43.354165" lon="11.7911183"><ele>285.0</ele><time>2026-05-02T08:41:18.531Z</time></trkpt><trkpt lat="43.3540817" lon="11.79112"><ele>285.0</ele><time>2026-05-02T08:41:20.536Z</time></trkpt><trkpt lat="43.3539983" lon="11.791115"><ele>285.0</ele><time>2026-05-02T08:41:22.544Z</time></trkpt><trkpt lat="43.353915" lon="11.7911167"><ele>285.0</ele><time>2026-05-02T08:41:24.533Z</time></trkpt><trkpt lat="43.3538333" lon="11.7911133"><ele>285.1666666666667</ele><time>2026-05-02T08:41:26.53Z</time></trkpt><trkpt lat="43.3537483" lon="11.7911117"><ele>285.3333333333333</ele><time>2026-05-02T08:41:28.531Z</time></trkpt><trkpt lat="43.353665" lon="11.7911067"><ele>285.5</ele><time>2026-05-02T08:41:30.531Z</time></trkpt><trkpt lat="43.35358" lon="11.791105"><ele>285.66666666666663</ele><time>2026-05-02T08:41:32.531Z</time></trkpt><trkpt lat="43.35349" lon="11.7911083"><ele>285.8333333333333</ele><time>2026-05-02T08:41:34.531Z</time></trkpt><trkpt lat="43.3533967" lon="11.7911117"><ele>286.0</ele><time>2026-05-02T08:41:36.531Z</time></trkpt><trkpt lat="43.3533" lon="11.7911083"><ele>286.0</ele><time>2026-05-02T08:41:38.53Z</time></trkpt><trkpt lat="43.3532067" lon="11.791105"><ele>286.0</ele><time>2026-05-02T08:41:40.531Z</time></trkpt><trkpt lat="43.35311" lon="11.7911067"><ele>286.0</ele><time>2026-05-02T08:41:42.53Z</time></trkpt><trkpt lat="43.3530133" lon="11.7911033"><ele>286.0</ele><time>2026-05-02T08:41:44.532Z</time></trkpt><trkpt lat="43.3529183" lon="11.791095"><ele>286.0</ele><time>2026-05-02T08:41:46.53Z</time></trkpt><trkpt lat="43.3528317" lon="11.791075"><ele>286.40000000000003</ele><time>2026-05-02T08:41:48.534Z</time></trkpt><trkpt lat="43.35274" lon="11.79104"><ele>286.8</ele><time>2026-05-02T08:41:50.533Z</time></trkpt><trkpt lat="43.3526533" lon="11.790995"><ele>287.20000000000005</ele><time>2026-05-02T08:41:52.531Z</time></trkpt><trkpt lat="43.352565" lon="11.790945"><ele>287.6</ele><time>2026-05-02T08:41:54.529Z</time></trkpt><trkpt lat="43.3524783" lon="11.7908983"><ele>288.0</ele><time>2026-05-02T08:41:56.53Z</time></trkpt><trkpt lat="43.3523967" lon="11.7908483"><ele>288.2</ele><time>2026-05-02T08:41:58.531Z</time></trkpt><trkpt lat="43.35231" lon="11.790805"><ele>288.4</ele><time>2026-05-02T08:42:00.533Z</time></trkpt><trkpt lat="43.3522267" lon="11.7907583"><ele>288.59999999999997</ele><time>2026-05-02T08:42:02.531Z</time></trkpt><trkpt lat="43.3521417" lon="11.790715"><ele>288.8</ele><time>2026-05-02T08:42:04.53Z</time></trkpt><trkpt lat="43.3520633" lon="11.7906617"><ele>289.0</ele><time>2026-05-02T08:42:06.531Z</time></trkpt><trkpt lat="43.3519783" lon="11.7906117"><ele>289.0</ele><time>2026-05-02T08:42:08.531Z</time></trkpt><trkpt lat="43.3518933" lon="11.7905567"><ele>289.0</ele><time>2026-05-02T08:42:10.536Z</time></trkpt><trkpt lat="43.3518017" lon="11.7905083"><ele>289.0</ele><time>2026-05-02T08:42:12.533Z</time></trkpt><trkpt lat="43.3517017" lon="11.79049"><ele>289.0</ele><time>2026-05-02T08:42:14.531Z</time></trkpt><trkpt lat="43.3516017" lon="11.7904967"><ele>289.0</ele><time>2026-05-02T08:42:16.53Z</time></trkpt><trkpt lat="43.351505" lon="11.7905283"><ele>289.0</ele><time>2026-05-02T08:42:18.53Z</time></trkpt><trkpt lat="43.3514217" lon="11.7905933"><ele>289.0</ele><time>2026-05-02T08:42:20.532Z</time></trkpt><trkpt lat="43.3513433" lon="11.790675"><ele>289.0</ele><time>2026-05-02T08:42:22.531Z</time></trkpt><trkpt lat="43.3512633" lon="11.790745"><ele>289.0</ele><time>2026-05-02T08:42:24.532Z</time></trkpt><trkpt lat="43.3511733" lon="11.7907983"><ele>289.0</ele><time>2026-05-02T08:42:26.531Z</time></trkpt><trkpt lat="43.351075" lon="11.7908267"><ele>289.2</ele><time>2026-05-02T08:42:28.53Z</time></trkpt><trkpt lat="43.3509717" lon="11.79084"><ele>289.4</ele><time>2026-05-02T08:42:30.53Z</time></trkpt><trkpt lat="43.3508767" lon="11.7908567"><ele>289.6</ele><time>2026-05-02T08:42:32.534Z</time></trkpt><trkpt lat="43.3507833" lon="11.7908717"><ele>289.8</ele><time>2026-05-02T08:42:34.53Z</time></trkpt><trkpt lat="43.3506917" lon="11.790885"><ele>290.0</ele><time>2026-05-02T08:42:36.531Z</time></trkpt><trkpt lat="43.350605" lon="11.7909017"><ele>290.33333333333337</ele><time>2026-05-02T08:42:38.531Z</time></trkpt><trkpt lat="43.3505117" lon="11.7909133"><ele>290.6666666666667</ele><time>2026-05-02T08:42:40.531Z</time></trkpt><trkpt lat="43.3504267" lon="11.7909217"><ele>291.0</ele><time>2026-05-02T08:42:42.529Z</time></trkpt><trkpt lat="43.350345" lon="11.7909367"><ele>291.3333333333333</ele><time>2026-05-02T08:42:44.532Z</time></trkpt><trkpt lat="43.3502617" lon="11.7909617"><ele>291.66666666666663</ele><time>2026-05-02T08:42:46.528Z</time></trkpt><trkpt lat="43.350185" lon="11.7909733"><ele>292.0</ele><time>2026-05-02T08:42:48.529Z</time></trkpt><trkpt lat="43.35011" lon="11.790985"><ele>292.0</ele><time>2026-05-02T08:42:50.531Z</time></trkpt><trkpt lat="43.350035" lon="11.790995"><ele>292.0</ele><time>2026-05-02T08:42:52.531Z</time></trkpt><trkpt lat="43.349955" lon="11.791"><ele>292.0</ele><time>2026-05-02T08:42:54.529Z</time></trkpt><trkpt lat="43.3498767" lon="11.79101"><ele>292.0</ele><time>2026-05-02T08:42:56.533Z</time></trkpt><trkpt lat="43.349795" lon="11.7910233"><ele>292.0</ele><time>2026-05-02T08:42:58.529Z</time></trkpt><trkpt lat="43.3497167" lon="11.7910333"><ele>292.0</ele><time>2026-05-02T08:43:00.531Z</time></trkpt><trkpt lat="43.3496317" lon="11.7910483"><ele>292.0</ele><time>2026-05-02T08:43:02.533Z</time></trkpt><trkpt lat="43.3495483" lon="11.7910667"><ele>292.0</ele><time>2026-05-02T08:43:04.53Z</time></trkpt><trkpt lat="43.3494717" lon="11.7910817"><ele>292.0</ele><time>2026-05-02T08:43:06.53Z</time></trkpt><trkpt lat="43.3493967" lon="11.79109"><ele>292.0</ele><time>2026-05-02T08:43:08.532Z</time></trkpt><trkpt lat="43.3493233" lon="11.7911017"><ele>292.0</ele><time>2026-05-02T08:43:10.531Z</time></trkpt><trkpt lat="43.349255" lon="11.7911167"><ele>292.0</ele><time>2026-05-02T08:43:12.531Z</time></trkpt><trkpt lat="43.3491683" lon="11.791145"><ele>292.0</ele><time>2026-05-02T08:43:15.533Z</time></trkpt><trkpt lat="43.3491167" lon="11.79124"><ele>292.0</ele><time>2026-05-02T08:43:18.53Z</time></trkpt><trkpt lat="43.349105" lon="11.7913317"><ele>292.0</ele><time>2026-05-02T08:43:20.532Z</time></trkpt><trkpt lat="43.3490967" lon="11.79143"><ele>292.0</ele><time>2026-05-02T08:43:22.533Z</time></trkpt><trkpt lat="43.3490933" lon="11.7915633"><ele>292.0</ele><time>2026-05-02T08:43:25.534Z</time></trkpt><trkpt lat="43.3491" lon="11.7916767"><ele>292.0</ele><time>2026-05-02T08:43:27.53Z</time></trkpt><trkpt lat="43.3491017" lon="11.791795"><ele>291.6</ele><time>2026-05-02T08:43:29.532Z</time></trkpt><trkpt lat="43.3491117" lon="11.791925"><ele>291.2</ele><time>2026-05-02T08:43:31.539Z</time></trkpt><trkpt lat="43.34912" lon="11.7920717"><ele>290.8</ele><time>2026-05-02T08:43:33.529Z</time></trkpt><trkpt lat="43.349125" lon="11.79223"><ele>290.4</ele><time>2026-05-02T08:43:35.534Z</time></trkpt><trkpt lat="43.3491317" lon="11.792395"><ele>290.0</ele><time>2026-05-02T08:43:37.532Z</time></trkpt><trkpt lat="43.349135" lon="11.7924817"><ele>290.0</ele><time>2026-05-02T08:43:38.533Z</time></trkpt><trkpt lat="43.34914" lon="11.7925717"><ele>290.0</ele><time>2026-05-02T08:43:39.53Z</time></trkpt><trkpt lat="43.3491483" lon="11.79266"><ele>290.0</ele><time>2026-05-02T08:43:40.53Z</time></trkpt><trkpt lat="43.3491567" lon="11.792755"><ele>290.0</ele><time>2026-05-02T08:43:41.531Z</time></trkpt><trkpt lat="43.349165" lon="11.79285"><ele>290.0</ele><time>2026-05-02T08:43:42.531Z</time></trkpt><trkpt lat="43.34917" lon="11.7929417"><ele>290.0</ele><time>2026-05-02T08:43:43.532Z</time></trkpt><trkpt lat="43.3491733" lon="11.7930333"><ele>290.0</ele><time>2026-05-02T08:43:44.534Z</time></trkpt><trkpt lat="43.3491783" lon="11.7931283"><ele>289.83333333333337</ele><time>2026-05-02T08:43:45.53Z</time></trkpt><trkpt lat="43.3491817" lon="11.7932233"><ele>289.6666666666667</ele><time>2026-05-02T08:43:46.533Z</time></trkpt><trkpt lat="43.3491883" lon="11.7933183"><ele>289.5</ele><time>2026-05-02T08:43:47.533Z</time></trkpt><trkpt lat="43.349195" lon="11.793405"><ele>289.3333333333333</ele><time>2026-05-02T08:43:48.53Z</time></trkpt><trkpt lat="43.3492" lon="11.7934933"><ele>289.16666666666663</ele><time>2026-05-02T08:43:49.533Z</time></trkpt><trkpt lat="43.3492067" lon="11.79366"><ele>289.0</ele><time>2026-05-02T08:43:51.531Z</time></trkpt><trkpt lat="43.3492117" lon="11.7938217"><ele>288.5</ele><time>2026-05-02T08:43:53.533Z</time></trkpt><trkpt lat="43.3492133" lon="11.7939833"><ele>288.0</ele><time>2026-05-02T08:43:55.531Z</time></trkpt><trkpt lat="43.34922" lon="11.7941467"><ele>287.5</ele><time>2026-05-02T08:43:57.53Z</time></trkpt><trkpt lat="43.3492233" lon="11.7943117"><ele>287.0</ele><time>2026-05-02T08:43:59.535Z</time></trkpt><trkpt lat="43.3492267" lon="11.7944617"><ele>286.6666666666667</ele><time>2026-05-02T08:44:01.533Z</time></trkpt><trkpt lat="43.3492317" lon="11.794625"><ele>286.33333333333337</ele><time>2026-05-02T08:44:03.53Z</time></trkpt><trkpt lat="43.3492333" lon="11.7947933"><ele>286.0</ele><time>2026-05-02T08:44:05.528Z</time></trkpt><trkpt lat="43.349235" lon="11.79488"><ele>285.6666666666667</ele><time>2026-05-02T08:44:06.53Z</time></trkpt><trkpt lat="43.3492367" lon="11.79497"><ele>285.3333333333333</ele><time>2026-05-02T08:44:07.531Z</time></trkpt><trkpt lat="43.349235" lon="11.7950583"><ele>285.0</ele><time>2026-05-02T08:44:08.529Z</time></trkpt><trkpt lat="43.34923" lon="11.7951483"><ele>284.42857142857144</ele><time>2026-05-02T08:44:09.529Z</time></trkpt><trkpt lat="43.3492233" lon="11.795245"><ele>283.8571428571429</ele><time>2026-05-02T08:44:10.528Z</time></trkpt><trkpt lat="43.3492133" lon="11.7953417"><ele>283.28571428571433</ele><time>2026-05-02T08:44:11.529Z</time></trkpt><trkpt lat="43.3492033" lon="11.795435"><ele>282.7142857142857</ele><time>2026-05-02T08:44:12.53Z</time></trkpt><trkpt lat="43.34919" lon="11.79553"><ele>282.14285714285717</ele><time>2026-05-02T08:44:13.532Z</time></trkpt><trkpt lat="43.3491767" lon="11.7956317"><ele>281.5714285714286</ele><time>2026-05-02T08:44:14.531Z</time></trkpt><trkpt lat="43.3491633" lon="11.7957333"><ele>281.0</ele><time>2026-05-02T08:44:15.531Z</time></trkpt><trkpt lat="43.3491517" lon="11.7958317"><ele>281.00000000000006</ele><time>2026-05-02T08:44:16.53Z</time></trkpt><trkpt lat="43.34914" lon="11.7959317"><ele>281.0</ele><time>2026-05-02T08:44:17.531Z</time></trkpt><trkpt lat="43.349125" lon="11.79603"><ele>281.0</ele><time>2026-05-02T08:44:18.531Z</time></trkpt><trkpt lat="43.3491117" lon="11.7961317"><ele>281.0</ele><time>2026-05-02T08:44:19.533Z</time></trkpt><trkpt lat="43.3490967" lon="11.7962317"><ele>281.0</ele><time>2026-05-02T08:44:20.531Z</time></trkpt><trkpt lat="43.3490817" lon="11.7963333"><ele>281.00000000000006</ele><time>2026-05-02T08:44:21.534Z</time></trkpt><trkpt lat="43.3490667" lon="11.796435"><ele>281.0</ele><time>2026-05-02T08:44:22.532Z</time></trkpt><trkpt lat="43.3490533" lon="11.796535"><ele>280.7142857142857</ele><time>2026-05-02T08:44:23.531Z</time></trkpt><trkpt lat="43.3490417" lon="11.7966333"><ele>280.42857142857144</ele><time>2026-05-02T08:44:24.532Z</time></trkpt><trkpt lat="43.3490283" lon="11.7967317"><ele>280.1428571428571</ele><time>2026-05-02T08:44:25.533Z</time></trkpt><trkpt lat="43.3490133" lon="11.7968317"><ele>279.8571428571429</ele><time>2026-05-02T08:44:26.531Z</time></trkpt><trkpt lat="43.3489983" lon="11.7969283"><ele>279.57142857142856</ele><time>2026-05-02T08:44:27.532Z</time></trkpt><trkpt lat="43.3489867" lon="11.797025"><ele>279.2857142857143</ele><time>2026-05-02T08:44:28.538Z</time></trkpt><trkpt lat="43.3489717" lon="11.79712"><ele>279.0</ele><time>2026-05-02T08:44:29.531Z</time></trkpt><trkpt lat="43.34896" lon="11.7972167"><ele>278.85714285714283</ele><time>2026-05-02T08:44:30.532Z</time></trkpt><trkpt lat="43.3489467" lon="11.7973083"><ele>278.7142857142857</ele><time>2026-05-02T08:44:31.53Z</time></trkpt><trkpt lat="43.3489317" lon="11.7974"><ele>278.57142857142856</ele><time>2026-05-02T08:44:32.531Z</time></trkpt><trkpt lat="43.34892" lon="11.7974883"><ele>278.42857142857144</ele><time>2026-05-02T08:44:33.534Z</time></trkpt><trkpt lat="43.3489067" lon="11.7975783"><ele>278.2857142857143</ele><time>2026-05-02T08:44:34.534Z</time></trkpt><trkpt lat="43.348895" lon="11.797665"><ele>278.1428571428571</ele><time>2026-05-02T08:44:35.533Z</time></trkpt><trkpt lat="43.3488833" lon="11.7977533"><ele>278.0</ele><time>2026-05-02T08:44:36.532Z</time></trkpt><trkpt lat="43.348865" lon="11.7979233"><ele>278.0</ele><time>2026-05-02T08:44:38.535Z</time></trkpt><trkpt lat="43.348845" lon="11.7980867"><ele>278.0</ele><time>2026-05-02T08:44:40.532Z</time></trkpt><trkpt lat="43.3488383" lon="11.7981733"><ele>278.0</ele><time>2026-05-02T08:44:41.531Z</time></trkpt><trkpt lat="43.3488217" lon="11.7983433"><ele>278.0</ele><time>2026-05-02T08:44:43.529Z</time></trkpt><trkpt lat="43.3488167" lon="11.798435"><ele>278.0</ele><time>2026-05-02T08:44:44.532Z</time></trkpt><trkpt lat="43.348815" lon="11.7985233"><ele>278.0</ele><time>2026-05-02T08:44:45.53Z</time></trkpt><trkpt lat="43.3488133" lon="11.7986133"><ele>278.2</ele><time>2026-05-02T08:44:46.535Z</time></trkpt><trkpt lat="43.348815" lon="11.798705"><ele>278.4</ele><time>2026-05-02T08:44:47.534Z</time></trkpt><trkpt lat="43.34882" lon="11.7987933"><ele>278.59999999999997</ele><time>2026-05-02T08:44:48.533Z</time></trkpt><trkpt lat="43.348835" lon="11.7989617"><ele>278.8</ele><time>2026-05-02T08:44:50.535Z</time></trkpt><trkpt lat="43.3488467" lon="11.7991283"><ele>279.0</ele><time>2026-05-02T08:44:52.534Z</time></trkpt><trkpt lat="43.3488583" lon="11.7992983"><ele>278.59999999999997</ele><time>2026-05-02T08:44:54.533Z</time></trkpt><trkpt lat="43.3488717" lon="11.799465"><ele>278.2</ele><time>2026-05-02T08:44:56.528Z</time></trkpt><trkpt lat="43.34888" lon="11.79962"><ele>277.79999999999995</ele><time>2026-05-02T08:44:58.53Z</time></trkpt><trkpt lat="43.3488967" lon="11.7997583"><ele>277.4</ele><time>2026-05-02T08:45:00.539Z</time></trkpt><trkpt lat="43.3489167" lon="11.7998867"><ele>277.0</ele><time>2026-05-02T08:45:02.534Z</time></trkpt><trkpt lat="43.3489283" lon="11.80002"><ele>276.8</ele><time>2026-05-02T08:45:04.531Z</time></trkpt><trkpt lat="43.3489417" lon="11.8001467"><ele>276.6</ele><time>2026-05-02T08:45:06.532Z</time></trkpt><trkpt lat="43.3489633" lon="11.8002717"><ele>276.40000000000003</ele><time>2026-05-02T08:45:08.53Z</time></trkpt><trkpt lat="43.3489883" lon="11.8003867"><ele>276.2</ele><time>2026-05-02T08:45:10.532Z</time></trkpt><trkpt lat="43.3490167" lon="11.8005017"><ele>276.0</ele><time>2026-05-02T08:45:12.53Z</time></trkpt><trkpt lat="43.349045" lon="11.8006167"><ele>276.3333333333333</ele><time>2026-05-02T08:45:14.532Z</time></trkpt><trkpt lat="43.3490683" lon="11.8007317"><ele>276.6666666666667</ele><time>2026-05-02T08:45:16.531Z</time></trkpt><trkpt lat="43.3490917" lon="11.800845"><ele>277.0</ele><time>2026-05-02T08:45:18.536Z</time></trkpt><trkpt lat="43.3491117" lon="11.80095"><ele>277.33333333333337</ele><time>2026-05-02T08:45:20.531Z</time></trkpt><trkpt lat="43.349135" lon="11.8010533"><ele>277.6666666666667</ele><time>2026-05-02T08:45:22.533Z</time></trkpt><trkpt lat="43.3491567" lon="11.8011567"><ele>278.0</ele><time>2026-05-02T08:45:24.532Z</time></trkpt><trkpt lat="43.3491867" lon="11.8012567"><ele>278.42857142857144</ele><time>2026-05-02T08:45:26.532Z</time></trkpt><trkpt lat="43.349215" lon="11.80135"><ele>278.8571428571429</ele><time>2026-05-02T08:45:28.531Z</time></trkpt><trkpt lat="43.3492367" lon="11.8014483"><ele>279.28571428571433</ele><time>2026-05-02T08:45:30.533Z</time></trkpt><trkpt lat="43.34926" lon="11.8015383"><ele>279.7142857142857</ele><time>2026-05-02T08:45:32.533Z</time></trkpt><trkpt lat="43.34927" lon="11.80163"><ele>280.14285714285717</ele><time>2026-05-02T08:45:34.531Z</time></trkpt><trkpt lat="43.3492833" lon="11.8017167"><ele>280.5714285714286</ele><time>2026-05-02T08:45:36.529Z</time></trkpt><trkpt lat="43.34931" lon="11.8018017"><ele>281.0</ele><time>2026-05-02T08:45:38.533Z</time></trkpt><trkpt lat="43.3493333" lon="11.8018883"><ele>281.33333333333337</ele><time>2026-05-02T08:45:40.534Z</time></trkpt><trkpt lat="43.3493667" lon="11.8019667"><ele>281.6666666666667</ele><time>2026-05-02T08:45:42.531Z</time></trkpt><trkpt lat="43.3494167" lon="11.8020667"><ele>282.0</ele><time>2026-05-02T08:45:45.534Z</time></trkpt><trkpt lat="43.3494517" lon="11.802145"><ele>282.3333333333333</ele><time>2026-05-02T08:45:47.535Z</time></trkpt><trkpt lat="43.349485" lon="11.8022317"><ele>282.66666666666663</ele><time>2026-05-02T08:45:49.533Z</time></trkpt><trkpt lat="43.3495283" lon="11.8023367"><ele>283.0</ele><time>2026-05-02T08:45:51.531Z</time></trkpt><trkpt lat="43.3495633" lon="11.8024417"><ele>283.0</ele><time>2026-05-02T08:45:53.533Z</time></trkpt><trkpt lat="43.349595" lon="11.8025333"><ele>283.0</ele><time>2026-05-02T08:45:55.531Z</time></trkpt><trkpt lat="43.3496217" lon="11.802625"><ele>283.0</ele><time>2026-05-02T08:45:57.53Z</time></trkpt><trkpt lat="43.3496467" lon="11.8027133"><ele>283.0</ele><time>2026-05-02T08:45:59.533Z</time></trkpt><trkpt lat="43.34967" lon="11.8028083"><ele>283.0</ele><time>2026-05-02T08:46:01.535Z</time></trkpt><trkpt lat="43.3496983" lon="11.8029217"><ele>283.0</ele><time>2026-05-02T08:46:03.533Z</time></trkpt><trkpt lat="43.3497283" lon="11.8030217"><ele>282.8333333333333</ele><time>2026-05-02T08:46:05.53Z</time></trkpt><trkpt lat="43.3497617" lon="11.8031183"><ele>282.66666666666663</ele><time>2026-05-02T08:46:07.531Z</time></trkpt><trkpt lat="43.349795" lon="11.8032133"><ele>282.5</ele><time>2026-05-02T08:46:09.531Z</time></trkpt><trkpt lat="43.34983" lon="11.8033117"><ele>282.3333333333333</ele><time>2026-05-02T08:46:11.531Z</time></trkpt><trkpt lat="43.34986" lon="11.8034217"><ele>282.1666666666667</ele><time>2026-05-02T08:46:13.534Z</time></trkpt><trkpt lat="43.3498883" lon="11.8035083"><ele>282.0</ele><time>2026-05-02T08:46:15.539Z</time></trkpt><trkpt lat="43.3499167" lon="11.8036"><ele>281.8333333333333</ele><time>2026-05-02T08:46:17.533Z</time></trkpt><trkpt lat="43.3499417" lon="11.8036883"><ele>281.6666666666667</ele><time>2026-05-02T08:46:19.531Z</time></trkpt><trkpt lat="43.3499783" lon="11.8038083"><ele>281.5</ele><time>2026-05-02T08:46:22.534Z</time></trkpt><trkpt lat="43.3500167" lon="11.803905"><ele>281.33333333333337</ele><time>2026-05-02T08:46:24.531Z</time></trkpt><trkpt lat="43.3500617" lon="11.8040133"><ele>281.1666666666667</ele><time>2026-05-02T08:46:26.534Z</time></trkpt><trkpt lat="43.3501017" lon="11.8041367"><ele>281.0</ele><time>2026-05-02T08:46:28.534Z</time></trkpt><trkpt lat="43.3501467" lon="11.804255"><ele>280.40000000000003</ele><time>2026-05-02T08:46:30.532Z</time></trkpt><trkpt lat="43.3501883" lon="11.804375"><ele>279.8</ele><time>2026-05-02T08:46:32.533Z</time></trkpt><trkpt lat="43.350235" lon="11.8044917"><ele>279.20000000000005</ele><time>2026-05-02T08:46:34.53Z</time></trkpt><trkpt lat="43.3502817" lon="11.804605"><ele>278.6</ele><time>2026-05-02T08:46:36.535Z</time></trkpt><trkpt lat="43.3503217" lon="11.8047217"><ele>278.0</ele><time>2026-05-02T08:46:38.53Z</time></trkpt><trkpt lat="43.350365" lon="11.8048267"><ele>278.0</ele><time>2026-05-02T08:46:40.534Z</time></trkpt><trkpt lat="43.350405" lon="11.8049283"><ele>278.0</ele><time>2026-05-02T08:46:42.532Z</time></trkpt><trkpt lat="43.35044" lon="11.8050367"><ele>278.0</ele><time>2026-05-02T08:46:44.536Z</time></trkpt><trkpt lat="43.3504767" lon="11.8051517"><ele>278.0</ele><time>2026-05-02T08:46:46.53Z</time></trkpt><trkpt lat="43.350515" lon="11.8052717"><ele>278.0</ele><time>2026-05-02T08:46:48.531Z</time></trkpt><trkpt lat="43.3505483" lon="11.8053983"><ele>277.2</ele><time>2026-05-02T08:46:50.534Z</time></trkpt><trkpt lat="43.35058" lon="11.8055383"><ele>276.4</ele><time>2026-05-02T08:46:52.529Z</time></trkpt><trkpt lat="43.3506133" lon="11.8056867"><ele>275.59999999999997</ele><time>2026-05-02T08:46:54.533Z</time></trkpt><trkpt lat="43.35065" lon="11.80584"><ele>274.8</ele><time>2026-05-02T08:46:56.533Z</time></trkpt><trkpt lat="43.3506833" lon="11.80593"><ele>274.0</ele><time>2026-05-02T08:46:57.529Z</time></trkpt><trkpt lat="43.3507117" lon="11.8060133"><ele>273.59999999999997</ele><time>2026-05-02T08:46:58.533Z</time></trkpt><trkpt lat="43.35074" lon="11.8060967"><ele>273.2</ele><time>2026-05-02T08:47:00.531Z</time></trkpt><trkpt lat="43.3507833" lon="11.8062483"><ele>272.79999999999995</ele><time>2026-05-02T08:47:01.53Z</time></trkpt><trkpt lat="43.3508267" lon="11.8063933"><ele>272.4</ele><time>2026-05-02T08:47:03.529Z</time></trkpt><trkpt lat="43.350865" lon="11.8065483"><ele>272.0</ele><time>2026-05-02T08:47:05.53Z</time></trkpt><trkpt lat="43.350915" lon="11.8066983"><ele>272.0</ele><time>2026-05-02T08:47:07.53Z</time></trkpt><trkpt lat="43.3509617" lon="11.8068533"><ele>272.0</ele><time>2026-05-02T08:47:09.531Z</time></trkpt><trkpt lat="43.3510017" lon="11.8070017"><ele>272.0</ele><time>2026-05-02T08:47:11.536Z</time></trkpt><trkpt lat="43.3510317" lon="11.8071567"><ele>272.0</ele><time>2026-05-02T08:47:13.53Z</time></trkpt><trkpt lat="43.3510683" lon="11.8073183"><ele>271.99999999999994</ele><time>2026-05-02T08:47:15.533Z</time></trkpt><trkpt lat="43.35109" lon="11.8074067"><ele>272.0</ele><time>2026-05-02T08:47:16.53Z</time></trkpt><trkpt lat="43.3511133" lon="11.8074933"><ele>272.0</ele><time>2026-05-02T08:47:17.533Z</time></trkpt><trkpt lat="43.351135" lon="11.8075783"><ele>272.0</ele><time>2026-05-02T08:47:18.534Z</time></trkpt><trkpt lat="43.35116" lon="11.8076633"><ele>272.0</ele><time>2026-05-02T08:47:19.53Z</time></trkpt><trkpt lat="43.3511867" lon="11.80775"><ele>271.99999999999994</ele><time>2026-05-02T08:47:20.533Z</time></trkpt><trkpt lat="43.351215" lon="11.80783"><ele>272.0</ele><time>2026-05-02T08:47:21.533Z</time></trkpt><trkpt lat="43.3512767" lon="11.807975"><ele>272.33333333333337</ele><time>2026-05-02T08:47:23.531Z</time></trkpt><trkpt lat="43.3513133" lon="11.8080483"><ele>272.6666666666667</ele><time>2026-05-02T08:47:24.531Z</time></trkpt><trkpt lat="43.3513933" lon="11.80818"><ele>273.0</ele><time>2026-05-02T08:47:26.53Z</time></trkpt><trkpt lat="43.3514367" lon="11.8082433"><ele>273.3333333333333</ele><time>2026-05-02T08:47:27.538Z</time></trkpt><trkpt lat="43.3514783" lon="11.8083117"><ele>273.66666666666663</ele><time>2026-05-02T08:47:28.533Z</time></trkpt><trkpt lat="43.3515417" lon="11.80846"><ele>274.0</ele><time>2026-05-02T08:47:30.537Z</time></trkpt><trkpt lat="43.3515783" lon="11.8086867"><ele>271.3333333333333</ele><time>2026-05-02T08:47:33.528Z</time></trkpt><trkpt lat="43.3515633" lon="11.8088533"><ele>268.66666666666663</ele><time>2026-05-02T08:47:35.53Z</time></trkpt><trkpt lat="43.3515833" lon="11.8090233"><ele>266.0</ele><time>2026-05-02T08:47:37.531Z</time></trkpt><trkpt lat="43.351605" lon="11.8091083"><ele>263.3333333333333</ele><time>2026-05-02T08:47:38.532Z</time></trkpt><trkpt lat="43.3516333" lon="11.8091917"><ele>260.6666666666667</ele><time>2026-05-02T08:47:39.534Z</time></trkpt><trkpt lat="43.3516633" lon="11.8092733"><ele>258.0</ele><time>2026-05-02T08:47:40.534Z</time></trkpt><trkpt lat="43.3516883" lon="11.80936"><ele>257.4285714285714</ele><time>2026-05-02T08:47:41.532Z</time></trkpt><trkpt lat="43.3517117" lon="11.809445"><ele>256.85714285714283</ele><time>2026-05-02T08:47:42.536Z</time></trkpt><trkpt lat="43.3517367" lon="11.8095267"><ele>256.2857142857143</ele><time>2026-05-02T08:47:43.533Z</time></trkpt><trkpt lat="43.351765" lon="11.8096167"><ele>255.7142857142857</ele><time>2026-05-02T08:47:44.532Z</time></trkpt><trkpt lat="43.35179" lon="11.8097067"><ele>255.1428571428571</ele><time>2026-05-02T08:47:45.534Z</time></trkpt><trkpt lat="43.3518117" lon="11.8097967"><ele>254.57142857142858</ele><time>2026-05-02T08:47:46.535Z</time></trkpt><trkpt lat="43.3518317" lon="11.809885"><ele>254.0</ele><time>2026-05-02T08:47:47.531Z</time></trkpt><trkpt lat="43.3518633" lon="11.8099683"><ele>254.0</ele><time>2026-05-02T08:47:48.534Z</time></trkpt><trkpt lat="43.3518883" lon="11.8100483"><ele>253.99999999999997</ele><time>2026-05-02T08:47:49.531Z</time></trkpt><trkpt lat="43.3519517" lon="11.81019"><ele>253.99999999999997</ele><time>2026-05-02T08:47:51.535Z</time></trkpt><trkpt lat="43.351995" lon="11.8103183"><ele>254.0</ele><time>2026-05-02T08:47:53.532Z</time></trkpt><trkpt lat="43.3520267" lon="11.8104417"><ele>254.0</ele><time>2026-05-02T08:47:55.534Z</time></trkpt><trkpt lat="43.3520567" lon="11.8105533"><ele>253.33333333333334</ele><time>2026-05-02T08:47:57.534Z</time></trkpt><trkpt lat="43.3520617" lon="11.810675"><ele>252.66666666666669</ele><time>2026-05-02T08:48:00.535Z</time></trkpt><trkpt lat="43.352025" lon="11.81075"><ele>252.0</ele><time>2026-05-02T08:48:03.532Z</time></trkpt><trkpt lat="43.3519583" lon="11.8108217"><ele>251.33333333333331</ele><time>2026-05-02T08:48:06.532Z</time></trkpt><trkpt lat="43.351895" lon="11.81084"><ele>250.66666666666666</ele><time>2026-05-02T08:48:08.532Z</time></trkpt><trkpt lat="43.3518233" lon="11.81085"><ele>250.0</ele><time>2026-05-02T08:48:10.532Z</time></trkpt><trkpt lat="43.3517483" lon="11.8108633"><ele>250.0</ele><time>2026-05-02T08:48:12.53Z</time></trkpt><trkpt lat="43.3516717" lon="11.81088"><ele>250.0</ele><time>2026-05-02T08:48:14.533Z</time></trkpt><trkpt lat="43.3515983" lon="11.8108967"><ele>250.0</ele><time>2026-05-02T08:48:16.531Z</time></trkpt><trkpt lat="43.351525" lon="11.81091"><ele>250.0</ele><time>2026-05-02T08:48:18.531Z</time></trkpt><trkpt lat="43.351455" lon="11.8109233"><ele>250.0</ele><time>2026-05-02T08:48:20.532Z</time></trkpt><trkpt lat="43.3513817" lon="11.810945"><ele>250.0</ele><time>2026-05-02T08:48:22.533Z</time></trkpt><trkpt lat="43.3513067" lon="11.8109617"><ele>250.0</ele><time>2026-05-02T08:48:24.534Z</time></trkpt><trkpt lat="43.3512367" lon="11.810975"><ele>250.0</ele><time>2026-05-02T08:48:26.53Z</time></trkpt><trkpt lat="43.3511617" lon="11.8109883"><ele>250.0</ele><time>2026-05-02T08:48:28.536Z</time></trkpt><trkpt lat="43.35109" lon="11.811005"><ele>250.0</ele><time>2026-05-02T08:48:30.53Z</time></trkpt><trkpt lat="43.3510183" lon="11.811015"><ele>250.0</ele><time>2026-05-02T08:48:32.533Z</time></trkpt><trkpt lat="43.3509533" lon="11.81103"><ele>250.0</ele><time>2026-05-02T08:48:34.531Z</time></trkpt><trkpt lat="43.3508967" lon="11.8110767"><ele>250.0</ele><time>2026-05-02T08:48:36.534Z</time></trkpt><trkpt lat="43.35085" lon="11.8111583"><ele>250.0</ele><time>2026-05-02T08:48:38.532Z</time></trkpt><trkpt lat="43.35081" lon="11.8112533"><ele>250.0</ele><time>2026-05-02T08:48:40.532Z</time></trkpt><trkpt lat="43.3507667" lon="11.8113617"><ele>250.0</ele><time>2026-05-02T08:48:42.529Z</time></trkpt><trkpt lat="43.35076" lon="11.8114817"><ele>250.0</ele><time>2026-05-02T08:48:44.533Z</time></trkpt><trkpt lat="43.350765" lon="11.8116183"><ele>250.0</ele><time>2026-05-02T08:48:46.533Z</time></trkpt><trkpt lat="43.35078" lon="11.8117617"><ele>250.0</ele><time>2026-05-02T08:48:48.533Z</time></trkpt><trkpt lat="43.350795" lon="11.811925"><ele>249.8</ele><time>2026-05-02T08:48:50.533Z</time></trkpt><trkpt lat="43.35081" lon="11.8120783"><ele>249.6</ele><time>2026-05-02T08:48:52.536Z</time></trkpt><trkpt lat="43.3508267" lon="11.812235"><ele>249.39999999999998</ele><time>2026-05-02T08:48:54.536Z</time></trkpt><trkpt lat="43.35083" lon="11.8123267"><ele>249.2</ele><time>2026-05-02T08:48:55.528Z</time></trkpt><trkpt lat="43.3508533" lon="11.81249"><ele>249.0</ele><time>2026-05-02T08:48:57.531Z</time></trkpt><trkpt lat="43.35087" lon="11.8126383"><ele>248.79999999999998</ele><time>2026-05-02T08:48:59.528Z</time></trkpt><trkpt lat="43.3508783" lon="11.8127683"><ele>248.59999999999997</ele><time>2026-05-02T08:49:01.528Z</time></trkpt><trkpt lat="43.3508917" lon="11.8128817"><ele>248.4</ele><time>2026-05-02T08:49:03.533Z</time></trkpt><trkpt lat="43.3508967" lon="11.8130133"><ele>248.2</ele><time>2026-05-02T08:49:05.534Z</time></trkpt><trkpt lat="43.35091" lon="11.81315"><ele>248.0</ele><time>2026-05-02T08:49:07.53Z</time></trkpt><trkpt lat="43.3509183" lon="11.8132917"><ele>248.0</ele><time>2026-05-02T08:49:09.538Z</time></trkpt><trkpt lat="43.3509317" lon="11.8134333"><ele>248.0</ele><time>2026-05-02T08:49:11.532Z</time></trkpt><trkpt lat="43.3509433" lon="11.8135767"><ele>248.0</ele><time>2026-05-02T08:49:13.53Z</time></trkpt><trkpt lat="43.350955" lon="11.8137267"><ele>248.0</ele><time>2026-05-02T08:49:15.532Z</time></trkpt><trkpt lat="43.3509683" lon="11.813875"><ele>248.0</ele><time>2026-05-02T08:49:17.533Z</time></trkpt><trkpt lat="43.3509833" lon="11.8140233"><ele>247.60000000000002</ele><time>2026-05-02T08:49:19.531Z</time></trkpt><trkpt lat="43.3509983" lon="11.8141667"><ele>247.20000000000002</ele><time>2026-05-02T08:49:21.534Z</time></trkpt><trkpt lat="43.3510117" lon="11.8143083"><ele>246.8</ele><time>2026-05-02T08:49:23.531Z</time></trkpt><trkpt lat="43.3510217" lon="11.8144517"><ele>246.4</ele><time>2026-05-02T08:49:25.531Z</time></trkpt><trkpt lat="43.351035" lon="11.8146017"><ele>246.0</ele><time>2026-05-02T08:49:27.53Z</time></trkpt><trkpt lat="43.3510517" lon="11.81475"><ele>245.8</ele><time>2026-05-02T08:49:29.53Z</time></trkpt><trkpt lat="43.35107" lon="11.8149017"><ele>245.60000000000002</ele><time>2026-05-02T08:49:31.532Z</time></trkpt><trkpt lat="43.3510883" lon="11.815055"><ele>245.4</ele><time>2026-05-02T08:49:33.53Z</time></trkpt><trkpt lat="43.3511067" lon="11.815205"><ele>245.2</ele><time>2026-05-02T08:49:35.531Z</time></trkpt><trkpt lat="43.3511167" lon="11.815355"><ele>245.0</ele><time>2026-05-02T08:49:37.531Z</time></trkpt><trkpt lat="43.3511267" lon="11.8155033"><ele>245.0</ele><time>2026-05-02T08:49:39.531Z</time></trkpt><trkpt lat="43.3511367" lon="11.81565"><ele>245.0</ele><time>2026-05-02T08:49:41.531Z</time></trkpt><trkpt lat="43.3511467" lon="11.8157933"><ele>245.0</ele><time>2026-05-02T08:49:43.534Z</time></trkpt><trkpt lat="43.3511583" lon="11.81594"><ele>245.0</ele><time>2026-05-02T08:49:45.533Z</time></trkpt><trkpt lat="43.3511683" lon="11.8160833"><ele>245.0</ele><time>2026-05-02T08:49:47.53Z</time></trkpt><trkpt lat="43.35118" lon="11.8162283"><ele>245.0</ele><time>2026-05-02T08:49:49.533Z</time></trkpt><trkpt lat="43.35119" lon="11.8163667"><ele>245.0</ele><time>2026-05-02T08:49:51.53Z</time></trkpt><trkpt lat="43.351205" lon="11.8165117"><ele>245.0</ele><time>2026-05-02T08:49:53.533Z</time></trkpt><trkpt lat="43.3512167" lon="11.8166533"><ele>245.0</ele><time>2026-05-02T08:49:55.533Z</time></trkpt><trkpt lat="43.3512283" lon="11.81679"><ele>245.0</ele><time>2026-05-02T08:49:57.53Z</time></trkpt><trkpt lat="43.351245" lon="11.8169233"><ele>244.8</ele><time>2026-05-02T08:49:59.532Z</time></trkpt><trkpt lat="43.35126" lon="11.817055"><ele>244.6</ele><time>2026-05-02T08:50:01.531Z</time></trkpt><trkpt lat="43.351275" lon="11.817195"><ele>244.39999999999998</ele><time>2026-05-02T08:50:03.53Z</time></trkpt><trkpt lat="43.3512833" lon="11.8173383"><ele>244.2</ele><time>2026-05-02T08:50:05.535Z</time></trkpt><trkpt lat="43.3513" lon="11.8174833"><ele>244.0</ele><time>2026-05-02T08:50:07.531Z</time></trkpt><trkpt lat="43.3513133" lon="11.8176317"><ele>244.0</ele><time>2026-05-02T08:50:09.53Z</time></trkpt><trkpt lat="43.3513317" lon="11.8177783"><ele>243.99999999999997</ele><time>2026-05-02T08:50:11.534Z</time></trkpt><trkpt lat="43.3513533" lon="11.817925"><ele>243.99999999999997</ele><time>2026-05-02T08:50:13.529Z</time></trkpt><trkpt lat="43.3513683" lon="11.81807"><ele>244.0</ele><time>2026-05-02T08:50:15.53Z</time></trkpt><trkpt lat="43.351385" lon="11.8182117"><ele>244.0</ele><time>2026-05-02T08:50:17.531Z</time></trkpt><trkpt lat="43.3514" lon="11.8183533"><ele>244.0</ele><time>2026-05-02T08:50:19.532Z</time></trkpt><trkpt lat="43.351415" lon="11.8185"><ele>243.99999999999997</ele><time>2026-05-02T08:50:21.531Z</time></trkpt><trkpt lat="43.3514267" lon="11.81864"><ele>243.99999999999997</ele><time>2026-05-02T08:50:23.531Z</time></trkpt><trkpt lat="43.35144" lon="11.8187767"><ele>244.0</ele><time>2026-05-02T08:50:25.533Z</time></trkpt><trkpt lat="43.351455" lon="11.8189117"><ele>244.0</ele><time>2026-05-02T08:50:27.53Z</time></trkpt><trkpt lat="43.3514683" lon="11.81905"><ele>244.0</ele><time>2026-05-02T08:50:29.53Z</time></trkpt><trkpt lat="43.3514783" lon="11.8191917"><ele>243.99999999999997</ele><time>2026-05-02T08:50:31.531Z</time></trkpt><trkpt lat="43.3514917" lon="11.81933"><ele>243.99999999999997</ele><time>2026-05-02T08:50:33.533Z</time></trkpt><trkpt lat="43.351505" lon="11.8194633"><ele>244.0</ele><time>2026-05-02T08:50:35.531Z</time></trkpt><trkpt lat="43.35152" lon="11.8195967"><ele>244.0</ele><time>2026-05-02T08:50:37.531Z</time></trkpt><trkpt lat="43.351535" lon="11.8197317"><ele>244.0</ele><time>2026-05-02T08:50:39.528Z</time></trkpt><trkpt lat="43.35155" lon="11.81987"><ele>243.99999999999997</ele><time>2026-05-02T08:50:41.53Z</time></trkpt><trkpt lat="43.3515617" lon="11.8200083"><ele>243.99999999999997</ele><time>2026-05-02T08:50:43.53Z</time></trkpt><trkpt lat="43.351575" lon="11.8201517"><ele>244.0</ele><time>2026-05-02T08:50:45.531Z</time></trkpt><trkpt lat="43.35159" lon="11.8202933"><ele>244.0</ele><time>2026-05-02T08:50:47.53Z</time></trkpt><trkpt lat="43.3516017" lon="11.82044"><ele>244.0</ele><time>2026-05-02T08:50:49.528Z</time></trkpt><trkpt lat="43.3516167" lon="11.8205783"><ele>243.99999999999997</ele><time>2026-05-02T08:50:51.531Z</time></trkpt><trkpt lat="43.3516283" lon="11.8207117"><ele>243.99999999999997</ele><time>2026-05-02T08:50:53.534Z</time></trkpt><trkpt lat="43.3516383" lon="11.820845"><ele>244.0</ele><time>2026-05-02T08:50:55.529Z</time></trkpt><trkpt lat="43.3516483" lon="11.8209783"><ele>244.0</ele><time>2026-05-02T08:50:57.536Z</time></trkpt><trkpt lat="43.3516667" lon="11.8211117"><ele>244.2</ele><time>2026-05-02T08:50:59.531Z</time></trkpt><trkpt lat="43.3516783" lon="11.8212383"><ele>244.39999999999998</ele><time>2026-05-02T08:51:01.533Z</time></trkpt><trkpt lat="43.35169" lon="11.8213617"><ele>244.6</ele><time>2026-05-02T08:51:03.53Z</time></trkpt><trkpt lat="43.3516983" lon="11.8214867"><ele>244.8</ele><time>2026-05-02T08:51:05.531Z</time></trkpt><trkpt lat="43.35171" lon="11.8216133"><ele>245.0</ele><time>2026-05-02T08:51:07.532Z</time></trkpt><trkpt lat="43.3517233" lon="11.8217417"><ele>245.0</ele><time>2026-05-02T08:51:09.532Z</time></trkpt><trkpt lat="43.3517367" lon="11.8218717"><ele>245.0</ele><time>2026-05-02T08:51:11.53Z</time></trkpt><trkpt lat="43.35175" lon="11.8220033"><ele>245.0</ele><time>2026-05-02T08:51:13.534Z</time></trkpt><trkpt lat="43.3517633" lon="11.8221383"><ele>245.0</ele><time>2026-05-02T08:51:15.532Z</time></trkpt><trkpt lat="43.3517733" lon="11.8222783"><ele>245.0</ele><time>2026-05-02T08:51:17.529Z</time></trkpt><trkpt lat="43.3517867" lon="11.8224183"><ele>245.0</ele><time>2026-05-02T08:51:19.53Z</time></trkpt><trkpt lat="43.3518017" lon="11.8225533"><ele>245.0</ele><time>2026-05-02T08:51:21.536Z</time></trkpt><trkpt lat="43.3518133" lon="11.8226883"><ele>245.0</ele><time>2026-05-02T08:51:23.533Z</time></trkpt><trkpt lat="43.3518267" lon="11.8228217"><ele>245.0</ele><time>2026-05-02T08:51:25.532Z</time></trkpt><trkpt lat="43.3518383" lon="11.8229517"><ele>245.0</ele><time>2026-05-02T08:51:27.531Z</time></trkpt><trkpt lat="43.3518483" lon="11.8230783"><ele>244.6</ele><time>2026-05-02T08:51:29.533Z</time></trkpt><trkpt lat="43.35186" lon="11.823205"><ele>244.2</ele><time>2026-05-02T08:51:31.531Z</time></trkpt><trkpt lat="43.3518667" lon="11.823335"><ele>243.8</ele><time>2026-05-02T08:51:33.53Z</time></trkpt><trkpt lat="43.35188" lon="11.8234633"><ele>243.4</ele><time>2026-05-02T08:51:35.535Z</time></trkpt><trkpt lat="43.351895" lon="11.8235983"><ele>243.0</ele><time>2026-05-02T08:51:37.53Z</time></trkpt><trkpt lat="43.3519067" lon="11.8237317"><ele>242.8</ele><time>2026-05-02T08:51:39.531Z</time></trkpt><trkpt lat="43.3519183" lon="11.823865"><ele>242.60000000000002</ele><time>2026-05-02T08:51:41.534Z</time></trkpt><trkpt lat="43.35193" lon="11.823995"><ele>242.39999999999998</ele><time>2026-05-02T08:51:43.535Z</time></trkpt><trkpt lat="43.351945" lon="11.824125"><ele>242.2</ele><time>2026-05-02T08:51:45.535Z</time></trkpt><trkpt lat="43.35196" lon="11.82425"><ele>242.0</ele><time>2026-05-02T08:51:47.532Z</time></trkpt><trkpt lat="43.3519833" lon="11.82444"><ele>242.33333333333334</ele><time>2026-05-02T08:51:50.536Z</time></trkpt><trkpt lat="43.3519967" lon="11.82456"><ele>242.66666666666669</ele><time>2026-05-02T08:51:52.531Z</time></trkpt><trkpt lat="43.35201" lon="11.8246817"><ele>243.0</ele><time>2026-05-02T08:51:54.532Z</time></trkpt><trkpt lat="43.3520217" lon="11.8247967"><ele>243.33333333333331</ele><time>2026-05-02T08:51:56.535Z</time></trkpt><trkpt lat="43.3520333" lon="11.8249117"><ele>243.66666666666666</ele><time>2026-05-02T08:51:58.531Z</time></trkpt><trkpt lat="43.3520433" lon="11.8250367"><ele>244.0</ele><time>2026-05-02T08:52:00.534Z</time></trkpt><trkpt lat="43.3520533" lon="11.8251667"><ele>244.0</ele><time>2026-05-02T08:52:02.53Z</time></trkpt><trkpt lat="43.352065" lon="11.8252933"><ele>243.99999999999997</ele><time>2026-05-02T08:52:04.534Z</time></trkpt><trkpt lat="43.352075" lon="11.82542"><ele>243.99999999999997</ele><time>2026-05-02T08:52:06.532Z</time></trkpt><trkpt lat="43.35209" lon="11.82554"><ele>244.0</ele><time>2026-05-02T08:52:08.534Z</time></trkpt><trkpt lat="43.3521017" lon="11.8256633"><ele>244.0</ele><time>2026-05-02T08:52:10.531Z</time></trkpt><trkpt lat="43.3521167" lon="11.8257833"><ele>243.99999999999997</ele><time>2026-05-02T08:52:12.532Z</time></trkpt><trkpt lat="43.3521267" lon="11.8259083"><ele>244.0</ele><time>2026-05-02T08:52:14.531Z</time></trkpt><trkpt lat="43.35214" lon="11.82603"><ele>244.0</ele><time>2026-05-02T08:52:16.532Z</time></trkpt><trkpt lat="43.352155" lon="11.82615"><ele>244.0</ele><time>2026-05-02T08:52:18.534Z</time></trkpt><trkpt lat="43.3521683" lon="11.8262717"><ele>243.99999999999997</ele><time>2026-05-02T08:52:20.53Z</time></trkpt><trkpt lat="43.3521783" lon="11.8263917"><ele>244.0</ele><time>2026-05-02T08:52:22.533Z</time></trkpt><trkpt lat="43.3521883" lon="11.82651"><ele>243.6</ele><time>2026-05-02T08:52:24.535Z</time></trkpt><trkpt lat="43.3521983" lon="11.8266283"><ele>243.2</ele><time>2026-05-02T08:52:26.534Z</time></trkpt><trkpt lat="43.3522117" lon="11.8267483"><ele>242.79999999999998</ele><time>2026-05-02T08:52:28.531Z</time></trkpt><trkpt lat="43.352225" lon="11.82687"><ele>242.39999999999998</ele><time>2026-05-02T08:52:30.531Z</time></trkpt><trkpt lat="43.3522383" lon="11.827005"><ele>242.0</ele><time>2026-05-02T08:52:32.531Z</time></trkpt><trkpt lat="43.35225" lon="11.8271367"><ele>242.0</ele><time>2026-05-02T08:52:34.531Z</time></trkpt><trkpt lat="43.3522633" lon="11.827265"><ele>242.0</ele><time>2026-05-02T08:52:36.534Z</time></trkpt><trkpt lat="43.3522717" lon="11.8273883"><ele>242.0</ele><time>2026-05-02T08:52:38.531Z</time></trkpt><trkpt lat="43.35228" lon="11.8275117"><ele>242.0</ele><time>2026-05-02T08:52:40.531Z</time></trkpt><trkpt lat="43.3522917" lon="11.8276367"><ele>242.0</ele><time>2026-05-02T08:52:42.531Z</time></trkpt><trkpt lat="43.352305" lon="11.8277717"><ele>242.0</ele><time>2026-05-02T08:52:44.534Z</time></trkpt><trkpt lat="43.352315" lon="11.8279067"><ele>242.0</ele><time>2026-05-02T08:52:46.531Z</time></trkpt><trkpt lat="43.35233" lon="11.8280417"><ele>242.0</ele><time>2026-05-02T08:52:48.531Z</time></trkpt><trkpt lat="43.3523433" lon="11.8281667"><ele>242.0</ele><time>2026-05-02T08:52:50.534Z</time></trkpt><trkpt lat="43.3523583" lon="11.8282917"><ele>242.0</ele><time>2026-05-02T08:52:52.532Z</time></trkpt><trkpt lat="43.352375" lon="11.8284183"><ele>242.0</ele><time>2026-05-02T08:52:54.541Z</time></trkpt><trkpt lat="43.3523917" lon="11.8285533"><ele>242.0</ele><time>2026-05-02T08:52:56.535Z</time></trkpt><trkpt lat="43.3524" lon="11.82869"><ele>242.0</ele><time>2026-05-02T08:52:58.53Z</time></trkpt><trkpt lat="43.3524083" lon="11.8288217"><ele>242.0</ele><time>2026-05-02T08:53:00.531Z</time></trkpt><trkpt lat="43.3524217" lon="11.82896"><ele>242.0</ele><time>2026-05-02T08:53:02.535Z</time></trkpt><trkpt lat="43.3524333" lon="11.8290967"><ele>242.0</ele><time>2026-05-02T08:53:04.532Z</time></trkpt><trkpt lat="43.3524433" lon="11.8292283"><ele>242.0</ele><time>2026-05-02T08:53:06.531Z</time></trkpt><trkpt lat="43.3524567" lon="11.8293617"><ele>242.0</ele><time>2026-05-02T08:53:08.536Z</time></trkpt><trkpt lat="43.3524717" lon="11.8294933"><ele>242.0</ele><time>2026-05-02T08:53:10.532Z</time></trkpt><trkpt lat="43.3524833" lon="11.8296283"><ele>242.0</ele><time>2026-05-02T08:53:12.534Z</time></trkpt><trkpt lat="43.3524967" lon="11.829765"><ele>242.0</ele><time>2026-05-02T08:53:14.53Z</time></trkpt><trkpt lat="43.3525117" lon="11.8298983"><ele>242.0</ele><time>2026-05-02T08:53:16.535Z</time></trkpt><trkpt lat="43.352525" lon="11.8300317"><ele>242.0</ele><time>2026-05-02T08:53:18.532Z</time></trkpt><trkpt lat="43.352535" lon="11.83016"><ele>242.0</ele><time>2026-05-02T08:53:20.534Z</time></trkpt><trkpt lat="43.3525483" lon="11.8302867"><ele>242.0</ele><time>2026-05-02T08:53:22.536Z</time></trkpt><trkpt lat="43.3525617" lon="11.830415"><ele>242.0</ele><time>2026-05-02T08:53:24.538Z</time></trkpt><trkpt lat="43.3525733" lon="11.8305483"><ele>242.0</ele><time>2026-05-02T08:53:26.534Z</time></trkpt><trkpt lat="43.3525867" lon="11.83068"><ele>242.0</ele><time>2026-05-02T08:53:28.529Z</time></trkpt><trkpt lat="43.3525967" lon="11.83081"><ele>242.0</ele><time>2026-05-02T08:53:30.533Z</time></trkpt><trkpt lat="43.35261" lon="11.830945"><ele>242.0</ele><time>2026-05-02T08:53:32.531Z</time></trkpt><trkpt lat="43.3526217" lon="11.8310717"><ele>241.8</ele><time>2026-05-02T08:53:34.531Z</time></trkpt><trkpt lat="43.3526333" lon="11.8312017"><ele>241.6</ele><time>2026-05-02T08:53:36.53Z</time></trkpt><trkpt lat="43.352645" lon="11.8313367"><ele>241.40000000000003</ele><time>2026-05-02T08:53:38.537Z</time></trkpt><trkpt lat="43.3526583" lon="11.8314683"><ele>241.20000000000002</ele><time>2026-05-02T08:53:40.531Z</time></trkpt><trkpt lat="43.352675" lon="11.8315967"><ele>241.0</ele><time>2026-05-02T08:53:42.53Z</time></trkpt><trkpt lat="43.3526883" lon="11.831725"><ele>241.20000000000002</ele><time>2026-05-02T08:53:44.531Z</time></trkpt><trkpt lat="43.3527017" lon="11.831855"><ele>241.40000000000003</ele><time>2026-05-02T08:53:46.53Z</time></trkpt><trkpt lat="43.3527133" lon="11.831985"><ele>241.6</ele><time>2026-05-02T08:53:48.533Z</time></trkpt><trkpt lat="43.3527267" lon="11.8321133"><ele>241.8</ele><time>2026-05-02T08:53:50.531Z</time></trkpt><trkpt lat="43.35274" lon="11.832245"><ele>242.0</ele><time>2026-05-02T08:53:52.533Z</time></trkpt><trkpt lat="43.3527533" lon="11.8323767"><ele>242.0</ele><time>2026-05-02T08:53:54.531Z</time></trkpt><trkpt lat="43.352765" lon="11.8325067"><ele>242.0</ele><time>2026-05-02T08:53:56.535Z</time></trkpt><trkpt lat="43.3527767" lon="11.832635"><ele>242.0</ele><time>2026-05-02T08:53:58.532Z</time></trkpt><trkpt lat="43.3527883" lon="11.8327633"><ele>242.0</ele><time>2026-05-02T08:54:00.532Z</time></trkpt><trkpt lat="43.3528033" lon="11.8328933"><ele>242.0</ele><time>2026-05-02T08:54:02.532Z</time></trkpt><trkpt lat="43.3528183" lon="11.83302"><ele>242.2</ele><time>2026-05-02T08:54:04.531Z</time></trkpt><trkpt lat="43.3528317" lon="11.8331467"><ele>242.39999999999998</ele><time>2026-05-02T08:54:06.533Z</time></trkpt><trkpt lat="43.3528467" lon="11.8332717"><ele>242.60000000000002</ele><time>2026-05-02T08:54:08.531Z</time></trkpt><trkpt lat="43.3528533" lon="11.8334"><ele>242.8</ele><time>2026-05-02T08:54:10.531Z</time></trkpt><trkpt lat="43.3528633" lon="11.8335283"><ele>243.0</ele><time>2026-05-02T08:54:12.529Z</time></trkpt><trkpt lat="43.3528717" lon="11.8336583"><ele>243.0</ele><time>2026-05-02T08:54:14.534Z</time></trkpt><trkpt lat="43.3528817" lon="11.83379"><ele>243.0</ele><time>2026-05-02T08:54:16.529Z</time></trkpt><trkpt lat="43.352895" lon="11.83392"><ele>243.0</ele><time>2026-05-02T08:54:18.53Z</time></trkpt><trkpt lat="43.35291" lon="11.8340483"><ele>243.0</ele><time>2026-05-02T08:54:20.533Z</time></trkpt><trkpt lat="43.3529233" lon="11.8341783"><ele>243.0</ele><time>2026-05-02T08:54:22.533Z</time></trkpt><trkpt lat="43.3529367" lon="11.8343083"><ele>243.2</ele><time>2026-05-02T08:54:24.532Z</time></trkpt><trkpt lat="43.3529467" lon="11.8344317"><ele>243.4</ele><time>2026-05-02T08:54:26.531Z</time></trkpt><trkpt lat="43.35296" lon="11.8345583"><ele>243.59999999999997</ele><time>2026-05-02T08:54:28.532Z</time></trkpt><trkpt lat="43.3529717" lon="11.8346867"><ele>243.79999999999998</ele><time>2026-05-02T08:54:30.532Z</time></trkpt><trkpt lat="43.3529833" lon="11.834815"><ele>244.0</ele><time>2026-05-02T08:54:32.531Z</time></trkpt><trkpt lat="43.3529983" lon="11.834945"><ele>244.0</ele><time>2026-05-02T08:54:34.531Z</time></trkpt><trkpt lat="43.35301" lon="11.8350683"><ele>243.99999999999997</ele><time>2026-05-02T08:54:36.533Z</time></trkpt><trkpt lat="43.3530217" lon="11.8351917"><ele>243.99999999999997</ele><time>2026-05-02T08:54:38.533Z</time></trkpt><trkpt lat="43.353035" lon="11.8353133"><ele>244.0</ele><time>2026-05-02T08:54:40.532Z</time></trkpt><trkpt lat="43.3530483" lon="11.83544"><ele>244.0</ele><time>2026-05-02T08:54:42.532Z</time></trkpt><trkpt lat="43.3530567" lon="11.8355633"><ele>244.0</ele><time>2026-05-02T08:54:44.532Z</time></trkpt><trkpt lat="43.3530667" lon="11.835685"><ele>243.99999999999997</ele><time>2026-05-02T08:54:46.534Z</time></trkpt><trkpt lat="43.35308" lon="11.8358117"><ele>243.99999999999997</ele><time>2026-05-02T08:54:48.529Z</time></trkpt><trkpt lat="43.3530917" lon="11.8359383"><ele>244.0</ele><time>2026-05-02T08:54:50.531Z</time></trkpt><trkpt lat="43.353105" lon="11.836065"><ele>244.0</ele><time>2026-05-02T08:54:52.534Z</time></trkpt><trkpt lat="43.353115" lon="11.8361883"><ele>244.0</ele><time>2026-05-02T08:54:54.531Z</time></trkpt><trkpt lat="43.3531283" lon="11.83631"><ele>243.99999999999997</ele><time>2026-05-02T08:54:56.537Z</time></trkpt><trkpt lat="43.3531417" lon="11.836435"><ele>243.99999999999997</ele><time>2026-05-02T08:54:58.533Z</time></trkpt><trkpt lat="43.353155" lon="11.836555"><ele>244.0</ele><time>2026-05-02T08:55:00.534Z</time></trkpt><trkpt lat="43.353165" lon="11.83668"><ele>244.0</ele><time>2026-05-02T08:55:02.533Z</time></trkpt><trkpt lat="43.3531783" lon="11.836805"><ele>244.16666666666666</ele><time>2026-05-02T08:55:04.53Z</time></trkpt><trkpt lat="43.35319" lon="11.8369217"><ele>244.33333333333331</ele><time>2026-05-02T08:55:06.53Z</time></trkpt><trkpt lat="43.3532017" lon="11.837035"><ele>244.5</ele><time>2026-05-02T08:55:08.534Z</time></trkpt><trkpt lat="43.35321" lon="11.8371417"><ele>244.66666666666669</ele><time>2026-05-02T08:55:10.53Z</time></trkpt><trkpt lat="43.35322" lon="11.837255"><ele>244.83333333333334</ele><time>2026-05-02T08:55:12.532Z</time></trkpt><trkpt lat="43.3532317" lon="11.8373617"><ele>245.0</ele><time>2026-05-02T08:55:14.531Z</time></trkpt><trkpt lat="43.3532433" lon="11.8374783"><ele>245.00000000000003</ele><time>2026-05-02T08:55:16.529Z</time></trkpt><trkpt lat="43.353255" lon="11.837595"><ele>245.0</ele><time>2026-05-02T08:55:18.531Z</time></trkpt><trkpt lat="43.3532633" lon="11.837705"><ele>245.0</ele><time>2026-05-02T08:55:20.532Z</time></trkpt><trkpt lat="43.3532733" lon="11.8378183"><ele>245.0</ele><time>2026-05-02T08:55:22.53Z</time></trkpt><trkpt lat="43.3532817" lon="11.8379333"><ele>245.00000000000003</ele><time>2026-05-02T08:55:24.531Z</time></trkpt><trkpt lat="43.3532933" lon="11.8380467"><ele>245.0</ele><time>2026-05-02T08:55:26.533Z</time></trkpt><trkpt lat="43.3533067" lon="11.83816"><ele>245.14285714285714</ele><time>2026-05-02T08:55:28.53Z</time></trkpt><trkpt lat="43.3533167" lon="11.8382717"><ele>245.28571428571428</ele><time>2026-05-02T08:55:30.533Z</time></trkpt><trkpt lat="43.3533233" lon="11.8383733"><ele>245.42857142857144</ele><time>2026-05-02T08:55:32.533Z</time></trkpt><trkpt lat="43.3533333" lon="11.838475"><ele>245.57142857142858</ele><time>2026-05-02T08:55:34.529Z</time></trkpt><trkpt lat="43.353345" lon="11.8385817"><ele>245.71428571428572</ele><time>2026-05-02T08:55:36.53Z</time></trkpt><trkpt lat="43.3533733" lon="11.838665"><ele>245.8571428571429</ele><time>2026-05-02T08:55:38.535Z</time></trkpt><trkpt lat="43.3534083" lon="11.83875"><ele>246.00000000000003</ele><time>2026-05-02T08:55:40.531Z</time></trkpt><trkpt lat="43.3534367" lon="11.838845"><ele>246.5</ele><time>2026-05-02T08:55:42.53Z</time></trkpt><trkpt lat="43.3534733" lon="11.8389417"><ele>247.0</ele><time>2026-05-02T08:55:44.532Z</time></trkpt><trkpt lat="43.3535183" lon="11.8390367"><ele>247.5</ele><time>2026-05-02T08:55:46.535Z</time></trkpt><trkpt lat="43.35357" lon="11.8391167"><ele>248.0</ele><time>2026-05-02T08:55:48.533Z</time></trkpt><trkpt lat="43.353625" lon="11.8392017"><ele>248.5</ele><time>2026-05-02T08:55:50.531Z</time></trkpt><trkpt lat="43.3536817" lon="11.8392833"><ele>249.0</ele><time>2026-05-02T08:55:52.534Z</time></trkpt><trkpt lat="43.3537433" lon="11.83936"><ele>249.33333333333334</ele><time>2026-05-02T08:55:54.532Z</time></trkpt><trkpt lat="43.3538133" lon="11.8394267"><ele>249.66666666666669</ele><time>2026-05-02T08:55:56.532Z</time></trkpt><trkpt lat="43.3538833" lon="11.8394967"><ele>250.0</ele><time>2026-05-02T08:55:58.531Z</time></trkpt><trkpt lat="43.3539633" lon="11.839555"><ele>250.33333333333334</ele><time>2026-05-02T08:56:00.532Z</time></trkpt><trkpt lat="43.3540433" lon="11.8395917"><ele>250.66666666666669</ele><time>2026-05-02T08:56:02.531Z</time></trkpt><trkpt lat="43.3541333" lon="11.8396233"><ele>251.0</ele><time>2026-05-02T08:56:04.533Z</time></trkpt><trkpt lat="43.3542233" lon="11.8396483"><ele>251.0</ele><time>2026-05-02T08:56:06.533Z</time></trkpt><trkpt lat="43.3543167" lon="11.8396817"><ele>251.00000000000003</ele><time>2026-05-02T08:56:08.532Z</time></trkpt><trkpt lat="43.3544133" lon="11.8397267"><ele>251.00000000000003</ele><time>2026-05-02T08:56:10.538Z</time></trkpt><trkpt lat="43.3545067" lon="11.8397583"><ele>251.0</ele><time>2026-05-02T08:56:12.531Z</time></trkpt><trkpt lat="43.3546067" lon="11.8397967"><ele>251.0</ele><time>2026-05-02T08:56:14.531Z</time></trkpt><trkpt lat="43.3547083" lon="11.8398317"><ele>250.4</ele><time>2026-05-02T08:56:16.534Z</time></trkpt><trkpt lat="43.3548067" lon="11.8398583"><ele>249.8</ele><time>2026-05-02T08:56:18.531Z</time></trkpt><trkpt lat="43.3549017" lon="11.83989"><ele>249.20000000000002</ele><time>2026-05-02T08:56:20.532Z</time></trkpt><trkpt lat="43.3549917" lon="11.8399233"><ele>248.60000000000002</ele><time>2026-05-02T08:56:22.531Z</time></trkpt><trkpt lat="43.3550817" lon="11.8399533"><ele>248.0</ele><time>2026-05-02T08:56:24.532Z</time></trkpt><trkpt lat="43.3551733" lon="11.8399817"><ele>248.0</ele><time>2026-05-02T08:56:26.536Z</time></trkpt><trkpt lat="43.3552667" lon="11.840015"><ele>248.0</ele><time>2026-05-02T08:56:28.529Z</time></trkpt><trkpt lat="43.3553633" lon="11.8400383"><ele>248.0</ele><time>2026-05-02T08:56:30.532Z</time></trkpt><trkpt lat="43.3554533" lon="11.8400617"><ele>248.0</ele><time>2026-05-02T08:56:32.532Z</time></trkpt><trkpt lat="43.3555417" lon="11.8400933"><ele>248.0</ele><time>2026-05-02T08:56:34.529Z</time></trkpt><trkpt lat="43.3556267" lon="11.8401383"><ele>248.60000000000002</ele><time>2026-05-02T08:56:36.533Z</time></trkpt><trkpt lat="43.35572" lon="11.8401733"><ele>249.20000000000002</ele><time>2026-05-02T08:56:38.53Z</time></trkpt><trkpt lat="43.3558167" lon="11.8402033"><ele>249.8</ele><time>2026-05-02T08:56:40.529Z</time></trkpt><trkpt lat="43.3559167" lon="11.8402233"><ele>250.4</ele><time>2026-05-02T08:56:42.531Z</time></trkpt><trkpt lat="43.356015" lon="11.8402367"><ele>251.0</ele><time>2026-05-02T08:56:44.534Z</time></trkpt><trkpt lat="43.3561133" lon="11.84025"><ele>251.0</ele><time>2026-05-02T08:56:46.531Z</time></trkpt><trkpt lat="43.3562133" lon="11.8402567"><ele>251.00000000000003</ele><time>2026-05-02T08:56:48.534Z</time></trkpt><trkpt lat="43.3563133" lon="11.84025"><ele>251.00000000000003</ele><time>2026-05-02T08:56:50.534Z</time></trkpt><trkpt lat="43.35641" lon="11.8402417"><ele>251.0</ele><time>2026-05-02T08:56:52.53Z</time></trkpt><trkpt lat="43.3565067" lon="11.84022"><ele>251.0</ele><time>2026-05-02T08:56:54.53Z</time></trkpt><trkpt lat="43.3566067" lon="11.84019"><ele>250.83333333333334</ele><time>2026-05-02T08:56:56.535Z</time></trkpt><trkpt lat="43.3567017" lon="11.8401517"><ele>250.66666666666669</ele><time>2026-05-02T08:56:58.535Z</time></trkpt><trkpt lat="43.3567983" lon="11.8401067"><ele>250.5</ele><time>2026-05-02T08:57:00.531Z</time></trkpt><trkpt lat="43.35688" lon="11.8400617"><ele>250.33333333333331</ele><time>2026-05-02T08:57:02.537Z</time></trkpt><trkpt lat="43.3569533" lon="11.8400217"><ele>250.16666666666666</ele><time>2026-05-02T08:57:04.53Z</time></trkpt><trkpt lat="43.3570183" lon="11.8399867"><ele>250.0</ele><time>2026-05-02T08:57:06.53Z</time></trkpt><trkpt lat="43.35708" lon="11.83995"><ele>249.83333333333331</ele><time>2026-05-02T08:57:08.531Z</time></trkpt><trkpt lat="43.3571567" lon="11.8399"><ele>249.66666666666666</ele><time>2026-05-02T08:57:11.537Z</time></trkpt><trkpt lat="43.3572367" lon="11.8398433"><ele>249.5</ele><time>2026-05-02T08:57:14.534Z</time></trkpt><trkpt lat="43.3572983" lon="11.839775"><ele>249.33333333333331</ele><time>2026-05-02T08:57:16.531Z</time></trkpt><trkpt lat="43.3573717" lon="11.8397217"><ele>249.16666666666666</ele><time>2026-05-02T08:57:18.533Z</time></trkpt><trkpt lat="43.357445" lon="11.839665"><ele>249.0</ele><time>2026-05-02T08:57:20.535Z</time></trkpt><trkpt lat="43.3575267" lon="11.839605"><ele>248.79999999999998</ele><time>2026-05-02T08:57:22.531Z</time></trkpt><trkpt lat="43.3576117" lon="11.83955"><ele>248.59999999999997</ele><time>2026-05-02T08:57:24.531Z</time></trkpt><trkpt lat="43.3577033" lon="11.8394933"><ele>248.4</ele><time>2026-05-02T08:57:26.532Z</time></trkpt><trkpt lat="43.3577967" lon="11.83944"><ele>248.2</ele><time>2026-05-02T08:57:28.531Z</time></trkpt><trkpt lat="43.3579" lon="11.83938"><ele>248.0</ele><time>2026-05-02T08:57:30.534Z</time></trkpt><trkpt lat="43.358005" lon="11.83932"><ele>247.4</ele><time>2026-05-02T08:57:32.531Z</time></trkpt><trkpt lat="43.3581067" lon="11.8392567"><ele>246.8</ele><time>2026-05-02T08:57:34.531Z</time></trkpt><trkpt lat="43.358215" lon="11.8392033"><ele>246.2</ele><time>2026-05-02T08:57:36.533Z</time></trkpt><trkpt lat="43.3583117" lon="11.8391467"><ele>245.6</ele><time>2026-05-02T08:57:38.534Z</time></trkpt><trkpt lat="43.3584083" lon="11.8390817"><ele>245.0</ele><time>2026-05-02T08:57:40.529Z</time></trkpt><trkpt lat="43.35851" lon="11.8390217"><ele>245.0</ele><time>2026-05-02T08:57:42.531Z</time></trkpt><trkpt lat="43.3586083" lon="11.8389667"><ele>245.0</ele><time>2026-05-02T08:57:44.533Z</time></trkpt><trkpt lat="43.358705" lon="11.8389333"><ele>245.0</ele><time>2026-05-02T08:57:46.534Z</time></trkpt><trkpt lat="43.3587933" lon="11.838915"><ele>245.0</ele><time>2026-05-02T08:57:48.53Z</time></trkpt><trkpt lat="43.358895" lon="11.8389067"><ele>245.0</ele><time>2026-05-02T08:57:50.531Z</time></trkpt><trkpt lat="43.3589933" lon="11.8389467"><ele>244.8</ele><time>2026-05-02T08:57:52.535Z</time></trkpt><trkpt lat="43.3590933" lon="11.83898"><ele>244.6</ele><time>2026-05-02T08:57:54.532Z</time></trkpt><trkpt lat="43.3591917" lon="11.8390133"><ele>244.39999999999998</ele><time>2026-05-02T08:57:56.535Z</time></trkpt><trkpt lat="43.3592983" lon="11.8390483"><ele>244.2</ele><time>2026-05-02T08:57:58.533Z</time></trkpt><trkpt lat="43.3594033" lon="11.839085"><ele>244.0</ele><time>2026-05-02T08:58:00.53Z</time></trkpt><trkpt lat="43.3595067" lon="11.8391233"><ele>244.0</ele><time>2026-05-02T08:58:02.535Z</time></trkpt><trkpt lat="43.359605" lon="11.8391617"><ele>243.99999999999997</ele><time>2026-05-02T08:58:04.53Z</time></trkpt><trkpt lat="43.3596983" lon="11.8392067"><ele>243.99999999999997</ele><time>2026-05-02T08:58:06.529Z</time></trkpt><trkpt lat="43.3597917" lon="11.839235"><ele>244.0</ele><time>2026-05-02T08:58:08.531Z</time></trkpt><trkpt lat="43.3598867" lon="11.8392633"><ele>244.0</ele><time>2026-05-02T08:58:10.533Z</time></trkpt><trkpt lat="43.3599783" lon="11.8392967"><ele>244.2</ele><time>2026-05-02T08:58:12.533Z</time></trkpt><trkpt lat="43.3600683" lon="11.8393267"><ele>244.39999999999998</ele><time>2026-05-02T08:58:14.535Z</time></trkpt><trkpt lat="43.36016" lon="11.8393567"><ele>244.6</ele><time>2026-05-02T08:58:16.531Z</time></trkpt><trkpt lat="43.36025" lon="11.839385"><ele>244.8</ele><time>2026-05-02T08:58:18.535Z</time></trkpt><trkpt lat="43.3603333" lon="11.83942"><ele>245.0</ele><time>2026-05-02T08:58:20.534Z</time></trkpt><trkpt lat="43.3604167" lon="11.8394467"><ele>245.0</ele><time>2026-05-02T08:58:22.531Z</time></trkpt><trkpt lat="43.3605067" lon="11.8394733"><ele>245.0</ele><time>2026-05-02T08:58:24.535Z</time></trkpt><trkpt lat="43.3605967" lon="11.839505"><ele>245.0</ele><time>2026-05-02T08:58:26.534Z</time></trkpt><trkpt lat="43.3606883" lon="11.8395317"><ele>245.0</ele><time>2026-05-02T08:58:28.534Z</time></trkpt><trkpt lat="43.3607817" lon="11.839565"><ele>245.0</ele><time>2026-05-02T08:58:30.533Z</time></trkpt><trkpt lat="43.360865" lon="11.839595"><ele>245.16666666666669</ele><time>2026-05-02T08:58:32.536Z</time></trkpt><trkpt lat="43.36095" lon="11.8396283"><ele>245.33333333333334</ele><time>2026-05-02T08:58:34.534Z</time></trkpt><trkpt lat="43.36103" lon="11.839645"><ele>245.5</ele><time>2026-05-02T08:58:36.529Z</time></trkpt><trkpt lat="43.361105" lon="11.8396417"><ele>245.66666666666669</ele><time>2026-05-02T08:58:38.532Z</time></trkpt><trkpt lat="43.36119" lon="11.8396483"><ele>245.83333333333334</ele><time>2026-05-02T08:58:40.53Z</time></trkpt><trkpt lat="43.3612783" lon="11.8396533"><ele>246.0</ele><time>2026-05-02T08:58:42.533Z</time></trkpt><trkpt lat="43.3613633" lon="11.839655"><ele>245.83333333333334</ele><time>2026-05-02T08:58:44.531Z</time></trkpt><trkpt lat="43.3614467" lon="11.839655"><ele>245.66666666666669</ele><time>2026-05-02T08:58:46.535Z</time></trkpt><trkpt lat="43.36153" lon="11.839655"><ele>245.5</ele><time>2026-05-02T08:58:48.536Z</time></trkpt><trkpt lat="43.3616133" lon="11.8396533"><ele>245.33333333333334</ele><time>2026-05-02T08:58:50.532Z</time></trkpt><trkpt lat="43.3616967" lon="11.8396517"><ele>245.16666666666669</ele><time>2026-05-02T08:58:52.531Z</time></trkpt><trkpt lat="43.3617783" lon="11.83965"><ele>245.0</ele><time>2026-05-02T08:58:54.536Z</time></trkpt><trkpt lat="43.3618583" lon="11.83965"><ele>245.00000000000003</ele><time>2026-05-02T08:58:56.531Z</time></trkpt><trkpt lat="43.3619367" lon="11.8396517"><ele>245.0</ele><time>2026-05-02T08:58:58.532Z</time></trkpt><trkpt lat="43.3620167" lon="11.8396533"><ele>245.0</ele><time>2026-05-02T08:59:00.533Z</time></trkpt><trkpt lat="43.3621" lon="11.83965"><ele>245.0</ele><time>2026-05-02T08:59:02.529Z</time></trkpt><trkpt lat="43.3621867" lon="11.8396467"><ele>245.00000000000003</ele><time>2026-05-02T08:59:04.531Z</time></trkpt><trkpt lat="43.3622717" lon="11.839635"><ele>245.0</ele><time>2026-05-02T08:59:06.532Z</time></trkpt><trkpt lat="43.3623583" lon="11.839615"><ele>245.00000000000003</ele><time>2026-05-02T08:59:08.531Z</time></trkpt><trkpt lat="43.362435" lon="11.8395767"><ele>245.0</ele><time>2026-05-02T08:59:10.533Z</time></trkpt><trkpt lat="43.3625133" lon="11.839525"><ele>245.0</ele><time>2026-05-02T08:59:12.531Z</time></trkpt><trkpt lat="43.3625917" lon="11.8394633"><ele>245.0</ele><time>2026-05-02T08:59:14.533Z</time></trkpt><trkpt lat="43.3626633" lon="11.8393883"><ele>245.00000000000003</ele><time>2026-05-02T08:59:16.532Z</time></trkpt><trkpt lat="43.362735" lon="11.8393117"><ele>245.0</ele><time>2026-05-02T08:59:18.531Z</time></trkpt><trkpt lat="43.362805" lon="11.8392367"><ele>244.83333333333334</ele><time>2026-05-02T08:59:20.533Z</time></trkpt><trkpt lat="43.3628667" lon="11.8391683"><ele>244.66666666666669</ele><time>2026-05-02T08:59:22.531Z</time></trkpt><trkpt lat="43.362925" lon="11.8391033"><ele>244.5</ele><time>2026-05-02T08:59:24.533Z</time></trkpt><trkpt lat="43.3629833" lon="11.8390383"><ele>244.33333333333331</ele><time>2026-05-02T08:59:26.533Z</time></trkpt><trkpt lat="43.3630483" lon="11.8389733"><ele>244.16666666666666</ele><time>2026-05-02T08:59:28.529Z</time></trkpt><trkpt lat="43.3631167" lon="11.8389117"><ele>244.0</ele><time>2026-05-02T08:59:30.533Z</time></trkpt><trkpt lat="43.3631833" lon="11.8388467"><ele>244.33333333333331</ele><time>2026-05-02T08:59:32.533Z</time></trkpt><trkpt lat="43.3632517" lon="11.8387833"><ele>244.66666666666666</ele><time>2026-05-02T08:59:34.533Z</time></trkpt><trkpt lat="43.363325" lon="11.8387183"><ele>245.0</ele><time>2026-05-02T08:59:36.531Z</time></trkpt><trkpt lat="43.3633967" lon="11.838655"><ele>245.33333333333331</ele><time>2026-05-02T08:59:38.54Z</time></trkpt><trkpt lat="43.36347" lon="11.838595"><ele>245.66666666666666</ele><time>2026-05-02T08:59:40.533Z</time></trkpt><trkpt lat="43.3635467" lon="11.838535"><ele>246.0</ele><time>2026-05-02T08:59:42.534Z</time></trkpt><trkpt lat="43.3636183" lon="11.838475"><ele>246.0</ele><time>2026-05-02T08:59:44.53Z</time></trkpt><trkpt lat="43.3636883" lon="11.8384167"><ele>246.0</ele><time>2026-05-02T08:59:46.531Z</time></trkpt><trkpt lat="43.36376" lon="11.8383583"><ele>246.0</ele><time>2026-05-02T08:59:48.531Z</time></trkpt><trkpt lat="43.3638367" lon="11.838305"><ele>246.0</ele><time>2026-05-02T08:59:50.537Z</time></trkpt><trkpt lat="43.363915" lon="11.838275"><ele>246.0</ele><time>2026-05-02T08:59:52.531Z</time></trkpt><trkpt lat="43.36399" lon="11.8382517"><ele>246.0</ele><time>2026-05-02T08:59:54.535Z</time></trkpt><trkpt lat="43.3640583" lon="11.8382133"><ele>246.5</ele><time>2026-05-02T08:59:56.532Z</time></trkpt><trkpt lat="43.3641333" lon="11.8381867"><ele>247.0</ele><time>2026-05-02T08:59:58.536Z</time></trkpt><trkpt lat="43.3642117" lon="11.8381633"><ele>247.5</ele><time>2026-05-02T09:00:00.528Z</time></trkpt><trkpt lat="43.3642967" lon="11.8381317"><ele>248.0</ele><time>2026-05-02T09:00:02.531Z</time></trkpt><trkpt lat="43.3643817" lon="11.8380917"><ele>248.5</ele><time>2026-05-02T09:00:04.532Z</time></trkpt><trkpt lat="43.36447" lon="11.8380583"><ele>249.0</ele><time>2026-05-02T09:00:06.531Z</time></trkpt><trkpt lat="43.3645633" lon="11.838035"><ele>249.0</ele><time>2026-05-02T09:00:08.533Z</time></trkpt><trkpt lat="43.36466" lon="11.838005"><ele>248.99999999999997</ele><time>2026-05-02T09:00:10.532Z</time></trkpt><trkpt lat="43.3647583" lon="11.837975"><ele>248.99999999999997</ele><time>2026-05-02T09:00:12.531Z</time></trkpt><trkpt lat="43.3648567" lon="11.837945"><ele>249.0</ele><time>2026-05-02T09:00:14.535Z</time></trkpt><trkpt lat="43.3649583" lon="11.8379117"><ele>249.0</ele><time>2026-05-02T09:00:16.53Z</time></trkpt><trkpt lat="43.3650517" lon="11.8378817"><ele>249.75</ele><time>2026-05-02T09:00:18.531Z</time></trkpt><trkpt lat="43.3651467" lon="11.837845"><ele>250.5</ele><time>2026-05-02T09:00:20.535Z</time></trkpt><trkpt lat="43.365245" lon="11.8378083"><ele>251.25</ele><time>2026-05-02T09:00:22.532Z</time></trkpt><trkpt lat="43.365395" lon="11.8377883"><ele>252.0</ele><time>2026-05-02T09:00:25.537Z</time></trkpt><trkpt lat="43.365495" lon="11.8378083"><ele>251.83333333333334</ele><time>2026-05-02T09:00:27.53Z</time></trkpt><trkpt lat="43.3655917" lon="11.8378367"><ele>251.66666666666669</ele><time>2026-05-02T09:00:29.531Z</time></trkpt><trkpt lat="43.3656817" lon="11.83787"><ele>251.5</ele><time>2026-05-02T09:00:31.534Z</time></trkpt><trkpt lat="43.365765" lon="11.8379167"><ele>251.33333333333334</ele><time>2026-05-02T09:00:33.534Z</time></trkpt><trkpt lat="43.3658333" lon="11.837945"><ele>251.16666666666669</ele><time>2026-05-02T09:00:35.536Z</time></trkpt><trkpt lat="43.3659017" lon="11.837975"><ele>251.0</ele><time>2026-05-02T09:00:37.531Z</time></trkpt><trkpt lat="43.3659933" lon="11.838005"><ele>251.00000000000003</ele><time>2026-05-02T09:00:39.529Z</time></trkpt><trkpt lat="43.3660817" lon="11.8380417"><ele>251.0</ele><time>2026-05-02T09:00:41.531Z</time></trkpt><trkpt lat="43.366165" lon="11.8380917"><ele>251.0</ele><time>2026-05-02T09:00:43.531Z</time></trkpt><trkpt lat="43.366245" lon="11.8381267"><ele>251.0</ele><time>2026-05-02T09:00:45.531Z</time></trkpt><trkpt lat="43.3663167" lon="11.83816"><ele>251.00000000000003</ele><time>2026-05-02T09:00:47.534Z</time></trkpt><trkpt lat="43.366395" lon="11.8381983"><ele>251.0</ele><time>2026-05-02T09:00:49.534Z</time></trkpt><trkpt lat="43.3664633" lon="11.83823"><ele>250.66666666666669</ele><time>2026-05-02T09:00:51.535Z</time></trkpt><trkpt lat="43.36655" lon="11.83826"><ele>250.33333333333334</ele><time>2026-05-02T09:00:54.531Z</time></trkpt><trkpt lat="43.3666217" lon="11.8382583"><ele>250.0</ele><time>2026-05-02T09:00:56.532Z</time></trkpt><trkpt lat="43.366705" lon="11.8382767"><ele>249.66666666666669</ele><time>2026-05-02T09:00:58.532Z</time></trkpt><trkpt lat="43.3667833" lon="11.8383"><ele>249.33333333333334</ele><time>2026-05-02T09:01:00.531Z</time></trkpt><trkpt lat="43.36686" lon="11.838315"><ele>249.0</ele><time>2026-05-02T09:01:02.533Z</time></trkpt><trkpt lat="43.3669383" lon="11.8383317"><ele>249.0</ele><time>2026-05-02T09:01:04.532Z</time></trkpt><trkpt lat="43.3670133" lon="11.8383467"><ele>249.0</ele><time>2026-05-02T09:01:06.533Z</time></trkpt><trkpt lat="43.3670917" lon="11.8383533"><ele>249.0</ele><time>2026-05-02T09:01:08.535Z</time></trkpt><trkpt lat="43.3671667" lon="11.83837"><ele>249.0</ele><time>2026-05-02T09:01:10.53Z</time></trkpt><trkpt lat="43.3672383" lon="11.8383917"><ele>249.0</ele><time>2026-05-02T09:01:12.534Z</time></trkpt><trkpt lat="43.3673167" lon="11.8384067"><ele>249.0</ele><time>2026-05-02T09:01:14.533Z</time></trkpt><trkpt lat="43.3673967" lon="11.8384283"><ele>249.0</ele><time>2026-05-02T09:01:16.531Z</time></trkpt><trkpt lat="43.3674767" lon="11.8384567"><ele>249.0</ele><time>2026-05-02T09:01:18.531Z</time></trkpt><trkpt lat="43.3675567" lon="11.8384833"><ele>249.0</ele><time>2026-05-02T09:01:20.531Z</time></trkpt><trkpt lat="43.3676283" lon="11.8385233"><ele>249.0</ele><time>2026-05-02T09:01:22.535Z</time></trkpt><trkpt lat="43.3676883" lon="11.8385733"><ele>249.0</ele><time>2026-05-02T09:01:24.533Z</time></trkpt><trkpt lat="43.367745" lon="11.8386283"><ele>249.0</ele><time>2026-05-02T09:01:26.532Z</time></trkpt><trkpt lat="43.3677983" lon="11.8386867"><ele>250.0</ele><time>2026-05-02T09:01:28.531Z</time></trkpt><trkpt lat="43.3678533" lon="11.8387417"><ele>250.99999999999997</ele><time>2026-05-02T09:01:30.533Z</time></trkpt><trkpt lat="43.3679117" lon="11.8388"><ele>252.0</ele><time>2026-05-02T09:01:32.532Z</time></trkpt><trkpt lat="43.3679717" lon="11.8388483"><ele>253.0</ele><time>2026-05-02T09:01:34.532Z</time></trkpt><trkpt lat="43.368035" lon="11.8388883"><ele>253.99999999999997</ele><time>2026-05-02T09:01:36.535Z</time></trkpt><trkpt lat="43.3681" lon="11.8389367"><ele>255.0</ele><time>2026-05-02T09:01:38.535Z</time></trkpt><trkpt lat="43.3681667" lon="11.8389817"><ele>256.0</ele><time>2026-05-02T09:01:40.531Z</time></trkpt><trkpt lat="43.3682317" lon="11.83901"><ele>255.99999999999997</ele><time>2026-05-02T09:01:42.53Z</time></trkpt><trkpt lat="43.3683033" lon="11.83902"><ele>256.0</ele><time>2026-05-02T09:01:44.533Z</time></trkpt><trkpt lat="43.36839" lon="11.83901"><ele>256.0</ele><time>2026-05-02T09:01:47.533Z</time></trkpt><trkpt lat="43.368485" lon="11.8390083"><ele>256.0</ele><time>2026-05-02T09:01:50.532Z</time></trkpt><trkpt lat="43.3685583" lon="11.8390217"><ele>255.99999999999997</ele><time>2026-05-02T09:01:52.531Z</time></trkpt><trkpt lat="43.3686317" lon="11.8390283"><ele>256.0</ele><time>2026-05-02T09:01:54.531Z</time></trkpt><trkpt lat="43.3687" lon="11.8390333"><ele>256.0</ele><time>2026-05-02T09:01:56.532Z</time></trkpt><trkpt lat="43.3687683" lon="11.8390517"><ele>255.99999999999997</ele><time>2026-05-02T09:01:58.532Z</time></trkpt><trkpt lat="43.36884" lon="11.839065"><ele>256.0</ele><time>2026-05-02T09:02:00.533Z</time></trkpt><trkpt lat="43.36891" lon="11.8390767"><ele>256.0</ele><time>2026-05-02T09:02:02.533Z</time></trkpt><trkpt lat="43.36898" lon="11.8390883"><ele>255.99999999999997</ele><time>2026-05-02T09:02:04.532Z</time></trkpt><trkpt lat="43.3690583" lon="11.839095"><ele>256.0</ele><time>2026-05-02T09:02:06.532Z</time></trkpt><trkpt lat="43.3691383" lon="11.839105"><ele>256.0</ele><time>2026-05-02T09:02:08.531Z</time></trkpt><trkpt lat="43.369215" lon="11.83912"><ele>255.99999999999997</ele><time>2026-05-02T09:02:10.531Z</time></trkpt><trkpt lat="43.36929" lon="11.839135"><ele>256.0</ele><time>2026-05-02T09:02:12.528Z</time></trkpt><trkpt lat="43.3693633" lon="11.839145"><ele>256.0</ele><time>2026-05-02T09:02:14.533Z</time></trkpt><trkpt lat="43.3694317" lon="11.8391517"><ele>256.0</ele><time>2026-05-02T09:02:16.533Z</time></trkpt><trkpt lat="43.3695267" lon="11.8391667"><ele>255.99999999999997</ele><time>2026-05-02T09:02:19.528Z</time></trkpt><trkpt lat="43.3695967" lon="11.8391817"><ele>256.0</ele><time>2026-05-02T09:02:21.532Z</time></trkpt><trkpt lat="43.3696733" lon="11.8392133"><ele>256.6</ele><time>2026-05-02T09:02:23.531Z</time></trkpt><trkpt lat="43.36976" lon="11.8392533"><ele>257.20000000000005</ele><time>2026-05-02T09:02:25.532Z</time></trkpt><trkpt lat="43.36986" lon="11.839305"><ele>257.79999999999995</ele><time>2026-05-02T09:02:27.534Z</time></trkpt><trkpt lat="43.3699683" lon="11.8393633"><ele>258.4</ele><time>2026-05-02T09:02:29.534Z</time></trkpt><trkpt lat="43.3700783" lon="11.8394233"><ele>259.0</ele><time>2026-05-02T09:02:31.532Z</time></trkpt><trkpt lat="43.3701917" lon="11.839475"><ele>259.0</ele><time>2026-05-02T09:02:33.535Z</time></trkpt><trkpt lat="43.3703017" lon="11.83951"><ele>259.0</ele><time>2026-05-02T09:02:35.532Z</time></trkpt><trkpt lat="43.370405" lon="11.8395033"><ele>259.0</ele><time>2026-05-02T09:02:37.53Z</time></trkpt><trkpt lat="43.3705" lon="11.83946"><ele>259.0</ele><time>2026-05-02T09:02:39.533Z</time></trkpt><trkpt lat="43.3706033" lon="11.8393817"><ele>259.0</ele><time>2026-05-02T09:02:41.529Z</time></trkpt><trkpt lat="43.3706917" lon="11.8393033"><ele>257.5</ele><time>2026-05-02T09:02:43.533Z</time></trkpt><trkpt lat="43.3707767" lon="11.8392417"><ele>256.0</ele><time>2026-05-02T09:02:45.532Z</time></trkpt><trkpt lat="43.3708533" lon="11.8391917"><ele>254.5</ele><time>2026-05-02T09:02:47.528Z</time></trkpt><trkpt lat="43.3709267" lon="11.8391367"><ele>253.0</ele><time>2026-05-02T09:02:49.528Z</time></trkpt><trkpt lat="43.3709967" lon="11.8390917"><ele>251.49999999999997</ele><time>2026-05-02T09:02:51.526Z</time></trkpt><trkpt lat="43.3710417" lon="11.8389867"><ele>250.0</ele><time>2026-05-02T09:02:53.526Z</time></trkpt><trkpt lat="43.37107" lon="11.8388683"><ele>249.99999999999997</ele><time>2026-05-02T09:02:54.531Z</time></trkpt><trkpt lat="43.371155" lon="11.8388533"><ele>250.0</ele><time>2026-05-02T09:02:57.532Z</time></trkpt><trkpt lat="43.371245" lon="11.8388433"><ele>250.0</ele><time>2026-05-02T09:03:00.532Z</time></trkpt><trkpt lat="43.3713283" lon="11.8388183"><ele>250.0</ele><time>2026-05-02T09:03:03.534Z</time></trkpt><trkpt lat="43.3713967" lon="11.8387933"><ele>249.99999999999997</ele><time>2026-05-02T09:03:06.53Z</time></trkpt><trkpt lat="43.3714717" lon="11.8387517"><ele>250.0</ele><time>2026-05-02T09:03:09.53Z</time></trkpt><trkpt lat="43.3715383" lon="11.8387067"><ele>250.16666666666666</ele><time>2026-05-02T09:03:11.529Z</time></trkpt><trkpt lat="43.3716117" lon="11.838655"><ele>250.33333333333331</ele><time>2026-05-02T09:03:13.533Z</time></trkpt><trkpt lat="43.371685" lon="11.8385967"><ele>250.5</ele><time>2026-05-02T09:03:15.531Z</time></trkpt><trkpt lat="43.3717617" lon="11.8385283"><ele>250.66666666666669</ele><time>2026-05-02T09:03:17.531Z</time></trkpt><trkpt lat="43.37182" lon="11.8384383"><ele>250.83333333333334</ele><time>2026-05-02T09:03:19.536Z</time></trkpt><trkpt lat="43.3718633" lon="11.8383317"><ele>251.0</ele><time>2026-05-02T09:03:21.531Z</time></trkpt><trkpt lat="43.3719033" lon="11.8382233"><ele>250.33333333333334</ele><time>2026-05-02T09:03:23.53Z</time></trkpt><trkpt lat="43.37194" lon="11.8381117"><ele>249.66666666666669</ele><time>2026-05-02T09:03:25.534Z</time></trkpt><trkpt lat="43.37197" lon="11.8379967"><ele>249.0</ele><time>2026-05-02T09:03:27.535Z</time></trkpt><trkpt lat="43.372" lon="11.837885"><ele>248.33333333333331</ele><time>2026-05-02T09:03:29.533Z</time></trkpt><trkpt lat="43.3720317" lon="11.83777"><ele>247.66666666666666</ele><time>2026-05-02T09:03:31.534Z</time></trkpt><trkpt lat="43.372065" lon="11.8376517"><ele>247.0</ele><time>2026-05-02T09:03:33.534Z</time></trkpt><trkpt lat="43.3720967" lon="11.837535"><ele>247.16666666666666</ele><time>2026-05-02T09:03:35.532Z</time></trkpt><trkpt lat="43.3721267" lon="11.8374233"><ele>247.33333333333331</ele><time>2026-05-02T09:03:37.531Z</time></trkpt><trkpt lat="43.3721583" lon="11.8373233"><ele>247.5</ele><time>2026-05-02T09:03:39.534Z</time></trkpt><trkpt lat="43.372215" lon="11.8372683"><ele>247.66666666666669</ele><time>2026-05-02T09:03:41.535Z</time></trkpt><trkpt lat="43.3722867" lon="11.8372767"><ele>247.83333333333334</ele><time>2026-05-02T09:03:43.532Z</time></trkpt><trkpt lat="43.372355" lon="11.837305"><ele>248.0</ele><time>2026-05-02T09:03:45.528Z</time></trkpt><trkpt lat="43.37242" lon="11.837345"><ele>248.0</ele><time>2026-05-02T09:03:47.533Z</time></trkpt><trkpt lat="43.3724867" lon="11.837385"><ele>248.00000000000003</ele><time>2026-05-02T09:03:49.532Z</time></trkpt><trkpt lat="43.3725533" lon="11.83743"><ele>248.0</ele><time>2026-05-02T09:03:51.531Z</time></trkpt><trkpt lat="43.3726217" lon="11.837475"><ele>248.0</ele><time>2026-05-02T09:03:53.534Z</time></trkpt><trkpt lat="43.372685" lon="11.837515"><ele>248.00000000000003</ele><time>2026-05-02T09:03:55.533Z</time></trkpt><trkpt lat="43.3727533" lon="11.8375467"><ele>248.0</ele><time>2026-05-02T09:03:57.531Z</time></trkpt><trkpt lat="43.3728167" lon="11.8375833"><ele>248.0</ele><time>2026-05-02T09:03:59.536Z</time></trkpt><trkpt lat="43.3728783" lon="11.83762"><ele>248.0</ele><time>2026-05-02T09:04:01.53Z</time></trkpt><trkpt lat="43.3729417" lon="11.8376533"><ele>248.00000000000003</ele><time>2026-05-02T09:04:03.531Z</time></trkpt><trkpt lat="43.3730133" lon="11.83768"><ele>248.0</ele><time>2026-05-02T09:04:05.531Z</time></trkpt><trkpt lat="43.373085" lon="11.8377117"><ele>248.0</ele><time>2026-05-02T09:04:07.532Z</time></trkpt><trkpt lat="43.3731517" lon="11.83775"><ele>248.00000000000003</ele><time>2026-05-02T09:04:09.535Z</time></trkpt><trkpt lat="43.373215" lon="11.8377683"><ele>248.0</ele><time>2026-05-02T09:04:11.533Z</time></trkpt><trkpt lat="43.3732833" lon="11.83779"><ele>248.0</ele><time>2026-05-02T09:04:13.533Z</time></trkpt><trkpt lat="43.3733567" lon="11.8378217"><ele>248.00000000000003</ele><time>2026-05-02T09:04:15.532Z</time></trkpt><trkpt lat="43.373435" lon="11.837855"><ele>248.0</ele><time>2026-05-02T09:04:17.533Z</time></trkpt><trkpt lat="43.3735067" lon="11.8378833"><ele>248.0</ele><time>2026-05-02T09:04:19.53Z</time></trkpt><trkpt lat="43.3735767" lon="11.83791"><ele>248.0</ele><time>2026-05-02T09:04:21.532Z</time></trkpt><trkpt lat="43.373645" lon="11.837935"><ele>248.00000000000003</ele><time>2026-05-02T09:04:23.534Z</time></trkpt><trkpt lat="43.37372" lon="11.83796"><ele>248.0</ele><time>2026-05-02T09:04:25.532Z</time></trkpt><trkpt lat="43.3737933" lon="11.8379867"><ele>248.42857142857144</ele><time>2026-05-02T09:04:27.533Z</time></trkpt><trkpt lat="43.373865" lon="11.8380133"><ele>248.8571428571429</ele><time>2026-05-02T09:04:29.533Z</time></trkpt><trkpt lat="43.3739367" lon="11.8380417"><ele>249.28571428571428</ele><time>2026-05-02T09:04:31.531Z</time></trkpt><trkpt lat="43.3740067" lon="11.83807"><ele>249.71428571428572</ele><time>2026-05-02T09:04:33.533Z</time></trkpt><trkpt lat="43.3740783" lon="11.8381"><ele>250.14285714285714</ele><time>2026-05-02T09:04:35.533Z</time></trkpt><trkpt lat="43.3741417" lon="11.83813"><ele>250.57142857142856</ele><time>2026-05-02T09:04:37.53Z</time></trkpt><trkpt lat="43.374205" lon="11.838155"><ele>250.99999999999997</ele><time>2026-05-02T09:04:39.53Z</time></trkpt><trkpt lat="43.3742717" lon="11.83818"><ele>251.00000000000003</ele><time>2026-05-02T09:04:41.53Z</time></trkpt><trkpt lat="43.3743417" lon="11.8382"><ele>251.0</ele><time>2026-05-02T09:04:43.53Z</time></trkpt><trkpt lat="43.374415" lon="11.8382233"><ele>251.0</ele><time>2026-05-02T09:04:45.53Z</time></trkpt><trkpt lat="43.3744867" lon="11.8382517"><ele>251.0</ele><time>2026-05-02T09:04:47.535Z</time></trkpt><trkpt lat="43.3745633" lon="11.83828"><ele>251.00000000000003</ele><time>2026-05-02T09:04:49.533Z</time></trkpt><trkpt lat="43.37464" lon="11.8383117"><ele>251.0</ele><time>2026-05-02T09:04:51.534Z</time></trkpt><trkpt lat="43.3747167" lon="11.8383417"><ele>251.20000000000002</ele><time>2026-05-02T09:04:53.532Z</time></trkpt><trkpt lat="43.3747933" lon="11.8383783"><ele>251.40000000000003</ele><time>2026-05-02T09:04:55.533Z</time></trkpt><trkpt lat="43.374875" lon="11.8384133"><ele>251.6</ele><time>2026-05-02T09:04:57.533Z</time></trkpt><trkpt lat="43.3749633" lon="11.83845"><ele>251.8</ele><time>2026-05-02T09:04:59.531Z</time></trkpt><trkpt lat="43.37506" lon="11.8384917"><ele>252.0</ele><time>2026-05-02T09:05:01.534Z</time></trkpt><trkpt lat="43.3751667" lon="11.8385433"><ele>252.0</ele><time>2026-05-02T09:05:03.53Z</time></trkpt><trkpt lat="43.37528" lon="11.838605"><ele>252.0</ele><time>2026-05-02T09:05:05.534Z</time></trkpt><trkpt lat="43.3753933" lon="11.8386767"><ele>252.0</ele><time>2026-05-02T09:05:07.532Z</time></trkpt><trkpt lat="43.3754533" lon="11.8387117"><ele>252.0</ele><time>2026-05-02T09:05:08.531Z</time></trkpt><trkpt lat="43.3755133" lon="11.83874"><ele>252.0</ele><time>2026-05-02T09:05:09.534Z</time></trkpt><trkpt lat="43.375575" lon="11.8387583"><ele>252.0</ele><time>2026-05-02T09:05:10.535Z</time></trkpt><trkpt lat="43.375695" lon="11.8387633"><ele>251.25</ele><time>2026-05-02T09:05:12.53Z</time></trkpt><trkpt lat="43.3758067" lon="11.83874"><ele>250.5</ele><time>2026-05-02T09:05:14.535Z</time></trkpt><trkpt lat="43.37592" lon="11.83869"><ele>249.75</ele><time>2026-05-02T09:05:16.532Z</time></trkpt><trkpt lat="43.3760317" lon="11.83864"><ele>249.0</ele><time>2026-05-02T09:05:18.532Z</time></trkpt><trkpt lat="43.37614" lon="11.8385933"><ele>249.0</ele><time>2026-05-02T09:05:20.535Z</time></trkpt><trkpt lat="43.376245" lon="11.838555"><ele>248.99999999999997</ele><time>2026-05-02T09:05:22.537Z</time></trkpt><trkpt lat="43.376345" lon="11.8385167"><ele>248.99999999999997</ele><time>2026-05-02T09:05:24.531Z</time></trkpt><trkpt lat="43.3764433" lon="11.8384867"><ele>249.0</ele><time>2026-05-02T09:05:26.531Z</time></trkpt><trkpt lat="43.376545" lon="11.83846"><ele>249.0</ele><time>2026-05-02T09:05:28.534Z</time></trkpt><trkpt lat="43.3766483" lon="11.838435"><ele>248.79999999999998</ele><time>2026-05-02T09:05:30.53Z</time></trkpt><trkpt lat="43.3767533" lon="11.8384067"><ele>248.59999999999997</ele><time>2026-05-02T09:05:32.531Z</time></trkpt><trkpt lat="43.3768583" lon="11.8383817"><ele>248.4</ele><time>2026-05-02T09:05:34.53Z</time></trkpt><trkpt lat="43.376965" lon="11.8383567"><ele>248.2</ele><time>2026-05-02T09:05:36.53Z</time></trkpt><trkpt lat="43.3770733" lon="11.8383283"><ele>248.0</ele><time>2026-05-02T09:05:38.531Z</time></trkpt><trkpt lat="43.3771883" lon="11.8383017"><ele>247.5</ele><time>2026-05-02T09:05:40.531Z</time></trkpt><trkpt lat="43.3773" lon="11.8382733"><ele>247.0</ele><time>2026-05-02T09:05:42.533Z</time></trkpt><trkpt lat="43.377415" lon="11.8382433"><ele>246.5</ele><time>2026-05-02T09:05:44.528Z</time></trkpt><trkpt lat="43.3775233" lon="11.838215"><ele>246.0</ele><time>2026-05-02T09:05:46.53Z</time></trkpt><trkpt lat="43.3776317" lon="11.838185"><ele>246.0</ele><time>2026-05-02T09:05:48.531Z</time></trkpt><trkpt lat="43.37774" lon="11.8381533"><ele>246.00000000000003</ele><time>2026-05-02T09:05:50.531Z</time></trkpt><trkpt lat="43.3778483" lon="11.838135"><ele>246.00000000000003</ele><time>2026-05-02T09:05:52.531Z</time></trkpt><trkpt lat="43.3779567" lon="11.838125"><ele>246.0</ele><time>2026-05-02T09:05:54.531Z</time></trkpt><trkpt lat="43.3780567" lon="11.8381167"><ele>246.0</ele><time>2026-05-02T09:05:56.53Z</time></trkpt><trkpt lat="43.37815" lon="11.8381117"><ele>246.0</ele><time>2026-05-02T09:05:58.534Z</time></trkpt><trkpt lat="43.3782317" lon="11.83811"><ele>246.0</ele><time>2026-05-02T09:06:00.532Z</time></trkpt><trkpt lat="43.3783067" lon="11.8381133"><ele>246.0</ele><time>2026-05-02T09:06:02.531Z</time></trkpt><trkpt lat="43.3783933" lon="11.8381133"><ele>246.0</ele><time>2026-05-02T09:06:05.531Z</time></trkpt><trkpt lat="43.3784617" lon="11.838115"><ele>246.0</ele><time>2026-05-02T09:06:57.534Z</time></trkpt><trkpt lat="43.3785367" lon="11.8381233"><ele>246.0</ele><time>2026-05-02T09:07:01.532Z</time></trkpt><trkpt lat="43.3786083" lon="11.8381433"><ele>246.0</ele><time>2026-05-02T09:07:05.538Z</time></trkpt><trkpt lat="43.3786817" lon="11.83814"><ele>246.0</ele><time>2026-05-02T09:07:09.532Z</time></trkpt><trkpt lat="43.37875" lon="11.838135"><ele>246.0</ele><time>2026-05-02T09:07:12.532Z</time></trkpt><trkpt lat="43.3788333" lon="11.8381333"><ele>246.0</ele><time>2026-05-02T09:07:15.532Z</time></trkpt><trkpt lat="43.3789" lon="11.8381217"><ele>246.0</ele><time>2026-05-02T09:07:17.532Z</time></trkpt><trkpt lat="43.3789983" lon="11.838105"><ele>246.0</ele><time>2026-05-02T09:07:20.537Z</time></trkpt><trkpt lat="43.3790683" lon="11.8381033"><ele>246.14285714285717</ele><time>2026-05-02T09:07:22.536Z</time></trkpt><trkpt lat="43.379135" lon="11.8381017"><ele>246.28571428571428</ele><time>2026-05-02T09:07:24.533Z</time></trkpt><trkpt lat="43.3792033" lon="11.8381067"><ele>246.42857142857144</ele><time>2026-05-02T09:07:26.531Z</time></trkpt><trkpt lat="43.3792717" lon="11.8381117"><ele>246.57142857142858</ele><time>2026-05-02T09:07:28.531Z</time></trkpt><trkpt lat="43.3793433" lon="11.83812"><ele>246.71428571428572</ele><time>2026-05-02T09:07:30.533Z</time></trkpt><trkpt lat="43.3794217" lon="11.8381267"><ele>246.85714285714286</ele><time>2026-05-02T09:07:32.531Z</time></trkpt><trkpt lat="43.3794917" lon="11.8381317"><ele>247.0</ele><time>2026-05-02T09:07:34.532Z</time></trkpt><trkpt lat="43.37956" lon="11.8381483"><ele>246.99999999999997</ele><time>2026-05-02T09:07:36.534Z</time></trkpt><trkpt lat="43.3796233" lon="11.8381617"><ele>247.0</ele><time>2026-05-02T09:07:38.536Z</time></trkpt><trkpt lat="43.3796867" lon="11.83817"><ele>247.0</ele><time>2026-05-02T09:07:40.531Z</time></trkpt><trkpt lat="43.3797667" lon="11.83816"><ele>247.0</ele><time>2026-05-02T09:07:43.531Z</time></trkpt><trkpt lat="43.3798467" lon="11.8381567"><ele>246.99999999999997</ele><time>2026-05-02T09:07:46.539Z</time></trkpt><trkpt lat="43.379935" lon="11.8381433"><ele>247.0</ele><time>2026-05-02T09:07:49.535Z</time></trkpt><trkpt lat="43.380025" lon="11.838145"><ele>246.57142857142858</ele><time>2026-05-02T09:07:52.532Z</time></trkpt><trkpt lat="43.3800917" lon="11.83813"><ele>246.1428571428571</ele><time>2026-05-02T09:07:54.534Z</time></trkpt><trkpt lat="43.3801633" lon="11.838115"><ele>245.7142857142857</ele><time>2026-05-02T09:07:56.535Z</time></trkpt><trkpt lat="43.3802367" lon="11.838105"><ele>245.28571428571428</ele><time>2026-05-02T09:07:58.529Z</time></trkpt><trkpt lat="43.3803083" lon="11.838095"><ele>244.85714285714283</ele><time>2026-05-02T09:08:00.534Z</time></trkpt><trkpt lat="43.380375" lon="11.8380783"><ele>244.4285714285714</ele><time>2026-05-02T09:08:02.532Z</time></trkpt><trkpt lat="43.38044" lon="11.8380467"><ele>243.99999999999997</ele><time>2026-05-02T09:08:04.533Z</time></trkpt><trkpt lat="43.3805083" lon="11.838"><ele>244.33333333333331</ele><time>2026-05-02T09:08:06.534Z</time></trkpt><trkpt lat="43.380605" lon="11.83794"><ele>244.66666666666666</ele><time>2026-05-02T09:08:09.534Z</time></trkpt><trkpt lat="43.3806683" lon="11.8378933"><ele>245.0</ele><time>2026-05-02T09:08:11.534Z</time></trkpt><trkpt lat="43.38073" lon="11.83786"><ele>245.33333333333331</ele><time>2026-05-02T09:08:13.535Z</time></trkpt><trkpt lat="43.38079" lon="11.8378267"><ele>245.66666666666666</ele><time>2026-05-02T09:08:15.532Z</time></trkpt><trkpt lat="43.3808567" lon="11.8377883"><ele>246.0</ele><time>2026-05-02T09:08:17.532Z</time></trkpt><trkpt lat="43.380925" lon="11.8377583"><ele>246.00000000000003</ele><time>2026-05-02T09:08:19.531Z</time></trkpt><trkpt lat="43.3809933" lon="11.837725"><ele>246.0</ele><time>2026-05-02T09:08:21.532Z</time></trkpt><trkpt lat="43.3810617" lon="11.8377067"><ele>246.00000000000003</ele><time>2026-05-02T09:08:23.531Z</time></trkpt><trkpt lat="43.3811283" lon="11.8377083"><ele>246.00000000000003</ele><time>2026-05-02T09:08:25.532Z</time></trkpt><trkpt lat="43.3811983" lon="11.8377017"><ele>246.0</ele><time>2026-05-02T09:08:27.532Z</time></trkpt><trkpt lat="43.3812617" lon="11.837675"><ele>246.00000000000003</ele><time>2026-05-02T09:08:29.532Z</time></trkpt><trkpt lat="43.3813267" lon="11.8376533"><ele>246.00000000000003</ele><time>2026-05-02T09:08:31.533Z</time></trkpt><trkpt lat="43.38139" lon="11.8376383"><ele>246.16666666666666</ele><time>2026-05-02T09:08:33.532Z</time></trkpt><trkpt lat="43.3814633" lon="11.8376633"><ele>246.33333333333331</ele><time>2026-05-02T09:08:37.532Z</time></trkpt><trkpt lat="43.3814717" lon="11.837755"><ele>246.5</ele><time>2026-05-02T09:08:40.533Z</time></trkpt><trkpt lat="43.3815033" lon="11.8378667"><ele>246.66666666666666</ele><time>2026-05-02T09:08:43.535Z</time></trkpt><trkpt lat="43.381535" lon="11.8379483"><ele>246.83333333333331</ele><time>2026-05-02T09:08:45.532Z</time></trkpt><trkpt lat="43.3815717" lon="11.8380667"><ele>247.0</ele><time>2026-05-02T09:08:48.535Z</time></trkpt><trkpt lat="43.381605" lon="11.83815"><ele>247.0</ele><time>2026-05-02T09:08:50.532Z</time></trkpt><trkpt lat="43.38165" lon="11.83827"><ele>247.0</ele><time>2026-05-02T09:08:52.533Z</time></trkpt><trkpt lat="43.3816917" lon="11.838385"><ele>247.0</ele><time>2026-05-02T09:08:54.534Z</time></trkpt><trkpt lat="43.381735" lon="11.838495"><ele>247.0</ele><time>2026-05-02T09:08:56.533Z</time></trkpt><trkpt lat="43.38179" lon="11.838615"><ele>247.0</ele><time>2026-05-02T09:08:58.532Z</time></trkpt><trkpt lat="43.3818383" lon="11.8387333"><ele>247.0</ele><time>2026-05-02T09:09:00.532Z</time></trkpt><trkpt lat="43.38189" lon="11.8388433"><ele>247.0</ele><time>2026-05-02T09:09:02.531Z</time></trkpt><trkpt lat="43.3819352" lon="11.8389566"><ele>247.0</ele><time>2026-05-02T09:09:04.531Z</time></trkpt><trkpt lat="43.3819772" lon="11.839076"><ele>247.0</ele><time>2026-05-02T09:09:06.532Z</time></trkpt><trkpt lat="43.3820198" lon="11.8391958"><ele>247.0</ele><time>2026-05-02T09:09:08.532Z</time></trkpt><trkpt lat="43.3820643" lon="11.8393108"><ele>246.8</ele><time>2026-05-02T09:09:10.533Z</time></trkpt><trkpt lat="43.3821101" lon="11.8394277"><ele>246.6</ele><time>2026-05-02T09:09:12.536Z</time></trkpt><trkpt lat="43.3821624" lon="11.8395587"><ele>246.40000000000003</ele><time>2026-05-02T09:09:14.532Z</time></trkpt><trkpt lat="43.3822112" lon="11.839679"><ele>246.20000000000002</ele><time>2026-05-02T09:09:16.534Z</time></trkpt><trkpt lat="43.3822603" lon="11.8398004"><ele>246.0</ele><time>2026-05-02T09:09:18.531Z</time></trkpt><trkpt lat="43.3823176" lon="11.8399168"><ele>246.20000000000002</ele><time>2026-05-02T09:09:20.532Z</time></trkpt><trkpt lat="43.3823564" lon="11.8400293"><ele>246.40000000000003</ele><time>2026-05-02T09:09:22.535Z</time></trkpt><trkpt lat="43.3823958" lon="11.8401423"><ele>246.6</ele><time>2026-05-02T09:09:24.533Z</time></trkpt><trkpt lat="43.3824465" lon="11.8402623"><ele>246.8</ele><time>2026-05-02T09:09:26.53Z</time></trkpt><trkpt lat="43.3824924" lon="11.8403803"><ele>247.0</ele><time>2026-05-02T09:09:28.533Z</time></trkpt><trkpt lat="43.3825308" lon="11.8404923"><ele>246.99999999999997</ele><time>2026-05-02T09:09:30.531Z</time></trkpt><trkpt lat="43.3825678" lon="11.8406041"><ele>247.0</ele><time>2026-05-02T09:09:32.534Z</time></trkpt><trkpt lat="43.382611" lon="11.8407177"><ele>247.0</ele><time>2026-05-02T09:09:34.534Z</time></trkpt><trkpt lat="43.3826477" lon="11.840824"><ele>247.0</ele><time>2026-05-02T09:09:36.532Z</time></trkpt><trkpt lat="43.3826853" lon="11.8409308"><ele>246.99999999999997</ele><time>2026-05-02T09:09:38.532Z</time></trkpt><trkpt lat="43.3827236" lon="11.8410386"><ele>247.0</ele><time>2026-05-02T09:09:40.532Z</time></trkpt><trkpt lat="43.3827633" lon="11.8411526"><ele>246.99999999999997</ele><time>2026-05-02T09:09:42.536Z</time></trkpt><trkpt lat="43.3828023" lon="11.8412622"><ele>247.0</ele><time>2026-05-02T09:09:44.535Z</time></trkpt><trkpt lat="43.3828406" lon="11.84137"><ele>247.0</ele><time>2026-05-02T09:09:46.531Z</time></trkpt><trkpt lat="43.3828759" lon="11.8414796"><ele>247.0</ele><time>2026-05-02T09:09:48.533Z</time></trkpt><trkpt lat="43.3829129" lon="11.8415964"><ele>246.99999999999997</ele><time>2026-05-02T09:09:50.539Z</time></trkpt><trkpt lat="43.3829518" lon="11.8417122"><ele>247.0</ele><time>2026-05-02T09:09:52.532Z</time></trkpt><trkpt lat="43.3829922" lon="11.8418203"><ele>247.39999999999998</ele><time>2026-05-02T09:09:54.533Z</time></trkpt><trkpt lat="43.3830336" lon="11.8419319"><ele>247.79999999999998</ele><time>2026-05-02T09:09:56.533Z</time></trkpt><trkpt lat="43.3830742" lon="11.84204"><ele>248.2</ele><time>2026-05-02T09:09:58.535Z</time></trkpt><trkpt lat="43.3831088" lon="11.8421946"><ele>248.6</ele><time>2026-05-02T09:10:01.557Z</time></trkpt><trkpt lat="43.3831414" lon="11.8422773"><ele>249.0</ele><time>2026-05-02T09:10:02.613Z</time></trkpt><trkpt lat="43.3831787" lon="11.8423909"><ele>249.0</ele><time>2026-05-02T09:10:04.609Z</time></trkpt><trkpt lat="43.3832142" lon="11.8425022"><ele>248.99999999999997</ele><time>2026-05-02T09:10:06.533Z</time></trkpt><trkpt lat="43.3832482" lon="11.8426211"><ele>248.99999999999997</ele><time>2026-05-02T09:10:08.621Z</time></trkpt><trkpt lat="43.3832636" lon="11.8427522"><ele>249.0</ele><time>2026-05-02T09:10:10.648Z</time></trkpt><trkpt lat="43.3833008" lon="11.8428527"><ele>249.0</ele><time>2026-05-02T09:10:12.608Z</time></trkpt><trkpt lat="43.3833471" lon="11.8429657"><ele>249.0</ele><time>2026-05-02T09:10:14.603Z</time></trkpt><trkpt lat="43.3833953" lon="11.8430731"><ele>248.99999999999997</ele><time>2026-05-02T09:10:16.596Z</time></trkpt><trkpt lat="43.3834693" lon="11.8431578"><ele>248.99999999999997</ele><time>2026-05-02T09:10:18.554Z</time></trkpt><trkpt lat="43.383526" lon="11.843251"><ele>249.0</ele><time>2026-05-02T09:10:20.583Z</time></trkpt><trkpt lat="43.3835705" lon="11.8433468"><ele>249.0</ele><time>2026-05-02T09:10:22.576Z</time></trkpt><trkpt lat="43.38362" lon="11.8434514"><ele>249.16666666666666</ele><time>2026-05-02T09:10:24.57Z</time></trkpt><trkpt lat="43.3836623" lon="11.843548"><ele>249.33333333333331</ele><time>2026-05-02T09:10:26.563Z</time></trkpt><trkpt lat="43.383701" lon="11.8436551"><ele>249.5</ele><time>2026-05-02T09:10:28.557Z</time></trkpt><trkpt lat="43.3837355" lon="11.843755"><ele>249.66666666666666</ele><time>2026-05-02T09:10:30.55Z</time></trkpt><trkpt lat="43.3837635" lon="11.8438376"><ele>249.83333333333331</ele><time>2026-05-02T09:10:32.165Z</time></trkpt><trkpt lat="43.3837986" lon="11.8439526"><ele>250.0</ele><time>2026-05-02T09:10:34.537Z</time></trkpt><trkpt lat="43.383835" lon="11.8440481"><ele>250.14285714285714</ele><time>2026-05-02T09:10:36.611Z</time></trkpt><trkpt lat="43.3838566" lon="11.8441356"><ele>250.28571428571428</ele><time>2026-05-02T09:10:38.641Z</time></trkpt><trkpt lat="43.3838777" lon="11.8442276"><ele>250.42857142857142</ele><time>2026-05-02T09:10:40.57Z</time></trkpt><trkpt lat="43.3839039" lon="11.8443259"><ele>250.57142857142856</ele><time>2026-05-02T09:10:42.628Z</time></trkpt><trkpt lat="43.3839381" lon="11.844423"><ele>250.71428571428572</ele><time>2026-05-02T09:10:44.638Z</time></trkpt><trkpt lat="43.3839752" lon="11.8445051"><ele>250.85714285714283</ele><time>2026-05-02T09:10:46.493Z</time></trkpt><trkpt lat="43.3840141" lon="11.8445976"><ele>250.99999999999997</ele><time>2026-05-02T09:10:48.609Z</time></trkpt><trkpt lat="43.3840502" lon="11.8446778"><ele>251.1428571428571</ele><time>2026-05-02T09:10:50.602Z</time></trkpt><trkpt lat="43.3840823" lon="11.8447552"><ele>251.28571428571428</ele><time>2026-05-02T09:10:52.596Z</time></trkpt><trkpt lat="43.3841107" lon="11.8448418"><ele>251.42857142857142</ele><time>2026-05-02T09:10:55.608Z</time></trkpt><trkpt lat="43.3841283" lon="11.8449317"><ele>251.57142857142856</ele><time>2026-05-02T09:11:02.532Z</time></trkpt><trkpt lat="43.3842283" lon="11.8449167"><ele>251.71428571428572</ele><time>2026-05-02T09:13:04.533Z</time></trkpt><trkpt lat="43.3842967" lon="11.8449117"><ele>251.85714285714286</ele><time>2026-05-02T09:13:08.534Z</time></trkpt><trkpt lat="43.3843633" lon="11.844915"><ele>252.0</ele><time>2026-05-02T09:13:11.535Z</time></trkpt><trkpt lat="43.3844267" lon="11.84493"><ele>252.0</ele><time>2026-05-02T09:13:13.534Z</time></trkpt><trkpt lat="43.3845" lon="11.844935"><ele>252.0</ele><time>2026-05-02T09:13:15.535Z</time></trkpt><trkpt lat="43.3845817" lon="11.8449317"><ele>252.0</ele><time>2026-05-02T09:13:17.532Z</time></trkpt><trkpt lat="43.384685" lon="11.8449183"><ele>252.0</ele><time>2026-05-02T09:13:19.534Z</time></trkpt><trkpt lat="43.3847867" lon="11.844905"><ele>252.0</ele><time>2026-05-02T09:13:21.535Z</time></trkpt><trkpt lat="43.384895" lon="11.8448967"><ele>252.0</ele><time>2026-05-02T09:13:23.532Z</time></trkpt><trkpt lat="43.385" lon="11.84489"><ele>252.0</ele><time>2026-05-02T09:13:25.531Z</time></trkpt><trkpt lat="43.3851067" lon="11.8448817"><ele>252.0</ele><time>2026-05-02T09:13:27.531Z</time></trkpt><trkpt lat="43.3852133" lon="11.84488"><ele>252.0</ele><time>2026-05-02T09:13:29.532Z</time></trkpt><trkpt lat="43.3853217" lon="11.8448733"><ele>252.0</ele><time>2026-05-02T09:13:31.531Z</time></trkpt><trkpt lat="43.3854267" lon="11.844865"><ele>252.2</ele><time>2026-05-02T09:13:33.534Z</time></trkpt><trkpt lat="43.3855267" lon="11.84486"><ele>252.39999999999998</ele><time>2026-05-02T09:13:35.531Z</time></trkpt><trkpt lat="43.3856283" lon="11.8448517"><ele>252.60000000000002</ele><time>2026-05-02T09:13:37.532Z</time></trkpt><trkpt lat="43.38574" lon="11.844855"><ele>252.8</ele><time>2026-05-02T09:13:39.532Z</time></trkpt><trkpt lat="43.385865" lon="11.844845"><ele>253.0</ele><time>2026-05-02T09:13:41.533Z</time></trkpt><trkpt lat="43.3859283" lon="11.844825"><ele>253.0</ele><time>2026-05-02T09:13:42.534Z</time></trkpt><trkpt lat="43.3860433" lon="11.8447817"><ele>253.0</ele><time>2026-05-02T09:13:44.531Z</time></trkpt><trkpt lat="43.3861517" lon="11.8447217"><ele>253.0</ele><time>2026-05-02T09:13:46.531Z</time></trkpt><trkpt lat="43.386255" lon="11.844635"><ele>253.0</ele><time>2026-05-02T09:13:48.531Z</time></trkpt><trkpt lat="43.3863633" lon="11.84455"><ele>253.0</ele><time>2026-05-02T09:13:50.533Z</time></trkpt><trkpt lat="43.3864617" lon="11.8444617"><ele>253.0</ele><time>2026-05-02T09:13:52.531Z</time></trkpt><trkpt lat="43.3865567" lon="11.844365"><ele>253.0</ele><time>2026-05-02T09:13:54.53Z</time></trkpt><trkpt lat="43.3866517" lon="11.8442733"><ele>253.0</ele><time>2026-05-02T09:13:56.532Z</time></trkpt><trkpt lat="43.386745" lon="11.8441767"><ele>253.0</ele><time>2026-05-02T09:13:58.531Z</time></trkpt><trkpt lat="43.3868417" lon="11.8440833"><ele>253.0</ele><time>2026-05-02T09:14:00.534Z</time></trkpt><trkpt lat="43.3869333" lon="11.8439817"><ele>253.0</ele><time>2026-05-02T09:14:02.532Z</time></trkpt><trkpt lat="43.3870167" lon="11.84388"><ele>253.0</ele><time>2026-05-02T09:14:04.531Z</time></trkpt><trkpt lat="43.3871083" lon="11.8437867"><ele>253.25</ele><time>2026-05-02T09:14:06.532Z</time></trkpt><trkpt lat="43.3871983" lon="11.8436933"><ele>253.5</ele><time>2026-05-02T09:14:08.531Z</time></trkpt><trkpt lat="43.3872833" lon="11.8436017"><ele>253.75</ele><time>2026-05-02T09:14:10.531Z</time></trkpt><trkpt lat="43.38738" lon="11.84352"><ele>254.0</ele><time>2026-05-02T09:14:12.532Z</time></trkpt><trkpt lat="43.3874833" lon="11.8434483"><ele>253.79999999999998</ele><time>2026-05-02T09:14:14.532Z</time></trkpt><trkpt lat="43.3875867" lon="11.8433933"><ele>253.59999999999997</ele><time>2026-05-02T09:14:16.533Z</time></trkpt><trkpt lat="43.3876933" lon="11.84336"><ele>253.4</ele><time>2026-05-02T09:14:18.534Z</time></trkpt><trkpt lat="43.3878033" lon="11.843355"><ele>253.2</ele><time>2026-05-02T09:14:20.534Z</time></trkpt><trkpt lat="43.3879133" lon="11.8433733"><ele>253.0</ele><time>2026-05-02T09:14:22.538Z</time></trkpt><trkpt lat="43.388025" lon="11.84341"><ele>253.25</ele><time>2026-05-02T09:14:24.532Z</time></trkpt><trkpt lat="43.3881333" lon="11.8434717"><ele>253.5</ele><time>2026-05-02T09:14:26.532Z</time></trkpt><trkpt lat="43.3882367" lon="11.843555"><ele>253.75</ele><time>2026-05-02T09:14:28.529Z</time></trkpt><trkpt lat="43.3883283" lon="11.8436583"><ele>254.0</ele><time>2026-05-02T09:14:30.53Z</time></trkpt><trkpt lat="43.3884217" lon="11.84376"><ele>254.0</ele><time>2026-05-02T09:14:32.531Z</time></trkpt><trkpt lat="43.3885117" lon="11.8438717"><ele>253.99999999999997</ele><time>2026-05-02T09:14:34.531Z</time></trkpt><trkpt lat="43.3885567" lon="11.84394"><ele>253.99999999999997</ele><time>2026-05-02T09:14:35.53Z</time></trkpt><trkpt lat="43.388605" lon="11.8440067"><ele>254.0</ele><time>2026-05-02T09:14:36.532Z</time></trkpt><trkpt lat="43.3886933" lon="11.844095"><ele>254.0</ele><time>2026-05-02T09:14:38.533Z</time></trkpt><trkpt lat="43.3887683" lon="11.844215"><ele>253.83333333333334</ele><time>2026-05-02T09:14:40.533Z</time></trkpt><trkpt lat="43.3888433" lon="11.8443083"><ele>253.66666666666669</ele><time>2026-05-02T09:14:42.531Z</time></trkpt><trkpt lat="43.38891" lon="11.84439"><ele>253.5</ele><time>2026-05-02T09:14:44.534Z</time></trkpt><trkpt lat="43.3889817" lon="11.8444667"><ele>253.33333333333331</ele><time>2026-05-02T09:14:46.535Z</time></trkpt><trkpt lat="43.3890417" lon="11.8445367"><ele>253.16666666666666</ele><time>2026-05-02T09:14:48.532Z</time></trkpt><trkpt lat="43.3891067" lon="11.8445967"><ele>253.0</ele><time>2026-05-02T09:14:50.532Z</time></trkpt><trkpt lat="43.3891767" lon="11.8446467"><ele>252.99999999999997</ele><time>2026-05-02T09:14:52.533Z</time></trkpt><trkpt lat="43.3892483" lon="11.8446783"><ele>253.0</ele><time>2026-05-02T09:14:54.534Z</time></trkpt><trkpt lat="43.3893183" lon="11.8447"><ele>253.0</ele><time>2026-05-02T09:14:56.532Z</time></trkpt><trkpt lat="43.3893933" lon="11.8447"><ele>253.0</ele><time>2026-05-02T09:14:58.537Z</time></trkpt><trkpt lat="43.3894683" lon="11.8446983"><ele>252.99999999999997</ele><time>2026-05-02T09:15:00.532Z</time></trkpt><trkpt lat="43.3895483" lon="11.8446933"><ele>253.0</ele><time>2026-05-02T09:15:02.532Z</time></trkpt><trkpt lat="43.38964" lon="11.8446817"><ele>252.99999999999997</ele><time>2026-05-02T09:15:04.533Z</time></trkpt><trkpt lat="43.3897317" lon="11.8446767"><ele>253.0</ele><time>2026-05-02T09:15:06.535Z</time></trkpt><trkpt lat="43.389815" lon="11.8446667"><ele>253.0</ele><time>2026-05-02T09:15:08.534Z</time></trkpt><trkpt lat="43.3898717" lon="11.8447133"><ele>253.0</ele><time>2026-05-02T09:15:11.535Z</time></trkpt><trkpt lat="43.3898817" lon="11.84483"><ele>252.99999999999997</ele><time>2026-05-02T09:15:14.533Z</time></trkpt><trkpt lat="43.389915" lon="11.8449483"><ele>253.0</ele><time>2026-05-02T09:15:17.533Z</time></trkpt><trkpt lat="43.389965" lon="11.845055"><ele>253.14285714285717</ele><time>2026-05-02T09:15:20.533Z</time></trkpt><trkpt lat="43.390005" lon="11.8451367"><ele>253.28571428571428</ele><time>2026-05-02T09:15:23.531Z</time></trkpt><trkpt lat="43.3900333" lon="11.845215"><ele>253.42857142857144</ele><time>2026-05-02T09:15:26.531Z</time></trkpt><trkpt lat="43.3900717" lon="11.84531"><ele>253.57142857142858</ele><time>2026-05-02T09:15:29.531Z</time></trkpt><trkpt lat="43.3901033" lon="11.8453967"><ele>253.71428571428572</ele><time>2026-05-02T09:15:31.532Z</time></trkpt><trkpt lat="43.3901267" lon="11.8454917"><ele>253.85714285714286</ele><time>2026-05-02T09:15:34.533Z</time></trkpt><trkpt lat="43.39014" lon="11.8455983"><ele>254.0</ele><time>2026-05-02T09:15:55.529Z</time></trkpt><trkpt lat="43.3901067" lon="11.8455217"><ele>254.0</ele><time>2026-05-02T09:18:25.533Z</time></trkpt><trkpt lat="43.3900917" lon="11.8454367"><ele>254.0</ele><time>2026-05-02T09:18:30.536Z</time></trkpt><trkpt lat="43.3900667" lon="11.8453483"><ele>254.0</ele><time>2026-05-02T09:18:32.528Z</time></trkpt><trkpt lat="43.39005" lon="11.845235"><ele>254.0</ele><time>2026-05-02T09:18:36.534Z</time></trkpt><trkpt lat="43.3900217" lon="11.8451517"><ele>254.0</ele><time>2026-05-02T09:18:38.534Z</time></trkpt><trkpt lat="43.389995" lon="11.8450717"><ele>254.0</ele><time>2026-05-02T09:18:40.53Z</time></trkpt><trkpt lat="43.3899683" lon="11.8449917"><ele>254.0</ele><time>2026-05-02T09:18:42.531Z</time></trkpt><trkpt lat="43.3899217" lon="11.8448933"><ele>253.83333333333334</ele><time>2026-05-02T09:18:45.532Z</time></trkpt><trkpt lat="43.3898933" lon="11.844785"><ele>253.66666666666669</ele><time>2026-05-02T09:18:48.534Z</time></trkpt><trkpt lat="43.389885" lon="11.844685"><ele>253.5</ele><time>2026-05-02T09:18:52.535Z</time></trkpt><trkpt lat="43.3899583" lon="11.8446633"><ele>253.33333333333331</ele><time>2026-05-02T09:18:56.533Z</time></trkpt><trkpt lat="43.3900367" lon="11.8446683"><ele>253.16666666666666</ele><time>2026-05-02T09:18:59.534Z</time></trkpt><trkpt lat="43.3901083" lon="11.84467"><ele>253.0</ele><time>2026-05-02T09:19:01.531Z</time></trkpt><trkpt lat="43.3901817" lon="11.844665"><ele>253.0</ele><time>2026-05-02T09:19:03.533Z</time></trkpt><trkpt lat="43.3902717" lon="11.84466"><ele>253.0</ele><time>2026-05-02T09:19:05.531Z</time></trkpt><trkpt lat="43.3903717" lon="11.8446517"><ele>253.0</ele><time>2026-05-02T09:19:07.531Z</time></trkpt><trkpt lat="43.390475" lon="11.84464"><ele>253.0</ele><time>2026-05-02T09:19:09.531Z</time></trkpt><trkpt lat="43.3905833" lon="11.8446333"><ele>253.0</ele><time>2026-05-02T09:19:11.534Z</time></trkpt><trkpt lat="43.390695" lon="11.8446283"><ele>253.2</ele><time>2026-05-02T09:19:13.532Z</time></trkpt><trkpt lat="43.3908017" lon="11.8446217"><ele>253.4</ele><time>2026-05-02T09:19:15.532Z</time></trkpt><trkpt lat="43.3909083" lon="11.8446217"><ele>253.59999999999997</ele><time>2026-05-02T09:19:17.533Z</time></trkpt><trkpt lat="43.3910167" lon="11.844625"><ele>253.79999999999998</ele><time>2026-05-02T09:19:19.533Z</time></trkpt><trkpt lat="43.391125" lon="11.8446317"><ele>254.0</ele><time>2026-05-02T09:19:21.533Z</time></trkpt><trkpt lat="43.3912317" lon="11.8446233"><ele>254.0</ele><time>2026-05-02T09:19:23.535Z</time></trkpt><trkpt lat="43.3913317" lon="11.844605"><ele>253.99999999999997</ele><time>2026-05-02T09:19:25.536Z</time></trkpt><trkpt lat="43.3914333" lon="11.844595"><ele>253.99999999999997</ele><time>2026-05-02T09:19:27.537Z</time></trkpt><trkpt lat="43.39153" lon="11.844585"><ele>254.0</ele><time>2026-05-02T09:19:29.534Z</time></trkpt><trkpt lat="43.3916267" lon="11.844565"><ele>254.0</ele><time>2026-05-02T09:19:31.535Z</time></trkpt><trkpt lat="43.39173" lon="11.8445383"><ele>254.2</ele><time>2026-05-02T09:19:33.533Z</time></trkpt><trkpt lat="43.39183" lon="11.8445217"><ele>254.39999999999998</ele><time>2026-05-02T09:19:35.537Z</time></trkpt><trkpt lat="43.391925" lon="11.8445017"><ele>254.6</ele><time>2026-05-02T09:19:37.535Z</time></trkpt><trkpt lat="43.392015" lon="11.84448"><ele>254.8</ele><time>2026-05-02T09:19:39.537Z</time></trkpt><trkpt lat="43.3921133" lon="11.844455"><ele>255.0</ele><time>2026-05-02T09:19:41.533Z</time></trkpt><trkpt lat="43.3922133" lon="11.8444317"><ele>255.16666666666666</ele><time>2026-05-02T09:19:43.534Z</time></trkpt><trkpt lat="43.3923167" lon="11.8443967"><ele>255.33333333333331</ele><time>2026-05-02T09:19:45.535Z</time></trkpt><trkpt lat="43.3924067" lon="11.8443683"><ele>255.5</ele><time>2026-05-02T09:19:47.53Z</time></trkpt><trkpt lat="43.3924883" lon="11.8443533"><ele>255.66666666666666</ele><time>2026-05-02T09:19:49.537Z</time></trkpt><trkpt lat="43.392555" lon="11.8444233"><ele>255.83333333333331</ele><time>2026-05-02T09:19:51.533Z</time></trkpt><trkpt lat="43.3926" lon="11.8445217"><ele>256.0</ele><time>2026-05-02T09:19:53.533Z</time></trkpt><trkpt lat="43.3926333" lon="11.84463"><ele>255.99999999999997</ele><time>2026-05-02T09:19:55.534Z</time></trkpt><trkpt lat="43.3927117" lon="11.844655"><ele>256.0</ele><time>2026-05-02T09:19:58.532Z</time></trkpt><trkpt lat="43.3927883" lon="11.84462"><ele>256.0</ele><time>2026-05-02T09:20:01.533Z</time></trkpt><trkpt lat="43.3928717" lon="11.8445933"><ele>256.0</ele><time>2026-05-02T09:20:04.534Z</time></trkpt><trkpt lat="43.3929683" lon="11.8445717"><ele>255.99999999999997</ele><time>2026-05-02T09:20:07.533Z</time></trkpt><trkpt lat="43.3930433" lon="11.8445383"><ele>256.0</ele><time>2026-05-02T09:20:10.532Z</time></trkpt><trkpt lat="43.393105" lon="11.84452"><ele>255.99999999999997</ele><time>2026-05-02T09:20:12.536Z</time></trkpt><trkpt lat="43.3931783" lon="11.8445033"><ele>256.0</ele><time>2026-05-02T09:20:14.533Z</time></trkpt><trkpt lat="43.39326" lon="11.84449"><ele>256.0</ele><time>2026-05-02T09:20:16.532Z</time></trkpt><trkpt lat="43.3933417" lon="11.8444817"><ele>256.0</ele><time>2026-05-02T09:20:18.532Z</time></trkpt><trkpt lat="43.3934217" lon="11.8444717"><ele>255.99999999999997</ele><time>2026-05-02T09:20:20.534Z</time></trkpt><trkpt lat="43.3935036" lon="11.8444721"><ele>256.0</ele><time>2026-05-02T09:20:23.565Z</time></trkpt><trkpt lat="43.3935807" lon="11.8444723"><ele>256.0</ele><time>2026-05-02T09:20:25.648Z</time></trkpt><trkpt lat="43.3936522" lon="11.8444585"><ele>255.99999999999997</ele><time>2026-05-02T09:20:27.641Z</time></trkpt><trkpt lat="43.3937255" lon="11.8444545"><ele>256.0</ele><time>2026-05-02T09:20:29.643Z</time></trkpt><trkpt lat="43.3937945" lon="11.8444545"><ele>256.0</ele><time>2026-05-02T09:20:31.547Z</time></trkpt><trkpt lat="43.3938626" lon="11.8444562"><ele>255.99999999999997</ele><time>2026-05-02T09:20:33.621Z</time></trkpt><trkpt lat="43.3939319" lon="11.8444634"><ele>256.0</ele><time>2026-05-02T09:20:35.614Z</time></trkpt><trkpt lat="43.394003" lon="11.8444701"><ele>256.0</ele><time>2026-05-02T09:20:37.609Z</time></trkpt><trkpt lat="43.3940718" lon="11.8444791"><ele>256.2857142857143</ele><time>2026-05-02T09:20:39.579Z</time></trkpt><trkpt lat="43.3941512" lon="11.8444795"><ele>256.57142857142856</ele><time>2026-05-02T09:20:41.595Z</time></trkpt><trkpt lat="43.3942182" lon="11.844478"><ele>256.85714285714283</ele><time>2026-05-02T09:20:43.589Z</time></trkpt><trkpt lat="43.3942839" lon="11.844471"><ele>257.1428571428571</ele><time>2026-05-02T09:20:45.583Z</time></trkpt><trkpt lat="43.394365" lon="11.8444717"><ele>257.42857142857144</ele><time>2026-05-02T09:20:48.533Z</time></trkpt><trkpt lat="43.3944317" lon="11.8444667"><ele>257.71428571428567</ele><time>2026-05-02T09:20:51.534Z</time></trkpt><trkpt lat="43.3945117" lon="11.8444717"><ele>258.0</ele><time>2026-05-02T09:20:55.535Z</time></trkpt><trkpt lat="43.394605" lon="11.8444683"><ele>258.1666666666667</ele><time>2026-05-02T09:20:58.535Z</time></trkpt><trkpt lat="43.3946717" lon="11.84447"><ele>258.3333333333333</ele><time>2026-05-02T09:21:00.532Z</time></trkpt><trkpt lat="43.3947417" lon="11.84448"><ele>258.5</ele><time>2026-05-02T09:21:02.537Z</time></trkpt><trkpt lat="43.39483" lon="11.8444883"><ele>258.66666666666663</ele><time>2026-05-02T09:21:05.532Z</time></trkpt><trkpt lat="43.3949133" lon="11.8444967"><ele>258.8333333333333</ele><time>2026-05-02T09:21:08.533Z</time></trkpt><trkpt lat="43.3950017" lon="11.844515"><ele>259.0</ele><time>2026-05-02T09:21:11.532Z</time></trkpt><trkpt lat="43.395075" lon="11.8445383"><ele>259.0</ele><time>2026-05-02T09:21:13.534Z</time></trkpt><trkpt lat="43.3951767" lon="11.84454"><ele>259.0</ele><time>2026-05-02T09:21:15.533Z</time></trkpt><trkpt lat="43.3952767" lon="11.8445367"><ele>259.0</ele><time>2026-05-02T09:21:17.538Z</time></trkpt><trkpt lat="43.39539" lon="11.84454"><ele>259.0</ele><time>2026-05-02T09:21:19.533Z</time></trkpt><trkpt lat="43.395505" lon="11.844535"><ele>259.0</ele><time>2026-05-02T09:21:21.532Z</time></trkpt><trkpt lat="43.3955817" lon="11.8445333"><ele>259.0</ele><time>2026-05-02T09:21:23.536Z</time></trkpt><trkpt lat="43.3956683" lon="11.8445417"><ele>259.0</ele><time>2026-05-02T09:21:25.534Z</time></trkpt><trkpt lat="43.3957733" lon="11.8445617"><ele>259.0</ele><time>2026-05-02T09:21:27.534Z</time></trkpt><trkpt lat="43.39585" lon="11.8445467"><ele>259.0</ele><time>2026-05-02T09:21:28.53Z</time></trkpt><trkpt lat="43.39598" lon="11.8445333"><ele>259.0</ele><time>2026-05-02T09:21:30.533Z</time></trkpt><trkpt lat="43.39605" lon="11.8445183"><ele>259.0</ele><time>2026-05-02T09:21:31.534Z</time></trkpt><trkpt lat="43.3961233" lon="11.844505"><ele>259.0</ele><time>2026-05-02T09:21:32.533Z</time></trkpt><trkpt lat="43.3961917" lon="11.8444917"><ele>259.0</ele><time>2026-05-02T09:21:33.531Z</time></trkpt><trkpt lat="43.3963117" lon="11.8444667"><ele>259.0</ele><time>2026-05-02T09:21:35.535Z</time></trkpt><trkpt lat="43.3964283" lon="11.8444567"><ele>259.0</ele><time>2026-05-02T09:21:37.534Z</time></trkpt><trkpt lat="43.3965367" lon="11.8444533"><ele>259.0</ele><time>2026-05-02T09:21:39.534Z</time></trkpt><trkpt lat="43.3966383" lon="11.8444567"><ele>259.0</ele><time>2026-05-02T09:21:41.531Z</time></trkpt><trkpt lat="43.39675" lon="11.844445"><ele>259.0</ele><time>2026-05-02T09:21:43.534Z</time></trkpt><trkpt lat="43.3968717" lon="11.8444383"><ele>259.0</ele><time>2026-05-02T09:21:45.534Z</time></trkpt><trkpt lat="43.3969367" lon="11.8444283"><ele>259.0</ele><time>2026-05-02T09:21:46.532Z</time></trkpt><trkpt lat="43.3970267" lon="11.8444017"><ele>259.0</ele><time>2026-05-02T09:21:47.531Z</time></trkpt><trkpt lat="43.3970983" lon="11.8443833"><ele>259.0</ele><time>2026-05-02T09:21:48.536Z</time></trkpt><trkpt lat="43.3971633" lon="11.8443633"><ele>259.0</ele><time>2026-05-02T09:21:49.534Z</time></trkpt><trkpt lat="43.3972767" lon="11.8443667"><ele>259.0</ele><time>2026-05-02T09:21:51.534Z</time></trkpt><trkpt lat="43.3973833" lon="11.84437"><ele>259.0</ele><time>2026-05-02T09:21:53.534Z</time></trkpt><trkpt lat="43.3974917" lon="11.8443683"><ele>259.0</ele><time>2026-05-02T09:21:55.531Z</time></trkpt><trkpt lat="43.3976067" lon="11.844355"><ele>259.0</ele><time>2026-05-02T09:21:57.533Z</time></trkpt><trkpt lat="43.397715" lon="11.84434"><ele>259.0</ele><time>2026-05-02T09:21:59.534Z</time></trkpt><trkpt lat="43.3978217" lon="11.844335"><ele>259.0</ele><time>2026-05-02T09:22:01.533Z</time></trkpt><trkpt lat="43.397925" lon="11.8443467"><ele>259.0</ele><time>2026-05-02T09:22:03.532Z</time></trkpt><trkpt lat="43.3980133" lon="11.844345"><ele>259.0</ele><time>2026-05-02T09:22:05.532Z</time></trkpt><trkpt lat="43.3980933" lon="11.844345"><ele>259.0</ele><time>2026-05-02T09:22:07.531Z</time></trkpt><trkpt lat="43.3981783" lon="11.8443483"><ele>259.0</ele><time>2026-05-02T09:22:09.535Z</time></trkpt><trkpt lat="43.3982583" lon="11.8443483"><ele>259.0</ele><time>2026-05-02T09:22:11.536Z</time></trkpt><trkpt lat="43.3983367" lon="11.8443467"><ele>259.0</ele><time>2026-05-02T09:22:13.534Z</time></trkpt><trkpt lat="43.3984" lon="11.8443317"><ele>259.0</ele><time>2026-05-02T09:22:15.532Z</time></trkpt><trkpt lat="43.398465" lon="11.844315"><ele>259.0</ele><time>2026-05-02T09:22:17.531Z</time></trkpt><trkpt lat="43.398545" lon="11.8443433"><ele>259.0</ele><time>2026-05-02T09:22:20.534Z</time></trkpt><trkpt lat="43.3985783" lon="11.8444183"><ele>259.0</ele><time>2026-05-02T09:22:23.535Z</time></trkpt><trkpt lat="43.3986133" lon="11.8445"><ele>259.0</ele><time>2026-05-02T09:22:26.533Z</time></trkpt><trkpt lat="43.398665" lon="11.8445867"><ele>259.0</ele><time>2026-05-02T09:22:29.533Z</time></trkpt><trkpt lat="43.3987183" lon="11.8446767"><ele>259.0</ele><time>2026-05-02T09:22:32.539Z</time></trkpt><trkpt lat="43.3987617" lon="11.8447767"><ele>259.0</ele><time>2026-05-02T09:22:35.534Z</time></trkpt><trkpt lat="43.3988217" lon="11.844875"><ele>259.0</ele><time>2026-05-02T09:22:38.536Z</time></trkpt><trkpt lat="43.3988683" lon="11.8449367"><ele>259.0</ele><time>2026-05-02T09:22:40.533Z</time></trkpt><trkpt lat="43.3989283" lon="11.84503"><ele>259.0</ele><time>2026-05-02T09:22:43.533Z</time></trkpt><trkpt lat="43.3989917" lon="11.84512"><ele>259.0</ele><time>2026-05-02T09:22:46.537Z</time></trkpt><trkpt lat="43.39904" lon="11.8451817"><ele>259.0</ele><time>2026-05-02T09:22:48.532Z</time></trkpt><trkpt lat="43.3990967" lon="11.84527"><ele>259.8333333333333</ele><time>2026-05-02T09:22:51.534Z</time></trkpt><trkpt lat="43.3991633" lon="11.8453217"><ele>260.66666666666663</ele><time>2026-05-02T09:22:54.535Z</time></trkpt><trkpt lat="43.3992283" lon="11.8453833"><ele>261.5</ele><time>2026-05-02T09:22:57.534Z</time></trkpt><trkpt lat="43.3992867" lon="11.845455"><ele>262.3333333333333</ele><time>2026-05-02T09:23:00.533Z</time></trkpt><trkpt lat="43.3993483" lon="11.8455217"><ele>263.1666666666667</ele><time>2026-05-02T09:23:03.536Z</time></trkpt><trkpt lat="43.3993883" lon="11.845595"><ele>264.0</ele><time>2026-05-02T09:23:06.533Z</time></trkpt><trkpt lat="43.3994483" lon="11.8456483"><ele>264.0</ele><time>2026-05-02T09:23:09.535Z</time></trkpt><trkpt lat="43.3995133" lon="11.8457033"><ele>264.0</ele><time>2026-05-02T09:23:12.534Z</time></trkpt><trkpt lat="43.3995783" lon="11.8457717"><ele>264.0</ele><time>2026-05-02T09:23:15.532Z</time></trkpt><trkpt lat="43.3996417" lon="11.845815"><ele>264.0</ele><time>2026-05-02T09:23:18.535Z</time></trkpt><trkpt lat="43.3996933" lon="11.8458683"><ele>264.0</ele><time>2026-05-02T09:23:25.53Z</time></trkpt><trkpt lat="43.39976" lon="11.845925"><ele>264.0</ele><time>2026-05-02T09:24:08.536Z</time></trkpt><trkpt lat="43.3997883" lon="11.8460217"><ele>264.0</ele><time>2026-05-02T09:24:13.535Z</time></trkpt><trkpt lat="43.3997933" lon="11.8461117"><ele>264.6666666666667</ele><time>2026-05-02T09:24:23.533Z</time></trkpt><trkpt lat="43.3998267" lon="11.8462433"><ele>265.3333333333333</ele><time>2026-05-02T09:24:41.533Z</time></trkpt><trkpt lat="43.3998467" lon="11.84634"><ele>266.0</ele><time>2026-05-02T09:24:45.535Z</time></trkpt><trkpt lat="43.3998767" lon="11.8464267"><ele>266.66666666666663</ele><time>2026-05-02T09:24:49.537Z</time></trkpt><trkpt lat="43.3999067" lon="11.846515"><ele>267.3333333333333</ele><time>2026-05-02T09:24:53.531Z</time></trkpt><trkpt lat="43.3999683" lon="11.8466"><ele>268.0</ele><time>2026-05-02T09:24:57.533Z</time></trkpt><trkpt lat="43.400015" lon="11.8466717"><ele>268.0</ele><time>2026-05-02T09:25:00.533Z</time></trkpt><trkpt lat="43.4000717" lon="11.8467483"><ele>268.0</ele><time>2026-05-02T09:25:04.535Z</time></trkpt><trkpt lat="43.4001183" lon="11.8468183"><ele>268.0</ele><time>2026-05-02T09:25:07.535Z</time></trkpt><trkpt lat="43.4001717" lon="11.8468983"><ele>268.0</ele><time>2026-05-02T09:25:11.531Z</time></trkpt><trkpt lat="43.4002133" lon="11.846965"><ele>268.0</ele><time>2026-05-02T09:25:15.532Z</time></trkpt><trkpt lat="43.4002733" lon="11.84704"><ele>268.0</ele><time>2026-05-02T09:25:19.533Z</time></trkpt><trkpt lat="43.4003383" lon="11.847095"><ele>268.0</ele><time>2026-05-02T09:25:23.53Z</time></trkpt><trkpt lat="43.4004017" lon="11.8471717"><ele>268.0</ele><time>2026-05-02T09:25:27.531Z</time></trkpt><trkpt lat="43.4004517" lon="11.847225"><ele>268.0</ele><time>2026-05-02T09:25:30.532Z</time></trkpt><trkpt lat="43.4005133" lon="11.847295"><ele>268.0</ele><time>2026-05-02T09:25:34.537Z</time></trkpt><trkpt lat="43.4005683" lon="11.8473417"><ele>268.0</ele><time>2026-05-02T09:25:37.537Z</time></trkpt><trkpt lat="43.4006267" lon="11.8473867"><ele>268.0</ele><time>2026-05-02T09:25:41.534Z</time></trkpt><trkpt lat="43.4007" lon="11.8474317"><ele>268.0</ele><time>2026-05-02T09:25:45.534Z</time></trkpt><trkpt lat="43.4007733" lon="11.8474583"><ele>268.0</ele><time>2026-05-02T09:25:48.53Z</time></trkpt><trkpt lat="43.4008417" lon="11.8475067"><ele>268.66666666666663</ele><time>2026-05-02T09:25:51.533Z</time></trkpt><trkpt lat="43.4009117" lon="11.8475483"><ele>269.3333333333333</ele><time>2026-05-02T09:25:54.534Z</time></trkpt><trkpt lat="43.40098" lon="11.847605"><ele>270.0</ele><time>2026-05-02T09:25:58.53Z</time></trkpt><trkpt lat="43.4010467" lon="11.8476567"><ele>270.6666666666667</ele><time>2026-05-02T09:26:02.532Z</time></trkpt><trkpt lat="43.40111" lon="11.84769"><ele>271.33333333333337</ele><time>2026-05-02T09:26:05.532Z</time></trkpt><trkpt lat="43.4011833" lon="11.84774"><ele>272.0</ele><time>2026-05-02T09:26:08.534Z</time></trkpt><trkpt lat="43.401245" lon="11.847795"><ele>272.1428571428571</ele><time>2026-05-02T09:26:11.536Z</time></trkpt><trkpt lat="43.401295" lon="11.8478533"><ele>272.2857142857143</ele><time>2026-05-02T09:26:14.533Z</time></trkpt><trkpt lat="43.401355" lon="11.8479183"><ele>272.42857142857144</ele><time>2026-05-02T09:26:17.53Z</time></trkpt><trkpt lat="43.4014067" lon="11.8479833"><ele>272.57142857142856</ele><time>2026-05-02T09:26:20.533Z</time></trkpt><trkpt lat="43.401455" lon="11.8480483"><ele>272.7142857142857</ele><time>2026-05-02T09:26:23.531Z</time></trkpt><trkpt lat="43.4015" lon="11.8481133"><ele>272.85714285714283</ele><time>2026-05-02T09:26:26.532Z</time></trkpt><trkpt lat="43.401545" lon="11.8481867"><ele>273.0</ele><time>2026-05-02T09:26:29.532Z</time></trkpt><trkpt lat="43.4015933" lon="11.848245"><ele>273.7142857142857</ele><time>2026-05-02T09:26:32.533Z</time></trkpt><trkpt lat="43.4016433" lon="11.848305"><ele>274.42857142857144</ele><time>2026-05-02T09:26:35.531Z</time></trkpt><trkpt lat="43.4017067" lon="11.8483567"><ele>275.1428571428571</ele><time>2026-05-02T09:26:39.531Z</time></trkpt><trkpt lat="43.401775" lon="11.848385"><ele>275.8571428571429</ele><time>2026-05-02T09:26:42.531Z</time></trkpt><trkpt lat="43.401845" lon="11.8484317"><ele>276.57142857142856</ele><time>2026-05-02T09:26:46.534Z</time></trkpt><trkpt lat="43.4019" lon="11.8484783"><ele>277.2857142857143</ele><time>2026-05-02T09:26:49.535Z</time></trkpt><trkpt lat="43.4019633" lon="11.8485233"><ele>278.0</ele><time>2026-05-02T09:26:52.533Z</time></trkpt><trkpt lat="43.4020083" lon="11.848595"><ele>278.1428571428571</ele><time>2026-05-02T09:26:56.533Z</time></trkpt><trkpt lat="43.4020467" lon="11.8486783"><ele>278.2857142857143</ele><time>2026-05-02T09:27:00.532Z</time></trkpt><trkpt lat="43.4020767" lon="11.848755"><ele>278.42857142857144</ele><time>2026-05-02T09:27:03.531Z</time></trkpt><trkpt lat="43.4021083" lon="11.8488317"><ele>278.57142857142856</ele><time>2026-05-02T09:27:06.535Z</time></trkpt><trkpt lat="43.40214" lon="11.8489183"><ele>278.7142857142857</ele><time>2026-05-02T09:27:09.53Z</time></trkpt><trkpt lat="43.40217" lon="11.8490017"><ele>278.85714285714283</ele><time>2026-05-02T09:27:12.535Z</time></trkpt><trkpt lat="43.4021917" lon="11.84909"><ele>279.0</ele><time>2026-05-02T09:27:15.533Z</time></trkpt><trkpt lat="43.4022083" lon="11.84919"><ele>280.1428571428571</ele><time>2026-05-02T09:27:18.532Z</time></trkpt><trkpt lat="43.40223" lon="11.8492783"><ele>281.2857142857143</ele><time>2026-05-02T09:27:21.533Z</time></trkpt><trkpt lat="43.4022483" lon="11.8493683"><ele>282.42857142857144</ele><time>2026-05-02T09:27:24.532Z</time></trkpt><trkpt lat="43.4022633" lon="11.8494533"><ele>283.57142857142856</ele><time>2026-05-02T09:27:27.532Z</time></trkpt><trkpt lat="43.4022817" lon="11.8495367"><ele>284.7142857142857</ele><time>2026-05-02T09:27:30.533Z</time></trkpt><trkpt lat="43.4022817" lon="11.8496267"><ele>285.85714285714283</ele><time>2026-05-02T09:27:34.534Z</time></trkpt><trkpt lat="43.40228" lon="11.8497167"><ele>287.0</ele><time>2026-05-02T09:27:38.531Z</time></trkpt><trkpt lat="43.4022833" lon="11.8498183"><ele>287.83333333333337</ele><time>2026-05-02T09:27:42.531Z</time></trkpt><trkpt lat="43.4022733" lon="11.8499083"><ele>288.6666666666667</ele><time>2026-05-02T09:27:46.53Z</time></trkpt><trkpt lat="43.4022233" lon="11.8499667"><ele>289.5</ele><time>2026-05-02T09:27:52.532Z</time></trkpt><trkpt lat="43.40226" lon="11.85009"><ele>290.3333333333333</ele><time>2026-05-02T09:28:12.532Z</time></trkpt><trkpt lat="43.4023333" lon="11.8500967"><ele>291.16666666666663</ele><time>2026-05-02T09:28:15.533Z</time></trkpt><trkpt lat="43.4024167" lon="11.8500867"><ele>292.0</ele><time>2026-05-02T09:28:18.534Z</time></trkpt><trkpt lat="43.402495" lon="11.8500733"><ele>292.0</ele><time>2026-05-02T09:28:21.533Z</time></trkpt><trkpt lat="43.40256" lon="11.8500617"><ele>292.0</ele><time>2026-05-02T09:28:23.532Z</time></trkpt><trkpt lat="43.4026267" lon="11.8500467"><ele>292.0</ele><time>2026-05-02T09:28:25.532Z</time></trkpt><trkpt lat="43.4026983" lon="11.85003"><ele>292.0</ele><time>2026-05-02T09:28:27.536Z</time></trkpt><trkpt lat="43.40277" lon="11.85002"><ele>292.0</ele><time>2026-05-02T09:28:29.534Z</time></trkpt><trkpt lat="43.4028433" lon="11.8500117"><ele>292.0</ele><time>2026-05-02T09:28:31.531Z</time></trkpt><trkpt lat="43.4029117" lon="11.8499983"><ele>292.0</ele><time>2026-05-02T09:28:33.533Z</time></trkpt><trkpt lat="43.4029817" lon="11.8500083"><ele>292.42857142857144</ele><time>2026-05-02T09:28:35.531Z</time></trkpt><trkpt lat="43.4030767" lon="11.849995"><ele>292.8571428571429</ele><time>2026-05-02T09:28:38.535Z</time></trkpt><trkpt lat="43.40314" lon="11.84999"><ele>293.28571428571433</ele><time>2026-05-02T09:28:40.531Z</time></trkpt><trkpt lat="43.403205" lon="11.8499817"><ele>293.7142857142857</ele><time>2026-05-02T09:28:42.533Z</time></trkpt><trkpt lat="43.40327" lon="11.8499733"><ele>294.14285714285717</ele><time>2026-05-02T09:28:44.532Z</time></trkpt><trkpt lat="43.403335" lon="11.849975"><ele>294.5714285714286</ele><time>2026-05-02T09:28:46.532Z</time></trkpt><trkpt lat="43.403405" lon="11.8499717"><ele>295.0</ele><time>2026-05-02T09:28:48.533Z</time></trkpt><trkpt lat="43.403495" lon="11.8499517"><ele>295.0</ele><time>2026-05-02T09:28:51.532Z</time></trkpt><trkpt lat="43.403585" lon="11.84993"><ele>295.0</ele><time>2026-05-02T09:28:54.532Z</time></trkpt><trkpt lat="43.403675" lon="11.8499233"><ele>295.0</ele><time>2026-05-02T09:28:57.531Z</time></trkpt><trkpt lat="43.4037483" lon="11.8499283"><ele>295.0</ele><time>2026-05-02T09:29:00.536Z</time></trkpt><trkpt lat="43.4037933" lon="11.8499967"><ele>295.0</ele><time>2026-05-02T09:29:05.531Z</time></trkpt><trkpt lat="43.40378" lon="11.8500867"><ele>295.0</ele><time>2026-05-02T09:29:09.532Z</time></trkpt><trkpt lat="43.4037517" lon="11.8501867"><ele>296.00000000000006</ele><time>2026-05-02T09:29:13.532Z</time></trkpt><trkpt lat="43.403735" lon="11.8502783"><ele>297.0</ele><time>2026-05-02T09:29:16.534Z</time></trkpt><trkpt lat="43.4037083" lon="11.8503817"><ele>298.0</ele><time>2026-05-02T09:29:20.535Z</time></trkpt><trkpt lat="43.4036933" lon="11.8504717"><ele>299.0</ele><time>2026-05-02T09:29:23.533Z</time></trkpt><trkpt lat="43.4036667" lon="11.8505683"><ele>300.0</ele><time>2026-05-02T09:29:27.531Z</time></trkpt><trkpt lat="43.4036417" lon="11.85066"><ele>301.00000000000006</ele><time>2026-05-02T09:29:31.534Z</time></trkpt><trkpt lat="43.4036" lon="11.85075"><ele>302.0</ele><time>2026-05-02T09:29:35.532Z</time></trkpt><trkpt lat="43.4035417" lon="11.8508133"><ele>302.00000000000006</ele><time>2026-05-02T09:29:39.532Z</time></trkpt><trkpt lat="43.40348" lon="11.85085"><ele>302.0</ele><time>2026-05-02T09:29:43.534Z</time></trkpt><trkpt lat="43.4034033" lon="11.8508717"><ele>302.0</ele><time>2026-05-02T09:29:47.533Z</time></trkpt><trkpt lat="43.4033417" lon="11.850895"><ele>302.0</ele><time>2026-05-02T09:29:50.532Z</time></trkpt><trkpt lat="43.4032633" lon="11.8509283"><ele>302.0</ele><time>2026-05-02T09:29:54.536Z</time></trkpt><trkpt lat="43.4031867" lon="11.8509467"><ele>302.00000000000006</ele><time>2026-05-02T09:29:58.531Z</time></trkpt><trkpt lat="43.40311" lon="11.85096"><ele>302.0</ele><time>2026-05-02T09:30:02.532Z</time></trkpt><trkpt lat="43.4030317" lon="11.8509817"><ele>303.7142857142857</ele><time>2026-05-02T09:30:06.532Z</time></trkpt><trkpt lat="43.40296" lon="11.851"><ele>305.42857142857144</ele><time>2026-05-02T09:30:10.529Z</time></trkpt><trkpt lat="43.4028933" lon="11.8510383"><ele>307.1428571428571</ele><time>2026-05-02T09:30:14.532Z</time></trkpt><trkpt lat="43.4028283" lon="11.851095"><ele>308.8571428571429</ele><time>2026-05-02T09:30:18.533Z</time></trkpt><trkpt lat="43.4027667" lon="11.8511417"><ele>310.57142857142856</ele><time>2026-05-02T09:30:23.532Z</time></trkpt><trkpt lat="43.402715" lon="11.8512233"><ele>312.2857142857143</ele><time>2026-05-02T09:30:27.531Z</time></trkpt><trkpt lat="43.4026633" lon="11.8512967"><ele>314.0</ele><time>2026-05-02T09:30:31.533Z</time></trkpt><trkpt lat="43.40262" lon="11.8513733"><ele>313.99999999999994</ele><time>2026-05-02T09:30:35.532Z</time></trkpt><trkpt lat="43.4025917" lon="11.8514583"><ele>314.0</ele><time>2026-05-02T09:30:39.535Z</time></trkpt><trkpt lat="43.4025683" lon="11.851555"><ele>314.0</ele><time>2026-05-02T09:30:43.533Z</time></trkpt><trkpt lat="43.402565" lon="11.8516517"><ele>314.0</ele><time>2026-05-02T09:30:47.53Z</time></trkpt><trkpt lat="43.402565" lon="11.8517417"><ele>314.0</ele><time>2026-05-02T09:30:51.531Z</time></trkpt><trkpt lat="43.4025717" lon="11.8518483"><ele>313.99999999999994</ele><time>2026-05-02T09:30:56.532Z</time></trkpt><trkpt lat="43.4025733" lon="11.8519483"><ele>314.0</ele><time>2026-05-02T09:31:01.532Z</time></trkpt><trkpt lat="43.402575" lon="11.852035"><ele>315.57142857142856</ele><time>2026-05-02T09:31:05.535Z</time></trkpt><trkpt lat="43.4026" lon="11.852125"><ele>317.1428571428571</ele><time>2026-05-02T09:32:39.532Z</time></trkpt><trkpt lat="43.4026067" lon="11.8522317"><ele>318.71428571428567</ele><time>2026-05-02T09:32:43.532Z</time></trkpt><trkpt lat="43.4026017" lon="11.8523317"><ele>320.2857142857143</ele><time>2026-05-02T09:32:46.532Z</time></trkpt><trkpt lat="43.402585" lon="11.8524267"><ele>321.8571428571429</ele><time>2026-05-02T09:32:49.532Z</time></trkpt><trkpt lat="43.402575" lon="11.852525"><ele>323.4285714285714</ele><time>2026-05-02T09:32:52.531Z</time></trkpt><trkpt lat="43.4025667" lon="11.8526133"><ele>325.0</ele><time>2026-05-02T09:32:55.532Z</time></trkpt><trkpt lat="43.4025617" lon="11.8527"><ele>326.0</ele><time>2026-05-02T09:32:58.532Z</time></trkpt><trkpt lat="43.40254" lon="11.8527833"><ele>327.0</ele><time>2026-05-02T09:33:01.534Z</time></trkpt><trkpt lat="43.4025267" lon="11.85289"><ele>328.0</ele><time>2026-05-02T09:33:05.533Z</time></trkpt><trkpt lat="43.4024917" lon="11.852975"><ele>329.0</ele><time>2026-05-02T09:33:10.532Z</time></trkpt><trkpt lat="43.4024883" lon="11.85308"><ele>330.0</ele><time>2026-05-02T09:33:15.533Z</time></trkpt><trkpt lat="43.402505" lon="11.8531767"><ele>331.0</ele><time>2026-05-02T09:33:20.533Z</time></trkpt><trkpt lat="43.4025267" lon="11.8532767"><ele>332.0</ele><time>2026-05-02T09:33:26.533Z</time></trkpt><trkpt lat="43.402535" lon="11.8533683"><ele>332.1428571428571</ele><time>2026-05-02T09:33:31.53Z</time></trkpt><trkpt lat="43.4025433" lon="11.85346"><ele>332.28571428571433</ele><time>2026-05-02T09:33:37.531Z</time></trkpt><trkpt lat="43.4025483" lon="11.8535583"><ele>332.42857142857144</ele><time>2026-05-02T09:33:45.533Z</time></trkpt><trkpt lat="43.4025667" lon="11.8536517"><ele>332.57142857142856</ele><time>2026-05-02T09:33:52.534Z</time></trkpt><trkpt lat="43.4025917" lon="11.8537467"><ele>332.71428571428567</ele><time>2026-05-02T09:33:57.533Z</time></trkpt><trkpt lat="43.40262" lon="11.8538317"><ele>332.8571428571429</ele><time>2026-05-02T09:34:01.533Z</time></trkpt><trkpt lat="43.4026533" lon="11.8539217"><ele>333.0</ele><time>2026-05-02T09:34:05.533Z</time></trkpt><trkpt lat="43.402685" lon="11.85401"><ele>333.0</ele><time>2026-05-02T09:34:09.533Z</time></trkpt><trkpt lat="43.40271" lon="11.8541083"><ele>333.0</ele><time>2026-05-02T09:34:13.535Z</time></trkpt><trkpt lat="43.402735" lon="11.8542117"><ele>333.0</ele><time>2026-05-02T09:34:17.533Z</time></trkpt><trkpt lat="43.40276" lon="11.8543017"><ele>333.0</ele><time>2026-05-02T09:34:21.536Z</time></trkpt><trkpt lat="43.4027817" lon="11.8543867"><ele>333.0</ele><time>2026-05-02T09:34:25.535Z</time></trkpt><trkpt lat="43.402805" lon="11.8544733"><ele>333.0</ele><time>2026-05-02T09:34:29.535Z</time></trkpt><trkpt lat="43.40284" lon="11.8545567"><ele>333.0</ele><time>2026-05-02T09:34:33.531Z</time></trkpt><trkpt lat="43.402885" lon="11.8546433"><ele>333.5714285714286</ele><time>2026-05-02T09:34:38.53Z</time></trkpt><trkpt lat="43.4029267" lon="11.85472"><ele>334.1428571428571</ele><time>2026-05-02T09:34:42.536Z</time></trkpt><trkpt lat="43.40294" lon="11.8548183"><ele>334.7142857142857</ele><time>2026-05-02T09:34:47.537Z</time></trkpt><trkpt lat="43.40296" lon="11.8549083"><ele>335.28571428571433</ele><time>2026-05-02T09:34:51.531Z</time></trkpt><trkpt lat="43.4029683" lon="11.8550017"><ele>335.8571428571429</ele><time>2026-05-02T09:34:55.533Z</time></trkpt><trkpt lat="43.40297" lon="11.8550983"><ele>336.42857142857144</ele><time>2026-05-02T09:35:00.532Z</time></trkpt><trkpt lat="43.402975" lon="11.855195"><ele>337.0</ele><time>2026-05-02T09:35:05.533Z</time></trkpt><trkpt lat="43.40296" lon="11.8553117"><ele>338.00000000000006</ele><time>2026-05-02T09:35:09.531Z</time></trkpt><trkpt lat="43.402945" lon="11.855405"><ele>339.0</ele><time>2026-05-02T09:35:13.531Z</time></trkpt><trkpt lat="43.4029267" lon="11.8554983"><ele>340.0</ele><time>2026-05-02T09:35:18.538Z</time></trkpt><trkpt lat="43.40291" lon="11.8555917"><ele>341.0</ele><time>2026-05-02T09:35:22.536Z</time></trkpt><trkpt lat="43.40289" lon="11.8556833"><ele>342.0</ele><time>2026-05-02T09:35:26.534Z</time></trkpt><trkpt lat="43.4028733" lon="11.85578"><ele>343.00000000000006</ele><time>2026-05-02T09:35:31.533Z</time></trkpt><trkpt lat="43.4028917" lon="11.8558683"><ele>344.0</ele><time>2026-05-02T09:35:36.532Z</time></trkpt><trkpt lat="43.4029517" lon="11.855915"><ele>345.00000000000006</ele><time>2026-05-02T09:35:42.534Z</time></trkpt><trkpt lat="43.4029793" lon="11.8560018"><ele>346.0</ele><time>2026-05-02T09:37:10.589Z</time></trkpt><trkpt lat="43.4029597" lon="11.8560888"><ele>347.0</ele><time>2026-05-02T09:37:25.601Z</time></trkpt><trkpt lat="43.402963" lon="11.8561757"><ele>348.0</ele><time>2026-05-02T09:37:35.568Z</time></trkpt><trkpt lat="43.4030336" lon="11.8561614"><ele>349.0</ele><time>2026-05-02T09:37:52.572Z</time></trkpt><trkpt lat="43.4030962" lon="11.8561915"><ele>350.00000000000006</ele><time>2026-05-02T09:37:56.558Z</time></trkpt><trkpt lat="43.4031017" lon="11.85628"><ele>351.0</ele><time>2026-05-02T09:38:19.534Z</time></trkpt><trkpt lat="43.40308" lon="11.8563867"><ele>351.00000000000006</ele><time>2026-05-02T09:38:23.535Z</time></trkpt><trkpt lat="43.403075" lon="11.856485"><ele>351.0</ele><time>2026-05-02T09:38:28.534Z</time></trkpt><trkpt lat="43.4030667" lon="11.8565817"><ele>351.0</ele><time>2026-05-02T09:38:32.532Z</time></trkpt><trkpt lat="43.4030483" lon="11.85667"><ele>351.0</ele><time>2026-05-02T09:38:35.53Z</time></trkpt><trkpt lat="43.40301" lon="11.8567467"><ele>351.0</ele><time>2026-05-02T09:38:40.532Z</time></trkpt><trkpt lat="43.4029433" lon="11.8567733"><ele>351.00000000000006</ele><time>2026-05-02T09:38:48.531Z</time></trkpt><trkpt lat="43.4028833" lon="11.8568083"><ele>351.0</ele><time>2026-05-02T09:38:52.533Z</time></trkpt><trkpt lat="43.4028367" lon="11.8568667"><ele>352.5</ele><time>2026-05-02T09:38:56.532Z</time></trkpt><trkpt lat="43.4028383" lon="11.8569583"><ele>354.0</ele><time>2026-05-02T09:39:00.533Z</time></trkpt><trkpt lat="43.4028183" lon="11.8570617"><ele>355.5</ele><time>2026-05-02T09:39:05.531Z</time></trkpt><trkpt lat="43.40279" lon="11.85717"><ele>357.0</ele><time>2026-05-02T09:39:09.533Z</time></trkpt><trkpt lat="43.4027833" lon="11.8572633"><ele>358.5</ele><time>2026-05-02T09:39:12.533Z</time></trkpt><trkpt lat="43.4027667" lon="11.8573717"><ele>360.0</ele><time>2026-05-02T09:39:16.53Z</time></trkpt><trkpt lat="43.40274" lon="11.857475"><ele>360.0</ele><time>2026-05-02T09:39:20.532Z</time></trkpt><trkpt lat="43.402715" lon="11.857565"><ele>360.0</ele><time>2026-05-02T09:39:24.532Z</time></trkpt><trkpt lat="43.4026983" lon="11.8576633"><ele>360.0</ele><time>2026-05-02T09:39:29.531Z</time></trkpt><trkpt lat="43.4026783" lon="11.8577467"><ele>360.0</ele><time>2026-05-02T09:39:33.531Z</time></trkpt><trkpt lat="43.4026483" lon="11.8578383"><ele>360.0</ele><time>2026-05-02T09:39:37.532Z</time></trkpt><trkpt lat="43.40262" lon="11.8579283"><ele>360.0</ele><time>2026-05-02T09:39:41.532Z</time></trkpt><trkpt lat="43.40259" lon="11.85803"><ele>360.0</ele><time>2026-05-02T09:39:45.536Z</time></trkpt><trkpt lat="43.4025867" lon="11.8581167"><ele>361.85714285714283</ele><time>2026-05-02T09:39:49.532Z</time></trkpt><trkpt lat="43.4026017" lon="11.8582217"><ele>363.7142857142857</ele><time>2026-05-02T09:39:54.532Z</time></trkpt><trkpt lat="43.4026317" lon="11.8583117"><ele>365.57142857142856</ele><time>2026-05-02T09:39:59.534Z</time></trkpt><trkpt lat="43.4026583" lon="11.8583983"><ele>367.42857142857144</ele><time>2026-05-02T09:40:03.53Z</time></trkpt><trkpt lat="43.4026967" lon="11.8584917"><ele>369.28571428571433</ele><time>2026-05-02T09:40:07.531Z</time></trkpt><trkpt lat="43.40271" lon="11.8585933"><ele>371.14285714285717</ele><time>2026-05-02T09:40:12.53Z</time></trkpt><trkpt lat="43.4026583" lon="11.8586467"><ele>373.0</ele><time>2026-05-02T09:42:18.533Z</time></trkpt><trkpt lat="43.4026183" lon="11.85872"><ele>374.57142857142856</ele><time>2026-05-02T09:42:22.532Z</time></trkpt><trkpt lat="43.4025667" lon="11.8587983"><ele>376.14285714285717</ele><time>2026-05-02T09:42:26.533Z</time></trkpt><trkpt lat="43.4025333" lon="11.85889"><ele>377.71428571428567</ele><time>2026-05-02T09:42:30.532Z</time></trkpt><trkpt lat="43.4025183" lon="11.8589817"><ele>379.2857142857143</ele><time>2026-05-02T09:42:34.533Z</time></trkpt><trkpt lat="43.4025133" lon="11.859075"><ele>380.85714285714283</ele><time>2026-05-02T09:42:37.533Z</time></trkpt><trkpt lat="43.402505" lon="11.8591633"><ele>382.4285714285714</ele><time>2026-05-02T09:42:40.531Z</time></trkpt><trkpt lat="43.402485" lon="11.8592467"><ele>384.0</ele><time>2026-05-02T09:42:43.53Z</time></trkpt><trkpt lat="43.402465" lon="11.8593533"><ele>384.99999999999994</ele><time>2026-05-02T09:42:47.535Z</time></trkpt><trkpt lat="43.4024317" lon="11.85944"><ele>386.0</ele><time>2026-05-02T09:42:51.532Z</time></trkpt><trkpt lat="43.4024117" lon="11.859545"><ele>387.0</ele><time>2026-05-02T09:42:55.535Z</time></trkpt><trkpt lat="43.40242" lon="11.8596467"><ele>388.0</ele><time>2026-05-02T09:42:59.532Z</time></trkpt><trkpt lat="43.4024033" lon="11.8597433"><ele>389.0</ele><time>2026-05-02T09:43:03.534Z</time></trkpt><trkpt lat="43.4023967" lon="11.8598483"><ele>389.99999999999994</ele><time>2026-05-02T09:43:07.531Z</time></trkpt><trkpt lat="43.4023983" lon="11.8599367"><ele>391.0</ele><time>2026-05-02T09:43:11.534Z</time></trkpt><trkpt lat="43.4023967" lon="11.860025"><ele>390.99999999999994</ele><time>2026-05-02T09:43:15.532Z</time></trkpt><trkpt lat="43.4023933" lon="11.8601117"><ele>391.0</ele><time>2026-05-02T09:43:19.536Z</time></trkpt><trkpt lat="43.4023983" lon="11.86021"><ele>391.0</ele><time>2026-05-02T09:43:23.532Z</time></trkpt><trkpt lat="43.40242" lon="11.860325"><ele>391.0</ele><time>2026-05-02T09:43:28.533Z</time></trkpt><trkpt lat="43.4024617" lon="11.8604133"><ele>391.0</ele><time>2026-05-02T09:43:33.535Z</time></trkpt><trkpt lat="43.402515" lon="11.8604783"><ele>390.99999999999994</ele><time>2026-05-02T09:43:37.534Z</time></trkpt><trkpt lat="43.4025483" lon="11.8605583"><ele>391.0</ele><time>2026-05-02T09:43:41.532Z</time></trkpt><trkpt lat="43.4025717" lon="11.8606533"><ele>391.2857142857143</ele><time>2026-05-02T09:43:49.532Z</time></trkpt><trkpt lat="43.4025917" lon="11.860745"><ele>391.57142857142856</ele><time>2026-05-02T09:43:54.534Z</time></trkpt><trkpt lat="43.4026167" lon="11.860835"><ele>391.8571428571429</ele><time>2026-05-02T09:43:58.532Z</time></trkpt><trkpt lat="43.4026417" lon="11.860915"><ele>392.1428571428571</ele><time>2026-05-02T09:44:03.533Z</time></trkpt><trkpt lat="43.40268" lon="11.8610117"><ele>392.42857142857144</ele><time>2026-05-02T09:44:08.531Z</time></trkpt><trkpt lat="43.4027167" lon="11.8611067"><ele>392.7142857142857</ele><time>2026-05-02T09:44:12.533Z</time></trkpt><trkpt lat="43.4027417" lon="11.86119"><ele>393.0</ele><time>2026-05-02T09:44:16.529Z</time></trkpt><trkpt lat="43.4027733" lon="11.861265"><ele>393.0</ele><time>2026-05-02T09:44:20.533Z</time></trkpt><trkpt lat="43.4028167" lon="11.86136"><ele>393.0</ele><time>2026-05-02T09:44:24.532Z</time></trkpt><trkpt lat="43.4028533" lon="11.86147"><ele>393.0</ele><time>2026-05-02T09:44:27.535Z</time></trkpt><trkpt lat="43.4028783" lon="11.86156"><ele>393.0</ele><time>2026-05-02T09:44:30.533Z</time></trkpt><trkpt lat="43.4029167" lon="11.861645"><ele>393.0</ele><time>2026-05-02T09:44:33.532Z</time></trkpt><trkpt lat="43.4029567" lon="11.86174"><ele>393.0</ele><time>2026-05-02T09:44:37.531Z</time></trkpt><trkpt lat="43.4029917" lon="11.861825"><ele>393.28571428571433</ele><time>2026-05-02T09:44:41.532Z</time></trkpt><trkpt lat="43.4030117" lon="11.8619117"><ele>393.57142857142856</ele><time>2026-05-02T09:44:44.532Z</time></trkpt><trkpt lat="43.4030283" lon="11.8619983"><ele>393.8571428571429</ele><time>2026-05-02T09:44:47.531Z</time></trkpt><trkpt lat="43.4030367" lon="11.8621083"><ele>394.14285714285717</ele><time>2026-05-02T09:44:51.537Z</time></trkpt><trkpt lat="43.4030283" lon="11.8621967"><ele>394.42857142857144</ele><time>2026-05-02T09:44:54.533Z</time></trkpt><trkpt lat="43.4030117" lon="11.8622867"><ele>394.7142857142857</ele><time>2026-05-02T09:44:58.533Z</time></trkpt><trkpt lat="43.4030383" lon="11.8623817"><ele>395.0</ele><time>2026-05-02T09:46:03.537Z</time></trkpt><trkpt lat="43.4030717" lon="11.8624717"><ele>395.0</ele><time>2026-05-02T09:46:08.533Z</time></trkpt><trkpt lat="43.403095" lon="11.8625667"><ele>395.0</ele><time>2026-05-02T09:46:12.533Z</time></trkpt><trkpt lat="43.40312" lon="11.8626483"><ele>395.0</ele><time>2026-05-02T09:46:16.538Z</time></trkpt><trkpt lat="43.4031467" lon="11.8627317"><ele>395.0</ele><time>2026-05-02T09:46:21.535Z</time></trkpt><trkpt lat="43.4031617" lon="11.862835"><ele>395.0</ele><time>2026-05-02T09:46:45.533Z</time></trkpt><trkpt lat="43.4031633" lon="11.8629267"><ele>395.0</ele><time>2026-05-02T09:46:49.533Z</time></trkpt><trkpt lat="43.4031683" lon="11.86303"><ele>395.0</ele><time>2026-05-02T09:46:53.531Z</time></trkpt><trkpt lat="43.4031783" lon="11.863135"><ele>396.1428571428571</ele><time>2026-05-02T09:46:57.534Z</time></trkpt><trkpt lat="43.4031883" lon="11.863225"><ele>397.28571428571433</ele><time>2026-05-02T09:47:01.533Z</time></trkpt><trkpt lat="43.403205" lon="11.8633267"><ele>398.42857142857144</ele><time>2026-05-02T09:47:06.535Z</time></trkpt><trkpt lat="43.4032033" lon="11.8634217"><ele>399.57142857142856</ele><time>2026-05-02T09:47:11.535Z</time></trkpt><trkpt lat="43.4032017" lon="11.8635167"><ele>400.71428571428567</ele><time>2026-05-02T09:47:15.532Z</time></trkpt><trkpt lat="43.4032033" lon="11.863615"><ele>401.8571428571429</ele><time>2026-05-02T09:47:19.535Z</time></trkpt><trkpt lat="43.4032033" lon="11.8637183"><ele>403.0</ele><time>2026-05-02T09:47:23.535Z</time></trkpt><trkpt lat="43.4032067" lon="11.86382"><ele>404.8571428571429</ele><time>2026-05-02T09:47:28.534Z</time></trkpt><trkpt lat="43.4032133" lon="11.8639267"><ele>406.71428571428567</ele><time>2026-05-02T09:47:33.533Z</time></trkpt><trkpt lat="43.4032467" lon="11.864015"><ele>408.57142857142856</ele><time>2026-05-02T09:47:37.534Z</time></trkpt><trkpt lat="43.4032383" lon="11.8641133"><ele>410.42857142857144</ele><time>2026-05-02T09:47:43.534Z</time></trkpt><trkpt lat="43.40322" lon="11.8642017"><ele>412.28571428571433</ele><time>2026-05-02T09:47:51.531Z</time></trkpt><trkpt lat="43.40322" lon="11.8642967"><ele>414.1428571428571</ele><time>2026-05-02T09:47:56.532Z</time></trkpt><trkpt lat="43.403245" lon="11.8643967"><ele>416.0</ele><time>2026-05-02T09:48:00.536Z</time></trkpt><trkpt lat="43.4032733" lon="11.864475"><ele>418.7142857142857</ele><time>2026-05-02T09:48:04.532Z</time></trkpt><trkpt lat="43.4033233" lon="11.864565"><ele>421.42857142857144</ele><time>2026-05-02T09:48:09.535Z</time></trkpt><trkpt lat="43.4033533" lon="11.864645"><ele>424.14285714285717</ele><time>2026-05-02T09:48:13.533Z</time></trkpt><trkpt lat="43.4033917" lon="11.86473"><ele>426.8571428571429</ele><time>2026-05-02T09:48:18.534Z</time></trkpt><trkpt lat="43.4034383" lon="11.8648017"><ele>429.57142857142856</ele><time>2026-05-02T09:48:24.531Z</time></trkpt><trkpt lat="43.4034833" lon="11.8648633"><ele>432.28571428571433</ele><time>2026-05-02T09:48:30.534Z</time></trkpt><trkpt lat="43.40353" lon="11.8649283"><ele>435.0</ele><time>2026-05-02T09:48:35.533Z</time></trkpt><trkpt lat="43.403565" lon="11.8650067"><ele>435.00000000000006</ele><time>2026-05-02T09:48:40.532Z</time></trkpt><trkpt lat="43.4036183" lon="11.8650667"><ele>435.0</ele><time>2026-05-02T09:48:48.528Z</time></trkpt><trkpt lat="43.4036817" lon="11.8650917"><ele>435.0</ele><time>2026-05-02T09:49:05.531Z</time></trkpt><trkpt lat="43.4036633" lon="11.865175"><ele>435.0</ele><time>2026-05-02T09:49:14.531Z</time></trkpt><trkpt lat="43.4036517" lon="11.8652617"><ele>435.0</ele><time>2026-05-02T09:49:20.532Z</time></trkpt><trkpt lat="43.4036533" lon="11.86536"><ele>435.00000000000006</ele><time>2026-05-02T09:49:33.532Z</time></trkpt><trkpt lat="43.4036483" lon="11.8654883"><ele>435.0</ele><time>2026-05-02T09:49:39.532Z</time></trkpt><trkpt lat="43.403675" lon="11.8655733"><ele>436.42857142857144</ele><time>2026-05-02T09:49:43.533Z</time></trkpt><trkpt lat="43.4037067" lon="11.865675"><ele>437.8571428571429</ele><time>2026-05-02T09:49:49.53Z</time></trkpt><trkpt lat="43.40373" lon="11.8657767"><ele>439.28571428571433</ele><time>2026-05-02T09:49:56.533Z</time></trkpt><trkpt lat="43.40375" lon="11.865865"><ele>440.7142857142857</ele><time>2026-05-02T09:50:01.531Z</time></trkpt><trkpt lat="43.4037817" lon="11.8659767"><ele>442.1428571428571</ele><time>2026-05-02T09:50:07.53Z</time></trkpt><trkpt lat="43.403795" lon="11.8660633"><ele>443.5714285714286</ele><time>2026-05-02T09:50:12.533Z</time></trkpt><trkpt lat="43.4038233" lon="11.8661533"><ele>445.0</ele><time>2026-05-02T09:50:17.531Z</time></trkpt><trkpt lat="43.4038567" lon="11.8662683"><ele>445.00000000000006</ele><time>2026-05-02T09:50:24.53Z</time></trkpt><trkpt lat="43.4038817" lon="11.8663483"><ele>445.0</ele><time>2026-05-02T09:50:28.532Z</time></trkpt><trkpt lat="43.403925" lon="11.866495"><ele>445.0</ele><time>2026-05-02T09:50:35.533Z</time></trkpt><trkpt lat="43.4039633" lon="11.8665883"><ele>445.0</ele><time>2026-05-02T09:50:42.534Z</time></trkpt><trkpt lat="43.4039967" lon="11.866665"><ele>445.00000000000006</ele><time>2026-05-02T09:50:47.531Z</time></trkpt><trkpt lat="43.404015" lon="11.8667483"><ele>445.0</ele><time>2026-05-02T09:50:53.531Z</time></trkpt><trkpt lat="43.4040583" lon="11.86682"><ele>448.00000000000006</ele><time>2026-05-02T09:50:58.534Z</time></trkpt><trkpt lat="43.4040733" lon="11.8669167"><ele>451.0</ele><time>2026-05-02T09:51:01.531Z</time></trkpt><trkpt lat="43.40414" lon="11.86702"><ele>454.0</ele><time>2026-05-02T09:51:07.53Z</time></trkpt><trkpt lat="43.404195" lon="11.8670917"><ele>457.0</ele><time>2026-05-02T09:51:12.531Z</time></trkpt><trkpt lat="43.4042467" lon="11.8671733"><ele>460.00000000000006</ele><time>2026-05-02T09:51:15.53Z</time></trkpt><trkpt lat="43.4043" lon="11.8672667"><ele>463.0</ele><time>2026-05-02T09:51:17.531Z</time></trkpt><trkpt lat="43.4043517" lon="11.8673567"><ele>463.0</ele><time>2026-05-02T09:51:19.532Z</time></trkpt><trkpt lat="43.40439" lon="11.8674283"><ele>462.99999999999994</ele><time>2026-05-02T09:51:20.533Z</time></trkpt><trkpt lat="43.4044667" lon="11.867485"><ele>463.0</ele><time>2026-05-02T09:51:22.531Z</time></trkpt><trkpt lat="43.4045383" lon="11.8674533"><ele>463.0</ele><time>2026-05-02T09:51:24.533Z</time></trkpt><trkpt lat="43.4045967" lon="11.8674067"><ele>462.99999999999994</ele><time>2026-05-02T09:51:26.532Z</time></trkpt><trkpt lat="43.404675" lon="11.867395"><ele>463.0</ele><time>2026-05-02T09:51:29.532Z</time></trkpt><trkpt lat="43.4047417" lon="11.8674033"><ele>463.0</ele><time>2026-05-02T09:51:32.534Z</time></trkpt><trkpt lat="43.4048" lon="11.86737"><ele>463.0</ele><time>2026-05-02T09:51:36.532Z</time></trkpt><trkpt lat="43.4048533" lon="11.8673133"><ele>462.99999999999994</ele><time>2026-05-02T09:51:44.529Z</time></trkpt><trkpt lat="43.4049167" lon="11.8672533"><ele>463.0</ele><time>2026-05-02T09:52:02.531Z</time></trkpt><trkpt lat="43.4049917" lon="11.8672083"><ele>463.0</ele><time>2026-05-02T09:52:06.53Z</time></trkpt><trkpt lat="43.4050533" lon="11.8671683"><ele>462.99999999999994</ele><time>2026-05-02T09:52:10.531Z</time></trkpt><trkpt lat="43.4051267" lon="11.8671367"><ele>463.0</ele><time>2026-05-02T09:52:14.532Z</time></trkpt><trkpt lat="43.4051967" lon="11.8670933"><ele>463.0</ele><time>2026-05-02T09:52:18.533Z</time></trkpt><trkpt lat="43.40526" lon="11.8670683"><ele>463.0</ele><time>2026-05-02T09:52:22.535Z</time></trkpt><trkpt lat="43.4053367" lon="11.8670467"><ele>462.99999999999994</ele><time>2026-05-02T09:52:27.532Z</time></trkpt><trkpt lat="43.4053917" lon="11.866995"><ele>463.0</ele><time>2026-05-02T09:52:39.534Z</time></trkpt><trkpt lat="43.405395" lon="11.8668867"><ele>463.0</ele><time>2026-05-02T09:52:44.533Z</time></trkpt><trkpt lat="43.40537" lon="11.8667967"><ele>462.99999999999994</ele><time>2026-05-02T09:52:48.534Z</time></trkpt><trkpt lat="43.40535" lon="11.86671"><ele>463.0</ele><time>2026-05-02T09:52:52.534Z</time></trkpt><trkpt lat="43.4053367" lon="11.8666067"><ele>463.0</ele><time>2026-05-02T09:52:56.536Z</time></trkpt><trkpt lat="43.4052833" lon="11.86653"><ele>461.83333333333337</ele><time>2026-05-02T09:53:00.533Z</time></trkpt><trkpt lat="43.40525" lon="11.8664333"><ele>460.6666666666667</ele><time>2026-05-02T09:53:04.53Z</time></trkpt><trkpt lat="43.4052183" lon="11.8663233"><ele>459.5</ele><time>2026-05-02T09:53:09.532Z</time></trkpt><trkpt lat="43.4051917" lon="11.8662183"><ele>458.33333333333337</ele><time>2026-05-02T09:53:13.532Z</time></trkpt><trkpt lat="43.4051767" lon="11.8661133"><ele>457.1666666666667</ele><time>2026-05-02T09:53:18.535Z</time></trkpt><trkpt lat="43.40518" lon="11.866005"><ele>456.0</ele><time>2026-05-02T09:53:23.533Z</time></trkpt><trkpt lat="43.4051817" lon="11.8659083"><ele>456.0</ele><time>2026-05-02T09:53:27.533Z</time></trkpt><trkpt lat="43.4051817" lon="11.865815"><ele>456.0</ele><time>2026-05-02T09:53:31.533Z</time></trkpt><trkpt lat="43.4051883" lon="11.865715"><ele>456.0</ele><time>2026-05-02T09:53:35.534Z</time></trkpt><trkpt lat="43.4052017" lon="11.8656167"><ele>456.0</ele><time>2026-05-02T09:53:40.537Z</time></trkpt><trkpt lat="43.4051983" lon="11.86544"><ele>456.0</ele><time>2026-05-02T09:54:17.532Z</time></trkpt><trkpt lat="43.40524" lon="11.8653467"><ele>456.0</ele><time>2026-05-02T09:54:21.53Z</time></trkpt><trkpt lat="43.405275" lon="11.8652517"><ele>456.0</ele><time>2026-05-02T09:54:25.532Z</time></trkpt><trkpt lat="43.405305" lon="11.8651617"><ele>455.99999999999994</ele><time>2026-05-02T09:54:29.534Z</time></trkpt><trkpt lat="43.4053333" lon="11.8650767"><ele>456.0</ele><time>2026-05-02T09:54:33.532Z</time></trkpt><trkpt lat="43.405335" lon="11.86499"><ele>456.0</ele><time>2026-05-02T09:54:37.533Z</time></trkpt><trkpt lat="43.40535" lon="11.86489"><ele>455.99999999999994</ele><time>2026-05-02T09:54:43.533Z</time></trkpt><trkpt lat="43.405365" lon="11.86478"><ele>456.0</ele><time>2026-05-02T09:54:47.535Z</time></trkpt><trkpt lat="43.4053867" lon="11.8646867"><ele>456.0</ele><time>2026-05-02T09:54:50.542Z</time></trkpt><trkpt lat="43.4054033" lon="11.8646"><ele>455.20000000000005</ele><time>2026-05-02T09:54:53.536Z</time></trkpt><trkpt lat="43.4054217" lon="11.8645067"><ele>454.40000000000003</ele><time>2026-05-02T09:54:56.533Z</time></trkpt><trkpt lat="43.40544" lon="11.8644217"><ele>453.6</ele><time>2026-05-02T09:55:00.535Z</time></trkpt><trkpt lat="43.405475" lon="11.86434"><ele>452.8</ele><time>2026-05-02T09:55:04.531Z</time></trkpt><trkpt lat="43.4055067" lon="11.864235"><ele>452.0</ele><time>2026-05-02T09:55:08.533Z</time></trkpt><trkpt lat="43.4056733" lon="11.8641083"><ele>456.3333333333333</ele><time>2026-05-02T09:55:32.53Z</time></trkpt><trkpt lat="43.4056217" lon="11.8640467"><ele>460.66666666666663</ele><time>2026-05-02T09:55:34.53Z</time></trkpt><trkpt lat="43.405505" lon="11.8640217"><ele>465.0</ele><time>2026-05-02T09:55:43.531Z</time></trkpt><trkpt lat="43.4055033" lon="11.8641183"><ele>469.33333333333337</ele><time>2026-05-02T09:56:06.531Z</time></trkpt><trkpt lat="43.4055633" lon="11.8640583"><ele>473.6666666666667</ele><time>2026-05-02T09:58:02.534Z</time></trkpt><trkpt lat="43.405615" lon="11.8639767"><ele>478.0</ele><time>2026-05-02T09:58:04.531Z</time></trkpt><trkpt lat="43.4056733" lon="11.863895"><ele>478.00000000000006</ele><time>2026-05-02T09:58:06.533Z</time></trkpt><trkpt lat="43.4057283" lon="11.863825"><ele>478.0</ele><time>2026-05-02T09:58:08.533Z</time></trkpt><trkpt lat="43.4057817" lon="11.863765"><ele>478.00000000000006</ele><time>2026-05-02T09:58:10.533Z</time></trkpt><trkpt lat="43.4058533" lon="11.863695"><ele>478.00000000000006</ele><time>2026-05-02T09:58:13.53Z</time></trkpt><trkpt lat="43.405915" lon="11.86363"><ele>478.0</ele><time>2026-05-02T09:58:16.531Z</time></trkpt><trkpt lat="43.40597" lon="11.8635717"><ele>478.00000000000006</ele><time>2026-05-02T09:58:19.53Z</time></trkpt><trkpt lat="43.4060217" lon="11.863515"><ele>478.00000000000006</ele><time>2026-05-02T09:58:22.531Z</time></trkpt><trkpt lat="43.4060767" lon="11.863445"><ele>476.50000000000006</ele><time>2026-05-02T09:58:26.533Z</time></trkpt><trkpt lat="43.4061283" lon="11.8633917"><ele>475.0</ele><time>2026-05-02T09:58:29.534Z</time></trkpt><trkpt lat="43.406185" lon="11.86335"><ele>473.5</ele><time>2026-05-02T09:58:32.532Z</time></trkpt><trkpt lat="43.40625" lon="11.863325"><ele>472.0</ele><time>2026-05-02T09:58:35.533Z</time></trkpt><trkpt lat="43.40634" lon="11.8633167"><ele>470.50000000000006</ele><time>2026-05-02T09:58:39.531Z</time></trkpt><trkpt lat="43.406425" lon="11.8633033"><ele>469.0</ele><time>2026-05-02T09:58:42.533Z</time></trkpt><trkpt lat="43.4065183" lon="11.8632667"><ele>469.00000000000006</ele><time>2026-05-02T09:58:45.53Z</time></trkpt><trkpt lat="43.40659" lon="11.8632417"><ele>469.0</ele><time>2026-05-02T09:58:47.533Z</time></trkpt><trkpt lat="43.4066633" lon="11.8632067"><ele>469.0</ele><time>2026-05-02T09:58:49.531Z</time></trkpt><trkpt lat="43.40674" lon="11.8631817"><ele>469.0</ele><time>2026-05-02T09:58:51.531Z</time></trkpt><trkpt lat="43.4068117" lon="11.86315"><ele>469.00000000000006</ele><time>2026-05-02T09:58:53.532Z</time></trkpt><trkpt lat="43.4068767" lon="11.863125"><ele>469.0</ele><time>2026-05-02T09:58:55.535Z</time></trkpt><trkpt lat="43.40696" lon="11.8630717"><ele>469.00000000000006</ele><time>2026-05-02T09:58:58.53Z</time></trkpt><trkpt lat="43.4070083" lon="11.8629767"><ele>469.0</ele><time>2026-05-02T09:59:01.531Z</time></trkpt><trkpt lat="43.4070267" lon="11.8628817"><ele>469.0</ele><time>2026-05-02T09:59:03.532Z</time></trkpt><trkpt lat="43.407015" lon="11.8627667"><ele>469.0</ele><time>2026-05-02T09:59:06.532Z</time></trkpt><trkpt lat="43.406995" lon="11.8626483"><ele>469.00000000000006</ele><time>2026-05-02T09:59:09.533Z</time></trkpt><trkpt lat="43.406985" lon="11.8625483"><ele>469.0</ele><time>2026-05-02T09:59:11.53Z</time></trkpt><trkpt lat="43.4069817" lon="11.8624367"><ele>466.33333333333337</ele><time>2026-05-02T09:59:13.53Z</time></trkpt><trkpt lat="43.4069833" lon="11.86232"><ele>463.6666666666667</ele><time>2026-05-02T09:59:15.533Z</time></trkpt><trkpt lat="43.4069933" lon="11.8622033"><ele>461.0</ele><time>2026-05-02T09:59:17.533Z</time></trkpt><trkpt lat="43.4069983" lon="11.862105"><ele>458.33333333333337</ele><time>2026-05-02T09:59:19.53Z</time></trkpt><trkpt lat="43.40701" lon="11.86201"><ele>455.6666666666667</ele><time>2026-05-02T09:59:22.534Z</time></trkpt><trkpt lat="43.4070267" lon="11.8619017"><ele>453.0</ele><time>2026-05-02T09:59:26.532Z</time></trkpt><trkpt lat="43.4070367" lon="11.861815"><ele>451.99999999999994</ele><time>2026-05-02T09:59:29.533Z</time></trkpt><trkpt lat="43.4070717" lon="11.8617167"><ele>451.0</ele><time>2026-05-02T09:59:33.531Z</time></trkpt><trkpt lat="43.4071133" lon="11.861625"><ele>450.0</ele><time>2026-05-02T09:59:37.531Z</time></trkpt><trkpt lat="43.4071533" lon="11.8615317"><ele>449.0</ele><time>2026-05-02T09:59:41.534Z</time></trkpt><trkpt lat="43.4071883" lon="11.8614483"><ele>448.0</ele><time>2026-05-02T09:59:45.532Z</time></trkpt><trkpt lat="43.4072117" lon="11.8613617"><ele>447.0</ele><time>2026-05-02T09:59:50.533Z</time></trkpt><trkpt lat="43.4072617" lon="11.8613067"><ele>446.0</ele><time>2026-05-02T10:00:10.532Z</time></trkpt><trkpt lat="43.407285" lon="11.86122"><ele>448.2857142857143</ele><time>2026-05-02T10:00:14.534Z</time></trkpt><trkpt lat="43.4073367" lon="11.8611533"><ele>450.57142857142856</ele><time>2026-05-02T10:00:18.532Z</time></trkpt><trkpt lat="43.40739" lon="11.861075"><ele>452.8571428571429</ele><time>2026-05-02T10:00:22.533Z</time></trkpt><trkpt lat="43.407445" lon="11.8610133"><ele>455.1428571428571</ele><time>2026-05-02T10:00:25.533Z</time></trkpt><trkpt lat="43.4074983" lon="11.860945"><ele>457.42857142857144</ele><time>2026-05-02T10:00:28.532Z</time></trkpt><trkpt lat="43.4075483" lon="11.8608717"><ele>459.7142857142857</ele><time>2026-05-02T10:00:31.532Z</time></trkpt><trkpt lat="43.4076" lon="11.8607917"><ele>462.0</ele><time>2026-05-02T10:00:34.533Z</time></trkpt><trkpt lat="43.407655" lon="11.8607233"><ele>462.0</ele><time>2026-05-02T10:00:37.535Z</time></trkpt><trkpt lat="43.407705" lon="11.8606633"><ele>462.0</ele><time>2026-05-02T10:00:39.532Z</time></trkpt><trkpt lat="43.4077717" lon="11.8606017"><ele>462.0</ele><time>2026-05-02T10:00:42.535Z</time></trkpt><trkpt lat="43.407825" lon="11.8605467"><ele>462.0</ele><time>2026-05-02T10:00:45.532Z</time></trkpt><trkpt lat="43.4078667" lon="11.8604783"><ele>462.0</ele><time>2026-05-02T10:00:53.529Z</time></trkpt><trkpt lat="43.4079517" lon="11.8604433"><ele>462.0</ele><time>2026-05-02T10:01:20.532Z</time></trkpt><trkpt lat="43.4080317" lon="11.860455"><ele>462.0</ele><time>2026-05-02T10:01:24.533Z</time></trkpt><trkpt lat="43.4081083" lon="11.8605033"><ele>462.3333333333333</ele><time>2026-05-02T10:01:28.533Z</time></trkpt><trkpt lat="43.4081683" lon="11.8605433"><ele>462.66666666666663</ele><time>2026-05-02T10:01:31.537Z</time></trkpt><trkpt lat="43.4082467" lon="11.8605833"><ele>463.0</ele><time>2026-05-02T10:01:35.535Z</time></trkpt><trkpt lat="43.4083083" lon="11.86063"><ele>463.3333333333333</ele><time>2026-05-02T10:01:38.533Z</time></trkpt><trkpt lat="43.4083817" lon="11.8606833"><ele>463.66666666666663</ele><time>2026-05-02T10:01:41.535Z</time></trkpt><trkpt lat="43.4084567" lon="11.8607217"><ele>464.0</ele><time>2026-05-02T10:01:45.533Z</time></trkpt><trkpt lat="43.4085383" lon="11.8607433"><ele>463.99999999999994</ele><time>2026-05-02T10:01:49.536Z</time></trkpt><trkpt lat="43.408615" lon="11.8607783"><ele>464.0</ele><time>2026-05-02T10:01:52.531Z</time></trkpt><trkpt lat="43.4086817" lon="11.8608333"><ele>464.0</ele><time>2026-05-02T10:01:56.532Z</time></trkpt><trkpt lat="43.4087467" lon="11.8608833"><ele>464.0</ele><time>2026-05-02T10:02:00.532Z</time></trkpt><trkpt lat="43.4088133" lon="11.8609317"><ele>463.99999999999994</ele><time>2026-05-02T10:02:04.534Z</time></trkpt><trkpt lat="43.40888" lon="11.8609783"><ele>464.0</ele><time>2026-05-02T10:02:08.535Z</time></trkpt><trkpt lat="43.4089517" lon="11.8610033"><ele>464.00000000000006</ele><time>2026-05-02T10:02:12.534Z</time></trkpt><trkpt lat="43.409025" lon="11.8609933"><ele>464.0</ele><time>2026-05-02T10:02:16.531Z</time></trkpt><trkpt lat="43.409085" lon="11.860945"><ele>464.00000000000006</ele><time>2026-05-02T10:02:24.532Z</time></trkpt><trkpt lat="43.4090283" lon="11.8609033"><ele>464.00000000000006</ele><time>2026-05-02T10:03:43.531Z</time></trkpt><trkpt lat="43.4089483" lon="11.8609033"><ele>464.0</ele><time>2026-05-02T10:03:46.532Z</time></trkpt><trkpt lat="43.408875" lon="11.8608683"><ele>464.00000000000006</ele><time>2026-05-02T10:03:49.532Z</time></trkpt><trkpt lat="43.4088233" lon="11.8608133"><ele>464.00000000000006</ele><time>2026-05-02T10:03:52.53Z</time></trkpt><trkpt lat="43.40877" lon="11.8607467"><ele>463.99999999999994</ele><time>2026-05-02T10:03:56.531Z</time></trkpt><trkpt lat="43.40869" lon="11.8607067"><ele>464.0</ele><time>2026-05-02T10:03:59.532Z</time></trkpt><trkpt lat="43.408625" lon="11.8606667"><ele>464.0</ele><time>2026-05-02T10:04:01.534Z</time></trkpt><trkpt lat="43.4085517" lon="11.8606233"><ele>464.0</ele><time>2026-05-02T10:04:03.531Z</time></trkpt><trkpt lat="43.4084817" lon="11.8605767"><ele>463.99999999999994</ele><time>2026-05-02T10:04:05.531Z</time></trkpt><trkpt lat="43.4084183" lon="11.8605433"><ele>464.0</ele><time>2026-05-02T10:04:07.532Z</time></trkpt><trkpt lat="43.4083567" lon="11.8604983"><ele>463.99999999999994</ele><time>2026-05-02T10:04:10.531Z</time></trkpt><trkpt lat="43.4082833" lon="11.86047"><ele>464.0</ele><time>2026-05-02T10:04:14.536Z</time></trkpt><trkpt lat="43.4082183" lon="11.8604483"><ele>464.0</ele><time>2026-05-02T10:04:17.534Z</time></trkpt><trkpt lat="43.4081433" lon="11.8604283"><ele>464.0</ele><time>2026-05-02T10:04:20.533Z</time></trkpt><trkpt lat="43.4080583" lon="11.8604167"><ele>463.99999999999994</ele><time>2026-05-02T10:04:23.532Z</time></trkpt><trkpt lat="43.407965" lon="11.86042"><ele>464.0</ele><time>2026-05-02T10:04:26.533Z</time></trkpt><trkpt lat="43.4078515" lon="11.8604494"><ele>463.7142857142858</ele><time>2026-05-02T10:05:05.56Z</time></trkpt><trkpt lat="43.4077976" lon="11.8604998"><ele>463.42857142857144</ele><time>2026-05-02T10:05:09.548Z</time></trkpt><trkpt lat="43.4077382" lon="11.8605394"><ele>463.14285714285717</ele><time>2026-05-02T10:05:13.536Z</time></trkpt><trkpt lat="43.4076733" lon="11.8605983"><ele>462.8571428571429</ele><time>2026-05-02T10:05:17.534Z</time></trkpt><trkpt lat="43.4076133" lon="11.8606583"><ele>462.57142857142856</ele><time>2026-05-02T10:05:22.532Z</time></trkpt><trkpt lat="43.4075683" lon="11.860725"><ele>462.2857142857143</ele><time>2026-05-02T10:05:26.533Z</time></trkpt><trkpt lat="43.40752" lon="11.8607817"><ele>462.0</ele><time>2026-05-02T10:05:32.532Z</time></trkpt><trkpt lat="43.40747" lon="11.8608367"><ele>462.0</ele><time>2026-05-02T10:05:37.532Z</time></trkpt><trkpt lat="43.40742" lon="11.8609033"><ele>462.0</ele><time>2026-05-02T10:05:41.531Z</time></trkpt><trkpt lat="43.40737" lon="11.8609817"><ele>462.0</ele><time>2026-05-02T10:05:46.532Z</time></trkpt><trkpt lat="43.4073133" lon="11.8610667"><ele>462.0</ele><time>2026-05-02T10:05:52.534Z</time></trkpt><trkpt lat="43.4072667" lon="11.86115"><ele>462.0</ele><time>2026-05-02T10:05:57.534Z</time></trkpt><trkpt lat="43.4072283" lon="11.8612483"><ele>462.0</ele><time>2026-05-02T10:06:02.531Z</time></trkpt><trkpt lat="43.40718" lon="11.8613617"><ele>460.20000000000005</ele><time>2026-05-02T10:06:05.532Z</time></trkpt><trkpt lat="43.4071317" lon="11.8614533"><ele>458.40000000000003</ele><time>2026-05-02T10:06:07.534Z</time></trkpt><trkpt lat="43.407075" lon="11.8615667"><ele>456.59999999999997</ele><time>2026-05-02T10:06:09.531Z</time></trkpt><trkpt lat="43.4070167" lon="11.86173"><ele>454.79999999999995</ele><time>2026-05-02T10:06:11.532Z</time></trkpt><trkpt lat="43.4069983" lon="11.861825"><ele>453.0</ele><time>2026-05-02T10:06:12.532Z</time></trkpt><trkpt lat="43.4069867" lon="11.8619233"><ele>453.0</ele><time>2026-05-02T10:06:13.53Z</time></trkpt><trkpt lat="43.4069783" lon="11.8620167"><ele>453.0</ele><time>2026-05-02T10:06:14.535Z</time></trkpt><trkpt lat="43.40697" lon="11.862115"><ele>453.0</ele><time>2026-05-02T10:06:15.532Z</time></trkpt><trkpt lat="43.4069667" lon="11.86222"><ele>453.0</ele><time>2026-05-02T10:06:16.534Z</time></trkpt><trkpt lat="43.406965" lon="11.8623217"><ele>453.0</ele><time>2026-05-02T10:06:17.532Z</time></trkpt><trkpt lat="43.4069683" lon="11.8624133"><ele>453.0</ele><time>2026-05-02T10:06:18.535Z</time></trkpt><trkpt lat="43.4069867" lon="11.8625767"><ele>455.6666666666667</ele><time>2026-05-02T10:06:20.532Z</time></trkpt><trkpt lat="43.4070083" lon="11.8627133"><ele>458.33333333333337</ele><time>2026-05-02T10:06:22.531Z</time></trkpt><trkpt lat="43.40701" lon="11.862845"><ele>461.0</ele><time>2026-05-02T10:06:24.534Z</time></trkpt><trkpt lat="43.4069783" lon="11.8629467"><ele>463.6666666666667</ele><time>2026-05-02T10:06:26.533Z</time></trkpt><trkpt lat="43.40693" lon="11.8630233"><ele>466.33333333333337</ele><time>2026-05-02T10:06:28.534Z</time></trkpt><trkpt lat="43.4068717" lon="11.8630767"><ele>469.0</ele><time>2026-05-02T10:06:30.534Z</time></trkpt><trkpt lat="43.4067833" lon="11.8631267"><ele>469.0</ele><time>2026-05-02T10:06:33.534Z</time></trkpt><trkpt lat="43.406715" lon="11.86316"><ele>469.0</ele><time>2026-05-02T10:06:35.532Z</time></trkpt><trkpt lat="43.4066467" lon="11.8631867"><ele>469.0</ele><time>2026-05-02T10:06:37.532Z</time></trkpt><trkpt lat="43.4065817" lon="11.86322"><ele>469.0</ele><time>2026-05-02T10:06:39.531Z</time></trkpt><trkpt lat="43.4065" lon="11.8632283"><ele>469.0</ele><time>2026-05-02T10:06:42.534Z</time></trkpt><trkpt lat="43.406435" lon="11.8632367"><ele>469.0</ele><time>2026-05-02T10:06:45.531Z</time></trkpt><trkpt lat="43.4063533" lon="11.86324"><ele>469.0</ele><time>2026-05-02T10:06:49.531Z</time></trkpt><trkpt lat="43.4062867" lon="11.8632367"><ele>470.50000000000006</ele><time>2026-05-02T10:06:52.53Z</time></trkpt><trkpt lat="43.4062183" lon="11.8632583"><ele>472.0</ele><time>2026-05-02T10:06:55.533Z</time></trkpt><trkpt lat="43.4061533" lon="11.8633"><ele>473.5</ele><time>2026-05-02T10:06:58.532Z</time></trkpt><trkpt lat="43.4060833" lon="11.86336"><ele>475.0</ele><time>2026-05-02T10:07:01.533Z</time></trkpt><trkpt lat="43.406005" lon="11.8634317"><ele>476.50000000000006</ele><time>2026-05-02T10:07:04.535Z</time></trkpt><trkpt lat="43.40596" lon="11.8634967"><ele>478.0</ele><time>2026-05-02T10:07:06.531Z</time></trkpt><trkpt lat="43.4059033" lon="11.8635667"><ele>478.00000000000006</ele><time>2026-05-02T10:07:08.534Z</time></trkpt><trkpt lat="43.4058383" lon="11.8636333"><ele>478.0</ele><time>2026-05-02T10:07:10.531Z</time></trkpt><trkpt lat="43.4057733" lon="11.86369"><ele>478.0</ele><time>2026-05-02T10:07:12.535Z</time></trkpt><trkpt lat="43.4056983" lon="11.8637683"><ele>478.0</ele><time>2026-05-02T10:07:14.534Z</time></trkpt><trkpt lat="43.40563" lon="11.86387"><ele>478.00000000000006</ele><time>2026-05-02T10:07:16.533Z</time></trkpt><trkpt lat="43.405575" lon="11.863965"><ele>478.0</ele><time>2026-05-02T10:07:18.532Z</time></trkpt><trkpt lat="43.4055383" lon="11.8640533"><ele>478.00000000000006</ele><time>2026-05-02T10:07:20.535Z</time></trkpt><trkpt lat="43.4055" lon="11.8641633"><ele>478.0</ele><time>2026-05-02T10:07:23.533Z</time></trkpt><trkpt lat="43.4054533" lon="11.8642733"><ele>478.0</ele><time>2026-05-02T10:07:26.537Z</time></trkpt><trkpt lat="43.4054283" lon="11.86437"><ele>478.0</ele><time>2026-05-02T10:07:28.532Z</time></trkpt><trkpt lat="43.405395" lon="11.86447"><ele>478.00000000000006</ele><time>2026-05-02T10:07:30.536Z</time></trkpt><trkpt lat="43.4053617" lon="11.8645867"><ele>478.0</ele><time>2026-05-02T10:07:32.534Z</time></trkpt><trkpt lat="43.4053367" lon="11.8647217"><ele>473.59999999999997</ele><time>2026-05-02T10:07:34.532Z</time></trkpt><trkpt lat="43.40532" lon="11.8648567"><ele>469.19999999999993</ele><time>2026-05-02T10:07:36.533Z</time></trkpt><trkpt lat="43.405285" lon="11.864975"><ele>464.8</ele><time>2026-05-02T10:07:38.536Z</time></trkpt><trkpt lat="43.40525" lon="11.8651067"><ele>460.4</ele><time>2026-05-02T10:07:40.533Z</time></trkpt><trkpt lat="43.4052067" lon="11.8652533"><ele>456.0</ele><time>2026-05-02T10:07:42.534Z</time></trkpt><trkpt lat="43.405165" lon="11.8653833"><ele>456.0</ele><time>2026-05-02T10:07:44.535Z</time></trkpt><trkpt lat="43.40513" lon="11.8655133"><ele>456.0</ele><time>2026-05-02T10:07:46.533Z</time></trkpt><trkpt lat="43.4051083" lon="11.8656867"><ele>456.0</ele><time>2026-05-02T10:07:48.542Z</time></trkpt><trkpt lat="43.4051017" lon="11.8657833"><ele>456.0</ele><time>2026-05-02T10:07:49.535Z</time></trkpt><trkpt lat="43.4050967" lon="11.8658767"><ele>456.0</ele><time>2026-05-02T10:07:50.535Z</time></trkpt><trkpt lat="43.405095" lon="11.8659733"><ele>456.0</ele><time>2026-05-02T10:07:51.534Z</time></trkpt><trkpt lat="43.4051" lon="11.8660733"><ele>455.5</ele><time>2026-05-02T10:07:52.533Z</time></trkpt><trkpt lat="43.40511" lon="11.8661683"><ele>455.0</ele><time>2026-05-02T10:07:53.534Z</time></trkpt><trkpt lat="43.40513" lon="11.8662583"><ele>454.5</ele><time>2026-05-02T10:07:54.536Z</time></trkpt><trkpt lat="43.4051517" lon="11.8663517"><ele>454.0</ele><time>2026-05-02T10:07:55.532Z</time></trkpt><trkpt lat="43.40518" lon="11.8664317"><ele>453.5</ele><time>2026-05-02T10:07:56.534Z</time></trkpt><trkpt lat="43.405245" lon="11.866565"><ele>453.0</ele><time>2026-05-02T10:07:58.533Z</time></trkpt><trkpt lat="43.4053067" lon="11.8666683"><ele>453.0</ele><time>2026-05-02T10:08:00.534Z</time></trkpt><trkpt lat="43.4053533" lon="11.86676"><ele>453.0</ele><time>2026-05-02T10:08:02.535Z</time></trkpt><trkpt lat="43.405365" lon="11.8668483"><ele>453.0</ele><time>2026-05-02T10:08:04.533Z</time></trkpt><trkpt lat="43.405295" lon="11.8669083"><ele>453.0</ele><time>2026-05-02T10:08:07.533Z</time></trkpt><trkpt lat="43.4052267" lon="11.8669267"><ele>453.0</ele><time>2026-05-02T10:08:08.532Z</time></trkpt><trkpt lat="43.40516" lon="11.8669467"><ele>453.0</ele><time>2026-05-02T10:08:09.533Z</time></trkpt><trkpt lat="43.4050783" lon="11.866995"><ele>454.6666666666667</ele><time>2026-05-02T10:08:10.532Z</time></trkpt><trkpt lat="43.405" lon="11.8670517"><ele>456.33333333333337</ele><time>2026-05-02T10:08:11.532Z</time></trkpt><trkpt lat="43.40493" lon="11.8671317"><ele>458.0</ele><time>2026-05-02T10:08:12.533Z</time></trkpt><trkpt lat="43.404875" lon="11.867225"><ele>459.6666666666667</ele><time>2026-05-02T10:08:13.533Z</time></trkpt><trkpt lat="43.4048233" lon="11.8673217"><ele>461.33333333333337</ele><time>2026-05-02T10:08:14.531Z</time></trkpt><trkpt lat="43.40478" lon="11.8674233"><ele>463.0</ele><time>2026-05-02T10:08:15.53Z</time></trkpt><trkpt lat="43.404735" lon="11.86751"><ele>463.00000000000006</ele><time>2026-05-02T10:08:16.532Z</time></trkpt><trkpt lat="43.4046883" lon="11.86758"><ele>463.0</ele><time>2026-05-02T10:08:17.535Z</time></trkpt><trkpt lat="43.40459" lon="11.867665"><ele>463.0</ele><time>2026-05-02T10:08:19.532Z</time></trkpt><trkpt lat="43.4044933" lon="11.867645"><ele>463.0</ele><time>2026-05-02T10:08:21.532Z</time></trkpt><trkpt lat="43.4044467" lon="11.867555"><ele>463.00000000000006</ele><time>2026-05-02T10:08:23.534Z</time></trkpt><trkpt lat="43.4044183" lon="11.8674733"><ele>463.0</ele><time>2026-05-02T10:08:25.533Z</time></trkpt><trkpt lat="43.404395" lon="11.8673767"><ele>463.00000000000006</ele><time>2026-05-02T10:08:28.53Z</time></trkpt><trkpt lat="43.404355" lon="11.8673083"><ele>463.0</ele><time>2026-05-02T10:08:31.534Z</time></trkpt><trkpt lat="43.404305" lon="11.867215"><ele>463.0</ele><time>2026-05-02T10:08:35.533Z</time></trkpt><trkpt lat="43.4042767" lon="11.8671367"><ele>463.0</ele><time>2026-05-02T10:08:37.532Z</time></trkpt><trkpt lat="43.4042583" lon="11.86705"><ele>463.00000000000006</ele><time>2026-05-02T10:08:39.533Z</time></trkpt><trkpt lat="43.4042267" lon="11.86693"><ele>463.0</ele><time>2026-05-02T10:08:41.532Z</time></trkpt><trkpt lat="43.4041983" lon="11.8668017"><ele>458.5</ele><time>2026-05-02T10:08:43.533Z</time></trkpt><trkpt lat="43.4041683" lon="11.866655"><ele>454.0</ele><time>2026-05-02T10:08:45.532Z</time></trkpt><trkpt lat="43.4041333" lon="11.8664983"><ele>449.5</ele><time>2026-05-02T10:08:47.533Z</time></trkpt><trkpt lat="43.4040917" lon="11.8663433"><ele>445.0</ele><time>2026-05-02T10:08:49.535Z</time></trkpt><trkpt lat="43.4040617" lon="11.86619"><ele>445.0</ele><time>2026-05-02T10:08:51.536Z</time></trkpt><trkpt lat="43.4040367" lon="11.8660467"><ele>445.0</ele><time>2026-05-02T10:08:53.53Z</time></trkpt><trkpt lat="43.40402" lon="11.8658967"><ele>445.0</ele><time>2026-05-02T10:08:55.536Z</time></trkpt><trkpt lat="43.404" lon="11.8658117"><ele>445.0</ele><time>2026-05-02T10:08:56.533Z</time></trkpt><trkpt lat="43.403975" lon="11.8656617"><ele>445.0</ele><time>2026-05-02T10:08:58.531Z</time></trkpt><trkpt lat="43.4039367" lon="11.8654967"><ele>443.0</ele><time>2026-05-02T10:09:00.534Z</time></trkpt><trkpt lat="43.4038967" lon="11.8653367"><ele>441.0</ele><time>2026-05-02T10:09:02.53Z</time></trkpt><trkpt lat="43.4038783" lon="11.8652533"><ele>439.0</ele><time>2026-05-02T10:09:03.529Z</time></trkpt><trkpt lat="43.40384" lon="11.8650933"><ele>437.0</ele><time>2026-05-02T10:09:05.535Z</time></trkpt><trkpt lat="43.4037917" lon="11.864945"><ele>435.0</ele><time>2026-05-02T10:09:07.535Z</time></trkpt><trkpt lat="43.4037567" lon="11.86487"><ele>435.0</ele><time>2026-05-02T10:09:08.535Z</time></trkpt><trkpt lat="43.4037167" lon="11.8647933"><ele>435.0</ele><time>2026-05-02T10:09:09.533Z</time></trkpt><trkpt lat="43.40367" lon="11.8647167"><ele>435.0</ele><time>2026-05-02T10:09:10.532Z</time></trkpt><trkpt lat="43.40362" lon="11.86464"><ele>435.0</ele><time>2026-05-02T10:09:11.531Z</time></trkpt><trkpt lat="43.4035617" lon="11.8645617"><ele>435.0</ele><time>2026-05-02T10:09:12.533Z</time></trkpt><trkpt lat="43.4035" lon="11.864425"><ele>435.0</ele><time>2026-05-02T10:09:14.533Z</time></trkpt><trkpt lat="43.4034483" lon="11.8643167"><ele>431.8333333333333</ele><time>2026-05-02T10:09:16.53Z</time></trkpt><trkpt lat="43.4034367" lon="11.864215"><ele>428.66666666666663</ele><time>2026-05-02T10:09:18.534Z</time></trkpt><trkpt lat="43.4033933" lon="11.8641033"><ele>425.5</ele><time>2026-05-02T10:09:20.532Z</time></trkpt><trkpt lat="43.4033617" lon="11.8639817"><ele>422.3333333333333</ele><time>2026-05-02T10:09:22.532Z</time></trkpt><trkpt lat="43.4033283" lon="11.86386"><ele>419.16666666666663</ele><time>2026-05-02T10:09:24.533Z</time></trkpt><trkpt lat="43.4033083" lon="11.863735"><ele>416.0</ele><time>2026-05-02T10:09:26.534Z</time></trkpt><trkpt lat="43.40329" lon="11.8636133"><ele>416.0</ele><time>2026-05-02T10:09:28.531Z</time></trkpt><trkpt lat="43.4032967" lon="11.8634983"><ele>416.0</ele><time>2026-05-02T10:09:30.533Z</time></trkpt><trkpt lat="43.4032933" lon="11.8633683"><ele>416.0</ele><time>2026-05-02T10:09:32.531Z</time></trkpt><trkpt lat="43.403275" lon="11.8632167"><ele>416.0</ele><time>2026-05-02T10:09:34.531Z</time></trkpt><trkpt lat="43.4032533" lon="11.8630533"><ele>416.0</ele><time>2026-05-02T10:09:36.532Z</time></trkpt><trkpt lat="43.403225" lon="11.8628917"><ele>414.1428571428571</ele><time>2026-05-02T10:09:38.535Z</time></trkpt><trkpt lat="43.4032" lon="11.8628033"><ele>412.28571428571433</ele><time>2026-05-02T10:09:39.535Z</time></trkpt><trkpt lat="43.4031733" lon="11.8627117"><ele>410.42857142857144</ele><time>2026-05-02T10:09:40.534Z</time></trkpt><trkpt lat="43.40314" lon="11.8626217"><ele>408.57142857142856</ele><time>2026-05-02T10:09:41.531Z</time></trkpt><trkpt lat="43.4031133" lon="11.862535"><ele>406.71428571428567</ele><time>2026-05-02T10:09:42.535Z</time></trkpt><trkpt lat="43.4030833" lon="11.8624467"><ele>404.8571428571429</ele><time>2026-05-02T10:09:43.532Z</time></trkpt><trkpt lat="43.403065" lon="11.8623583"><ele>403.0</ele><time>2026-05-02T10:09:44.533Z</time></trkpt><trkpt lat="43.4030533" lon="11.86227"><ele>401.8571428571429</ele><time>2026-05-02T10:09:45.533Z</time></trkpt><trkpt lat="43.4030533" lon="11.86218"><ele>400.71428571428567</ele><time>2026-05-02T10:09:46.534Z</time></trkpt><trkpt lat="43.4030517" lon="11.8620917"><ele>399.57142857142856</ele><time>2026-05-02T10:09:47.536Z</time></trkpt><trkpt lat="43.403045" lon="11.862"><ele>398.42857142857144</ele><time>2026-05-02T10:09:48.534Z</time></trkpt><trkpt lat="43.4030317" lon="11.8619117"><ele>397.28571428571433</ele><time>2026-05-02T10:09:49.533Z</time></trkpt><trkpt lat="43.4030133" lon="11.8618267"><ele>396.1428571428571</ele><time>2026-05-02T10:09:50.535Z</time></trkpt><trkpt lat="43.4029883" lon="11.861745"><ele>395.0</ele><time>2026-05-02T10:09:51.535Z</time></trkpt><trkpt lat="43.40293" lon="11.8615967"><ele>394.6</ele><time>2026-05-02T10:09:53.531Z</time></trkpt><trkpt lat="43.4028667" lon="11.8614533"><ele>394.2</ele><time>2026-05-02T10:09:55.534Z</time></trkpt><trkpt lat="43.4028067" lon="11.8613183"><ele>393.79999999999995</ele><time>2026-05-02T10:09:57.531Z</time></trkpt><trkpt lat="43.4027567" lon="11.8611967"><ele>393.4</ele><time>2026-05-02T10:09:59.532Z</time></trkpt><trkpt lat="43.4027183" lon="11.8610817"><ele>393.0</ele><time>2026-05-02T10:10:01.531Z</time></trkpt><trkpt lat="43.40268" lon="11.860965"><ele>393.5</ele><time>2026-05-02T10:10:03.53Z</time></trkpt><trkpt lat="43.402645" lon="11.860855"><ele>394.0</ele><time>2026-05-02T10:10:05.53Z</time></trkpt><trkpt lat="43.402615" lon="11.86075"><ele>394.5</ele><time>2026-05-02T10:10:07.531Z</time></trkpt><trkpt lat="43.402585" lon="11.86064"><ele>395.0</ele><time>2026-05-02T10:10:09.53Z</time></trkpt><trkpt lat="43.4025483" lon="11.8605233"><ele>395.5</ele><time>2026-05-02T10:10:11.531Z</time></trkpt><trkpt lat="43.4024867" lon="11.86042"><ele>396.0</ele><time>2026-05-02T10:10:13.535Z</time></trkpt><trkpt lat="43.4024317" lon="11.860285"><ele>396.0</ele><time>2026-05-02T10:10:15.53Z</time></trkpt><trkpt lat="43.4024233" lon="11.860125"><ele>396.0</ele><time>2026-05-02T10:10:17.536Z</time></trkpt><trkpt lat="43.4024133" lon="11.8599667"><ele>396.0</ele><time>2026-05-02T10:10:19.533Z</time></trkpt><trkpt lat="43.4024133" lon="11.85988"><ele>396.0</ele><time>2026-05-02T10:10:20.533Z</time></trkpt><trkpt lat="43.40243" lon="11.8597117"><ele>396.0</ele><time>2026-05-02T10:10:22.535Z</time></trkpt><trkpt lat="43.40245" lon="11.8595533"><ele>394.75</ele><time>2026-05-02T10:10:24.532Z</time></trkpt><trkpt lat="43.40249" lon="11.85931"><ele>393.5</ele><time>2026-05-02T10:10:27.532Z</time></trkpt><trkpt lat="43.402525" lon="11.8591583"><ele>392.25</ele><time>2026-05-02T10:10:29.532Z</time></trkpt><trkpt lat="43.4025567" lon="11.8590083"><ele>391.0</ele><time>2026-05-02T10:10:31.533Z</time></trkpt><trkpt lat="43.4026083" lon="11.8588633"><ele>389.83333333333337</ele><time>2026-05-02T10:10:33.532Z</time></trkpt><trkpt lat="43.402665" lon="11.8587317"><ele>388.6666666666667</ele><time>2026-05-02T10:10:35.534Z</time></trkpt><trkpt lat="43.4026867" lon="11.8586067"><ele>387.5</ele><time>2026-05-02T10:10:37.535Z</time></trkpt><trkpt lat="43.4026717" lon="11.858475"><ele>386.33333333333337</ele><time>2026-05-02T10:10:39.534Z</time></trkpt><trkpt lat="43.4026583" lon="11.8583883"><ele>385.1666666666667</ele><time>2026-05-02T10:10:40.535Z</time></trkpt><trkpt lat="43.4026467" lon="11.8582933"><ele>384.0</ele><time>2026-05-02T10:10:41.533Z</time></trkpt><trkpt lat="43.4026433" lon="11.8581967"><ele>382.1666666666667</ele><time>2026-05-02T10:10:42.532Z</time></trkpt><trkpt lat="43.40265" lon="11.858105"><ele>380.3333333333333</ele><time>2026-05-02T10:10:43.531Z</time></trkpt><trkpt lat="43.402665" lon="11.8580167"><ele>378.5</ele><time>2026-05-02T10:10:44.536Z</time></trkpt><trkpt lat="43.4027117" lon="11.8578567"><ele>376.66666666666663</ele><time>2026-05-02T10:10:46.532Z</time></trkpt><trkpt lat="43.4027333" lon="11.8577733"><ele>374.8333333333333</ele><time>2026-05-02T10:10:47.535Z</time></trkpt><trkpt lat="43.4027533" lon="11.8576867"><ele>373.0</ele><time>2026-05-02T10:10:48.533Z</time></trkpt><trkpt lat="43.402775" lon="11.8575983"><ele>370.8333333333333</ele><time>2026-05-02T10:10:49.533Z</time></trkpt><trkpt lat="43.402795" lon="11.8575083"><ele>368.66666666666663</ele><time>2026-05-02T10:10:50.534Z</time></trkpt><trkpt lat="43.4028133" lon="11.8574167"><ele>366.5</ele><time>2026-05-02T10:10:51.537Z</time></trkpt><trkpt lat="43.4028283" lon="11.8573267"><ele>364.3333333333333</ele><time>2026-05-02T10:10:52.535Z</time></trkpt><trkpt lat="43.4028467" lon="11.8572433"><ele>362.1666666666667</ele><time>2026-05-02T10:10:53.536Z</time></trkpt><trkpt lat="43.4028667" lon="11.857085"><ele>360.0</ele><time>2026-05-02T10:10:55.53Z</time></trkpt><trkpt lat="43.40285" lon="11.85692"><ele>360.0</ele><time>2026-05-02T10:10:57.533Z</time></trkpt><trkpt lat="43.4028367" lon="11.8568317"><ele>360.0</ele><time>2026-05-02T10:10:58.532Z</time></trkpt><trkpt lat="43.4028133" lon="11.8566683"><ele>360.0</ele><time>2026-05-02T10:11:00.531Z</time></trkpt><trkpt lat="43.4027933" lon="11.856525"><ele>360.0</ele><time>2026-05-02T10:11:02.536Z</time></trkpt><trkpt lat="43.402795" lon="11.8563767"><ele>360.0</ele><time>2026-05-02T10:11:04.532Z</time></trkpt><trkpt lat="43.40282" lon="11.85624"><ele>358.2</ele><time>2026-05-02T10:11:06.535Z</time></trkpt><trkpt lat="43.40285" lon="11.8561283"><ele>356.4</ele><time>2026-05-02T10:11:08.532Z</time></trkpt><trkpt lat="43.402875" lon="11.8560167"><ele>354.6</ele><time>2026-05-02T10:11:10.534Z</time></trkpt><trkpt lat="43.4029" lon="11.8558883"><ele>352.8</ele><time>2026-05-02T10:11:12.533Z</time></trkpt><trkpt lat="43.4029283" lon="11.8557467"><ele>351.0</ele><time>2026-05-02T10:11:14.534Z</time></trkpt><trkpt lat="43.4029633" lon="11.8555817"><ele>350.28571428571433</ele><time>2026-05-02T10:11:16.534Z</time></trkpt><trkpt lat="43.40298" lon="11.855495"><ele>349.57142857142856</ele><time>2026-05-02T10:11:17.534Z</time></trkpt><trkpt lat="43.4029933" lon="11.85541"><ele>348.8571428571429</ele><time>2026-05-02T10:11:18.534Z</time></trkpt><trkpt lat="43.4029983" lon="11.8553183"><ele>348.14285714285717</ele><time>2026-05-02T10:11:19.535Z</time></trkpt><trkpt lat="43.4029967" lon="11.8552267"><ele>347.42857142857144</ele><time>2026-05-02T10:11:20.534Z</time></trkpt><trkpt lat="43.4029917" lon="11.8551283"><ele>346.7142857142857</ele><time>2026-05-02T10:11:21.534Z</time></trkpt><trkpt lat="43.402985" lon="11.85503"><ele>346.0</ele><time>2026-05-02T10:11:22.532Z</time></trkpt><trkpt lat="43.4029717" lon="11.85494"><ele>344.5</ele><time>2026-05-02T10:11:23.534Z</time></trkpt><trkpt lat="43.402945" lon="11.8547883"><ele>343.0</ele><time>2026-05-02T10:11:25.533Z</time></trkpt><trkpt lat="43.4029633" lon="11.8546883"><ele>341.5</ele><time>2026-05-02T10:11:27.532Z</time></trkpt><trkpt lat="43.4030267" lon="11.854665"><ele>340.0</ele><time>2026-05-02T10:11:29.534Z</time></trkpt><trkpt lat="43.4030933" lon="11.8546883"><ele>338.5</ele><time>2026-05-02T10:11:31.531Z</time></trkpt><trkpt lat="43.4031667" lon="11.8547167"><ele>337.0</ele><time>2026-05-02T10:11:33.53Z</time></trkpt><trkpt lat="43.4032483" lon="11.8547433"><ele>336.66666666666663</ele><time>2026-05-02T10:11:35.533Z</time></trkpt><trkpt lat="43.4033233" lon="11.8548033"><ele>336.3333333333333</ele><time>2026-05-02T10:11:37.535Z</time></trkpt><trkpt lat="43.4033833" lon="11.854885"><ele>336.0</ele><time>2026-05-02T10:11:39.532Z</time></trkpt><trkpt lat="43.4034417" lon="11.8549583"><ele>335.6666666666667</ele><time>2026-05-02T10:11:41.531Z</time></trkpt><trkpt lat="43.4035067" lon="11.85501"><ele>335.33333333333337</ele><time>2026-05-02T10:11:43.533Z</time></trkpt><trkpt lat="43.4035633" lon="11.8550667"><ele>335.0</ele><time>2026-05-02T10:11:45.533Z</time></trkpt><trkpt lat="43.4036317" lon="11.85512"><ele>334.33333333333337</ele><time>2026-05-02T10:11:47.533Z</time></trkpt><trkpt lat="43.4036967" lon="11.855185"><ele>333.6666666666667</ele><time>2026-05-02T10:11:49.533Z</time></trkpt><trkpt lat="43.40375" lon="11.8552633"><ele>333.0</ele><time>2026-05-02T10:11:51.531Z</time></trkpt><trkpt lat="43.4038" lon="11.8553483"><ele>332.3333333333333</ele><time>2026-05-02T10:11:53.532Z</time></trkpt><trkpt lat="43.4038467" lon="11.85544"><ele>331.66666666666663</ele><time>2026-05-02T10:11:55.532Z</time></trkpt><trkpt lat="43.403895" lon="11.8555333"><ele>331.0</ele><time>2026-05-02T10:11:57.533Z</time></trkpt><trkpt lat="43.4039367" lon="11.85564"><ele>331.0</ele><time>2026-05-02T10:11:59.541Z</time></trkpt><trkpt lat="43.4039617" lon="11.8557417"><ele>331.0</ele><time>2026-05-02T10:12:01.533Z</time></trkpt><trkpt lat="43.403995" lon="11.8558483"><ele>331.0</ele><time>2026-05-02T10:12:03.533Z</time></trkpt><trkpt lat="43.40405" lon="11.85592"><ele>331.0</ele><time>2026-05-02T10:12:05.533Z</time></trkpt><trkpt lat="43.404135" lon="11.8559483"><ele>331.0</ele><time>2026-05-02T10:12:08.535Z</time></trkpt><trkpt lat="43.40421" lon="11.85594"><ele>331.0</ele><time>2026-05-02T10:12:12.534Z</time></trkpt><trkpt lat="43.4042733" lon="11.8559167"><ele>331.0</ele><time>2026-05-02T10:12:17.534Z</time></trkpt><trkpt lat="43.4043417" lon="11.8558817"><ele>331.0</ele><time>2026-05-02T10:12:22.533Z</time></trkpt><trkpt lat="43.4044117" lon="11.8558483"><ele>331.0</ele><time>2026-05-02T10:12:26.531Z</time></trkpt><trkpt lat="43.4044783" lon="11.8558133"><ele>331.0</ele><time>2026-05-02T10:12:30.533Z</time></trkpt><trkpt lat="43.404555" lon="11.8557633"><ele>331.0</ele><time>2026-05-02T10:12:34.536Z</time></trkpt><trkpt lat="43.404615" lon="11.8557283"><ele>331.0</ele><time>2026-05-02T10:12:37.534Z</time></trkpt><trkpt lat="43.40467" lon="11.855685"><ele>331.0</ele><time>2026-05-02T10:12:40.533Z</time></trkpt><trkpt lat="43.404755" lon="11.8556133"><ele>331.57142857142856</ele><time>2026-05-02T10:13:11.533Z</time></trkpt><trkpt lat="43.404835" lon="11.855625"><ele>332.1428571428571</ele><time>2026-05-02T10:13:15.536Z</time></trkpt><trkpt lat="43.4049033" lon="11.8556717"><ele>332.71428571428567</ele><time>2026-05-02T10:13:19.533Z</time></trkpt><trkpt lat="43.404965" lon="11.855695"><ele>333.2857142857143</ele><time>2026-05-02T10:13:23.531Z</time></trkpt><trkpt lat="43.4050167" lon="11.8557667"><ele>333.85714285714283</ele><time>2026-05-02T10:13:28.536Z</time></trkpt><trkpt lat="43.40505" lon="11.855845"><ele>334.4285714285714</ele><time>2026-05-02T10:13:31.534Z</time></trkpt><trkpt lat="43.4050933" lon="11.8559217"><ele>335.0</ele><time>2026-05-02T10:13:35.533Z</time></trkpt><trkpt lat="43.405125" lon="11.8560017"><ele>336.2857142857143</ele><time>2026-05-02T10:13:39.532Z</time></trkpt><trkpt lat="43.4051883" lon="11.85606"><ele>337.57142857142856</ele><time>2026-05-02T10:13:43.535Z</time></trkpt><trkpt lat="43.4052517" lon="11.85608"><ele>338.8571428571429</ele><time>2026-05-02T10:13:47.532Z</time></trkpt><trkpt lat="43.4053183" lon="11.8560833"><ele>340.1428571428571</ele><time>2026-05-02T10:13:51.533Z</time></trkpt><trkpt lat="43.4053883" lon="11.8560967"><ele>341.42857142857144</ele><time>2026-05-02T10:13:56.531Z</time></trkpt><trkpt lat="43.4054567" lon="11.8561167"><ele>342.7142857142857</ele><time>2026-05-02T10:14:01.534Z</time></trkpt><trkpt lat="43.4055167" lon="11.85615"><ele>344.0</ele><time>2026-05-02T10:14:05.533Z</time></trkpt><trkpt lat="43.4055767" lon="11.8561767"><ele>343.5714285714286</ele><time>2026-05-02T10:14:09.534Z</time></trkpt><trkpt lat="43.405655" lon="11.856175"><ele>343.14285714285717</ele><time>2026-05-02T10:14:27.541Z</time></trkpt><trkpt lat="43.4057183" lon="11.856145"><ele>342.7142857142857</ele><time>2026-05-02T10:14:30.532Z</time></trkpt><trkpt lat="43.405785" lon="11.8561"><ele>342.28571428571433</ele><time>2026-05-02T10:14:34.535Z</time></trkpt><trkpt lat="43.4058467" lon="11.8560383"><ele>341.8571428571429</ele><time>2026-05-02T10:14:38.533Z</time></trkpt><trkpt lat="43.4059033" lon="11.8559817"><ele>341.42857142857144</ele><time>2026-05-02T10:14:41.532Z</time></trkpt><trkpt lat="43.40597" lon="11.85594"><ele>341.0</ele><time>2026-05-02T10:14:45.534Z</time></trkpt><trkpt lat="43.40605" lon="11.8559183"><ele>341.0</ele><time>2026-05-02T10:14:49.535Z</time></trkpt><trkpt lat="43.40612" lon="11.8559"><ele>341.0</ele><time>2026-05-02T10:14:53.532Z</time></trkpt><trkpt lat="43.4061817" lon="11.8558733"><ele>341.0</ele><time>2026-05-02T10:14:56.534Z</time></trkpt><trkpt lat="43.40624" lon="11.8558383"><ele>341.0</ele><time>2026-05-02T10:14:59.535Z</time></trkpt><trkpt lat="43.40631" lon="11.8558033"><ele>341.0</ele><time>2026-05-02T10:15:03.532Z</time></trkpt><trkpt lat="43.4063817" lon="11.855775"><ele>341.0</ele><time>2026-05-02T10:15:06.532Z</time></trkpt><trkpt lat="43.4064583" lon="11.8557517"><ele>341.0</ele><time>2026-05-02T10:15:10.532Z</time></trkpt><trkpt lat="43.4065217" lon="11.85574"><ele>341.1428571428571</ele><time>2026-05-02T10:15:13.534Z</time></trkpt><trkpt lat="43.406585" lon="11.8557267"><ele>341.2857142857143</ele><time>2026-05-02T10:15:15.534Z</time></trkpt><trkpt lat="43.406655" lon="11.8557217"><ele>341.42857142857144</ele><time>2026-05-02T10:15:18.533Z</time></trkpt><trkpt lat="43.4067117" lon="11.85568"><ele>341.57142857142856</ele><time>2026-05-02T10:15:21.532Z</time></trkpt><trkpt lat="43.406755" lon="11.85559"><ele>341.7142857142857</ele><time>2026-05-02T10:15:25.534Z</time></trkpt><trkpt lat="43.4068167" lon="11.8555533"><ele>341.85714285714283</ele><time>2026-05-02T10:15:34.536Z</time></trkpt><trkpt lat="43.406885" lon="11.8555333"><ele>342.0</ele><time>2026-05-02T10:15:43.534Z</time></trkpt><trkpt lat="43.406945" lon="11.8554967"><ele>342.0</ele><time>2026-05-02T10:15:52.533Z</time></trkpt><trkpt lat="43.4068986" lon="11.8554028"><ele>342.0</ele><time>2026-05-02T10:16:47.572Z</time></trkpt><trkpt lat="43.4067952" lon="11.8552748"><ele>342.0</ele><time>2026-05-02T10:16:51.56Z</time></trkpt><trkpt lat="43.406725" lon="11.8551859"><ele>342.0</ele><time>2026-05-02T10:16:53.553Z</time></trkpt><trkpt lat="43.4066642" lon="11.8551106"><ele>342.0</ele><time>2026-05-02T10:16:55.547Z</time></trkpt><trkpt lat="43.4065845" lon="11.8550303"><ele>339.8333333333333</ele><time>2026-05-02T10:16:57.659Z</time></trkpt><trkpt lat="43.4065233" lon="11.8549667"><ele>337.6666666666667</ele><time>2026-05-02T10:16:59.531Z</time></trkpt><trkpt lat="43.4064983" lon="11.8548667"><ele>335.5</ele><time>2026-05-02T10:17:01.532Z</time></trkpt><trkpt lat="43.4064533" lon="11.8547833"><ele>333.33333333333337</ele><time>2026-05-02T10:17:03.533Z</time></trkpt><trkpt lat="43.40637" lon="11.8546933"><ele>331.1666666666667</ele><time>2026-05-02T10:17:05.531Z</time></trkpt><trkpt lat="43.40631" lon="11.8546067"><ele>329.0</ele><time>2026-05-02T10:17:07.535Z</time></trkpt><trkpt lat="43.4062583" lon="11.8545233"><ele>328.83333333333337</ele><time>2026-05-02T10:17:09.531Z</time></trkpt><trkpt lat="43.406215" lon="11.85445"><ele>328.6666666666667</ele><time>2026-05-02T10:17:11.531Z</time></trkpt><trkpt lat="43.4062083" lon="11.8543517"><ele>328.5</ele><time>2026-05-02T10:17:13.534Z</time></trkpt><trkpt lat="43.40619" lon="11.8542317"><ele>328.3333333333333</ele><time>2026-05-02T10:17:15.534Z</time></trkpt><trkpt lat="43.4061783" lon="11.854125"><ele>328.16666666666663</ele><time>2026-05-02T10:17:17.529Z</time></trkpt><trkpt lat="43.4061733" lon="11.854005"><ele>328.0</ele><time>2026-05-02T10:17:19.531Z</time></trkpt><trkpt lat="43.406155" lon="11.85386"><ele>326.5</ele><time>2026-05-02T10:17:21.531Z</time></trkpt><trkpt lat="43.406135" lon="11.8536983"><ele>325.0</ele><time>2026-05-02T10:17:23.534Z</time></trkpt><trkpt lat="43.40612" lon="11.8536117"><ele>323.5</ele><time>2026-05-02T10:17:24.534Z</time></trkpt><trkpt lat="43.4061033" lon="11.8535217"><ele>322.0</ele><time>2026-05-02T10:17:25.535Z</time></trkpt><trkpt lat="43.40609" lon="11.8534267"><ele>320.5</ele><time>2026-05-02T10:17:26.534Z</time></trkpt><trkpt lat="43.4060733" lon="11.853325"><ele>319.0</ele><time>2026-05-02T10:17:27.532Z</time></trkpt><trkpt lat="43.40606" lon="11.8532283"><ele>317.4</ele><time>2026-05-02T10:17:28.534Z</time></trkpt><trkpt lat="43.40604" lon="11.8531283"><ele>315.79999999999995</ele><time>2026-05-02T10:17:29.534Z</time></trkpt><trkpt lat="43.4060233" lon="11.8530283"><ele>314.20000000000005</ele><time>2026-05-02T10:17:30.534Z</time></trkpt><trkpt lat="43.4060117" lon="11.8529317"><ele>312.6</ele><time>2026-05-02T10:17:31.536Z</time></trkpt><trkpt lat="43.4059933" lon="11.8527617"><ele>311.0</ele><time>2026-05-02T10:17:33.532Z</time></trkpt><trkpt lat="43.4059833" lon="11.8526117"><ele>310.1666666666667</ele><time>2026-05-02T10:17:35.533Z</time></trkpt><trkpt lat="43.40597" lon="11.8524583"><ele>309.33333333333337</ele><time>2026-05-02T10:17:37.532Z</time></trkpt><trkpt lat="43.4059433" lon="11.8523017"><ele>308.5</ele><time>2026-05-02T10:17:39.531Z</time></trkpt><trkpt lat="43.4059233" lon="11.8522133"><ele>307.6666666666667</ele><time>2026-05-02T10:17:40.531Z</time></trkpt><trkpt lat="43.4059" lon="11.8521267"><ele>306.8333333333333</ele><time>2026-05-02T10:17:41.531Z</time></trkpt><trkpt lat="43.4058767" lon="11.8520317"><ele>306.0</ele><time>2026-05-02T10:17:42.536Z</time></trkpt><trkpt lat="43.4058533" lon="11.85193"><ele>306.0</ele><time>2026-05-02T10:17:43.535Z</time></trkpt><trkpt lat="43.4058333" lon="11.8518267"><ele>306.0</ele><time>2026-05-02T10:17:44.531Z</time></trkpt><trkpt lat="43.4058117" lon="11.85172"><ele>306.0</ele><time>2026-05-02T10:17:45.535Z</time></trkpt><trkpt lat="43.405785" lon="11.8516167"><ele>306.0</ele><time>2026-05-02T10:17:46.53Z</time></trkpt><trkpt lat="43.4057533" lon="11.851515"><ele>306.0</ele><time>2026-05-02T10:17:47.534Z</time></trkpt><trkpt lat="43.4057117" lon="11.8514117"><ele>306.0</ele><time>2026-05-02T10:17:48.534Z</time></trkpt><trkpt lat="43.4056717" lon="11.8513017"><ele>305.0</ele><time>2026-05-02T10:17:49.535Z</time></trkpt><trkpt lat="43.4056283" lon="11.851195"><ele>304.0</ele><time>2026-05-02T10:17:50.532Z</time></trkpt><trkpt lat="43.405585" lon="11.85109"><ele>303.0</ele><time>2026-05-02T10:17:51.533Z</time></trkpt><trkpt lat="43.40554" lon="11.8509867"><ele>302.0</ele><time>2026-05-02T10:17:52.532Z</time></trkpt><trkpt lat="43.4054817" lon="11.8508833"><ele>301.0</ele><time>2026-05-02T10:17:53.533Z</time></trkpt><trkpt lat="43.4054317" lon="11.8507767"><ele>300.66666666666663</ele><time>2026-05-02T10:17:54.532Z</time></trkpt><trkpt lat="43.405385" lon="11.8506717"><ele>300.3333333333333</ele><time>2026-05-02T10:17:55.534Z</time></trkpt><trkpt lat="43.4053433" lon="11.8505683"><ele>300.0</ele><time>2026-05-02T10:17:56.533Z</time></trkpt><trkpt lat="43.405305" lon="11.8504717"><ele>299.6666666666667</ele><time>2026-05-02T10:17:57.532Z</time></trkpt><trkpt lat="43.4052717" lon="11.85038"><ele>299.33333333333337</ele><time>2026-05-02T10:17:58.535Z</time></trkpt><trkpt lat="43.4052367" lon="11.8502983"><ele>299.0</ele><time>2026-05-02T10:17:59.536Z</time></trkpt><trkpt lat="43.405185" lon="11.8501467"><ele>298.33333333333337</ele><time>2026-05-02T10:18:01.533Z</time></trkpt><trkpt lat="43.4051517" lon="11.8500267"><ele>297.6666666666667</ele><time>2026-05-02T10:18:03.532Z</time></trkpt><trkpt lat="43.405125" lon="11.8499033"><ele>297.0</ele><time>2026-05-02T10:18:40.534Z</time></trkpt><trkpt lat="43.405085" lon="11.8498133"><ele>296.3333333333333</ele><time>2026-05-02T10:18:43.534Z</time></trkpt><trkpt lat="43.40506" lon="11.84973"><ele>295.66666666666663</ele><time>2026-05-02T10:18:45.532Z</time></trkpt><trkpt lat="43.4050517" lon="11.84961"><ele>295.0</ele><time>2026-05-02T10:18:47.531Z</time></trkpt><trkpt lat="43.40504" lon="11.84946"><ele>294.0</ele><time>2026-05-02T10:18:49.53Z</time></trkpt><trkpt lat="43.4050233" lon="11.8492867"><ele>293.0</ele><time>2026-05-02T10:18:51.533Z</time></trkpt><trkpt lat="43.4050183" lon="11.849195"><ele>292.0</ele><time>2026-05-02T10:18:52.534Z</time></trkpt><trkpt lat="43.4050117" lon="11.8491"><ele>291.0</ele><time>2026-05-02T10:18:53.534Z</time></trkpt><trkpt lat="43.40501" lon="11.8490083"><ele>290.0</ele><time>2026-05-02T10:18:54.532Z</time></trkpt><trkpt lat="43.405005" lon="11.848905"><ele>289.0</ele><time>2026-05-02T10:18:55.536Z</time></trkpt><trkpt lat="43.4050033" lon="11.8487983"><ele>289.0</ele><time>2026-05-02T10:18:56.535Z</time></trkpt><trkpt lat="43.405" lon="11.84869"><ele>289.0</ele><time>2026-05-02T10:18:57.531Z</time></trkpt><trkpt lat="43.4049933" lon="11.8485767"><ele>289.0</ele><time>2026-05-02T10:18:58.533Z</time></trkpt><trkpt lat="43.40499" lon="11.84846"><ele>289.0</ele><time>2026-05-02T10:18:59.531Z</time></trkpt><trkpt lat="43.4049817" lon="11.8483433"><ele>289.0</ele><time>2026-05-02T10:19:00.53Z</time></trkpt><trkpt lat="43.404975" lon="11.8482283"><ele>289.0</ele><time>2026-05-02T10:19:01.534Z</time></trkpt><trkpt lat="43.4049667" lon="11.848115"><ele>288.5</ele><time>2026-05-02T10:19:02.534Z</time></trkpt><trkpt lat="43.4049567" lon="11.8480017"><ele>288.0</ele><time>2026-05-02T10:19:03.535Z</time></trkpt><trkpt lat="43.4049467" lon="11.847895"><ele>287.5</ele><time>2026-05-02T10:19:04.531Z</time></trkpt><trkpt lat="43.4049367" lon="11.8477833"><ele>287.0</ele><time>2026-05-02T10:19:05.536Z</time></trkpt><trkpt lat="43.40493" lon="11.8476733"><ele>286.5</ele><time>2026-05-02T10:19:06.534Z</time></trkpt><trkpt lat="43.404925" lon="11.8475683"><ele>286.0</ele><time>2026-05-02T10:19:07.534Z</time></trkpt><trkpt lat="43.4049217" lon="11.8474567"><ele>285.5</ele><time>2026-05-02T10:19:08.533Z</time></trkpt><trkpt lat="43.4049217" lon="11.8473483"><ele>285.0</ele><time>2026-05-02T10:19:09.532Z</time></trkpt><trkpt lat="43.4049183" lon="11.8472417"><ele>284.5</ele><time>2026-05-02T10:19:10.532Z</time></trkpt><trkpt lat="43.4049083" lon="11.8471367"><ele>284.0</ele><time>2026-05-02T10:19:11.534Z</time></trkpt><trkpt lat="43.404905" lon="11.847035"><ele>283.5</ele><time>2026-05-02T10:19:12.534Z</time></trkpt><trkpt lat="43.4049083" lon="11.846935"><ele>283.0</ele><time>2026-05-02T10:19:13.533Z</time></trkpt><trkpt lat="43.4049083" lon="11.8468333"><ele>282.66666666666663</ele><time>2026-05-02T10:19:14.534Z</time></trkpt><trkpt lat="43.40492" lon="11.8467333"><ele>282.3333333333333</ele><time>2026-05-02T10:19:15.536Z</time></trkpt><trkpt lat="43.4049283" lon="11.8466333"><ele>282.0</ele><time>2026-05-02T10:19:16.537Z</time></trkpt><trkpt lat="43.404935" lon="11.846525"><ele>281.6666666666667</ele><time>2026-05-02T10:19:17.535Z</time></trkpt><trkpt lat="43.4049367" lon="11.846415"><ele>281.33333333333337</ele><time>2026-05-02T10:19:18.534Z</time></trkpt><trkpt lat="43.40493" lon="11.8463067"><ele>281.0</ele><time>2026-05-02T10:19:19.534Z</time></trkpt><trkpt lat="43.4049233" lon="11.8461983"><ele>281.0</ele><time>2026-05-02T10:19:20.534Z</time></trkpt><trkpt lat="43.4049167" lon="11.8460883"><ele>281.0</ele><time>2026-05-02T10:19:21.532Z</time></trkpt><trkpt lat="43.40491" lon="11.8459783"><ele>281.0</ele><time>2026-05-02T10:19:22.533Z</time></trkpt><trkpt lat="43.4049" lon="11.8458667"><ele>281.0</ele><time>2026-05-02T10:19:23.538Z</time></trkpt><trkpt lat="43.4048917" lon="11.845755"><ele>281.0</ele><time>2026-05-02T10:19:24.534Z</time></trkpt><trkpt lat="43.40488" lon="11.8456417"><ele>281.0</ele><time>2026-05-02T10:19:25.537Z</time></trkpt><trkpt lat="43.404875" lon="11.8455283"><ele>280.5</ele><time>2026-05-02T10:19:26.533Z</time></trkpt><trkpt lat="43.40487" lon="11.8454117"><ele>280.0</ele><time>2026-05-02T10:19:27.532Z</time></trkpt><trkpt lat="43.4048667" lon="11.8452933"><ele>279.5</ele><time>2026-05-02T10:19:28.53Z</time></trkpt><trkpt lat="43.4048633" lon="11.8451767"><ele>279.0</ele><time>2026-05-02T10:19:29.534Z</time></trkpt><trkpt lat="43.404855" lon="11.84506"><ele>278.5</ele><time>2026-05-02T10:19:30.531Z</time></trkpt><trkpt lat="43.4048467" lon="11.844945"><ele>278.0</ele><time>2026-05-02T10:19:31.532Z</time></trkpt><trkpt lat="43.404835" lon="11.84483"><ele>277.5</ele><time>2026-05-02T10:19:32.535Z</time></trkpt><trkpt lat="43.4048283" lon="11.8447083"><ele>277.0</ele><time>2026-05-02T10:19:33.534Z</time></trkpt><trkpt lat="43.404825" lon="11.8445917"><ele>276.5</ele><time>2026-05-02T10:19:34.536Z</time></trkpt><trkpt lat="43.4048183" lon="11.8444833"><ele>276.0</ele><time>2026-05-02T10:19:35.533Z</time></trkpt><trkpt lat="43.4048067" lon="11.84439"><ele>275.5</ele><time>2026-05-02T10:19:36.53Z</time></trkpt><trkpt lat="43.404795" lon="11.8443017"><ele>275.0</ele><time>2026-05-02T10:19:37.531Z</time></trkpt><trkpt lat="43.40478" lon="11.844165"><ele>274.57142857142856</ele><time>2026-05-02T10:19:39.532Z</time></trkpt><trkpt lat="43.4047783" lon="11.84407"><ele>274.1428571428571</ele><time>2026-05-02T10:19:42.531Z</time></trkpt><trkpt lat="43.4047633" lon="11.8439817"><ele>273.71428571428567</ele><time>2026-05-02T10:20:06.534Z</time></trkpt><trkpt lat="43.4047483" lon="11.8438783"><ele>273.2857142857143</ele><time>2026-05-02T10:20:09.533Z</time></trkpt><trkpt lat="43.4047417" lon="11.8437833"><ele>272.85714285714283</ele><time>2026-05-02T10:20:11.531Z</time></trkpt><trkpt lat="43.40474" lon="11.843675"><ele>272.4285714285714</ele><time>2026-05-02T10:20:13.537Z</time></trkpt><trkpt lat="43.4047367" lon="11.843555"><ele>272.0</ele><time>2026-05-02T10:20:15.535Z</time></trkpt><trkpt lat="43.4047367" lon="11.843435"><ele>271.8</ele><time>2026-05-02T10:20:17.533Z</time></trkpt><trkpt lat="43.404735" lon="11.8432917"><ele>271.6</ele><time>2026-05-02T10:20:19.532Z</time></trkpt><trkpt lat="43.40473" lon="11.8431417"><ele>271.40000000000003</ele><time>2026-05-02T10:20:21.534Z</time></trkpt><trkpt lat="43.4047283" lon="11.8429917"><ele>271.2</ele><time>2026-05-02T10:20:23.532Z</time></trkpt><trkpt lat="43.404725" lon="11.8428433"><ele>271.0</ele><time>2026-05-02T10:20:25.532Z</time></trkpt><trkpt lat="43.404715" lon="11.84269"><ele>270.2</ele><time>2026-05-02T10:20:27.534Z</time></trkpt><trkpt lat="43.404705" lon="11.8425283"><ele>269.40000000000003</ele><time>2026-05-02T10:20:29.536Z</time></trkpt><trkpt lat="43.4046933" lon="11.84237"><ele>268.6</ele><time>2026-05-02T10:20:31.536Z</time></trkpt><trkpt lat="43.4046883" lon="11.8422067"><ele>267.8</ele><time>2026-05-02T10:20:33.532Z</time></trkpt><trkpt lat="43.40469" lon="11.84212"><ele>267.0</ele><time>2026-05-02T10:20:34.534Z</time></trkpt><trkpt lat="43.404685" lon="11.8420317"><ele>267.00000000000006</ele><time>2026-05-02T10:20:35.537Z</time></trkpt><trkpt lat="43.4046783" lon="11.8419433"><ele>267.0</ele><time>2026-05-02T10:20:36.535Z</time></trkpt><trkpt lat="43.404675" lon="11.8418483"><ele>267.0</ele><time>2026-05-02T10:20:37.534Z</time></trkpt><trkpt lat="43.40467" lon="11.8417583"><ele>267.0</ele><time>2026-05-02T10:20:38.535Z</time></trkpt><trkpt lat="43.404665" lon="11.8416683"><ele>267.0</ele><time>2026-05-02T10:20:39.536Z</time></trkpt><trkpt lat="43.40466" lon="11.841575"><ele>267.00000000000006</ele><time>2026-05-02T10:20:40.535Z</time></trkpt><trkpt lat="43.4046567" lon="11.8414833"><ele>267.0</ele><time>2026-05-02T10:20:41.534Z</time></trkpt><trkpt lat="43.4046517" lon="11.8413933"><ele>266.8</ele><time>2026-05-02T10:20:42.531Z</time></trkpt><trkpt lat="43.404645" lon="11.8413033"><ele>266.6</ele><time>2026-05-02T10:20:43.535Z</time></trkpt><trkpt lat="43.404635" lon="11.841215"><ele>266.40000000000003</ele><time>2026-05-02T10:20:44.536Z</time></trkpt><trkpt lat="43.40462" lon="11.8410483"><ele>266.2</ele><time>2026-05-02T10:20:46.534Z</time></trkpt><trkpt lat="43.404615" lon="11.840895"><ele>266.0</ele><time>2026-05-02T10:20:48.538Z</time></trkpt><trkpt lat="43.404615" lon="11.8407467"><ele>265.6666666666667</ele><time>2026-05-02T10:20:50.535Z</time></trkpt><trkpt lat="43.4046083" lon="11.8406117"><ele>265.33333333333337</ele><time>2026-05-02T10:20:52.538Z</time></trkpt><trkpt lat="43.4046183" lon="11.84049"><ele>265.0</ele><time>2026-05-02T10:20:54.533Z</time></trkpt><trkpt lat="43.404615" lon="11.8403883"><ele>264.6666666666667</ele><time>2026-05-02T10:20:56.536Z</time></trkpt><trkpt lat="43.4045783" lon="11.840295"><ele>264.3333333333333</ele><time>2026-05-02T10:20:59.533Z</time></trkpt><trkpt lat="43.4045083" lon="11.840275"><ele>264.0</ele><time>2026-05-02T10:21:03.531Z</time></trkpt><trkpt lat="43.40444" lon="11.8402783"><ele>264.0</ele><time>2026-05-02T10:21:06.532Z</time></trkpt><trkpt lat="43.4043633" lon="11.8402783"><ele>264.0</ele><time>2026-05-02T10:21:09.532Z</time></trkpt><trkpt lat="43.4042817" lon="11.8402733"><ele>264.0</ele><time>2026-05-02T10:21:12.533Z</time></trkpt><trkpt lat="43.4042133" lon="11.84027"><ele>264.0</ele><time>2026-05-02T10:21:14.537Z</time></trkpt><trkpt lat="43.40414" lon="11.8402783"><ele>264.0</ele><time>2026-05-02T10:21:16.534Z</time></trkpt><trkpt lat="43.404065" lon="11.8402933"><ele>264.0</ele><time>2026-05-02T10:21:18.534Z</time></trkpt><trkpt lat="43.4039917" lon="11.840305"><ele>264.0</ele><time>2026-05-02T10:21:20.535Z</time></trkpt><trkpt lat="43.4039017" lon="11.8403267"><ele>264.0</ele><time>2026-05-02T10:21:22.533Z</time></trkpt><trkpt lat="43.4038" lon="11.8403567"><ele>264.0</ele><time>2026-05-02T10:21:24.536Z</time></trkpt><trkpt lat="43.4036883" lon="11.8403917"><ele>264.0</ele><time>2026-05-02T10:21:26.535Z</time></trkpt><trkpt lat="43.403575" lon="11.840425"><ele>264.0</ele><time>2026-05-02T10:21:28.533Z</time></trkpt><trkpt lat="43.4034683" lon="11.840455"><ele>263.8</ele><time>2026-05-02T10:21:30.533Z</time></trkpt><trkpt lat="43.4033617" lon="11.84049"><ele>263.59999999999997</ele><time>2026-05-02T10:21:32.533Z</time></trkpt><trkpt lat="43.4032633" lon="11.84052"><ele>263.4</ele><time>2026-05-02T10:21:34.532Z</time></trkpt><trkpt lat="43.4031633" lon="11.84057"><ele>263.2</ele><time>2026-05-02T10:21:36.537Z</time></trkpt><trkpt lat="43.40307" lon="11.8405733"><ele>263.0</ele><time>2026-05-02T10:21:38.533Z</time></trkpt><trkpt lat="43.403" lon="11.8405133"><ele>263.0</ele><time>2026-05-02T10:21:40.534Z</time></trkpt><trkpt lat="43.4029467" lon="11.8404383"><ele>263.0</ele><time>2026-05-02T10:21:42.535Z</time></trkpt><trkpt lat="43.4029333" lon="11.8403317"><ele>263.0</ele><time>2026-05-02T10:21:45.533Z</time></trkpt><trkpt lat="43.4029783" lon="11.84023"><ele>263.0</ele><time>2026-05-02T10:21:47.53Z</time></trkpt><trkpt lat="43.4030517" lon="11.840175"><ele>263.0</ele><time>2026-05-02T10:21:49.533Z</time></trkpt><trkpt lat="43.40313" lon="11.84014"><ele>263.0</ele><time>2026-05-02T10:21:51.534Z</time></trkpt><trkpt lat="43.4032167" lon="11.840115"><ele>262.5</ele><time>2026-05-02T10:21:53.534Z</time></trkpt><trkpt lat="43.4032983" lon="11.8401"><ele>262.0</ele><time>2026-05-02T10:21:55.534Z</time></trkpt><trkpt lat="43.403385" lon="11.8400917"><ele>261.5</ele><time>2026-05-02T10:21:57.532Z</time></trkpt><trkpt lat="43.403465" lon="11.8400817"><ele>261.0</ele><time>2026-05-02T10:21:59.539Z</time></trkpt><trkpt lat="43.4035483" lon="11.840075"><ele>260.5</ele><time>2026-05-02T10:22:01.531Z</time></trkpt><trkpt lat="43.40363" lon="11.840065"><ele>260.0</ele><time>2026-05-02T10:22:03.534Z</time></trkpt><trkpt lat="43.40371" lon="11.8400517"><ele>260.0</ele><time>2026-05-02T10:22:05.534Z</time></trkpt><trkpt lat="43.4037883" lon="11.8400417"><ele>260.0</ele><time>2026-05-02T10:22:07.531Z</time></trkpt><trkpt lat="43.403855" lon="11.8400267"><ele>260.0</ele><time>2026-05-02T10:22:09.533Z</time></trkpt><trkpt lat="43.4039317" lon="11.8400033"><ele>260.0</ele><time>2026-05-02T10:22:12.532Z</time></trkpt><trkpt lat="43.4040067" lon="11.8399933"><ele>260.0</ele><time>2026-05-02T10:22:16.532Z</time></trkpt><trkpt lat="43.4040933" lon="11.8399733"><ele>260.0</ele><time>2026-05-02T10:22:19.532Z</time></trkpt><trkpt lat="43.4041633" lon="11.8399583"><ele>260.28571428571433</ele><time>2026-05-02T10:22:21.532Z</time></trkpt><trkpt lat="43.404245" lon="11.8399367"><ele>260.57142857142856</ele><time>2026-05-02T10:22:23.535Z</time></trkpt><trkpt lat="43.4043233" lon="11.8399167"><ele>260.8571428571429</ele><time>2026-05-02T10:22:25.532Z</time></trkpt><trkpt lat="43.4043867" lon="11.8399017"><ele>261.14285714285717</ele><time>2026-05-02T10:22:27.532Z</time></trkpt><trkpt lat="43.404455" lon="11.8398933"><ele>261.42857142857144</ele><time>2026-05-02T10:22:29.534Z</time></trkpt><trkpt lat="43.4045367" lon="11.8398683"><ele>261.7142857142857</ele><time>2026-05-02T10:22:31.532Z</time></trkpt><trkpt lat="43.4045817" lon="11.8397983"><ele>262.0</ele><time>2026-05-02T10:22:33.533Z</time></trkpt><trkpt lat="43.4045883" lon="11.8397"><ele>262.0</ele><time>2026-05-02T10:22:35.532Z</time></trkpt><trkpt lat="43.4045817" lon="11.8395833"><ele>262.0</ele><time>2026-05-02T10:22:37.533Z</time></trkpt><trkpt lat="43.404575" lon="11.8394467"><ele>262.0</ele><time>2026-05-02T10:22:39.538Z</time></trkpt><trkpt lat="43.4045683" lon="11.8392983"><ele>262.0</ele><time>2026-05-02T10:22:41.532Z</time></trkpt><trkpt lat="43.4045633" lon="11.839135"><ele>262.0</ele><time>2026-05-02T10:22:43.53Z</time></trkpt><trkpt lat="43.404555" lon="11.8389667"><ele>261.42857142857144</ele><time>2026-05-02T10:22:45.533Z</time></trkpt><trkpt lat="43.4045517" lon="11.8388783"><ele>260.8571428571429</ele><time>2026-05-02T10:22:46.535Z</time></trkpt><trkpt lat="43.40455" lon="11.83879"><ele>260.2857142857143</ele><time>2026-05-02T10:22:47.532Z</time></trkpt><trkpt lat="43.4045483" lon="11.838695"><ele>259.7142857142857</ele><time>2026-05-02T10:22:48.534Z</time></trkpt><trkpt lat="43.404545" lon="11.8385983"><ele>259.1428571428571</ele><time>2026-05-02T10:22:49.531Z</time></trkpt><trkpt lat="43.4045433" lon="11.8385"><ele>258.57142857142856</ele><time>2026-05-02T10:22:50.532Z</time></trkpt><trkpt lat="43.4045383" lon="11.8384033"><ele>258.0</ele><time>2026-05-02T10:22:51.534Z</time></trkpt><trkpt lat="43.404535" lon="11.838305"><ele>257.71428571428567</ele><time>2026-05-02T10:22:52.532Z</time></trkpt><trkpt lat="43.40453" lon="11.8382083"><ele>257.42857142857144</ele><time>2026-05-02T10:22:53.534Z</time></trkpt><trkpt lat="43.404525" lon="11.8381083"><ele>257.1428571428571</ele><time>2026-05-02T10:22:54.531Z</time></trkpt><trkpt lat="43.4045217" lon="11.83801"><ele>256.85714285714283</ele><time>2026-05-02T10:22:55.533Z</time></trkpt><trkpt lat="43.404515" lon="11.8379067"><ele>256.57142857142856</ele><time>2026-05-02T10:22:56.537Z</time></trkpt><trkpt lat="43.4045067" lon="11.8378033"><ele>256.2857142857143</ele><time>2026-05-02T10:22:57.533Z</time></trkpt><trkpt lat="43.4045" lon="11.8376983"><ele>256.0</ele><time>2026-05-02T10:22:58.532Z</time></trkpt><trkpt lat="43.40449" lon="11.8375983"><ele>255.7142857142857</ele><time>2026-05-02T10:22:59.533Z</time></trkpt><trkpt lat="43.40448" lon="11.8375033"><ele>255.4285714285714</ele><time>2026-05-02T10:23:00.533Z</time></trkpt><trkpt lat="43.4044717" lon="11.8374033"><ele>255.14285714285714</ele><time>2026-05-02T10:23:01.536Z</time></trkpt><trkpt lat="43.404465" lon="11.837305"><ele>254.85714285714283</ele><time>2026-05-02T10:23:02.533Z</time></trkpt><trkpt lat="43.4044617" lon="11.8372067"><ele>254.57142857142856</ele><time>2026-05-02T10:23:03.533Z</time></trkpt><trkpt lat="43.4044583" lon="11.8371117"><ele>254.28571428571428</ele><time>2026-05-02T10:23:04.533Z</time></trkpt><trkpt lat="43.4044567" lon="11.837015"><ele>254.0</ele><time>2026-05-02T10:23:05.534Z</time></trkpt><trkpt lat="43.4044533" lon="11.8369183"><ele>254.0</ele><time>2026-05-02T10:23:06.534Z</time></trkpt><trkpt lat="43.4044517" lon="11.8368217"><ele>254.0</ele><time>2026-05-02T10:23:07.532Z</time></trkpt><trkpt lat="43.404445" lon="11.8367233"><ele>254.0</ele><time>2026-05-02T10:23:08.533Z</time></trkpt><trkpt lat="43.40444" lon="11.8366267"><ele>254.0</ele><time>2026-05-02T10:23:09.533Z</time></trkpt><trkpt lat="43.4044383" lon="11.8365283"><ele>254.0</ele><time>2026-05-02T10:23:10.531Z</time></trkpt><trkpt lat="43.4044333" lon="11.8364283"><ele>254.0</ele><time>2026-05-02T10:23:11.532Z</time></trkpt><trkpt lat="43.4044283" lon="11.8363317"><ele>254.0</ele><time>2026-05-02T10:23:12.531Z</time></trkpt><trkpt lat="43.4044233" lon="11.8362383"><ele>253.83333333333334</ele><time>2026-05-02T10:23:13.532Z</time></trkpt><trkpt lat="43.4044183" lon="11.8361417"><ele>253.66666666666669</ele><time>2026-05-02T10:23:14.533Z</time></trkpt><trkpt lat="43.4044167" lon="11.836045"><ele>253.5</ele><time>2026-05-02T10:23:15.536Z</time></trkpt><trkpt lat="43.404415" lon="11.8359417"><ele>253.33333333333331</ele><time>2026-05-02T10:23:16.535Z</time></trkpt><trkpt lat="43.4044133" lon="11.8358317"><ele>253.16666666666666</ele><time>2026-05-02T10:23:17.535Z</time></trkpt><trkpt lat="43.404405" lon="11.83572"><ele>253.0</ele><time>2026-05-02T10:23:18.532Z</time></trkpt><trkpt lat="43.4043983" lon="11.8356117"><ele>253.00000000000003</ele><time>2026-05-02T10:23:19.531Z</time></trkpt><trkpt lat="43.4043867" lon="11.8354967"><ele>253.0</ele><time>2026-05-02T10:23:20.535Z</time></trkpt><trkpt lat="43.40439" lon="11.8353867"><ele>253.00000000000003</ele><time>2026-05-02T10:23:21.531Z</time></trkpt><trkpt lat="43.4043933" lon="11.8352883"><ele>253.00000000000003</ele><time>2026-05-02T10:23:22.531Z</time></trkpt><trkpt lat="43.404395" lon="11.8351917"><ele>253.0</ele><time>2026-05-02T10:23:23.533Z</time></trkpt><trkpt lat="43.4043917" lon="11.8350967"><ele>253.00000000000003</ele><time>2026-05-02T10:23:24.533Z</time></trkpt><trkpt lat="43.404385" lon="11.8350033"><ele>253.00000000000003</ele><time>2026-05-02T10:23:25.534Z</time></trkpt><trkpt lat="43.4043767" lon="11.8349117"><ele>253.00000000000003</ele><time>2026-05-02T10:23:26.531Z</time></trkpt><trkpt lat="43.4043717" lon="11.8348217"><ele>253.0</ele><time>2026-05-02T10:23:27.534Z</time></trkpt><trkpt lat="43.4043683" lon="11.8347317"><ele>253.00000000000003</ele><time>2026-05-02T10:23:28.531Z</time></trkpt><trkpt lat="43.4043583" lon="11.8346433"><ele>253.00000000000003</ele><time>2026-05-02T10:23:29.535Z</time></trkpt><trkpt lat="43.40435" lon="11.8345567"><ele>253.0</ele><time>2026-05-02T10:23:30.532Z</time></trkpt><trkpt lat="43.4043467" lon="11.8343933"><ele>253.00000000000003</ele><time>2026-05-02T10:23:32.533Z</time></trkpt><trkpt lat="43.40435" lon="11.8343017"><ele>253.00000000000003</ele><time>2026-05-02T10:23:33.536Z</time></trkpt><trkpt lat="43.404345" lon="11.8342117"><ele>252.5714285714286</ele><time>2026-05-02T10:23:34.53Z</time></trkpt><trkpt lat="43.4043433" lon="11.8341183"><ele>252.14285714285717</ele><time>2026-05-02T10:23:35.531Z</time></trkpt><trkpt lat="43.4043417" lon="11.8340217"><ele>251.71428571428572</ele><time>2026-05-02T10:23:36.531Z</time></trkpt><trkpt lat="43.4043383" lon="11.833925"><ele>251.2857142857143</ele><time>2026-05-02T10:23:37.535Z</time></trkpt><trkpt lat="43.4043367" lon="11.8338317"><ele>250.8571428571429</ele><time>2026-05-02T10:23:38.533Z</time></trkpt><trkpt lat="43.4043317" lon="11.833735"><ele>250.42857142857142</ele><time>2026-05-02T10:23:39.532Z</time></trkpt><trkpt lat="43.4043267" lon="11.8336433"><ele>250.0</ele><time>2026-05-02T10:23:40.535Z</time></trkpt><trkpt lat="43.4043233" lon="11.833555"><ele>249.6</ele><time>2026-05-02T10:23:41.535Z</time></trkpt><trkpt lat="43.4043117" lon="11.833385"><ele>249.2</ele><time>2026-05-02T10:23:43.535Z</time></trkpt><trkpt lat="43.404305" lon="11.8332067"><ele>248.8</ele><time>2026-05-02T10:23:45.532Z</time></trkpt><trkpt lat="43.4043017" lon="11.83312"><ele>248.4</ele><time>2026-05-02T10:23:46.531Z</time></trkpt><trkpt lat="43.4042983" lon="11.83303"><ele>248.0</ele><time>2026-05-02T10:23:47.533Z</time></trkpt><trkpt lat="43.40429" lon="11.83286"><ele>248.0</ele><time>2026-05-02T10:23:49.533Z</time></trkpt><trkpt lat="43.4042833" lon="11.83269"><ele>248.0</ele><time>2026-05-02T10:23:51.531Z</time></trkpt><trkpt lat="43.4042733" lon="11.8325267"><ele>248.0</ele><time>2026-05-02T10:23:53.532Z</time></trkpt><trkpt lat="43.40426" lon="11.8323717"><ele>248.0</ele><time>2026-05-02T10:23:55.533Z</time></trkpt><trkpt lat="43.40425" lon="11.83222"><ele>248.0</ele><time>2026-05-02T10:23:57.536Z</time></trkpt><trkpt lat="43.40424" lon="11.8320667"><ele>248.0</ele><time>2026-05-02T10:23:59.534Z</time></trkpt><trkpt lat="43.40423" lon="11.8319183"><ele>248.0</ele><time>2026-05-02T10:24:01.531Z</time></trkpt><trkpt lat="43.404225" lon="11.83177"><ele>248.0</ele><time>2026-05-02T10:24:03.533Z</time></trkpt><trkpt lat="43.4042167" lon="11.8316233"><ele>248.0</ele><time>2026-05-02T10:24:05.535Z</time></trkpt><trkpt lat="43.4042117" lon="11.8314767"><ele>247.8</ele><time>2026-05-02T10:24:07.538Z</time></trkpt><trkpt lat="43.4042117" lon="11.8313217"><ele>247.60000000000002</ele><time>2026-05-02T10:24:09.535Z</time></trkpt><trkpt lat="43.4042083" lon="11.8311767"><ele>247.39999999999998</ele><time>2026-05-02T10:24:11.532Z</time></trkpt><trkpt lat="43.4042" lon="11.8310317"><ele>247.2</ele><time>2026-05-02T10:24:13.531Z</time></trkpt><trkpt lat="43.4041983" lon="11.8308917"><ele>247.0</ele><time>2026-05-02T10:24:15.536Z</time></trkpt><trkpt lat="43.40419" lon="11.830745"><ele>246.8</ele><time>2026-05-02T10:24:17.536Z</time></trkpt><trkpt lat="43.4041783" lon="11.8305933"><ele>246.6</ele><time>2026-05-02T10:24:19.531Z</time></trkpt><trkpt lat="43.4041733" lon="11.83044"><ele>246.40000000000003</ele><time>2026-05-02T10:24:21.533Z</time></trkpt><trkpt lat="43.40417" lon="11.8302867"><ele>246.20000000000002</ele><time>2026-05-02T10:24:23.536Z</time></trkpt><trkpt lat="43.4041583" lon="11.8301317"><ele>246.0</ele><time>2026-05-02T10:24:25.531Z</time></trkpt><trkpt lat="43.40415" lon="11.829975"><ele>246.0</ele><time>2026-05-02T10:24:27.532Z</time></trkpt><trkpt lat="43.4041433" lon="11.8298083"><ele>246.0</ele><time>2026-05-02T10:24:29.537Z</time></trkpt><trkpt lat="43.40414" lon="11.8296383"><ele>246.0</ele><time>2026-05-02T10:24:31.539Z</time></trkpt><trkpt lat="43.404135" lon="11.8294717"><ele>246.0</ele><time>2026-05-02T10:24:33.532Z</time></trkpt><trkpt lat="43.404125" lon="11.82931"><ele>246.0</ele><time>2026-05-02T10:24:35.536Z</time></trkpt><trkpt lat="43.4041167" lon="11.8291517"><ele>246.00000000000003</ele><time>2026-05-02T10:24:37.533Z</time></trkpt><trkpt lat="43.4041133" lon="11.829065"><ele>246.00000000000003</ele><time>2026-05-02T10:24:38.533Z</time></trkpt><trkpt lat="43.4041083" lon="11.8288983"><ele>246.0</ele><time>2026-05-02T10:24:40.533Z</time></trkpt><trkpt lat="43.4041133" lon="11.8287367"><ele>246.0</ele><time>2026-05-02T10:24:42.534Z</time></trkpt><trkpt lat="43.4041133" lon="11.8285767"><ele>245.66666666666666</ele><time>2026-05-02T10:24:44.532Z</time></trkpt><trkpt lat="43.4041067" lon="11.8284117"><ele>245.33333333333331</ele><time>2026-05-02T10:24:46.53Z</time></trkpt><trkpt lat="43.4040983" lon="11.82824"><ele>245.0</ele><time>2026-05-02T10:24:48.533Z</time></trkpt><trkpt lat="43.4040933" lon="11.8281533"><ele>244.66666666666666</ele><time>2026-05-02T10:24:49.533Z</time></trkpt><trkpt lat="43.40409" lon="11.828065"><ele>244.33333333333331</ele><time>2026-05-02T10:24:50.533Z</time></trkpt><trkpt lat="43.404085" lon="11.8279767"><ele>244.0</ele><time>2026-05-02T10:24:51.534Z</time></trkpt><trkpt lat="43.4040683" lon="11.82781"><ele>244.0</ele><time>2026-05-02T10:24:53.535Z</time></trkpt><trkpt lat="43.4040683" lon="11.82765"><ele>244.0</ele><time>2026-05-02T10:24:55.533Z</time></trkpt><trkpt lat="43.4040683" lon="11.8274983"><ele>244.0</ele><time>2026-05-02T10:24:57.533Z</time></trkpt><trkpt lat="43.4040617" lon="11.82734"><ele>244.0</ele><time>2026-05-02T10:24:59.533Z</time></trkpt><trkpt lat="43.40406" lon="11.8271733"><ele>244.0</ele><time>2026-05-02T10:25:01.533Z</time></trkpt><trkpt lat="43.404055" lon="11.827085"><ele>243.99999999999997</ele><time>2026-05-02T10:25:02.532Z</time></trkpt><trkpt lat="43.4040433" lon="11.826925"><ele>243.99999999999997</ele><time>2026-05-02T10:25:04.532Z</time></trkpt><trkpt lat="43.404035" lon="11.82677"><ele>244.0</ele><time>2026-05-02T10:25:06.534Z</time></trkpt><trkpt lat="43.4040267" lon="11.8266167"><ele>244.0</ele><time>2026-05-02T10:25:08.532Z</time></trkpt><trkpt lat="43.4040183" lon="11.8264583"><ele>244.0</ele><time>2026-05-02T10:25:10.533Z</time></trkpt><trkpt lat="43.4040217" lon="11.8263"><ele>244.0</ele><time>2026-05-02T10:25:12.532Z</time></trkpt><trkpt lat="43.40402" lon="11.826145"><ele>244.0</ele><time>2026-05-02T10:25:14.533Z</time></trkpt><trkpt lat="43.4040183" lon="11.8259883"><ele>244.0</ele><time>2026-05-02T10:25:16.536Z</time></trkpt><trkpt lat="43.404015" lon="11.8258317"><ele>244.0</ele><time>2026-05-02T10:25:18.535Z</time></trkpt><trkpt lat="43.4040133" lon="11.8256783"><ele>243.99999999999997</ele><time>2026-05-02T10:25:20.534Z</time></trkpt><trkpt lat="43.4040083" lon="11.82553"><ele>243.99999999999997</ele><time>2026-05-02T10:25:22.538Z</time></trkpt><trkpt lat="43.404005" lon="11.8253867"><ele>244.0</ele><time>2026-05-02T10:25:24.533Z</time></trkpt><trkpt lat="43.404005" lon="11.8252417"><ele>244.0</ele><time>2026-05-02T10:25:26.532Z</time></trkpt><trkpt lat="43.4040033" lon="11.8250967"><ele>243.99999999999997</ele><time>2026-05-02T10:25:28.532Z</time></trkpt><trkpt lat="43.4040033" lon="11.824955"><ele>244.0</ele><time>2026-05-02T10:25:30.535Z</time></trkpt><trkpt lat="43.4039967" lon="11.8248267"><ele>244.0</ele><time>2026-05-02T10:25:32.533Z</time></trkpt><trkpt lat="43.4039933" lon="11.8247133"><ele>244.0</ele><time>2026-05-02T10:25:34.533Z</time></trkpt><trkpt lat="43.4040017" lon="11.82461"><ele>243.99999999999997</ele><time>2026-05-02T10:25:36.531Z</time></trkpt><trkpt lat="43.4040467" lon="11.8245283"><ele>244.0</ele><time>2026-05-02T10:25:38.532Z</time></trkpt><trkpt lat="43.4041233" lon="11.8245067"><ele>244.0</ele><time>2026-05-02T10:25:40.531Z</time></trkpt><trkpt lat="43.4042117" lon="11.8245067"><ele>243.99999999999997</ele><time>2026-05-02T10:25:42.533Z</time></trkpt><trkpt lat="43.4043067" lon="11.8245217"><ele>243.99999999999997</ele><time>2026-05-02T10:25:44.533Z</time></trkpt><trkpt lat="43.4044033" lon="11.8245433"><ele>244.0</ele><time>2026-05-02T10:25:46.531Z</time></trkpt><trkpt lat="43.4045" lon="11.82457"><ele>244.0</ele><time>2026-05-02T10:25:48.531Z</time></trkpt><trkpt lat="43.4045967" lon="11.8245883"><ele>244.0</ele><time>2026-05-02T10:25:50.537Z</time></trkpt><trkpt lat="43.4046967" lon="11.8245983"><ele>243.99999999999997</ele><time>2026-05-02T10:25:52.534Z</time></trkpt><trkpt lat="43.404795" lon="11.8246067"><ele>243.99999999999997</ele><time>2026-05-02T10:25:54.533Z</time></trkpt><trkpt lat="43.4048917" lon="11.82462"><ele>244.0</ele><time>2026-05-02T10:25:56.536Z</time></trkpt><trkpt lat="43.404985" lon="11.8246367"><ele>244.0</ele><time>2026-05-02T10:25:58.535Z</time></trkpt><trkpt lat="43.40508" lon="11.8246533"><ele>244.0</ele><time>2026-05-02T10:26:00.531Z</time></trkpt><trkpt lat="43.405175" lon="11.824665"><ele>243.99999999999997</ele><time>2026-05-02T10:26:02.531Z</time></trkpt><trkpt lat="43.40527" lon="11.8246817"><ele>243.99999999999997</ele><time>2026-05-02T10:26:04.533Z</time></trkpt><trkpt lat="43.40536" lon="11.8246967"><ele>244.0</ele><time>2026-05-02T10:26:06.531Z</time></trkpt><trkpt lat="43.4054533" lon="11.8247067"><ele>244.0</ele><time>2026-05-02T10:26:08.531Z</time></trkpt><trkpt lat="43.4055417" lon="11.824735"><ele>244.0</ele><time>2026-05-02T10:26:10.534Z</time></trkpt><trkpt lat="43.4056233" lon="11.8247633"><ele>243.99999999999997</ele><time>2026-05-02T10:26:12.532Z</time></trkpt><trkpt lat="43.40571" lon="11.8247917"><ele>243.99999999999997</ele><time>2026-05-02T10:26:14.534Z</time></trkpt><trkpt lat="43.4057983" lon="11.8248267"><ele>244.0</ele><time>2026-05-02T10:26:16.536Z</time></trkpt><trkpt lat="43.4058867" lon="11.82487"><ele>244.0</ele><time>2026-05-02T10:26:18.534Z</time></trkpt><trkpt lat="43.4059767" lon="11.824915"><ele>244.0</ele><time>2026-05-02T10:26:20.54Z</time></trkpt><trkpt lat="43.406065" lon="11.8249633"><ele>243.99999999999997</ele><time>2026-05-02T10:26:22.532Z</time></trkpt><trkpt lat="43.4061567" lon="11.825005"><ele>243.99999999999997</ele><time>2026-05-02T10:26:24.535Z</time></trkpt><trkpt lat="43.4062467" lon="11.8250483"><ele>244.0</ele><time>2026-05-02T10:26:26.534Z</time></trkpt><trkpt lat="43.40634" lon="11.8250967"><ele>244.0</ele><time>2026-05-02T10:26:28.535Z</time></trkpt><trkpt lat="43.4064333" lon="11.8251433"><ele>243.6</ele><time>2026-05-02T10:26:30.534Z</time></trkpt><trkpt lat="43.4065717" lon="11.8252083"><ele>243.2</ele><time>2026-05-02T10:26:33.534Z</time></trkpt><trkpt lat="43.4066633" lon="11.82525"><ele>242.79999999999998</ele><time>2026-05-02T10:26:35.532Z</time></trkpt><trkpt lat="43.4067517" lon="11.8252933"><ele>242.39999999999998</ele><time>2026-05-02T10:26:37.534Z</time></trkpt><trkpt lat="43.4068417" lon="11.8253317"><ele>242.0</ele><time>2026-05-02T10:26:39.534Z</time></trkpt><trkpt lat="43.40694" lon="11.8253567"><ele>242.0</ele><time>2026-05-02T10:26:41.533Z</time></trkpt><trkpt lat="43.4070433" lon="11.825365"><ele>242.0</ele><time>2026-05-02T10:26:43.531Z</time></trkpt><trkpt lat="43.40714" lon="11.8253417"><ele>242.0</ele><time>2026-05-02T10:26:45.535Z</time></trkpt><trkpt lat="43.40723" lon="11.8252983"><ele>242.0</ele><time>2026-05-02T10:26:47.532Z</time></trkpt><trkpt lat="43.4073167" lon="11.825255"><ele>242.0</ele><time>2026-05-02T10:26:49.532Z</time></trkpt><trkpt lat="43.4074067" lon="11.8252117"><ele>242.0</ele><time>2026-05-02T10:26:51.533Z</time></trkpt><trkpt lat="43.4074983" lon="11.8251633"><ele>242.0</ele><time>2026-05-02T10:26:53.532Z</time></trkpt><trkpt lat="43.4075917" lon="11.825115"><ele>242.0</ele><time>2026-05-02T10:26:55.532Z</time></trkpt><trkpt lat="43.4076833" lon="11.8250633"><ele>242.0</ele><time>2026-05-02T10:26:57.533Z</time></trkpt><trkpt lat="43.4077733" lon="11.82501"><ele>242.0</ele><time>2026-05-02T10:26:59.533Z</time></trkpt><trkpt lat="43.407865" lon="11.8249683"><ele>242.0</ele><time>2026-05-02T10:27:01.53Z</time></trkpt><trkpt lat="43.4079567" lon="11.8249217"><ele>242.0</ele><time>2026-05-02T10:27:03.535Z</time></trkpt><trkpt lat="43.4080483" lon="11.824875"><ele>242.0</ele><time>2026-05-02T10:27:05.533Z</time></trkpt><trkpt lat="43.4081367" lon="11.82483"><ele>242.0</ele><time>2026-05-02T10:27:07.532Z</time></trkpt><trkpt lat="43.4082233" lon="11.82478"><ele>242.0</ele><time>2026-05-02T10:27:09.531Z</time></trkpt><trkpt lat="43.4083117" lon="11.8247367"><ele>242.39999999999998</ele><time>2026-05-02T10:27:11.532Z</time></trkpt><trkpt lat="43.4084067" lon="11.82469"><ele>242.79999999999998</ele><time>2026-05-02T10:27:13.53Z</time></trkpt><trkpt lat="43.4084983" lon="11.8246483"><ele>243.2</ele><time>2026-05-02T10:27:15.532Z</time></trkpt><trkpt lat="43.40859" lon="11.824605"><ele>243.6</ele><time>2026-05-02T10:27:17.532Z</time></trkpt><trkpt lat="43.4086833" lon="11.8245567"><ele>244.0</ele><time>2026-05-02T10:27:19.537Z</time></trkpt><trkpt lat="43.4087733" lon="11.8245133"><ele>244.0</ele><time>2026-05-02T10:27:21.531Z</time></trkpt><trkpt lat="43.4088683" lon="11.8244583"><ele>243.99999999999997</ele><time>2026-05-02T10:27:23.534Z</time></trkpt><trkpt lat="43.4089583" lon="11.82441"><ele>243.99999999999997</ele><time>2026-05-02T10:27:25.532Z</time></trkpt><trkpt lat="43.4090433" lon="11.8243667"><ele>244.0</ele><time>2026-05-02T10:27:27.534Z</time></trkpt><trkpt lat="43.40913" lon="11.8243183"><ele>244.0</ele><time>2026-05-02T10:27:29.534Z</time></trkpt><trkpt lat="43.40922" lon="11.8242733"><ele>244.0</ele><time>2026-05-02T10:27:31.532Z</time></trkpt><trkpt lat="43.4093117" lon="11.8242183"><ele>243.99999999999997</ele><time>2026-05-02T10:27:33.534Z</time></trkpt><trkpt lat="43.4094033" lon="11.82417"><ele>243.99999999999997</ele><time>2026-05-02T10:27:35.533Z</time></trkpt><trkpt lat="43.4094983" lon="11.82412"><ele>244.0</ele><time>2026-05-02T10:27:37.534Z</time></trkpt><trkpt lat="43.40959" lon="11.8240833"><ele>244.0</ele><time>2026-05-02T10:27:39.532Z</time></trkpt><trkpt lat="43.4096817" lon="11.8240383"><ele>243.83333333333331</ele><time>2026-05-02T10:27:41.537Z</time></trkpt><trkpt lat="43.409765" lon="11.8239783"><ele>243.66666666666666</ele><time>2026-05-02T10:27:43.532Z</time></trkpt><trkpt lat="43.4098283" lon="11.8238883"><ele>243.5</ele><time>2026-05-02T10:27:45.535Z</time></trkpt><trkpt lat="43.409845" lon="11.8237817"><ele>243.33333333333331</ele><time>2026-05-02T10:27:47.531Z</time></trkpt><trkpt lat="43.4098417" lon="11.8236683"><ele>243.16666666666666</ele><time>2026-05-02T10:27:49.535Z</time></trkpt><trkpt lat="43.4098267" lon="11.82356"><ele>243.0</ele><time>2026-05-02T10:27:51.532Z</time></trkpt><trkpt lat="43.4098183" lon="11.8234417"><ele>243.0</ele><time>2026-05-02T10:27:53.532Z</time></trkpt><trkpt lat="43.409815" lon="11.823315"><ele>243.0</ele><time>2026-05-02T10:27:55.534Z</time></trkpt><trkpt lat="43.409835" lon="11.823195"><ele>243.0</ele><time>2026-05-02T10:27:57.532Z</time></trkpt><trkpt lat="43.4098867" lon="11.8231"><ele>243.0</ele><time>2026-05-02T10:27:59.531Z</time></trkpt><trkpt lat="43.4099617" lon="11.8230417"><ele>243.0</ele><time>2026-05-02T10:28:01.532Z</time></trkpt><trkpt lat="43.4100483" lon="11.823"><ele>243.0</ele><time>2026-05-02T10:28:03.534Z</time></trkpt><trkpt lat="43.4101333" lon="11.8229567"><ele>243.0</ele><time>2026-05-02T10:28:05.533Z</time></trkpt><trkpt lat="43.4102217" lon="11.8229083"><ele>243.0</ele><time>2026-05-02T10:28:07.531Z</time></trkpt><trkpt lat="43.4103083" lon="11.8228667"><ele>243.0</ele><time>2026-05-02T10:28:09.532Z</time></trkpt><trkpt lat="43.4103917" lon="11.8228283"><ele>243.0</ele><time>2026-05-02T10:28:11.534Z</time></trkpt><trkpt lat="43.4104767" lon="11.822785"><ele>243.0</ele><time>2026-05-02T10:28:13.532Z</time></trkpt><trkpt lat="43.410565" lon="11.8227417"><ele>243.0</ele><time>2026-05-02T10:28:15.531Z</time></trkpt><trkpt lat="43.4106517" lon="11.8226883"><ele>243.0</ele><time>2026-05-02T10:28:17.534Z</time></trkpt><trkpt lat="43.4107217" lon="11.8226017"><ele>243.0</ele><time>2026-05-02T10:28:19.533Z</time></trkpt><trkpt lat="43.4107733" lon="11.82248"><ele>243.0</ele><time>2026-05-02T10:28:21.537Z</time></trkpt><trkpt lat="43.41082" lon="11.8223467"><ele>243.0</ele><time>2026-05-02T10:28:23.532Z</time></trkpt><trkpt lat="43.41086" lon="11.8222167"><ele>243.0</ele><time>2026-05-02T10:28:25.538Z</time></trkpt><trkpt lat="43.4109" lon="11.8220767"><ele>243.0</ele><time>2026-05-02T10:28:27.534Z</time></trkpt><trkpt lat="43.4109367" lon="11.8219317"><ele>243.0</ele><time>2026-05-02T10:28:29.532Z</time></trkpt><trkpt lat="43.4109783" lon="11.8217917"><ele>243.0</ele><time>2026-05-02T10:28:31.535Z</time></trkpt><trkpt lat="43.41102" lon="11.8216517"><ele>243.0</ele><time>2026-05-02T10:28:33.535Z</time></trkpt><trkpt lat="43.4110617" lon="11.8215083"><ele>242.8</ele><time>2026-05-02T10:28:35.533Z</time></trkpt><trkpt lat="43.4111083" lon="11.8213883"><ele>242.60000000000002</ele><time>2026-05-02T10:28:37.535Z</time></trkpt><trkpt lat="43.4111417" lon="11.8212717"><ele>242.39999999999998</ele><time>2026-05-02T10:28:39.534Z</time></trkpt><trkpt lat="43.4111783" lon="11.821145"><ele>242.2</ele><time>2026-05-02T10:28:41.534Z</time></trkpt><trkpt lat="43.4112083" lon="11.8210083"><ele>242.0</ele><time>2026-05-02T10:28:43.536Z</time></trkpt><trkpt lat="43.4112267" lon="11.8208633"><ele>242.39999999999998</ele><time>2026-05-02T10:28:45.53Z</time></trkpt><trkpt lat="43.4112317" lon="11.8207117"><ele>242.79999999999998</ele><time>2026-05-02T10:28:47.532Z</time></trkpt><trkpt lat="43.4112383" lon="11.8205633"><ele>243.2</ele><time>2026-05-02T10:28:49.534Z</time></trkpt><trkpt lat="43.41126" lon="11.8204183"><ele>243.6</ele><time>2026-05-02T10:28:51.537Z</time></trkpt><trkpt lat="43.4113067" lon="11.8202933"><ele>244.0</ele><time>2026-05-02T10:28:53.536Z</time></trkpt><trkpt lat="43.4113867" lon="11.82019"><ele>244.0</ele><time>2026-05-02T10:28:55.536Z</time></trkpt><trkpt lat="43.4114817" lon="11.8201083"><ele>243.99999999999997</ele><time>2026-05-02T10:28:57.536Z</time></trkpt><trkpt lat="43.411575" lon="11.82003"><ele>243.99999999999997</ele><time>2026-05-02T10:28:59.53Z</time></trkpt><trkpt lat="43.41166" lon="11.81996"><ele>244.0</ele><time>2026-05-02T10:29:01.533Z</time></trkpt><trkpt lat="43.4117383" lon="11.819895"><ele>244.0</ele><time>2026-05-02T10:29:03.532Z</time></trkpt><trkpt lat="43.411815" lon="11.8198217"><ele>244.0</ele><time>2026-05-02T10:29:05.532Z</time></trkpt><trkpt lat="43.41189" lon="11.8197667"><ele>243.99999999999997</ele><time>2026-05-02T10:29:07.532Z</time></trkpt><trkpt lat="43.4119717" lon="11.8197067"><ele>243.99999999999997</ele><time>2026-05-02T10:29:09.53Z</time></trkpt><trkpt lat="43.4120583" lon="11.819645"><ele>244.0</ele><time>2026-05-02T10:29:11.533Z</time></trkpt><trkpt lat="43.41214" lon="11.81958"><ele>244.0</ele><time>2026-05-02T10:29:13.533Z</time></trkpt><trkpt lat="43.412225" lon="11.8195217"><ele>244.0</ele><time>2026-05-02T10:29:15.535Z</time></trkpt><trkpt lat="43.4123117" lon="11.8194617"><ele>243.99999999999997</ele><time>2026-05-02T10:29:17.531Z</time></trkpt><trkpt lat="43.4123983" lon="11.8194"><ele>243.99999999999997</ele><time>2026-05-02T10:29:19.531Z</time></trkpt><trkpt lat="43.4124833" lon="11.8193483"><ele>244.0</ele><time>2026-05-02T10:29:21.531Z</time></trkpt><trkpt lat="43.4125733" lon="11.819305"><ele>244.0</ele><time>2026-05-02T10:29:23.534Z</time></trkpt><trkpt lat="43.412675" lon="11.819275"><ele>244.0</ele><time>2026-05-02T10:29:25.533Z</time></trkpt><trkpt lat="43.4127767" lon="11.8192817"><ele>243.99999999999997</ele><time>2026-05-02T10:29:27.533Z</time></trkpt><trkpt lat="43.4128717" lon="11.8193"><ele>243.99999999999997</ele><time>2026-05-02T10:29:29.535Z</time></trkpt><trkpt lat="43.4129633" lon="11.81932"><ele>244.0</ele><time>2026-05-02T10:29:31.535Z</time></trkpt><trkpt lat="43.4130583" lon="11.8193483"><ele>244.0</ele><time>2026-05-02T10:29:33.535Z</time></trkpt><trkpt lat="43.4131583" lon="11.81938"><ele>244.0</ele><time>2026-05-02T10:29:35.531Z</time></trkpt><trkpt lat="43.4132583" lon="11.81941"><ele>243.99999999999997</ele><time>2026-05-02T10:29:37.536Z</time></trkpt><trkpt lat="43.4133583" lon="11.81944"><ele>243.99999999999997</ele><time>2026-05-02T10:29:39.534Z</time></trkpt><trkpt lat="43.4134617" lon="11.8194667"><ele>244.0</ele><time>2026-05-02T10:29:41.535Z</time></trkpt><trkpt lat="43.41356" lon="11.819495"><ele>244.0</ele><time>2026-05-02T10:29:43.534Z</time></trkpt><trkpt lat="43.4136567" lon="11.8195183"><ele>244.0</ele><time>2026-05-02T10:29:45.534Z</time></trkpt><trkpt lat="43.4137533" lon="11.8195467"><ele>243.99999999999997</ele><time>2026-05-02T10:29:47.534Z</time></trkpt><trkpt lat="43.4138483" lon="11.81957"><ele>243.99999999999997</ele><time>2026-05-02T10:29:49.532Z</time></trkpt><trkpt lat="43.4139417" lon="11.8195967"><ele>244.0</ele><time>2026-05-02T10:29:51.533Z</time></trkpt><trkpt lat="43.414045" lon="11.819615"><ele>244.0</ele><time>2026-05-02T10:29:53.532Z</time></trkpt><trkpt lat="43.41414" lon="11.81963"><ele>243.79999999999998</ele><time>2026-05-02T10:29:55.534Z</time></trkpt><trkpt lat="43.4142333" lon="11.8196467"><ele>243.59999999999997</ele><time>2026-05-02T10:29:57.533Z</time></trkpt><trkpt lat="43.4143183" lon="11.81965"><ele>243.4</ele><time>2026-05-02T10:29:59.538Z</time></trkpt><trkpt lat="43.4144133" lon="11.8196667"><ele>243.2</ele><time>2026-05-02T10:30:01.533Z</time></trkpt><trkpt lat="43.414515" lon="11.8196933"><ele>243.0</ele><time>2026-05-02T10:30:03.532Z</time></trkpt><trkpt lat="43.4146133" lon="11.8197167"><ele>242.8</ele><time>2026-05-02T10:30:05.531Z</time></trkpt><trkpt lat="43.4147067" lon="11.8197233"><ele>242.60000000000002</ele><time>2026-05-02T10:30:07.533Z</time></trkpt><trkpt lat="43.4148" lon="11.819745"><ele>242.39999999999998</ele><time>2026-05-02T10:30:09.535Z</time></trkpt><trkpt lat="43.414895" lon="11.8197567"><ele>242.2</ele><time>2026-05-02T10:30:11.538Z</time></trkpt><trkpt lat="43.41498" lon="11.8197733"><ele>242.0</ele><time>2026-05-02T10:30:13.535Z</time></trkpt><trkpt lat="43.4150633" lon="11.8198233"><ele>242.0</ele><time>2026-05-02T10:30:15.534Z</time></trkpt><trkpt lat="43.41512" lon="11.8199167"><ele>242.0</ele><time>2026-05-02T10:30:17.534Z</time></trkpt><trkpt lat="43.4151533" lon="11.8200333"><ele>242.0</ele><time>2026-05-02T10:30:19.531Z</time></trkpt><trkpt lat="43.41518" lon="11.8201517"><ele>242.0</ele><time>2026-05-02T10:30:21.535Z</time></trkpt><trkpt lat="43.4152083" lon="11.8202717"><ele>242.0</ele><time>2026-05-02T10:30:23.534Z</time></trkpt><trkpt lat="43.4152583" lon="11.8203733"><ele>242.2</ele><time>2026-05-02T10:30:25.533Z</time></trkpt><trkpt lat="43.4153367" lon="11.8204233"><ele>242.39999999999998</ele><time>2026-05-02T10:30:27.536Z</time></trkpt><trkpt lat="43.4154267" lon="11.820415"><ele>242.60000000000002</ele><time>2026-05-02T10:30:29.535Z</time></trkpt><trkpt lat="43.41552" lon="11.8203817"><ele>242.8</ele><time>2026-05-02T10:30:31.535Z</time></trkpt><trkpt lat="43.4156167" lon="11.82036"><ele>243.0</ele><time>2026-05-02T10:30:33.534Z</time></trkpt><trkpt lat="43.415715" lon="11.8203333"><ele>243.2</ele><time>2026-05-02T10:30:35.533Z</time></trkpt><trkpt lat="43.4158117" lon="11.820315"><ele>243.4</ele><time>2026-05-02T10:30:37.533Z</time></trkpt><trkpt lat="43.4159067" lon="11.820305"><ele>243.59999999999997</ele><time>2026-05-02T10:30:39.532Z</time></trkpt><trkpt lat="43.4159967" lon="11.820285"><ele>243.79999999999998</ele><time>2026-05-02T10:30:41.533Z</time></trkpt><trkpt lat="43.4160917" lon="11.820265"><ele>244.0</ele><time>2026-05-02T10:30:43.534Z</time></trkpt><trkpt lat="43.4161867" lon="11.8202417"><ele>244.0</ele><time>2026-05-02T10:30:45.535Z</time></trkpt><trkpt lat="43.41628" lon="11.8202217"><ele>243.99999999999997</ele><time>2026-05-02T10:30:47.533Z</time></trkpt><trkpt lat="43.4163767" lon="11.8202"><ele>243.99999999999997</ele><time>2026-05-02T10:30:49.536Z</time></trkpt><trkpt lat="43.4164733" lon="11.8201767"><ele>244.0</ele><time>2026-05-02T10:30:51.534Z</time></trkpt><trkpt lat="43.416565" lon="11.820135"><ele>244.0</ele><time>2026-05-02T10:30:53.534Z</time></trkpt><trkpt lat="43.416655" lon="11.8201067"><ele>243.99999999999997</ele><time>2026-05-02T10:30:55.534Z</time></trkpt><trkpt lat="43.4167433" lon="11.82008"><ele>244.0</ele><time>2026-05-02T10:30:57.534Z</time></trkpt><trkpt lat="43.4168283" lon="11.8200633"><ele>244.0</ele><time>2026-05-02T10:30:59.534Z</time></trkpt><trkpt lat="43.4169083" lon="11.8200483"><ele>244.0</ele><time>2026-05-02T10:31:01.531Z</time></trkpt><trkpt lat="43.4169983" lon="11.82003"><ele>243.99999999999997</ele><time>2026-05-02T10:31:03.532Z</time></trkpt><trkpt lat="43.41709" lon="11.8200067"><ele>244.0</ele><time>2026-05-02T10:31:05.534Z</time></trkpt><trkpt lat="43.417185" lon="11.8199733"><ele>243.99999999999997</ele><time>2026-05-02T10:31:07.534Z</time></trkpt><trkpt lat="43.417275" lon="11.8199483"><ele>244.0</ele><time>2026-05-02T10:31:09.532Z</time></trkpt><trkpt lat="43.4173633" lon="11.8199283"><ele>244.0</ele><time>2026-05-02T10:31:11.532Z</time></trkpt><trkpt lat="43.41745" lon="11.8198967"><ele>244.0</ele><time>2026-05-02T10:31:13.533Z</time></trkpt><trkpt lat="43.41753" lon="11.8198667"><ele>243.99999999999997</ele><time>2026-05-02T10:31:15.533Z</time></trkpt><trkpt lat="43.4176183" lon="11.8198517"><ele>244.0</ele><time>2026-05-02T10:31:17.534Z</time></trkpt><trkpt lat="43.41771" lon="11.8198283"><ele>244.0</ele><time>2026-05-02T10:31:19.532Z</time></trkpt><trkpt lat="43.4178" lon="11.8197983"><ele>243.99999999999997</ele><time>2026-05-02T10:31:21.535Z</time></trkpt><trkpt lat="43.417895" lon="11.81977"><ele>243.99999999999997</ele><time>2026-05-02T10:31:23.535Z</time></trkpt><trkpt lat="43.4179867" lon="11.8197467"><ele>244.0</ele><time>2026-05-02T10:31:25.535Z</time></trkpt><trkpt lat="43.4180767" lon="11.81972"><ele>244.0</ele><time>2026-05-02T10:31:27.537Z</time></trkpt><trkpt lat="43.4181717" lon="11.8196967"><ele>244.0</ele><time>2026-05-02T10:31:29.536Z</time></trkpt><trkpt lat="43.4182683" lon="11.8196617"><ele>243.99999999999997</ele><time>2026-05-02T10:31:31.534Z</time></trkpt><trkpt lat="43.4183617" lon="11.8196183"><ele>243.99999999999997</ele><time>2026-05-02T10:31:33.532Z</time></trkpt><trkpt lat="43.418445" lon="11.819545"><ele>244.0</ele><time>2026-05-02T10:31:35.535Z</time></trkpt><trkpt lat="43.41848" lon="11.8194367"><ele>244.0</ele><time>2026-05-02T10:31:37.536Z</time></trkpt><trkpt lat="43.41847" lon="11.8193017"><ele>244.33333333333331</ele><time>2026-05-02T10:31:39.532Z</time></trkpt><trkpt lat="43.4184383" lon="11.819185"><ele>244.66666666666666</ele><time>2026-05-02T10:31:41.537Z</time></trkpt><trkpt lat="43.4183983" lon="11.819085"><ele>245.0</ele><time>2026-05-02T10:31:43.535Z</time></trkpt><trkpt lat="43.4183617" lon="11.819"><ele>245.33333333333331</ele><time>2026-05-02T10:31:45.534Z</time></trkpt><trkpt lat="43.4183183" lon="11.8189167"><ele>245.66666666666666</ele><time>2026-05-02T10:31:47.534Z</time></trkpt><trkpt lat="43.41827" lon="11.8188433"><ele>246.0</ele><time>2026-05-02T10:31:49.536Z</time></trkpt><trkpt lat="43.4182233" lon="11.8187767"><ele>246.00000000000003</ele><time>2026-05-02T10:31:51.534Z</time></trkpt><trkpt lat="43.4181817" lon="11.8187033"><ele>246.0</ele><time>2026-05-02T10:31:53.534Z</time></trkpt><trkpt lat="43.4181467" lon="11.8186267"><ele>246.00000000000003</ele><time>2026-05-02T10:31:55.533Z</time></trkpt><trkpt lat="43.4181283" lon="11.818535"><ele>246.00000000000003</ele><time>2026-05-02T10:31:57.532Z</time></trkpt><trkpt lat="43.4181283" lon="11.81844"><ele>246.0</ele><time>2026-05-02T10:31:59.533Z</time></trkpt><trkpt lat="43.4181567" lon="11.8183533"><ele>246.00000000000003</ele><time>2026-05-02T10:32:01.534Z</time></trkpt><trkpt lat="43.4182017" lon="11.818285"><ele>246.00000000000003</ele><time>2026-05-02T10:32:03.533Z</time></trkpt><trkpt lat="43.4182667" lon="11.8182217"><ele>246.33333333333334</ele><time>2026-05-02T10:32:06.536Z</time></trkpt><trkpt lat="43.418325" lon="11.8181667"><ele>246.66666666666669</ele><time>2026-05-02T10:32:09.532Z</time></trkpt><trkpt lat="43.418395" lon="11.8180917"><ele>247.0</ele><time>2026-05-02T10:32:12.533Z</time></trkpt><trkpt lat="43.41847" lon="11.818015"><ele>247.33333333333334</ele><time>2026-05-02T10:32:15.533Z</time></trkpt><trkpt lat="43.4185317" lon="11.8179717"><ele>247.66666666666669</ele><time>2026-05-02T10:32:17.533Z</time></trkpt><trkpt lat="43.418615" lon="11.81796"><ele>248.0</ele><time>2026-05-02T10:32:19.532Z</time></trkpt><trkpt lat="43.4187083" lon="11.8179967"><ele>248.0</ele><time>2026-05-02T10:32:21.534Z</time></trkpt><trkpt lat="43.4188" lon="11.818075"><ele>248.0</ele><time>2026-05-02T10:32:23.538Z</time></trkpt><trkpt lat="43.418875" lon="11.8182017"><ele>248.0</ele><time>2026-05-02T10:32:25.533Z</time></trkpt><trkpt lat="43.4189217" lon="11.81836"><ele>248.0</ele><time>2026-05-02T10:32:27.537Z</time></trkpt><trkpt lat="43.4189417" lon="11.81845"><ele>248.0</ele><time>2026-05-02T10:32:28.536Z</time></trkpt><trkpt lat="43.418965" lon="11.81854"><ele>247.50000000000003</ele><time>2026-05-02T10:32:29.533Z</time></trkpt><trkpt lat="43.4189917" lon="11.8186333"><ele>247.0</ele><time>2026-05-02T10:32:30.532Z</time></trkpt><trkpt lat="43.4190233" lon="11.818735"><ele>246.5</ele><time>2026-05-02T10:32:31.534Z</time></trkpt><trkpt lat="43.4190567" lon="11.8188383"><ele>246.0</ele><time>2026-05-02T10:32:32.533Z</time></trkpt><trkpt lat="43.4190917" lon="11.81894"><ele>245.50000000000003</ele><time>2026-05-02T10:32:33.534Z</time></trkpt><trkpt lat="43.41913" lon="11.8190417"><ele>245.0</ele><time>2026-05-02T10:32:34.532Z</time></trkpt><trkpt lat="43.4191617" lon="11.819135"><ele>245.00000000000003</ele><time>2026-05-02T10:32:35.532Z</time></trkpt><trkpt lat="43.4192033" lon="11.8192217"><ele>245.0</ele><time>2026-05-02T10:32:36.534Z</time></trkpt><trkpt lat="43.4192467" lon="11.8192983"><ele>245.0</ele><time>2026-05-02T10:32:37.531Z</time></trkpt><trkpt lat="43.4193467" lon="11.81942"><ele>245.0</ele><time>2026-05-02T10:32:39.534Z</time></trkpt><trkpt lat="43.4194133" lon="11.819465"><ele>245.00000000000003</ele><time>2026-05-02T10:32:40.538Z</time></trkpt><trkpt lat="43.4194783" lon="11.8195017"><ele>245.0</ele><time>2026-05-02T10:32:41.533Z</time></trkpt><trkpt lat="43.4195483" lon="11.8195283"><ele>245.0</ele><time>2026-05-02T10:32:42.535Z</time></trkpt><trkpt lat="43.419615" lon="11.8195483"><ele>245.0</ele><time>2026-05-02T10:32:43.535Z</time></trkpt><trkpt lat="43.41968" lon="11.8195683"><ele>245.0</ele><time>2026-05-02T10:32:44.532Z</time></trkpt><trkpt lat="43.4197983" lon="11.8196117"><ele>245.0</ele><time>2026-05-02T10:32:46.536Z</time></trkpt><trkpt lat="43.419915" lon="11.8196383"><ele>245.0</ele><time>2026-05-02T10:32:48.533Z</time></trkpt><trkpt lat="43.4200317" lon="11.8196433"><ele>245.00000000000003</ele><time>2026-05-02T10:32:50.533Z</time></trkpt><trkpt lat="43.4201117" lon="11.8196483"><ele>245.0</ele><time>2026-05-02T10:32:52.534Z</time></trkpt><trkpt lat="43.4202333" lon="11.81971"><ele>245.0</ele><time>2026-05-02T10:33:23.533Z</time></trkpt><trkpt lat="43.4202933" lon="11.8196533"><ele>245.0</ele><time>2026-05-02T10:33:26.534Z</time></trkpt><trkpt lat="43.4203183" lon="11.8195467"><ele>245.00000000000003</ele><time>2026-05-02T10:33:29.532Z</time></trkpt><trkpt lat="43.42032" lon="11.81946"><ele>245.0</ele><time>2026-05-02T10:33:31.535Z</time></trkpt><trkpt lat="43.420325" lon="11.8193717"><ele>245.00000000000003</ele><time>2026-05-02T10:33:33.533Z</time></trkpt><trkpt lat="43.4203183" lon="11.8192783"><ele>245.0</ele><time>2026-05-02T10:33:35.534Z</time></trkpt><trkpt lat="43.42031" lon="11.819165"><ele>245.0</ele><time>2026-05-02T10:33:37.536Z</time></trkpt><trkpt lat="43.420305" lon="11.8190583"><ele>245.0</ele><time>2026-05-02T10:33:39.533Z</time></trkpt><trkpt lat="43.4203033" lon="11.8189533"><ele>245.00000000000003</ele><time>2026-05-02T10:33:41.534Z</time></trkpt><trkpt lat="43.4202967" lon="11.8188433"><ele>245.0</ele><time>2026-05-02T10:33:43.533Z</time></trkpt><trkpt lat="43.4202933" lon="11.8187283"><ele>245.0</ele><time>2026-05-02T10:33:45.533Z</time></trkpt><trkpt lat="43.4202883" lon="11.81861"><ele>245.0</ele><time>2026-05-02T10:33:47.531Z</time></trkpt><trkpt lat="43.4202783" lon="11.8184783"><ele>245.0</ele><time>2026-05-02T10:33:49.534Z</time></trkpt><trkpt lat="43.420275" lon="11.8183433"><ele>245.0</ele><time>2026-05-02T10:33:51.534Z</time></trkpt><trkpt lat="43.4202683" lon="11.8182133"><ele>245.0</ele><time>2026-05-02T10:33:53.533Z</time></trkpt><trkpt lat="43.4202667" lon="11.8180817"><ele>244.6</ele><time>2026-05-02T10:33:55.533Z</time></trkpt><trkpt lat="43.42026" lon="11.8179483"><ele>244.2</ele><time>2026-05-02T10:33:57.533Z</time></trkpt><trkpt lat="43.4202517" lon="11.8178217"><ele>243.8</ele><time>2026-05-02T10:33:59.534Z</time></trkpt><trkpt lat="43.420245" lon="11.81769"><ele>243.4</ele><time>2026-05-02T10:34:01.534Z</time></trkpt><trkpt lat="43.4202367" lon="11.8175517"><ele>243.0</ele><time>2026-05-02T10:34:03.534Z</time></trkpt><trkpt lat="43.4202267" lon="11.817405"><ele>242.8</ele><time>2026-05-02T10:34:05.529Z</time></trkpt><trkpt lat="43.42022" lon="11.8172533"><ele>242.60000000000002</ele><time>2026-05-02T10:34:07.533Z</time></trkpt><trkpt lat="43.4202117" lon="11.8171033"><ele>242.39999999999998</ele><time>2026-05-02T10:34:09.534Z</time></trkpt><trkpt lat="43.4202017" lon="11.8169567"><ele>242.2</ele><time>2026-05-02T10:34:11.531Z</time></trkpt><trkpt lat="43.420195" lon="11.81681"><ele>242.0</ele><time>2026-05-02T10:34:13.536Z</time></trkpt><trkpt lat="43.4201867" lon="11.8166717"><ele>242.0</ele><time>2026-05-02T10:34:15.534Z</time></trkpt><trkpt lat="43.42018" lon="11.8165383"><ele>242.0</ele><time>2026-05-02T10:34:17.541Z</time></trkpt><trkpt lat="43.4201767" lon="11.8164067"><ele>242.0</ele><time>2026-05-02T10:34:19.535Z</time></trkpt><trkpt lat="43.4201683" lon="11.8162817"><ele>242.0</ele><time>2026-05-02T10:34:21.532Z</time></trkpt><trkpt lat="43.4201617" lon="11.8161533"><ele>242.0</ele><time>2026-05-02T10:34:23.533Z</time></trkpt><trkpt lat="43.4201567" lon="11.81604"><ele>241.66666666666669</ele><time>2026-05-02T10:34:25.534Z</time></trkpt><trkpt lat="43.4201467" lon="11.8159267"><ele>241.33333333333334</ele><time>2026-05-02T10:34:27.533Z</time></trkpt><trkpt lat="43.420105" lon="11.8158383"><ele>241.0</ele><time>2026-05-02T10:34:29.532Z</time></trkpt><trkpt lat="43.4200383" lon="11.8158"><ele>240.66666666666669</ele><time>2026-05-02T10:34:31.535Z</time></trkpt><trkpt lat="43.41995" lon="11.8158"><ele>240.33333333333334</ele><time>2026-05-02T10:34:33.534Z</time></trkpt><trkpt lat="43.4198483" lon="11.8158067"><ele>240.0</ele><time>2026-05-02T10:34:35.534Z</time></trkpt><trkpt lat="43.41974" lon="11.8158117"><ele>240.4</ele><time>2026-05-02T10:34:37.532Z</time></trkpt><trkpt lat="43.419635" lon="11.8158133"><ele>240.8</ele><time>2026-05-02T10:34:39.533Z</time></trkpt><trkpt lat="43.4195167" lon="11.8158183"><ele>241.2</ele><time>2026-05-02T10:34:41.531Z</time></trkpt><trkpt lat="43.4194033" lon="11.81581"><ele>241.6</ele><time>2026-05-02T10:34:43.536Z</time></trkpt><trkpt lat="43.4193033" lon="11.815815"><ele>242.0</ele><time>2026-05-02T10:34:45.535Z</time></trkpt><trkpt lat="43.419205" lon="11.8158217"><ele>242.00000000000003</ele><time>2026-05-02T10:34:47.533Z</time></trkpt><trkpt lat="43.4191217" lon="11.8158217"><ele>242.0</ele><time>2026-05-02T10:34:49.536Z</time></trkpt><trkpt lat="43.4190383" lon="11.81582"><ele>242.0</ele><time>2026-05-02T10:34:51.532Z</time></trkpt><trkpt lat="43.418965" lon="11.8158367"><ele>242.0</ele><time>2026-05-02T10:34:53.535Z</time></trkpt><trkpt lat="43.4188817" lon="11.815845"><ele>242.00000000000003</ele><time>2026-05-02T10:34:55.533Z</time></trkpt><trkpt lat="43.4188033" lon="11.8158467"><ele>242.0</ele><time>2026-05-02T10:34:57.533Z</time></trkpt><trkpt lat="43.4187333" lon="11.8158467"><ele>242.00000000000003</ele><time>2026-05-02T10:34:59.533Z</time></trkpt><trkpt lat="43.4186583" lon="11.8158217"><ele>242.0</ele><time>2026-05-02T10:35:02.533Z</time></trkpt><trkpt lat="43.4186017" lon="11.8158683"><ele>242.0</ele><time>2026-05-02T10:35:06.531Z</time></trkpt><trkpt lat="43.4185233" lon="11.815825"><ele>242.0</ele><time>2026-05-02T10:35:38.533Z</time></trkpt><trkpt lat="43.4184783" lon="11.8157617"><ele>242.00000000000003</ele><time>2026-05-02T10:35:40.533Z</time></trkpt><trkpt lat="43.4184333" lon="11.81569"><ele>242.0</ele><time>2026-05-02T10:35:42.532Z</time></trkpt><trkpt lat="43.418375" lon="11.8155883"><ele>242.00000000000003</ele><time>2026-05-02T10:35:45.534Z</time></trkpt><trkpt lat="43.4183333" lon="11.8155217"><ele>242.0</ele><time>2026-05-02T10:35:47.533Z</time></trkpt><trkpt lat="43.4182833" lon="11.815415"><ele>242.0</ele><time>2026-05-02T10:35:50.535Z</time></trkpt><trkpt lat="43.4182283" lon="11.815315"><ele>242.0</ele><time>2026-05-02T10:35:53.533Z</time></trkpt><trkpt lat="43.4181717" lon="11.8152367"><ele>242.00000000000003</ele><time>2026-05-02T10:35:55.534Z</time></trkpt><trkpt lat="43.4181117" lon="11.8151367"><ele>242.0</ele><time>2026-05-02T10:35:57.534Z</time></trkpt><trkpt lat="43.418035" lon="11.8150717"><ele>241.83333333333334</ele><time>2026-05-02T10:35:59.532Z</time></trkpt><trkpt lat="43.4179417" lon="11.8150733"><ele>241.66666666666669</ele><time>2026-05-02T10:36:01.531Z</time></trkpt><trkpt lat="43.4178467" lon="11.8150833"><ele>241.5</ele><time>2026-05-02T10:36:03.533Z</time></trkpt><trkpt lat="43.4177567" lon="11.8151"><ele>241.33333333333331</ele><time>2026-05-02T10:36:05.535Z</time></trkpt><trkpt lat="43.4176767" lon="11.8151383"><ele>241.16666666666666</ele><time>2026-05-02T10:36:07.532Z</time></trkpt><trkpt lat="43.4175967" lon="11.81516"><ele>241.0</ele><time>2026-05-02T10:36:09.533Z</time></trkpt><trkpt lat="43.417515" lon="11.81516"><ele>240.99999999999997</ele><time>2026-05-02T10:36:11.534Z</time></trkpt><trkpt lat="43.4174433" lon="11.8151417"><ele>241.0</ele><time>2026-05-02T10:36:13.534Z</time></trkpt><trkpt lat="43.4173783" lon="11.8151567"><ele>241.0</ele><time>2026-05-02T10:36:15.533Z</time></trkpt><trkpt lat="43.4173017" lon="11.8151817"><ele>241.0</ele><time>2026-05-02T10:36:18.534Z</time></trkpt><trkpt lat="43.4172133" lon="11.815205"><ele>240.99999999999997</ele><time>2026-05-02T10:36:22.534Z</time></trkpt><trkpt lat="43.4171533" lon="11.8152533"><ele>241.0</ele><time>2026-05-02T10:36:24.536Z</time></trkpt><trkpt lat="43.4170883" lon="11.8153183"><ele>240.33333333333331</ele><time>2026-05-02T10:36:26.533Z</time></trkpt><trkpt lat="43.4170267" lon="11.8153633"><ele>239.66666666666666</ele><time>2026-05-02T10:36:28.534Z</time></trkpt><trkpt lat="43.4169433" lon="11.8153933"><ele>239.0</ele><time>2026-05-02T10:36:30.532Z</time></trkpt><trkpt lat="43.416855" lon="11.8153883"><ele>238.33333333333331</ele><time>2026-05-02T10:36:33.532Z</time></trkpt><trkpt lat="43.4167867" lon="11.8153767"><ele>237.66666666666666</ele><time>2026-05-02T10:36:35.532Z</time></trkpt><trkpt lat="43.4167167" lon="11.8153667"><ele>237.0</ele><time>2026-05-02T10:36:38.534Z</time></trkpt><trkpt lat="43.41664" lon="11.815375"><ele>236.99999999999997</ele><time>2026-05-02T10:36:42.534Z</time></trkpt><trkpt lat="43.416575" lon="11.8153817"><ele>237.0</ele><time>2026-05-02T10:36:46.531Z</time></trkpt><trkpt lat="43.41651" lon="11.8153583"><ele>236.99999999999997</ele><time>2026-05-02T10:36:52.534Z</time></trkpt><trkpt lat="43.4164333" lon="11.8153817"><ele>236.99999999999997</ele><time>2026-05-02T10:36:57.534Z</time></trkpt><trkpt lat="43.4163583" lon="11.8154117"><ele>237.0</ele><time>2026-05-02T10:37:01.531Z</time></trkpt><trkpt lat="43.416295" lon="11.8154467"><ele>236.99999999999997</ele><time>2026-05-02T10:37:04.532Z</time></trkpt><trkpt lat="43.4162183" lon="11.815465"><ele>236.99999999999997</ele><time>2026-05-02T10:37:07.531Z</time></trkpt><trkpt lat="43.4161483" lon="11.815485"><ele>237.2</ele><time>2026-05-02T10:37:09.533Z</time></trkpt><trkpt lat="43.4160683" lon="11.8155117"><ele>237.39999999999998</ele><time>2026-05-02T10:37:11.533Z</time></trkpt><trkpt lat="43.4159817" lon="11.8155317"><ele>237.60000000000002</ele><time>2026-05-02T10:37:13.533Z</time></trkpt><trkpt lat="43.4158933" lon="11.8155517"><ele>237.8</ele><time>2026-05-02T10:37:15.531Z</time></trkpt><trkpt lat="43.4157967" lon="11.8155717"><ele>238.0</ele><time>2026-05-02T10:37:17.533Z</time></trkpt><trkpt lat="43.4157" lon="11.8155883"><ele>238.0</ele><time>2026-05-02T10:37:19.534Z</time></trkpt><trkpt lat="43.415605" lon="11.815605"><ele>238.0</ele><time>2026-05-02T10:37:21.533Z</time></trkpt><trkpt lat="43.41551" lon="11.8156267"><ele>238.0</ele><time>2026-05-02T10:37:23.537Z</time></trkpt><trkpt lat="43.415415" lon="11.81565"><ele>238.0</ele><time>2026-05-02T10:37:25.532Z</time></trkpt><trkpt lat="43.4153133" lon="11.8156733"><ele>238.0</ele><time>2026-05-02T10:37:27.534Z</time></trkpt><trkpt lat="43.415215" lon="11.8157083"><ele>238.2</ele><time>2026-05-02T10:37:29.53Z</time></trkpt><trkpt lat="43.4151133" lon="11.8157417"><ele>238.4</ele><time>2026-05-02T10:37:31.533Z</time></trkpt><trkpt lat="43.4150117" lon="11.8157617"><ele>238.59999999999997</ele><time>2026-05-02T10:37:33.531Z</time></trkpt><trkpt lat="43.41491" lon="11.8157833"><ele>238.79999999999998</ele><time>2026-05-02T10:37:35.531Z</time></trkpt><trkpt lat="43.4148117" lon="11.8158167"><ele>239.0</ele><time>2026-05-02T10:37:37.535Z</time></trkpt><trkpt lat="43.4147067" lon="11.815835"><ele>238.79999999999998</ele><time>2026-05-02T10:37:39.535Z</time></trkpt><trkpt lat="43.414595" lon="11.8158483"><ele>238.59999999999997</ele><time>2026-05-02T10:37:41.533Z</time></trkpt><trkpt lat="43.4144867" lon="11.8158617"><ele>238.4</ele><time>2026-05-02T10:37:43.532Z</time></trkpt><trkpt lat="43.4143783" lon="11.8158817"><ele>238.2</ele><time>2026-05-02T10:37:45.533Z</time></trkpt><trkpt lat="43.4142633" lon="11.81591"><ele>238.0</ele><time>2026-05-02T10:37:47.535Z</time></trkpt><trkpt lat="43.4141483" lon="11.8159467"><ele>238.0</ele><time>2026-05-02T10:37:49.532Z</time></trkpt><trkpt lat="43.4140383" lon="11.81597"><ele>238.0</ele><time>2026-05-02T10:37:51.532Z</time></trkpt><trkpt lat="43.413935" lon="11.815995"><ele>238.0</ele><time>2026-05-02T10:37:53.532Z</time></trkpt><trkpt lat="43.4138283" lon="11.8160183"><ele>238.0</ele><time>2026-05-02T10:37:55.535Z</time></trkpt><trkpt lat="43.4137183" lon="11.816045"><ele>238.0</ele><time>2026-05-02T10:37:57.532Z</time></trkpt><trkpt lat="43.4136067" lon="11.8160717"><ele>237.4</ele><time>2026-05-02T10:37:59.534Z</time></trkpt><trkpt lat="43.4135" lon="11.816095"><ele>236.8</ele><time>2026-05-02T10:38:01.534Z</time></trkpt><trkpt lat="43.4134" lon="11.8161267"><ele>236.2</ele><time>2026-05-02T10:38:03.532Z</time></trkpt><trkpt lat="43.4132867" lon="11.816155"><ele>235.6</ele><time>2026-05-02T10:38:05.536Z</time></trkpt><trkpt lat="43.4131767" lon="11.8161783"><ele>235.0</ele><time>2026-05-02T10:38:07.536Z</time></trkpt><trkpt lat="43.413065" lon="11.8162117"><ele>235.2</ele><time>2026-05-02T10:38:09.534Z</time></trkpt><trkpt lat="43.4129533" lon="11.816235"><ele>235.4</ele><time>2026-05-02T10:38:11.533Z</time></trkpt><trkpt lat="43.41285" lon="11.8162483"><ele>235.60000000000002</ele><time>2026-05-02T10:38:13.532Z</time></trkpt><trkpt lat="43.4127517" lon="11.8162633"><ele>235.8</ele><time>2026-05-02T10:38:15.532Z</time></trkpt><trkpt lat="43.412645" lon="11.8162817"><ele>236.0</ele><time>2026-05-02T10:38:17.531Z</time></trkpt><trkpt lat="43.4125383" lon="11.8163083"><ele>236.0</ele><time>2026-05-02T10:38:19.535Z</time></trkpt><trkpt lat="43.4124383" lon="11.8163333"><ele>236.00000000000003</ele><time>2026-05-02T10:38:21.533Z</time></trkpt><trkpt lat="43.4123367" lon="11.81636"><ele>236.00000000000003</ele><time>2026-05-02T10:38:23.533Z</time></trkpt><trkpt lat="43.4122417" lon="11.81638"><ele>236.0</ele><time>2026-05-02T10:38:25.535Z</time></trkpt><trkpt lat="43.4121333" lon="11.8163967"><ele>236.0</ele><time>2026-05-02T10:38:27.532Z</time></trkpt><trkpt lat="43.4120283" lon="11.8164033"><ele>236.60000000000002</ele><time>2026-05-02T10:38:29.532Z</time></trkpt><trkpt lat="43.4119217" lon="11.8164167"><ele>237.20000000000002</ele><time>2026-05-02T10:38:31.537Z</time></trkpt><trkpt lat="43.4118167" lon="11.8164283"><ele>237.79999999999998</ele><time>2026-05-02T10:38:33.533Z</time></trkpt><trkpt lat="43.4117067" lon="11.8164283"><ele>238.39999999999998</ele><time>2026-05-02T10:38:35.532Z</time></trkpt><trkpt lat="43.4115967" lon="11.8164267"><ele>239.0</ele><time>2026-05-02T10:38:37.533Z</time></trkpt><trkpt lat="43.411495" lon="11.8164183"><ele>239.0</ele><time>2026-05-02T10:38:39.534Z</time></trkpt><trkpt lat="43.4113933" lon="11.816425"><ele>238.99999999999997</ele><time>2026-05-02T10:38:41.534Z</time></trkpt><trkpt lat="43.4112883" lon="11.81643"><ele>238.99999999999997</ele><time>2026-05-02T10:38:43.534Z</time></trkpt><trkpt lat="43.4111783" lon="11.8164317"><ele>239.0</ele><time>2026-05-02T10:38:45.533Z</time></trkpt><trkpt lat="43.4110567" lon="11.81644"><ele>239.0</ele><time>2026-05-02T10:38:47.535Z</time></trkpt><trkpt lat="43.4109933" lon="11.8164417"><ele>239.79999999999998</ele><time>2026-05-02T10:38:48.537Z</time></trkpt><trkpt lat="43.41093" lon="11.8164467"><ele>240.59999999999997</ele><time>2026-05-02T10:38:49.532Z</time></trkpt><trkpt lat="43.41086" lon="11.8164517"><ele>241.4</ele><time>2026-05-02T10:38:50.531Z</time></trkpt><trkpt lat="43.410745" lon="11.8164617"><ele>242.2</ele><time>2026-05-02T10:38:52.533Z</time></trkpt><trkpt lat="43.4106367" lon="11.8164667"><ele>243.0</ele><time>2026-05-02T10:38:54.534Z</time></trkpt><trkpt lat="43.4105267" lon="11.8164767"><ele>243.0</ele><time>2026-05-02T10:38:56.535Z</time></trkpt><trkpt lat="43.4104117" lon="11.8164817"><ele>243.0</ele><time>2026-05-02T10:38:58.531Z</time></trkpt><trkpt lat="43.410295" lon="11.8165"><ele>243.0</ele><time>2026-05-02T10:39:00.533Z</time></trkpt><trkpt lat="43.4101867" lon="11.8165183"><ele>243.0</ele><time>2026-05-02T10:39:02.532Z</time></trkpt><trkpt lat="43.4100833" lon="11.8165383"><ele>243.0</ele><time>2026-05-02T10:39:04.531Z</time></trkpt><trkpt lat="43.4099867" lon="11.816545"><ele>243.0</ele><time>2026-05-02T10:39:06.534Z</time></trkpt><trkpt lat="43.4098917" lon="11.8165467"><ele>243.0</ele><time>2026-05-02T10:39:08.532Z</time></trkpt><trkpt lat="43.409795" lon="11.8165517"><ele>243.0</ele><time>2026-05-02T10:39:10.531Z</time></trkpt><trkpt lat="43.4096967" lon="11.8165583"><ele>243.0</ele><time>2026-05-02T10:39:12.534Z</time></trkpt><trkpt lat="43.4096" lon="11.81657"><ele>243.0</ele><time>2026-05-02T10:39:14.532Z</time></trkpt><trkpt lat="43.4094983" lon="11.8165783"><ele>242.8</ele><time>2026-05-02T10:39:16.529Z</time></trkpt><trkpt lat="43.4094" lon="11.8165933"><ele>242.60000000000002</ele><time>2026-05-02T10:39:18.534Z</time></trkpt><trkpt lat="43.4093033" lon="11.8165983"><ele>242.39999999999998</ele><time>2026-05-02T10:39:20.536Z</time></trkpt><trkpt lat="43.4092" lon="11.8165983"><ele>242.2</ele><time>2026-05-02T10:39:22.532Z</time></trkpt><trkpt lat="43.4091033" lon="11.8166067"><ele>242.0</ele><time>2026-05-02T10:39:24.533Z</time></trkpt><trkpt lat="43.40901" lon="11.8166133"><ele>242.0</ele><time>2026-05-02T10:39:26.538Z</time></trkpt><trkpt lat="43.4089267" lon="11.8166183"><ele>242.0</ele><time>2026-05-02T10:39:28.532Z</time></trkpt><trkpt lat="43.4088417" lon="11.8166267"><ele>242.0</ele><time>2026-05-02T10:39:30.535Z</time></trkpt><trkpt lat="43.4087483" lon="11.816635"><ele>242.0</ele><time>2026-05-02T10:39:32.534Z</time></trkpt><trkpt lat="43.4086533" lon="11.8166433"><ele>242.0</ele><time>2026-05-02T10:39:34.534Z</time></trkpt><trkpt lat="43.4085533" lon="11.8166533"><ele>242.0</ele><time>2026-05-02T10:39:36.534Z</time></trkpt><trkpt lat="43.40846" lon="11.816655"><ele>242.0</ele><time>2026-05-02T10:39:38.533Z</time></trkpt><trkpt lat="43.40837" lon="11.8166583"><ele>242.0</ele><time>2026-05-02T10:39:40.532Z</time></trkpt><trkpt lat="43.4082717" lon="11.81667"><ele>242.0</ele><time>2026-05-02T10:39:42.532Z</time></trkpt><trkpt lat="43.4081667" lon="11.8166767"><ele>242.0</ele><time>2026-05-02T10:39:44.534Z</time></trkpt><trkpt lat="43.408065" lon="11.8166867"><ele>242.16666666666669</ele><time>2026-05-02T10:39:46.534Z</time></trkpt><trkpt lat="43.407975" lon="11.8166917"><ele>242.33333333333334</ele><time>2026-05-02T10:39:48.532Z</time></trkpt><trkpt lat="43.40789" lon="11.8166983"><ele>242.5</ele><time>2026-05-02T10:39:50.533Z</time></trkpt><trkpt lat="43.4077983" lon="11.816705"><ele>242.66666666666669</ele><time>2026-05-02T10:39:52.534Z</time></trkpt><trkpt lat="43.4077117" lon="11.8167117"><ele>242.83333333333334</ele><time>2026-05-02T10:39:54.534Z</time></trkpt><trkpt lat="43.407625" lon="11.8167183"><ele>243.0</ele><time>2026-05-02T10:39:56.535Z</time></trkpt><trkpt lat="43.40753" lon="11.8167217"><ele>243.0</ele><time>2026-05-02T10:39:58.534Z</time></trkpt><trkpt lat="43.4074367" lon="11.816725"><ele>243.0</ele><time>2026-05-02T10:40:00.539Z</time></trkpt><trkpt lat="43.4073383" lon="11.8167383"><ele>243.0</ele><time>2026-05-02T10:40:02.532Z</time></trkpt><trkpt lat="43.4072433" lon="11.81674"><ele>243.0</ele><time>2026-05-02T10:40:04.533Z</time></trkpt><trkpt lat="43.407155" lon="11.8167467"><ele>243.0</ele><time>2026-05-02T10:40:06.537Z</time></trkpt><trkpt lat="43.4070767" lon="11.8167633"><ele>243.0</ele><time>2026-05-02T10:40:08.532Z</time></trkpt><trkpt lat="43.40699" lon="11.8167717"><ele>243.0</ele><time>2026-05-02T10:40:10.534Z</time></trkpt><trkpt lat="43.4068983" lon="11.8167817"><ele>243.0</ele><time>2026-05-02T10:40:12.531Z</time></trkpt><trkpt lat="43.406805" lon="11.81679"><ele>243.0</ele><time>2026-05-02T10:40:14.533Z</time></trkpt><trkpt lat="43.4067117" lon="11.8167967"><ele>243.0</ele><time>2026-05-02T10:40:16.528Z</time></trkpt><trkpt lat="43.40663" lon="11.81679"><ele>243.0</ele><time>2026-05-02T10:40:18.533Z</time></trkpt><trkpt lat="43.40653" lon="11.816805"><ele>243.0</ele><time>2026-05-02T10:40:20.536Z</time></trkpt><trkpt lat="43.4064283" lon="11.816805"><ele>243.0</ele><time>2026-05-02T10:40:22.53Z</time></trkpt><trkpt lat="43.406325" lon="11.8168133"><ele>243.0</ele><time>2026-05-02T10:40:24.531Z</time></trkpt><trkpt lat="43.4062283" lon="11.81682"><ele>243.0</ele><time>2026-05-02T10:40:26.53Z</time></trkpt><trkpt lat="43.406135" lon="11.8168217"><ele>243.0</ele><time>2026-05-02T10:40:28.534Z</time></trkpt><trkpt lat="43.4060467" lon="11.816805"><ele>242.83333333333334</ele><time>2026-05-02T10:40:30.535Z</time></trkpt><trkpt lat="43.4059633" lon="11.816795"><ele>242.66666666666669</ele><time>2026-05-02T10:40:32.537Z</time></trkpt><trkpt lat="43.4058833" lon="11.8167767"><ele>242.5</ele><time>2026-05-02T10:40:34.531Z</time></trkpt><trkpt lat="43.4058067" lon="11.81675"><ele>242.33333333333334</ele><time>2026-05-02T10:40:36.535Z</time></trkpt><trkpt lat="43.40572" lon="11.8167517"><ele>242.16666666666669</ele><time>2026-05-02T10:40:38.533Z</time></trkpt><trkpt lat="43.4056317" lon="11.81674"><ele>242.0</ele><time>2026-05-02T10:40:40.533Z</time></trkpt><trkpt lat="43.4055383" lon="11.8167183"><ele>242.00000000000003</ele><time>2026-05-02T10:40:42.536Z</time></trkpt><trkpt lat="43.4054433" lon="11.8167"><ele>242.0</ele><time>2026-05-02T10:40:44.533Z</time></trkpt><trkpt lat="43.4053533" lon="11.8166833"><ele>242.0</ele><time>2026-05-02T10:40:46.535Z</time></trkpt><trkpt lat="43.405275" lon="11.81667"><ele>242.0</ele><time>2026-05-02T10:40:48.532Z</time></trkpt><trkpt lat="43.4051967" lon="11.8166533"><ele>242.00000000000003</ele><time>2026-05-02T10:40:50.535Z</time></trkpt><trkpt lat="43.405115" lon="11.81664"><ele>242.0</ele><time>2026-05-02T10:40:52.534Z</time></trkpt><trkpt lat="43.4050317" lon="11.8166233"><ele>242.00000000000003</ele><time>2026-05-02T10:40:54.534Z</time></trkpt><trkpt lat="43.40495" lon="11.8166133"><ele>242.0</ele><time>2026-05-02T10:40:56.536Z</time></trkpt><trkpt lat="43.4048783" lon="11.8165967"><ele>242.0</ele><time>2026-05-02T10:40:58.534Z</time></trkpt><trkpt lat="43.4048083" lon="11.816575"><ele>242.0</ele><time>2026-05-02T10:41:00.539Z</time></trkpt><trkpt lat="43.4047383" lon="11.8165567"><ele>242.00000000000003</ele><time>2026-05-02T10:41:02.535Z</time></trkpt><trkpt lat="43.40465" lon="11.81654"><ele>242.0</ele><time>2026-05-02T10:41:05.534Z</time></trkpt><trkpt lat="43.4045617" lon="11.8165233"><ele>242.00000000000003</ele><time>2026-05-02T10:41:08.533Z</time></trkpt><trkpt lat="43.4044967" lon="11.816515"><ele>242.0</ele><time>2026-05-02T10:41:10.53Z</time></trkpt><trkpt lat="43.404425" lon="11.8165017"><ele>242.0</ele><time>2026-05-02T10:41:12.532Z</time></trkpt><trkpt lat="43.4043517" lon="11.8164867"><ele>242.0</ele><time>2026-05-02T10:41:14.537Z</time></trkpt><trkpt lat="43.4042733" lon="11.8164733"><ele>242.00000000000003</ele><time>2026-05-02T10:41:16.535Z</time></trkpt><trkpt lat="43.4041967" lon="11.8164583"><ele>242.0</ele><time>2026-05-02T10:41:18.536Z</time></trkpt><trkpt lat="43.404115" lon="11.8164333"><ele>242.00000000000003</ele><time>2026-05-02T10:41:20.532Z</time></trkpt><trkpt lat="43.4040367" lon="11.8164167"><ele>242.0</ele><time>2026-05-02T10:41:22.533Z</time></trkpt><trkpt lat="43.4039567" lon="11.8164033"><ele>242.0</ele><time>2026-05-02T10:41:24.534Z</time></trkpt><trkpt lat="43.4038767" lon="11.8163917"><ele>242.0</ele><time>2026-05-02T10:41:26.541Z</time></trkpt><trkpt lat="43.4038033" lon="11.8163817"><ele>242.00000000000003</ele><time>2026-05-02T10:41:28.532Z</time></trkpt><trkpt lat="43.40373" lon="11.8163783"><ele>242.0</ele><time>2026-05-02T10:41:30.534Z</time></trkpt><trkpt lat="43.4036517" lon="11.8163717"><ele>241.83333333333334</ele><time>2026-05-02T10:41:32.533Z</time></trkpt><trkpt lat="43.4035783" lon="11.8163583"><ele>241.66666666666669</ele><time>2026-05-02T10:41:34.534Z</time></trkpt><trkpt lat="43.4035133" lon="11.8163433"><ele>241.5</ele><time>2026-05-02T10:41:36.535Z</time></trkpt><trkpt lat="43.4034283" lon="11.8163267"><ele>241.33333333333331</ele><time>2026-05-02T10:41:39.533Z</time></trkpt><trkpt lat="43.4033333" lon="11.8163183"><ele>241.16666666666666</ele><time>2026-05-02T10:41:42.533Z</time></trkpt><trkpt lat="43.4032667" lon="11.8163083"><ele>241.0</ele><time>2026-05-02T10:41:44.536Z</time></trkpt><trkpt lat="43.4032" lon="11.8163017"><ele>241.0</ele><time>2026-05-02T10:41:46.536Z</time></trkpt><trkpt lat="43.4031317" lon="11.816285"><ele>241.00000000000003</ele><time>2026-05-02T10:41:48.534Z</time></trkpt><trkpt lat="43.403065" lon="11.8162683"><ele>241.0</ele><time>2026-05-02T10:41:50.534Z</time></trkpt><trkpt lat="43.403" lon="11.8162517"><ele>241.0</ele><time>2026-05-02T10:41:52.534Z</time></trkpt><trkpt lat="43.4029333" lon="11.8162383"><ele>241.00000000000003</ele><time>2026-05-02T10:41:54.537Z</time></trkpt><trkpt lat="43.4028667" lon="11.8162233"><ele>241.0</ele><time>2026-05-02T10:41:56.533Z</time></trkpt><trkpt lat="43.4028033" lon="11.8162083"><ele>241.0</ele><time>2026-05-02T10:41:58.533Z</time></trkpt><trkpt lat="43.4027367" lon="11.8161933"><ele>241.14285714285717</ele><time>2026-05-02T10:42:00.537Z</time></trkpt><trkpt lat="43.4026733" lon="11.816175"><ele>241.2857142857143</ele><time>2026-05-02T10:42:02.532Z</time></trkpt><trkpt lat="43.402605" lon="11.8161717"><ele>241.42857142857144</ele><time>2026-05-02T10:42:04.533Z</time></trkpt><trkpt lat="43.4025383" lon="11.8161667"><ele>241.57142857142856</ele><time>2026-05-02T10:42:06.533Z</time></trkpt><trkpt lat="43.4024667" lon="11.8161583"><ele>241.7142857142857</ele><time>2026-05-02T10:42:08.533Z</time></trkpt><trkpt lat="43.4023983" lon="11.8161433"><ele>241.85714285714283</ele><time>2026-05-02T10:42:10.533Z</time></trkpt><trkpt lat="43.402305" lon="11.816135"><ele>242.0</ele><time>2026-05-02T10:42:13.536Z</time></trkpt><trkpt lat="43.4022417" lon="11.8161433"><ele>242.16666666666669</ele><time>2026-05-02T10:42:15.532Z</time></trkpt><trkpt lat="43.4021483" lon="11.8161517"><ele>242.33333333333334</ele><time>2026-05-02T10:42:18.534Z</time></trkpt><trkpt lat="43.4020817" lon="11.816145"><ele>242.5</ele><time>2026-05-02T10:42:20.535Z</time></trkpt><trkpt lat="43.4020133" lon="11.8161317"><ele>242.66666666666669</ele><time>2026-05-02T10:42:22.533Z</time></trkpt><trkpt lat="43.40195" lon="11.81612"><ele>242.83333333333334</ele><time>2026-05-02T10:42:24.536Z</time></trkpt><trkpt lat="43.40186" lon="11.8161117"><ele>243.0</ele><time>2026-05-02T10:42:27.534Z</time></trkpt><trkpt lat="43.4017667" lon="11.8161117"><ele>243.0</ele><time>2026-05-02T10:42:30.534Z</time></trkpt><trkpt lat="43.4016983" lon="11.8161033"><ele>243.0</ele><time>2026-05-02T10:42:32.533Z</time></trkpt><trkpt lat="43.4016317" lon="11.816095"><ele>243.0</ele><time>2026-05-02T10:42:34.535Z</time></trkpt><trkpt lat="43.4015383" lon="11.816085"><ele>243.0</ele><time>2026-05-02T10:42:37.535Z</time></trkpt><trkpt lat="43.4014733" lon="11.816065"><ele>243.0</ele><time>2026-05-02T10:42:39.534Z</time></trkpt><trkpt lat="43.4013867" lon="11.8160367"><ele>243.0</ele><time>2026-05-02T10:42:42.535Z</time></trkpt><trkpt lat="43.4012933" lon="11.8160233"><ele>243.0</ele><time>2026-05-02T10:42:45.533Z</time></trkpt><trkpt lat="43.4011967" lon="11.816005"><ele>243.0</ele><time>2026-05-02T10:42:48.536Z</time></trkpt><trkpt lat="43.4011033" lon="11.8159867"><ele>243.0</ele><time>2026-05-02T10:42:51.533Z</time></trkpt><trkpt lat="43.4010167" lon="11.8159767"><ele>243.0</ele><time>2026-05-02T10:42:54.537Z</time></trkpt><trkpt lat="43.4009533" lon="11.8159633"><ele>243.0</ele><time>2026-05-02T10:42:56.535Z</time></trkpt><trkpt lat="43.400885" lon="11.8159533"><ele>243.0</ele><time>2026-05-02T10:42:58.534Z</time></trkpt><trkpt lat="43.40082" lon="11.815945"><ele>243.0</ele><time>2026-05-02T10:43:00.534Z</time></trkpt><trkpt lat="43.400725" lon="11.8159317"><ele>243.0</ele><time>2026-05-02T10:43:03.535Z</time></trkpt><trkpt lat="43.4006583" lon="11.8159217"><ele>243.0</ele><time>2026-05-02T10:43:05.534Z</time></trkpt><trkpt lat="43.4005917" lon="11.815905"><ele>243.0</ele><time>2026-05-02T10:43:07.536Z</time></trkpt><trkpt lat="43.4005217" lon="11.8158933"><ele>243.0</ele><time>2026-05-02T10:43:09.534Z</time></trkpt><trkpt lat="43.4004483" lon="11.815885"><ele>243.0</ele><time>2026-05-02T10:43:11.537Z</time></trkpt><trkpt lat="43.4003733" lon="11.8158733"><ele>243.0</ele><time>2026-05-02T10:43:13.532Z</time></trkpt><trkpt lat="43.4002967" lon="11.81586"><ele>243.0</ele><time>2026-05-02T10:43:15.531Z</time></trkpt><trkpt lat="43.400225" lon="11.8158533"><ele>243.0</ele><time>2026-05-02T10:43:17.534Z</time></trkpt><trkpt lat="43.40016" lon="11.81584"><ele>243.0</ele><time>2026-05-02T10:43:19.534Z</time></trkpt><trkpt lat="43.4000933" lon="11.8158283"><ele>243.0</ele><time>2026-05-02T10:43:21.532Z</time></trkpt><trkpt lat="43.4000267" lon="11.8158283"><ele>243.0</ele><time>2026-05-02T10:43:23.531Z</time></trkpt><trkpt lat="43.3999567" lon="11.815825"><ele>243.0</ele><time>2026-05-02T10:43:25.533Z</time></trkpt><trkpt lat="43.39988" lon="11.8158217"><ele>243.0</ele><time>2026-05-02T10:43:27.533Z</time></trkpt><trkpt lat="43.3998033" lon="11.8158133"><ele>243.0</ele><time>2026-05-02T10:43:29.533Z</time></trkpt><trkpt lat="43.3997267" lon="11.8158033"><ele>243.0</ele><time>2026-05-02T10:43:31.534Z</time></trkpt><trkpt lat="43.3996533" lon="11.815795"><ele>243.0</ele><time>2026-05-02T10:43:33.532Z</time></trkpt><trkpt lat="43.399575" lon="11.8157883"><ele>243.0</ele><time>2026-05-02T10:43:35.532Z</time></trkpt><trkpt lat="43.3994917" lon="11.815785"><ele>243.0</ele><time>2026-05-02T10:43:37.533Z</time></trkpt><trkpt lat="43.3994083" lon="11.8157783"><ele>243.0</ele><time>2026-05-02T10:43:39.533Z</time></trkpt><trkpt lat="43.3993183" lon="11.8157767"><ele>243.0</ele><time>2026-05-02T10:43:41.533Z</time></trkpt><trkpt lat="43.3992317" lon="11.8157667"><ele>243.0</ele><time>2026-05-02T10:43:43.533Z</time></trkpt><trkpt lat="43.3991467" lon="11.815765"><ele>243.0</ele><time>2026-05-02T10:43:45.535Z</time></trkpt><trkpt lat="43.399065" lon="11.81576"><ele>243.0</ele><time>2026-05-02T10:43:47.535Z</time></trkpt><trkpt lat="43.3989883" lon="11.81575"><ele>243.0</ele><time>2026-05-02T10:43:49.533Z</time></trkpt><trkpt lat="43.398905" lon="11.8157417"><ele>242.8</ele><time>2026-05-02T10:43:51.533Z</time></trkpt><trkpt lat="43.3988133" lon="11.81573"><ele>242.60000000000002</ele><time>2026-05-02T10:43:53.532Z</time></trkpt><trkpt lat="43.398715" lon="11.8157167"><ele>242.39999999999998</ele><time>2026-05-02T10:43:55.535Z</time></trkpt><trkpt lat="43.3986117" lon="11.815705"><ele>242.2</ele><time>2026-05-02T10:43:57.535Z</time></trkpt><trkpt lat="43.3985083" lon="11.8156933"><ele>242.0</ele><time>2026-05-02T10:43:59.536Z</time></trkpt><trkpt lat="43.39841" lon="11.8156833"><ele>242.0</ele><time>2026-05-02T10:44:01.534Z</time></trkpt><trkpt lat="43.3983117" lon="11.81568"><ele>242.0</ele><time>2026-05-02T10:44:03.534Z</time></trkpt><trkpt lat="43.3982183" lon="11.81567"><ele>242.0</ele><time>2026-05-02T10:44:05.533Z</time></trkpt><trkpt lat="43.3981283" lon="11.8156633"><ele>242.0</ele><time>2026-05-02T10:44:07.533Z</time></trkpt><trkpt lat="43.3980483" lon="11.8156367"><ele>242.0</ele><time>2026-05-02T10:44:09.537Z</time></trkpt><trkpt lat="43.39796" lon="11.8156233"><ele>241.8</ele><time>2026-05-02T10:44:11.538Z</time></trkpt><trkpt lat="43.3978767" lon="11.8156083"><ele>241.6</ele><time>2026-05-02T10:44:13.536Z</time></trkpt><trkpt lat="43.3977883" lon="11.815595"><ele>241.40000000000003</ele><time>2026-05-02T10:44:15.533Z</time></trkpt><trkpt lat="43.3976933" lon="11.8155783"><ele>241.20000000000002</ele><time>2026-05-02T10:44:17.534Z</time></trkpt><trkpt lat="43.3975967" lon="11.8155617"><ele>241.0</ele><time>2026-05-02T10:44:19.53Z</time></trkpt><trkpt lat="43.3975017" lon="11.8155467"><ele>241.0</ele><time>2026-05-02T10:44:21.531Z</time></trkpt><trkpt lat="43.3974033" lon="11.8155367"><ele>241.00000000000003</ele><time>2026-05-02T10:44:23.532Z</time></trkpt><trkpt lat="43.3973017" lon="11.81552"><ele>241.00000000000003</ele><time>2026-05-02T10:44:25.533Z</time></trkpt><trkpt lat="43.3972033" lon="11.81551"><ele>241.0</ele><time>2026-05-02T10:44:27.534Z</time></trkpt><trkpt lat="43.3971083" lon="11.8154983"><ele>241.0</ele><time>2026-05-02T10:44:29.533Z</time></trkpt><trkpt lat="43.397015" lon="11.8154883"><ele>241.20000000000002</ele><time>2026-05-02T10:44:31.537Z</time></trkpt><trkpt lat="43.39693" lon="11.81549"><ele>241.40000000000003</ele><time>2026-05-02T10:44:33.534Z</time></trkpt><trkpt lat="43.3968367" lon="11.8154833"><ele>241.6</ele><time>2026-05-02T10:44:35.534Z</time></trkpt><trkpt lat="43.39674" lon="11.8154783"><ele>241.8</ele><time>2026-05-02T10:44:37.534Z</time></trkpt><trkpt lat="43.39664" lon="11.8154733"><ele>242.0</ele><time>2026-05-02T10:44:39.533Z</time></trkpt><trkpt lat="43.3965383" lon="11.815465"><ele>242.0</ele><time>2026-05-02T10:44:41.531Z</time></trkpt><trkpt lat="43.3964367" lon="11.815455"><ele>242.0</ele><time>2026-05-02T10:44:43.538Z</time></trkpt><trkpt lat="43.3962867" lon="11.8154383"><ele>242.0</ele><time>2026-05-02T10:44:46.534Z</time></trkpt><trkpt lat="43.3961883" lon="11.8154283"><ele>242.0</ele><time>2026-05-02T10:44:48.534Z</time></trkpt><trkpt lat="43.3960867" lon="11.8154267"><ele>242.2</ele><time>2026-05-02T10:44:50.535Z</time></trkpt><trkpt lat="43.395985" lon="11.8154217"><ele>242.39999999999998</ele><time>2026-05-02T10:44:52.532Z</time></trkpt><trkpt lat="43.3958883" lon="11.8154067"><ele>242.60000000000002</ele><time>2026-05-02T10:44:54.533Z</time></trkpt><trkpt lat="43.3957933" lon="11.8153867"><ele>242.8</ele><time>2026-05-02T10:44:56.535Z</time></trkpt><trkpt lat="43.3957" lon="11.8153767"><ele>243.0</ele><time>2026-05-02T10:44:58.534Z</time></trkpt><trkpt lat="43.39561" lon="11.8153617"><ele>243.0</ele><time>2026-05-02T10:45:00.535Z</time></trkpt><trkpt lat="43.3955217" lon="11.8153483"><ele>243.0</ele><time>2026-05-02T10:45:02.533Z</time></trkpt><trkpt lat="43.39544" lon="11.8153367"><ele>243.0</ele><time>2026-05-02T10:45:04.534Z</time></trkpt><trkpt lat="43.395355" lon="11.8153267"><ele>243.0</ele><time>2026-05-02T10:45:06.533Z</time></trkpt><trkpt lat="43.395265" lon="11.8153233"><ele>243.0</ele><time>2026-05-02T10:45:08.535Z</time></trkpt><trkpt lat="43.3951717" lon="11.81531"><ele>243.0</ele><time>2026-05-02T10:45:10.532Z</time></trkpt><trkpt lat="43.3950867" lon="11.8152933"><ele>243.16666666666666</ele><time>2026-05-02T10:45:12.533Z</time></trkpt><trkpt lat="43.3950017" lon="11.8152783"><ele>243.33333333333331</ele><time>2026-05-02T10:45:14.534Z</time></trkpt><trkpt lat="43.39492" lon="11.8152667"><ele>243.5</ele><time>2026-05-02T10:45:16.531Z</time></trkpt><trkpt lat="43.3948333" lon="11.815225"><ele>243.66666666666666</ele><time>2026-05-02T10:45:18.534Z</time></trkpt><trkpt lat="43.3947567" lon="11.8151533"><ele>243.83333333333331</ele><time>2026-05-02T10:45:20.534Z</time></trkpt><trkpt lat="43.3946767" lon="11.8150867"><ele>244.0</ele><time>2026-05-02T10:45:22.53Z</time></trkpt><trkpt lat="43.3945883" lon="11.81503"><ele>244.0</ele><time>2026-05-02T10:45:24.533Z</time></trkpt><trkpt lat="43.3944983" lon="11.81497"><ele>243.99999999999997</ele><time>2026-05-02T10:45:26.535Z</time></trkpt><trkpt lat="43.3944067" lon="11.814905"><ele>243.99999999999997</ele><time>2026-05-02T10:45:28.531Z</time></trkpt><trkpt lat="43.3943033" lon="11.81484"><ele>244.0</ele><time>2026-05-02T10:45:30.535Z</time></trkpt><trkpt lat="43.3942033" lon="11.8147767"><ele>244.0</ele><time>2026-05-02T10:45:32.534Z</time></trkpt><trkpt lat="43.3941067" lon="11.8147167"><ele>244.0</ele><time>2026-05-02T10:45:34.534Z</time></trkpt><trkpt lat="43.394015" lon="11.814655"><ele>243.99999999999997</ele><time>2026-05-02T10:45:36.533Z</time></trkpt><trkpt lat="43.3939233" lon="11.8145933"><ele>243.99999999999997</ele><time>2026-05-02T10:45:38.531Z</time></trkpt><trkpt lat="43.3938267" lon="11.8145333"><ele>244.0</ele><time>2026-05-02T10:45:40.534Z</time></trkpt><trkpt lat="43.3937317" lon="11.8144717"><ele>244.0</ele><time>2026-05-02T10:45:42.53Z</time></trkpt><trkpt lat="43.39363" lon="11.8144117"><ele>244.2</ele><time>2026-05-02T10:45:44.531Z</time></trkpt><trkpt lat="43.3935333" lon="11.8143567"><ele>244.39999999999998</ele><time>2026-05-02T10:45:46.533Z</time></trkpt><trkpt lat="43.393435" lon="11.814295"><ele>244.6</ele><time>2026-05-02T10:45:48.534Z</time></trkpt><trkpt lat="43.3933367" lon="11.8142333"><ele>244.8</ele><time>2026-05-02T10:45:50.533Z</time></trkpt><trkpt lat="43.393235" lon="11.8141683"><ele>245.0</ele><time>2026-05-02T10:45:52.534Z</time></trkpt><trkpt lat="43.3931367" lon="11.8141117"><ele>245.0</ele><time>2026-05-02T10:45:54.531Z</time></trkpt><trkpt lat="43.3930383" lon="11.8140467"><ele>245.0</ele><time>2026-05-02T10:45:56.537Z</time></trkpt><trkpt lat="43.3929367" lon="11.8139817"><ele>245.0</ele><time>2026-05-02T10:45:58.534Z</time></trkpt><trkpt lat="43.3928367" lon="11.8139233"><ele>245.0</ele><time>2026-05-02T10:46:00.534Z</time></trkpt><trkpt lat="43.3927383" lon="11.8138617"><ele>245.0</ele><time>2026-05-02T10:46:02.534Z</time></trkpt><trkpt lat="43.3926467" lon="11.813805"><ele>245.16666666666669</ele><time>2026-05-02T10:46:04.532Z</time></trkpt><trkpt lat="43.3925517" lon="11.81375"><ele>245.33333333333334</ele><time>2026-05-02T10:46:06.536Z</time></trkpt><trkpt lat="43.3924683" lon="11.813705"><ele>245.5</ele><time>2026-05-02T10:46:08.532Z</time></trkpt><trkpt lat="43.3923917" lon="11.8136933"><ele>245.66666666666669</ele><time>2026-05-02T10:46:10.531Z</time></trkpt><trkpt lat="43.3924583" lon="11.8137483"><ele>245.83333333333334</ele><time>2026-05-02T10:46:17.537Z</time></trkpt><trkpt lat="43.3925233" lon="11.81377"><ele>246.0</ele><time>2026-05-02T10:46:19.534Z</time></trkpt><trkpt lat="43.3925967" lon="11.8137617"><ele>246.0</ele><time>2026-05-02T10:46:21.53Z</time></trkpt><trkpt lat="43.392655" lon="11.81369"><ele>246.0</ele><time>2026-05-02T10:46:23.534Z</time></trkpt><trkpt lat="43.3926467" lon="11.81358"><ele>246.0</ele><time>2026-05-02T10:46:25.533Z</time></trkpt><trkpt lat="43.39263" lon="11.81346"><ele>246.0</ele><time>2026-05-02T10:46:27.534Z</time></trkpt><trkpt lat="43.3926067" lon="11.8133317"><ele>246.0</ele><time>2026-05-02T10:46:29.533Z</time></trkpt><trkpt lat="43.39258" lon="11.8131967"><ele>246.0</ele><time>2026-05-02T10:46:31.539Z</time></trkpt><trkpt lat="43.39256" lon="11.81306"><ele>245.8</ele><time>2026-05-02T10:46:33.533Z</time></trkpt><trkpt lat="43.3925383" lon="11.8129233"><ele>245.60000000000002</ele><time>2026-05-02T10:46:35.532Z</time></trkpt><trkpt lat="43.3925117" lon="11.81278"><ele>245.4</ele><time>2026-05-02T10:46:37.532Z</time></trkpt><trkpt lat="43.392485" lon="11.8126383"><ele>245.2</ele><time>2026-05-02T10:46:39.534Z</time></trkpt><trkpt lat="43.3924567" lon="11.8124983"><ele>245.0</ele><time>2026-05-02T10:46:41.53Z</time></trkpt><trkpt lat="43.3924267" lon="11.8123517"><ele>245.0</ele><time>2026-05-02T10:46:43.531Z</time></trkpt><trkpt lat="43.3923933" lon="11.8122033"><ele>245.0</ele><time>2026-05-02T10:46:45.53Z</time></trkpt><trkpt lat="43.3923567" lon="11.8120467"><ele>245.0</ele><time>2026-05-02T10:46:47.531Z</time></trkpt><trkpt lat="43.3923217" lon="11.8118983"><ele>245.0</ele><time>2026-05-02T10:46:49.533Z</time></trkpt><trkpt lat="43.3922933" lon="11.8117533"><ele>245.0</ele><time>2026-05-02T10:46:51.533Z</time></trkpt><trkpt lat="43.3922667" lon="11.8116117"><ele>245.0</ele><time>2026-05-02T10:46:53.535Z</time></trkpt><trkpt lat="43.3922483" lon="11.8114717"><ele>245.0</ele><time>2026-05-02T10:46:55.533Z</time></trkpt><trkpt lat="43.392235" lon="11.8113367"><ele>245.0</ele><time>2026-05-02T10:46:57.53Z</time></trkpt><trkpt lat="43.39222" lon="11.8112067"><ele>245.0</ele><time>2026-05-02T10:46:59.532Z</time></trkpt><trkpt lat="43.3922033" lon="11.81108"><ele>245.0</ele><time>2026-05-02T10:47:01.534Z</time></trkpt><trkpt lat="43.392185" lon="11.81094"><ele>245.0</ele><time>2026-05-02T10:47:03.538Z</time></trkpt><trkpt lat="43.3921717" lon="11.810795"><ele>245.0</ele><time>2026-05-02T10:47:05.533Z</time></trkpt><trkpt lat="43.392155" lon="11.8106583"><ele>245.0</ele><time>2026-05-02T10:47:07.535Z</time></trkpt><trkpt lat="43.3921233" lon="11.81053"><ele>245.0</ele><time>2026-05-02T10:47:09.531Z</time></trkpt><trkpt lat="43.39209" lon="11.81042"><ele>245.0</ele><time>2026-05-02T10:47:11.536Z</time></trkpt><trkpt lat="43.3920517" lon="11.810295"><ele>245.0</ele><time>2026-05-02T10:47:13.533Z</time></trkpt><trkpt lat="43.39201" lon="11.8101583"><ele>245.0</ele><time>2026-05-02T10:47:15.535Z</time></trkpt><trkpt lat="43.3919667" lon="11.8100217"><ele>245.0</ele><time>2026-05-02T10:47:17.532Z</time></trkpt><trkpt lat="43.3919267" lon="11.809885"><ele>245.0</ele><time>2026-05-02T10:47:19.534Z</time></trkpt><trkpt lat="43.391885" lon="11.809745"><ele>245.0</ele><time>2026-05-02T10:47:21.534Z</time></trkpt><trkpt lat="43.391845" lon="11.8096083"><ele>245.0</ele><time>2026-05-02T10:47:23.534Z</time></trkpt><trkpt lat="43.391805" lon="11.8094683"><ele>245.0</ele><time>2026-05-02T10:47:25.533Z</time></trkpt><trkpt lat="43.391765" lon="11.8093217"><ele>245.0</ele><time>2026-05-02T10:47:27.538Z</time></trkpt><trkpt lat="43.3917233" lon="11.8091783"><ele>245.0</ele><time>2026-05-02T10:47:29.531Z</time></trkpt><trkpt lat="43.3916833" lon="11.8090417"><ele>245.0</ele><time>2026-05-02T10:47:31.534Z</time></trkpt><trkpt lat="43.391645" lon="11.8089067"><ele>245.0</ele><time>2026-05-02T10:47:33.532Z</time></trkpt><trkpt lat="43.3916067" lon="11.8087667"><ele>245.0</ele><time>2026-05-02T10:47:35.534Z</time></trkpt><trkpt lat="43.3915667" lon="11.8086233"><ele>245.0</ele><time>2026-05-02T10:47:37.531Z</time></trkpt><trkpt lat="43.3915267" lon="11.8084817"><ele>245.0</ele><time>2026-05-02T10:47:39.531Z</time></trkpt><trkpt lat="43.3914817" lon="11.80834"><ele>245.0</ele><time>2026-05-02T10:47:41.535Z</time></trkpt><trkpt lat="43.3914383" lon="11.808205"><ele>245.0</ele><time>2026-05-02T10:47:43.531Z</time></trkpt><trkpt lat="43.3914017" lon="11.8080667"><ele>245.0</ele><time>2026-05-02T10:47:45.531Z</time></trkpt><trkpt lat="43.3913667" lon="11.8079233"><ele>245.0</ele><time>2026-05-02T10:47:47.533Z</time></trkpt><trkpt lat="43.3913283" lon="11.80778"><ele>245.0</ele><time>2026-05-02T10:47:49.531Z</time></trkpt><trkpt lat="43.3912867" lon="11.807635"><ele>245.0</ele><time>2026-05-02T10:47:51.532Z</time></trkpt><trkpt lat="43.3912467" lon="11.80749"><ele>245.0</ele><time>2026-05-02T10:47:53.531Z</time></trkpt><trkpt lat="43.3912083" lon="11.8073517"><ele>245.0</ele><time>2026-05-02T10:47:55.53Z</time></trkpt><trkpt lat="43.3911683" lon="11.80722"><ele>245.0</ele><time>2026-05-02T10:47:57.531Z</time></trkpt><trkpt lat="43.3911283" lon="11.80709"><ele>245.0</ele><time>2026-05-02T10:47:59.532Z</time></trkpt><trkpt lat="43.39109" lon="11.8069567"><ele>245.4</ele><time>2026-05-02T10:48:01.531Z</time></trkpt><trkpt lat="43.391055" lon="11.8068183"><ele>245.8</ele><time>2026-05-02T10:48:03.533Z</time></trkpt><trkpt lat="43.3910167" lon="11.80669"><ele>246.2</ele><time>2026-05-02T10:48:05.534Z</time></trkpt><trkpt lat="43.3909833" lon="11.80656"><ele>246.6</ele><time>2026-05-02T10:48:07.531Z</time></trkpt><trkpt lat="43.39095" lon="11.8064333"><ele>247.0</ele><time>2026-05-02T10:48:09.539Z</time></trkpt><trkpt lat="43.39091" lon="11.8063183"><ele>247.0</ele><time>2026-05-02T10:48:11.531Z</time></trkpt><trkpt lat="43.390875" lon="11.8062"><ele>247.0</ele><time>2026-05-02T10:48:13.53Z</time></trkpt><trkpt lat="43.3908383" lon="11.8060733"><ele>247.0</ele><time>2026-05-02T10:48:15.531Z</time></trkpt><trkpt lat="43.3908" lon="11.80595"><ele>247.0</ele><time>2026-05-02T10:48:17.53Z</time></trkpt><trkpt lat="43.3907683" lon="11.8058217"><ele>247.0</ele><time>2026-05-02T10:48:19.534Z</time></trkpt><trkpt lat="43.390735" lon="11.8057017"><ele>246.99999999999997</ele><time>2026-05-02T10:48:21.534Z</time></trkpt><trkpt lat="43.3906967" lon="11.80559"><ele>247.0</ele><time>2026-05-02T10:48:23.539Z</time></trkpt><trkpt lat="43.39066" lon="11.8054883"><ele>247.0</ele><time>2026-05-02T10:48:25.532Z</time></trkpt><trkpt lat="43.3906467" lon="11.805395"><ele>247.0</ele><time>2026-05-02T10:48:27.531Z</time></trkpt><trkpt lat="43.3906817" lon="11.8053133"><ele>246.99999999999997</ele><time>2026-05-02T10:48:30.532Z</time></trkpt><trkpt lat="43.3907517" lon="11.8053033"><ele>247.0</ele><time>2026-05-02T10:48:33.532Z</time></trkpt><trkpt lat="43.3908467" lon="11.8053183"><ele>246.99999999999997</ele><time>2026-05-02T10:48:36.534Z</time></trkpt><trkpt lat="43.3909167" lon="11.8053383"><ele>247.0</ele><time>2026-05-02T10:48:38.534Z</time></trkpt><trkpt lat="43.391" lon="11.8053217"><ele>247.0</ele><time>2026-05-02T10:48:40.533Z</time></trkpt><trkpt lat="43.3910817" lon="11.8053067"><ele>247.0</ele><time>2026-05-02T10:48:42.533Z</time></trkpt><trkpt lat="43.39118" lon="11.8053267"><ele>246.99999999999997</ele><time>2026-05-02T10:48:44.533Z</time></trkpt><trkpt lat="43.3912817" lon="11.8053317"><ele>247.0</ele><time>2026-05-02T10:48:46.535Z</time></trkpt><trkpt lat="43.391385" lon="11.8053083"><ele>247.0</ele><time>2026-05-02T10:48:48.533Z</time></trkpt><trkpt lat="43.3914533" lon="11.8052217"><ele>247.0</ele><time>2026-05-02T10:48:50.534Z</time></trkpt><trkpt lat="43.3914767" lon="11.8050883"><ele>247.0</ele><time>2026-05-02T10:48:52.531Z</time></trkpt><trkpt lat="43.39146" lon="11.8049317"><ele>247.0</ele><time>2026-05-02T10:48:54.534Z</time></trkpt><trkpt lat="43.3914317" lon="11.8047733"><ele>247.0</ele><time>2026-05-02T10:48:56.535Z</time></trkpt><trkpt lat="43.3913917" lon="11.8046233"><ele>247.0</ele><time>2026-05-02T10:48:58.531Z</time></trkpt><trkpt lat="43.391355" lon="11.8044717"><ele>247.0</ele><time>2026-05-02T10:49:00.534Z</time></trkpt><trkpt lat="43.391315" lon="11.804325"><ele>247.0</ele><time>2026-05-02T10:49:02.537Z</time></trkpt><trkpt lat="43.3912767" lon="11.80418"><ele>247.0</ele><time>2026-05-02T10:49:04.537Z</time></trkpt><trkpt lat="43.39124" lon="11.8040283"><ele>247.0</ele><time>2026-05-02T10:49:06.538Z</time></trkpt><trkpt lat="43.391205" lon="11.8038767"><ele>247.0</ele><time>2026-05-02T10:49:08.532Z</time></trkpt><trkpt lat="43.3911683" lon="11.8037233"><ele>247.0</ele><time>2026-05-02T10:49:10.535Z</time></trkpt><trkpt lat="43.391135" lon="11.8035767"><ele>247.0</ele><time>2026-05-02T10:49:12.533Z</time></trkpt><trkpt lat="43.3911017" lon="11.8034267"><ele>247.0</ele><time>2026-05-02T10:49:14.532Z</time></trkpt><trkpt lat="43.3910683" lon="11.8032817"><ele>247.0</ele><time>2026-05-02T10:49:16.532Z</time></trkpt><trkpt lat="43.3910283" lon="11.803135"><ele>247.0</ele><time>2026-05-02T10:49:18.533Z</time></trkpt><trkpt lat="43.3909883" lon="11.8029883"><ele>247.0</ele><time>2026-05-02T10:49:20.539Z</time></trkpt><trkpt lat="43.3909417" lon="11.80284"><ele>247.0</ele><time>2026-05-02T10:49:22.533Z</time></trkpt><trkpt lat="43.3908917" lon="11.802695"><ele>247.0</ele><time>2026-05-02T10:49:24.533Z</time></trkpt><trkpt lat="43.3908383" lon="11.80255"><ele>247.0</ele><time>2026-05-02T10:49:26.536Z</time></trkpt><trkpt lat="43.39079" lon="11.8024133"><ele>247.0</ele><time>2026-05-02T10:49:28.536Z</time></trkpt><trkpt lat="43.39074" lon="11.802275"><ele>247.2</ele><time>2026-05-02T10:49:30.535Z</time></trkpt><trkpt lat="43.3906883" lon="11.8021367"><ele>247.39999999999998</ele><time>2026-05-02T10:49:32.535Z</time></trkpt><trkpt lat="43.390635" lon="11.8019983"><ele>247.60000000000002</ele><time>2026-05-02T10:49:34.536Z</time></trkpt><trkpt lat="43.39058" lon="11.8018667"><ele>247.8</ele><time>2026-05-02T10:49:36.531Z</time></trkpt><trkpt lat="43.39053" lon="11.8017467"><ele>248.0</ele><time>2026-05-02T10:49:38.535Z</time></trkpt><trkpt lat="43.390485" lon="11.8016217"><ele>248.0</ele><time>2026-05-02T10:49:40.532Z</time></trkpt><trkpt lat="43.3904433" lon="11.8014883"><ele>248.0</ele><time>2026-05-02T10:49:42.532Z</time></trkpt><trkpt lat="43.3904067" lon="11.801345"><ele>248.0</ele><time>2026-05-02T10:49:44.532Z</time></trkpt><trkpt lat="43.3903883" lon="11.80122"><ele>248.0</ele><time>2026-05-02T10:49:46.531Z</time></trkpt><trkpt lat="43.3903883" lon="11.8010917"><ele>248.0</ele><time>2026-05-02T10:49:48.532Z</time></trkpt><trkpt lat="43.3903867" lon="11.80095"><ele>248.2</ele><time>2026-05-02T10:49:50.533Z</time></trkpt><trkpt lat="43.3903933" lon="11.800805"><ele>248.4</ele><time>2026-05-02T10:49:52.534Z</time></trkpt><trkpt lat="43.390405" lon="11.8006617"><ele>248.59999999999997</ele><time>2026-05-02T10:49:54.537Z</time></trkpt><trkpt lat="43.3904183" lon="11.8005483"><ele>248.79999999999998</ele><time>2026-05-02T10:49:56.533Z</time></trkpt><trkpt lat="43.3904383" lon="11.8004367"><ele>249.0</ele><time>2026-05-02T10:49:58.537Z</time></trkpt><trkpt lat="43.3904533" lon="11.8003283"><ele>249.0</ele><time>2026-05-02T10:50:00.532Z</time></trkpt><trkpt lat="43.390465" lon="11.80022"><ele>248.99999999999997</ele><time>2026-05-02T10:50:02.535Z</time></trkpt><trkpt lat="43.3904633" lon="11.8001033"><ele>248.99999999999997</ele><time>2026-05-02T10:50:04.537Z</time></trkpt><trkpt lat="43.3904367" lon="11.7999867"><ele>249.0</ele><time>2026-05-02T10:50:06.534Z</time></trkpt><trkpt lat="43.3903817" lon="11.799865"><ele>249.0</ele><time>2026-05-02T10:50:08.536Z</time></trkpt><trkpt lat="43.3902767" lon="11.799715"><ele>249.25</ele><time>2026-05-02T10:50:11.533Z</time></trkpt><trkpt lat="43.39018" lon="11.7996533"><ele>249.5</ele><time>2026-05-02T10:50:13.533Z</time></trkpt><trkpt lat="43.39007" lon="11.7995983"><ele>249.75</ele><time>2026-05-02T10:50:15.532Z</time></trkpt><trkpt lat="43.3899567" lon="11.7995517"><ele>250.0</ele><time>2026-05-02T10:50:17.531Z</time></trkpt><trkpt lat="43.389845" lon="11.7995017"><ele>250.0</ele><time>2026-05-02T10:50:19.536Z</time></trkpt><trkpt lat="43.3897317" lon="11.7994467"><ele>250.0</ele><time>2026-05-02T10:50:21.532Z</time></trkpt><trkpt lat="43.3896283" lon="11.7993833"><ele>250.0</ele><time>2026-05-02T10:50:23.537Z</time></trkpt><trkpt lat="43.3895283" lon="11.799325"><ele>250.0</ele><time>2026-05-02T10:50:25.531Z</time></trkpt><trkpt lat="43.3894267" lon="11.7992633"><ele>249.6</ele><time>2026-05-02T10:50:27.536Z</time></trkpt><trkpt lat="43.3893133" lon="11.7992133"><ele>249.2</ele><time>2026-05-02T10:50:29.531Z</time></trkpt><trkpt lat="43.3891967" lon="11.7991717"><ele>248.8</ele><time>2026-05-02T10:50:31.536Z</time></trkpt><trkpt lat="43.3891333" lon="11.799155"><ele>248.4</ele><time>2026-05-02T10:50:32.535Z</time></trkpt><trkpt lat="43.3890083" lon="11.79913"><ele>248.0</ele><time>2026-05-02T10:50:34.532Z</time></trkpt><trkpt lat="43.388945" lon="11.799115"><ele>248.00000000000003</ele><time>2026-05-02T10:50:35.537Z</time></trkpt><trkpt lat="43.3888817" lon="11.799105"><ele>248.0</ele><time>2026-05-02T10:50:36.534Z</time></trkpt><trkpt lat="43.3888183" lon="11.7990967"><ele>248.0</ele><time>2026-05-02T10:50:37.534Z</time></trkpt><trkpt lat="43.3887517" lon="11.7990833"><ele>248.0</ele><time>2026-05-02T10:50:38.535Z</time></trkpt><trkpt lat="43.38863" lon="11.7990467"><ele>248.00000000000003</ele><time>2026-05-02T10:50:40.535Z</time></trkpt><trkpt lat="43.38857" lon="11.79902"><ele>248.0</ele><time>2026-05-02T10:50:41.533Z</time></trkpt><trkpt lat="43.3884633" lon="11.7989433"><ele>248.0</ele><time>2026-05-02T10:50:43.533Z</time></trkpt><trkpt lat="43.3883867" lon="11.7988183"><ele>248.0</ele><time>2026-05-02T10:50:45.532Z</time></trkpt><trkpt lat="43.3883517" lon="11.7986633"><ele>248.0</ele><time>2026-05-02T10:50:47.53Z</time></trkpt><trkpt lat="43.388345" lon="11.7985017"><ele>248.0</ele><time>2026-05-02T10:50:49.534Z</time></trkpt><trkpt lat="43.388345" lon="11.798335"><ele>248.4</ele><time>2026-05-02T10:50:51.532Z</time></trkpt><trkpt lat="43.388345" lon="11.7981783"><ele>248.8</ele><time>2026-05-02T10:50:53.535Z</time></trkpt><trkpt lat="43.3883467" lon="11.798025"><ele>249.2</ele><time>2026-05-02T10:50:55.533Z</time></trkpt><trkpt lat="43.38836" lon="11.7978767"><ele>249.6</ele><time>2026-05-02T10:50:57.534Z</time></trkpt><trkpt lat="43.3883767" lon="11.79773"><ele>250.0</ele><time>2026-05-02T10:50:59.532Z</time></trkpt><trkpt lat="43.3884033" lon="11.7975867"><ele>250.0</ele><time>2026-05-02T10:51:01.533Z</time></trkpt><trkpt lat="43.3884417" lon="11.79745"><ele>250.0</ele><time>2026-05-02T10:51:03.531Z</time></trkpt><trkpt lat="43.3884867" lon="11.7973217"><ele>250.0</ele><time>2026-05-02T10:51:05.531Z</time></trkpt><trkpt lat="43.3885317" lon="11.7972"><ele>250.0</ele><time>2026-05-02T10:51:07.532Z</time></trkpt><trkpt lat="43.3885567" lon="11.797065"><ele>250.0</ele><time>2026-05-02T10:51:09.535Z</time></trkpt><trkpt lat="43.3885533" lon="11.7969183"><ele>250.6</ele><time>2026-05-02T10:51:11.532Z</time></trkpt><trkpt lat="43.38853" lon="11.7967733"><ele>251.2</ele><time>2026-05-02T10:51:13.533Z</time></trkpt><trkpt lat="43.3885" lon="11.796635"><ele>251.8</ele><time>2026-05-02T10:51:15.531Z</time></trkpt><trkpt lat="43.3884633" lon="11.7965167"><ele>252.4</ele><time>2026-05-02T10:51:17.534Z</time></trkpt><trkpt lat="43.3884133" lon="11.7964183"><ele>253.0</ele><time>2026-05-02T10:51:19.534Z</time></trkpt><trkpt lat="43.38836" lon="11.79634"><ele>253.00000000000003</ele><time>2026-05-02T10:51:21.53Z</time></trkpt><trkpt lat="43.3883083" lon="11.79629"><ele>253.0</ele><time>2026-05-02T10:51:23.534Z</time></trkpt><trkpt lat="43.3882417" lon="11.7962517"><ele>253.00000000000003</ele><time>2026-05-02T10:51:25.532Z</time></trkpt><trkpt lat="43.3881717" lon="11.7962183"><ele>253.00000000000003</ele><time>2026-05-02T10:51:27.533Z</time></trkpt><trkpt lat="43.3881" lon="11.7961833"><ele>253.0</ele><time>2026-05-02T10:51:29.533Z</time></trkpt><trkpt lat="43.38803" lon="11.79615"><ele>253.00000000000003</ele><time>2026-05-02T10:51:31.534Z</time></trkpt><trkpt lat="43.3879667" lon="11.796125"><ele>253.00000000000003</ele><time>2026-05-02T10:51:33.534Z</time></trkpt><trkpt lat="43.3878833" lon="11.796085"><ele>253.71428571428575</ele><time>2026-05-02T10:51:36.533Z</time></trkpt><trkpt lat="43.3878233" lon="11.7960567"><ele>254.42857142857144</ele><time>2026-05-02T10:51:39.533Z</time></trkpt><trkpt lat="43.3877467" lon="11.7960133"><ele>255.14285714285714</ele><time>2026-05-02T10:51:43.532Z</time></trkpt><trkpt lat="43.38768" lon="11.7959733"><ele>255.85714285714286</ele><time>2026-05-02T10:51:46.534Z</time></trkpt><trkpt lat="43.3876217" lon="11.79593"><ele>256.57142857142856</ele><time>2026-05-02T10:51:49.532Z</time></trkpt><trkpt lat="43.3875617" lon="11.795875"><ele>257.2857142857143</ele><time>2026-05-02T10:51:52.534Z</time></trkpt><trkpt lat="43.3874983" lon="11.7958367"><ele>258.0</ele><time>2026-05-02T10:51:55.533Z</time></trkpt><trkpt lat="43.38743" lon="11.7957933"><ele>258.4285714285714</ele><time>2026-05-02T10:51:58.534Z</time></trkpt><trkpt lat="43.3873667" lon="11.7957467"><ele>258.85714285714283</ele><time>2026-05-02T10:52:01.533Z</time></trkpt><trkpt lat="43.3873" lon="11.7956767"><ele>259.2857142857143</ele><time>2026-05-02T10:52:04.531Z</time></trkpt><trkpt lat="43.3872483" lon="11.79562"><ele>259.71428571428567</ele><time>2026-05-02T10:52:06.533Z</time></trkpt><trkpt lat="43.387195" lon="11.7955567"><ele>260.1428571428571</ele><time>2026-05-02T10:52:08.532Z</time></trkpt><trkpt lat="43.3871533" lon="11.7954783"><ele>260.57142857142856</ele><time>2026-05-02T10:52:10.533Z</time></trkpt><trkpt lat="43.387115" lon="11.7953983"><ele>261.0</ele><time>2026-05-02T10:52:12.534Z</time></trkpt><trkpt lat="43.3870717" lon="11.7953283"><ele>261.0</ele><time>2026-05-02T10:52:14.534Z</time></trkpt><trkpt lat="43.387025" lon="11.79526"><ele>261.0</ele><time>2026-05-02T10:52:16.532Z</time></trkpt><trkpt lat="43.3869517" lon="11.79518"><ele>261.0</ele><time>2026-05-02T10:52:19.535Z</time></trkpt><trkpt lat="43.3868867" lon="11.79515"><ele>261.0</ele><time>2026-05-02T10:52:21.533Z</time></trkpt><trkpt lat="43.3868167" lon="11.7951217"><ele>261.0</ele><time>2026-05-02T10:52:23.533Z</time></trkpt><trkpt lat="43.3867467" lon="11.79506"><ele>261.0</ele><time>2026-05-02T10:52:25.533Z</time></trkpt><trkpt lat="43.3866817" lon="11.79497"><ele>261.6</ele><time>2026-05-02T10:52:27.535Z</time></trkpt><trkpt lat="43.3866233" lon="11.7948633"><ele>262.20000000000005</ele><time>2026-05-02T10:52:29.533Z</time></trkpt><trkpt lat="43.3865667" lon="11.7947483"><ele>262.79999999999995</ele><time>2026-05-02T10:52:31.535Z</time></trkpt><trkpt lat="43.3865033" lon="11.7946217"><ele>263.4</ele><time>2026-05-02T10:52:33.539Z</time></trkpt><trkpt lat="43.38644" lon="11.7945"><ele>264.0</ele><time>2026-05-02T10:52:35.534Z</time></trkpt><trkpt lat="43.386375" lon="11.79438"><ele>264.2</ele><time>2026-05-02T10:52:37.532Z</time></trkpt><trkpt lat="43.3863117" lon="11.7942617"><ele>264.4</ele><time>2026-05-02T10:52:39.533Z</time></trkpt><trkpt lat="43.386255" lon="11.7941433"><ele>264.6</ele><time>2026-05-02T10:52:41.537Z</time></trkpt><trkpt lat="43.3862" lon="11.7940317"><ele>264.8</ele><time>2026-05-02T10:52:43.532Z</time></trkpt><trkpt lat="43.3861467" lon="11.793935"><ele>265.0</ele><time>2026-05-02T10:52:45.533Z</time></trkpt><trkpt lat="43.3861" lon="11.793835"><ele>265.0</ele><time>2026-05-02T10:52:47.533Z</time></trkpt><trkpt lat="43.386055" lon="11.7937383"><ele>265.0</ele><time>2026-05-02T10:52:49.534Z</time></trkpt><trkpt lat="43.3860083" lon="11.79364"><ele>265.0</ele><time>2026-05-02T10:52:51.532Z</time></trkpt><trkpt lat="43.38596" lon="11.7935567"><ele>265.0</ele><time>2026-05-02T10:52:53.535Z</time></trkpt><trkpt lat="43.3859133" lon="11.7934667"><ele>265.0</ele><time>2026-05-02T10:52:55.533Z</time></trkpt><trkpt lat="43.3858667" lon="11.79337"><ele>265.0</ele><time>2026-05-02T10:52:57.536Z</time></trkpt><trkpt lat="43.3858233" lon="11.7932783"><ele>265.4</ele><time>2026-05-02T10:52:59.534Z</time></trkpt><trkpt lat="43.3857667" lon="11.7931867"><ele>265.8</ele><time>2026-05-02T10:53:01.532Z</time></trkpt><trkpt lat="43.3856967" lon="11.7931033"><ele>266.2</ele><time>2026-05-02T10:53:03.533Z</time></trkpt><trkpt lat="43.3856133" lon="11.7930333"><ele>266.6</ele><time>2026-05-02T10:53:05.535Z</time></trkpt><trkpt lat="43.3855217" lon="11.7929817"><ele>267.0</ele><time>2026-05-02T10:53:07.533Z</time></trkpt><trkpt lat="43.3854233" lon="11.7929367"><ele>267.0</ele><time>2026-05-02T10:53:09.532Z</time></trkpt><trkpt lat="43.3853333" lon="11.7928717"><ele>267.0</ele><time>2026-05-02T10:53:11.533Z</time></trkpt><trkpt lat="43.3852467" lon="11.7927917"><ele>267.0</ele><time>2026-05-02T10:53:13.533Z</time></trkpt><trkpt lat="43.3851817" lon="11.7927083"><ele>267.0</ele><time>2026-05-02T10:53:15.535Z</time></trkpt><trkpt lat="43.3851217" lon="11.7925767"><ele>267.0</ele><time>2026-05-02T10:53:17.534Z</time></trkpt><trkpt lat="43.3850633" lon="11.79241"><ele>266.3333333333333</ele><time>2026-05-02T10:53:19.538Z</time></trkpt><trkpt lat="43.385035" lon="11.7923067"><ele>265.6666666666667</ele><time>2026-05-02T10:53:20.537Z</time></trkpt><trkpt lat="43.3850083" lon="11.7922033"><ele>265.0</ele><time>2026-05-02T10:53:21.534Z</time></trkpt><trkpt lat="43.3849817" lon="11.792095"><ele>264.33333333333337</ele><time>2026-05-02T10:53:22.533Z</time></trkpt><trkpt lat="43.384955" lon="11.7919967"><ele>263.6666666666667</ele><time>2026-05-02T10:53:23.535Z</time></trkpt><trkpt lat="43.38494" lon="11.79191"><ele>263.0</ele><time>2026-05-02T10:53:24.535Z</time></trkpt><trkpt lat="43.3849167" lon="11.7918217"><ele>262.5</ele><time>2026-05-02T10:53:25.535Z</time></trkpt><trkpt lat="43.3848917" lon="11.7917367"><ele>262.0</ele><time>2026-05-02T10:53:26.535Z</time></trkpt><trkpt lat="43.3848683" lon="11.7916483"><ele>261.5</ele><time>2026-05-02T10:53:27.536Z</time></trkpt><trkpt lat="43.384845" lon="11.791555"><ele>261.0</ele><time>2026-05-02T10:53:28.532Z</time></trkpt><trkpt lat="43.3848083" lon="11.791405"><ele>260.5</ele><time>2026-05-02T10:53:30.537Z</time></trkpt><trkpt lat="43.3847733" lon="11.7912867"><ele>260.0</ele><time>2026-05-02T10:53:32.533Z</time></trkpt><trkpt lat="43.3847483" lon="11.7911933"><ele>260.00000000000006</ele><time>2026-05-02T10:53:34.531Z</time></trkpt><trkpt lat="43.3847217" lon="11.7911117"><ele>260.0</ele><time>2026-05-02T10:53:36.536Z</time></trkpt><trkpt lat="43.3846867" lon="11.7910167"><ele>260.0</ele><time>2026-05-02T10:53:38.534Z</time></trkpt><trkpt lat="43.3846533" lon="11.79092"><ele>260.0</ele><time>2026-05-02T10:53:40.535Z</time></trkpt><trkpt lat="43.3846217" lon="11.790825"><ele>260.0</ele><time>2026-05-02T10:53:42.531Z</time></trkpt><trkpt lat="43.3845867" lon="11.7907367"><ele>260.00000000000006</ele><time>2026-05-02T10:53:44.533Z</time></trkpt><trkpt lat="43.3845633" lon="11.7906433"><ele>260.0</ele><time>2026-05-02T10:53:46.534Z</time></trkpt><trkpt lat="43.384535" lon="11.79055"><ele>260.83333333333337</ele><time>2026-05-02T10:53:48.537Z</time></trkpt><trkpt lat="43.3845" lon="11.7904567"><ele>261.6666666666667</ele><time>2026-05-02T10:53:50.535Z</time></trkpt><trkpt lat="43.3844567" lon="11.7903567"><ele>262.5</ele><time>2026-05-02T10:53:52.533Z</time></trkpt><trkpt lat="43.3844167" lon="11.790245"><ele>263.3333333333333</ele><time>2026-05-02T10:53:54.537Z</time></trkpt><trkpt lat="43.38437" lon="11.7901267"><ele>264.16666666666663</ele><time>2026-05-02T10:53:56.533Z</time></trkpt><trkpt lat="43.3843117" lon="11.7900167"><ele>265.0</ele><time>2026-05-02T10:53:58.531Z</time></trkpt><trkpt lat="43.384245" lon="11.7899133"><ele>265.0</ele><time>2026-05-02T10:54:00.532Z</time></trkpt><trkpt lat="43.3841517" lon="11.7898317"><ele>265.0</ele><time>2026-05-02T10:54:02.531Z</time></trkpt><trkpt lat="43.3840417" lon="11.7897767"><ele>265.0</ele><time>2026-05-02T10:54:04.533Z</time></trkpt><trkpt lat="43.3839333" lon="11.7897467"><ele>265.0</ele><time>2026-05-02T10:54:06.536Z</time></trkpt><trkpt lat="43.383825" lon="11.7897217"><ele>265.0</ele><time>2026-05-02T10:54:08.535Z</time></trkpt><trkpt lat="43.3837117" lon="11.7896967"><ele>265.75</ele><time>2026-05-02T10:54:10.536Z</time></trkpt><trkpt lat="43.3835983" lon="11.78967"><ele>266.5</ele><time>2026-05-02T10:54:12.534Z</time></trkpt><trkpt lat="43.383485" lon="11.78964"><ele>267.25</ele><time>2026-05-02T10:54:14.533Z</time></trkpt><trkpt lat="43.3833767" lon="11.7895867"><ele>268.0</ele><time>2026-05-02T10:54:16.531Z</time></trkpt><trkpt lat="43.3832767" lon="11.7895133"><ele>268.0</ele><time>2026-05-02T10:54:18.534Z</time></trkpt><trkpt lat="43.3831933" lon="11.789415"><ele>268.0</ele><time>2026-05-02T10:54:20.535Z</time></trkpt><trkpt lat="43.38311" lon="11.789325"><ele>268.0</ele><time>2026-05-02T10:54:22.534Z</time></trkpt><trkpt lat="43.3830283" lon="11.7892433"><ele>268.0</ele><time>2026-05-02T10:54:24.534Z</time></trkpt><trkpt lat="43.382945" lon="11.7891733"><ele>268.0</ele><time>2026-05-02T10:54:26.533Z</time></trkpt><trkpt lat="43.38282" lon="11.78909"><ele>268.0</ele><time>2026-05-02T10:54:29.536Z</time></trkpt><trkpt lat="43.3827433" lon="11.7890433"><ele>268.0</ele><time>2026-05-02T10:54:31.534Z</time></trkpt><trkpt lat="43.3826817" lon="11.789"><ele>268.0</ele><time>2026-05-02T10:54:33.533Z</time></trkpt><trkpt lat="43.38262" lon="11.7889633"><ele>268.0</ele><time>2026-05-02T10:54:35.534Z</time></trkpt><trkpt lat="43.3825583" lon="11.7889233"><ele>268.0</ele><time>2026-05-02T10:54:37.533Z</time></trkpt><trkpt lat="43.3825" lon="11.7888767"><ele>268.0</ele><time>2026-05-02T10:54:39.532Z</time></trkpt><trkpt lat="43.3824333" lon="11.788825"><ele>268.0</ele><time>2026-05-02T10:54:41.531Z</time></trkpt><trkpt lat="43.38238" lon="11.7887583"><ele>268.0</ele><time>2026-05-02T10:54:43.536Z</time></trkpt><trkpt lat="43.38233" lon="11.78868"><ele>268.0</ele><time>2026-05-02T10:54:45.535Z</time></trkpt><trkpt lat="43.3822883" lon="11.788585"><ele>268.0</ele><time>2026-05-02T10:54:47.537Z</time></trkpt><trkpt lat="43.3822433" lon="11.788485"><ele>268.0</ele><time>2026-05-02T10:54:49.535Z</time></trkpt><trkpt lat="43.382205" lon="11.7883917"><ele>268.0</ele><time>2026-05-02T10:54:51.534Z</time></trkpt><trkpt lat="43.3821683" lon="11.7882933"><ele>268.0</ele><time>2026-05-02T10:54:53.533Z</time></trkpt><trkpt lat="43.3821217" lon="11.788205"><ele>268.14285714285717</ele><time>2026-05-02T10:54:55.534Z</time></trkpt><trkpt lat="43.38208" lon="11.7881167"><ele>268.2857142857143</ele><time>2026-05-02T10:54:57.535Z</time></trkpt><trkpt lat="43.38203" lon="11.7880317"><ele>268.42857142857144</ele><time>2026-05-02T10:54:59.535Z</time></trkpt><trkpt lat="43.38198" lon="11.7879533"><ele>268.57142857142856</ele><time>2026-05-02T10:55:01.533Z</time></trkpt><trkpt lat="43.3819317" lon="11.7878783"><ele>268.7142857142857</ele><time>2026-05-02T10:55:03.532Z</time></trkpt><trkpt lat="43.3818883" lon="11.7878083"><ele>268.8571428571429</ele><time>2026-05-02T10:55:05.535Z</time></trkpt><trkpt lat="43.3818383" lon="11.787735"><ele>269.0</ele><time>2026-05-02T10:55:07.535Z</time></trkpt><trkpt lat="43.3817933" lon="11.7876533"><ele>269.33333333333337</ele><time>2026-05-02T10:55:09.533Z</time></trkpt><trkpt lat="43.3817467" lon="11.7875683"><ele>269.6666666666667</ele><time>2026-05-02T10:55:11.534Z</time></trkpt><trkpt lat="43.3816933" lon="11.7874767"><ele>270.0</ele><time>2026-05-02T10:55:13.531Z</time></trkpt><trkpt lat="43.3816417" lon="11.7873767"><ele>270.3333333333333</ele><time>2026-05-02T10:55:15.534Z</time></trkpt><trkpt lat="43.38159" lon="11.7872783"><ele>270.66666666666663</ele><time>2026-05-02T10:55:17.531Z</time></trkpt><trkpt lat="43.3815367" lon="11.787185"><ele>271.0</ele><time>2026-05-02T10:55:19.531Z</time></trkpt><trkpt lat="43.3814817" lon="11.7870933"><ele>271.0</ele><time>2026-05-02T10:55:21.529Z</time></trkpt><trkpt lat="43.38143" lon="11.7870217"><ele>271.0</ele><time>2026-05-02T10:55:23.53Z</time></trkpt><trkpt lat="43.381375" lon="11.7869417"><ele>271.0</ele><time>2026-05-02T10:55:25.528Z</time></trkpt><trkpt lat="43.3813967" lon="11.7868367"><ele>271.0</ele><time>2026-05-02T10:55:29.536Z</time></trkpt><trkpt lat="43.3813617" lon="11.7867233"><ele>271.0</ele><time>2026-05-02T10:55:31.528Z</time></trkpt><trkpt lat="43.3813083" lon="11.7866083"><ele>271.0</ele><time>2026-05-02T10:55:33.535Z</time></trkpt><trkpt lat="43.38126" lon="11.7864967"><ele>271.16666666666663</ele><time>2026-05-02T10:55:35.528Z</time></trkpt><trkpt lat="43.3812217" lon="11.7863683"><ele>271.3333333333333</ele><time>2026-05-02T10:55:37.529Z</time></trkpt><trkpt lat="43.3811917" lon="11.7862433"><ele>271.5</ele><time>2026-05-02T10:55:39.53Z</time></trkpt><trkpt lat="43.3811583" lon="11.78613"><ele>271.6666666666667</ele><time>2026-05-02T10:55:41.529Z</time></trkpt><trkpt lat="43.381135" lon="11.7860233"><ele>271.83333333333337</ele><time>2026-05-02T10:55:43.529Z</time></trkpt><trkpt lat="43.3810983" lon="11.785925"><ele>272.0</ele><time>2026-05-02T10:55:45.531Z</time></trkpt><trkpt lat="43.3810583" lon="11.7858333"><ele>271.99999999999994</ele><time>2026-05-02T10:55:47.53Z</time></trkpt><trkpt lat="43.3810267" lon="11.7857483"><ele>272.0</ele><time>2026-05-02T10:55:49.53Z</time></trkpt><trkpt lat="43.38099" lon="11.7856667"><ele>272.0</ele><time>2026-05-02T10:55:51.53Z</time></trkpt><trkpt lat="43.3809583" lon="11.7855883"><ele>272.0</ele><time>2026-05-02T10:55:53.529Z</time></trkpt><trkpt lat="43.3809333" lon="11.7855067"><ele>272.0</ele><time>2026-05-02T10:55:55.531Z</time></trkpt><trkpt lat="43.380885" lon="11.7853917"><ele>271.99999999999994</ele><time>2026-05-02T10:55:58.531Z</time></trkpt><trkpt lat="43.3808483" lon="11.78531"><ele>272.0</ele><time>2026-05-02T10:56:00.532Z</time></trkpt><trkpt lat="43.3807733" lon="11.7852367"><ele>271.99999999999994</ele><time>2026-05-02T10:56:03.527Z</time></trkpt><trkpt lat="43.380705" lon="11.7852267"><ele>272.0</ele><time>2026-05-02T10:56:05.53Z</time></trkpt><trkpt lat="43.3806333" lon="11.7852383"><ele>272.0</ele><time>2026-05-02T10:56:07.528Z</time></trkpt><trkpt lat="43.3805683" lon="11.785245"><ele>272.0</ele><time>2026-05-02T10:56:09.533Z</time></trkpt><trkpt lat="43.3804967" lon="11.785255"><ele>272.0</ele><time>2026-05-02T10:56:11.53Z</time></trkpt><trkpt lat="43.38042" lon="11.7852733"><ele>271.99999999999994</ele><time>2026-05-02T10:56:13.53Z</time></trkpt><trkpt lat="43.3803417" lon="11.7852833"><ele>272.0</ele><time>2026-05-02T10:56:15.534Z</time></trkpt><trkpt lat="43.38027" lon="11.7852917"><ele>272.33333333333337</ele><time>2026-05-02T10:56:17.534Z</time></trkpt><trkpt lat="43.38018" lon="11.7852983"><ele>272.6666666666667</ele><time>2026-05-02T10:56:19.533Z</time></trkpt><trkpt lat="43.38009" lon="11.785305"><ele>273.0</ele><time>2026-05-02T10:56:21.533Z</time></trkpt><trkpt lat="43.3800017" lon="11.7853083"><ele>273.3333333333333</ele><time>2026-05-02T10:56:23.533Z</time></trkpt><trkpt lat="43.3799133" lon="11.7853183"><ele>273.66666666666663</ele><time>2026-05-02T10:56:25.531Z</time></trkpt><trkpt lat="43.379825" lon="11.78533"><ele>274.0</ele><time>2026-05-02T10:56:27.534Z</time></trkpt><trkpt lat="43.3797317" lon="11.785335"><ele>274.2</ele><time>2026-05-02T10:56:29.533Z</time></trkpt><trkpt lat="43.3796317" lon="11.7853433"><ele>274.4</ele><time>2026-05-02T10:56:31.531Z</time></trkpt><trkpt lat="43.3795383" lon="11.7853517"><ele>274.6</ele><time>2026-05-02T10:56:33.534Z</time></trkpt><trkpt lat="43.3794433" lon="11.785365"><ele>274.8</ele><time>2026-05-02T10:56:35.537Z</time></trkpt><trkpt lat="43.3793483" lon="11.7853717"><ele>275.0</ele><time>2026-05-02T10:56:37.537Z</time></trkpt><trkpt lat="43.3792533" lon="11.7853767"><ele>275.0</ele><time>2026-05-02T10:56:39.535Z</time></trkpt><trkpt lat="43.3791567" lon="11.78538"><ele>275.0</ele><time>2026-05-02T10:56:41.535Z</time></trkpt><trkpt lat="43.3790617" lon="11.785385"><ele>275.0</ele><time>2026-05-02T10:56:43.533Z</time></trkpt><trkpt lat="43.3789683" lon="11.7853917"><ele>275.0</ele><time>2026-05-02T10:56:45.53Z</time></trkpt><trkpt lat="43.3788733" lon="11.7853967"><ele>275.0</ele><time>2026-05-02T10:56:47.534Z</time></trkpt><trkpt lat="43.3787767" lon="11.785405"><ele>275.2</ele><time>2026-05-02T10:56:49.532Z</time></trkpt><trkpt lat="43.3786733" lon="11.7854083"><ele>275.4</ele><time>2026-05-02T10:56:51.534Z</time></trkpt><trkpt lat="43.3785683" lon="11.7854117"><ele>275.6</ele><time>2026-05-02T10:56:53.534Z</time></trkpt><trkpt lat="43.378465" lon="11.78542"><ele>275.8</ele><time>2026-05-02T10:56:55.537Z</time></trkpt><trkpt lat="43.378365" lon="11.785425"><ele>276.0</ele><time>2026-05-02T10:56:57.535Z</time></trkpt><trkpt lat="43.378265" lon="11.7854417"><ele>276.0</ele><time>2026-05-02T10:56:59.532Z</time></trkpt><trkpt lat="43.37817" lon="11.785455"><ele>276.0</ele><time>2026-05-02T10:57:01.532Z</time></trkpt><trkpt lat="43.37807" lon="11.7854633"><ele>276.0</ele><time>2026-05-02T10:57:03.535Z</time></trkpt><trkpt lat="43.3779717" lon="11.7854783"><ele>276.0</ele><time>2026-05-02T10:57:05.535Z</time></trkpt><trkpt lat="43.37788" lon="11.78551"><ele>276.0</ele><time>2026-05-02T10:57:07.532Z</time></trkpt><trkpt lat="43.3777867" lon="11.7855517"><ele>276.2</ele><time>2026-05-02T10:57:09.531Z</time></trkpt><trkpt lat="43.3776933" lon="11.785585"><ele>276.40000000000003</ele><time>2026-05-02T10:57:11.533Z</time></trkpt><trkpt lat="43.3775983" lon="11.7856133"><ele>276.6</ele><time>2026-05-02T10:57:13.533Z</time></trkpt><trkpt lat="43.3775033" lon="11.7856567"><ele>276.8</ele><time>2026-05-02T10:57:15.531Z</time></trkpt><trkpt lat="43.377405" lon="11.78569"><ele>277.0</ele><time>2026-05-02T10:57:17.534Z</time></trkpt><trkpt lat="43.3773067" lon="11.7857283"><ele>277.0</ele><time>2026-05-02T10:57:19.532Z</time></trkpt><trkpt lat="43.3772083" lon="11.7857567"><ele>277.0</ele><time>2026-05-02T10:57:21.532Z</time></trkpt><trkpt lat="43.377105" lon="11.7857817"><ele>277.0</ele><time>2026-05-02T10:57:23.532Z</time></trkpt><trkpt lat="43.3770117" lon="11.7857967"><ele>277.0</ele><time>2026-05-02T10:57:25.532Z</time></trkpt><trkpt lat="43.37693" lon="11.785805"><ele>277.0</ele><time>2026-05-02T10:57:27.532Z</time></trkpt><trkpt lat="43.376855" lon="11.7858117"><ele>277.16666666666663</ele><time>2026-05-02T10:57:29.533Z</time></trkpt><trkpt lat="43.3767917" lon="11.7858183"><ele>277.3333333333333</ele><time>2026-05-02T10:57:31.534Z</time></trkpt><trkpt lat="43.376715" lon="11.7858367"><ele>277.5</ele><time>2026-05-02T10:57:34.534Z</time></trkpt><trkpt lat="43.3766183" lon="11.78586"><ele>277.6666666666667</ele><time>2026-05-02T10:57:36.535Z</time></trkpt><trkpt lat="43.3765067" lon="11.7858833"><ele>277.83333333333337</ele><time>2026-05-02T10:57:38.535Z</time></trkpt><trkpt lat="43.376415" lon="11.785905"><ele>278.0</ele><time>2026-05-02T10:57:40.535Z</time></trkpt><trkpt lat="43.376335" lon="11.7859217"><ele>277.5</ele><time>2026-05-02T10:57:42.536Z</time></trkpt><trkpt lat="43.376265" lon="11.785925"><ele>277.0</ele><time>2026-05-02T10:57:44.535Z</time></trkpt><trkpt lat="43.3762017" lon="11.7859"><ele>276.5</ele><time>2026-05-02T10:57:46.532Z</time></trkpt><trkpt lat="43.3761067" lon="11.7859267"><ele>276.0</ele><time>2026-05-02T10:57:49.532Z</time></trkpt><trkpt lat="43.3760317" lon="11.7859833"><ele>275.5</ele><time>2026-05-02T10:57:51.532Z</time></trkpt><trkpt lat="43.3759617" lon="11.7860583"><ele>275.0</ele><time>2026-05-02T10:57:53.535Z</time></trkpt><trkpt lat="43.3758967" lon="11.786125"><ele>274.6</ele><time>2026-05-02T10:57:55.531Z</time></trkpt><trkpt lat="43.375815" lon="11.786195"><ele>274.2</ele><time>2026-05-02T10:57:57.534Z</time></trkpt><trkpt lat="43.3757467" lon="11.7862733"><ele>273.8</ele><time>2026-05-02T10:57:59.534Z</time></trkpt><trkpt lat="43.3756733" lon="11.7863583"><ele>273.4</ele><time>2026-05-02T10:58:01.533Z</time></trkpt><trkpt lat="43.37561" lon="11.78645"><ele>273.0</ele><time>2026-05-02T10:58:03.534Z</time></trkpt><trkpt lat="43.3755533" lon="11.7865467"><ele>273.3333333333333</ele><time>2026-05-02T10:58:05.532Z</time></trkpt><trkpt lat="43.3755117" lon="11.7866567"><ele>273.6666666666667</ele><time>2026-05-02T10:58:07.534Z</time></trkpt><trkpt lat="43.3755067" lon="11.7867717"><ele>274.0</ele><time>2026-05-02T10:58:09.532Z</time></trkpt><trkpt lat="43.3754933" lon="11.7869017"><ele>274.33333333333337</ele><time>2026-05-02T10:58:11.533Z</time></trkpt><trkpt lat="43.3754817" lon="11.78702"><ele>274.6666666666667</ele><time>2026-05-02T10:58:13.534Z</time></trkpt><trkpt lat="43.3754767" lon="11.7871467"><ele>275.0</ele><time>2026-05-02T10:58:15.533Z</time></trkpt><trkpt lat="43.3754683" lon="11.7872667"><ele>275.0</ele><time>2026-05-02T10:58:17.532Z</time></trkpt><trkpt lat="43.3754583" lon="11.78738"><ele>275.0</ele><time>2026-05-02T10:58:19.534Z</time></trkpt><trkpt lat="43.375455" lon="11.7874867"><ele>275.0</ele><time>2026-05-02T10:58:21.531Z</time></trkpt><trkpt lat="43.3755133" lon="11.7875583"><ele>275.0</ele><time>2026-05-02T10:58:25.534Z</time></trkpt><trkpt lat="43.3755683" lon="11.7876367"><ele>275.0</ele><time>2026-05-02T10:58:42.535Z</time></trkpt><trkpt lat="43.3756317" lon="11.7876817"><ele>275.0</ele><time>2026-05-02T10:58:45.532Z</time></trkpt><trkpt lat="43.3757033" lon="11.7877217"><ele>272.0</ele><time>2026-05-02T10:58:48.533Z</time></trkpt><trkpt lat="43.3757667" lon="11.787755"><ele>272.0</ele><time>2026-05-02T10:58:51.534Z</time></trkpt><trkpt lat="43.3758433" lon="11.7877667"><ele>272.0</ele><time>2026-05-02T10:58:55.533Z</time></trkpt><trkpt lat="43.3759167" lon="11.7877633"><ele>272.0</ele><time>2026-05-02T10:58:58.534Z</time></trkpt><trkpt lat="43.3759983" lon="11.787785"><ele>272.0</ele><time>2026-05-02T10:59:01.533Z</time></trkpt><trkpt lat="43.3760133" lon="11.78788"><ele>272.0</ele><time>2026-05-02T10:59:07.537Z</time></trkpt><trkpt lat="43.3759467" lon="11.7879183"><ele>272.0</ele><time>2026-05-02T10:59:12.537Z</time></trkpt></trkseg></trk></gpx>